<?xml version="1.0" encoding="UTF-8" standalone="no" ?>
<gpx xmlns="http://www.topografix.com/GPX/1/1" xmlns:xsi="http://www.w3.org/2001/XMLSchema-instance" xsi:schemaLocation="http://www.topografix.com/GPX/1/1 http://www.topografix.com/GPX/1/1/gpx.xsd" version="1.1" creator="VisuGPX - https://www.visugpx.com">
  <metadata>
    <name>Auxerre-Bessy-sur-Cure</name>
    <desc><![CDATA[Chemin de Compostelle 2014-1 : Auxerre-Bessy-sur-Cure]]></desc>
  </metadata>
  <trk>
    <name><![CDATA[10 Auxerre Bessy-Sur-Cure]]></name>
    <trkseg>
      <trkpt lat="47.79323" lon="3.57175">
        <ele>117</ele>
        <time>2014-04-16T06:30:51Z</time>
      </trkpt>
      <trkpt lat="47.79317" lon="3.57177">
        <ele>117</ele>
        <time>2014-04-16T06:31:03Z</time>
      </trkpt>
      <trkpt lat="47.79321" lon="3.57181">
        <ele>117</ele>
        <time>2014-04-16T06:31:09Z</time>
      </trkpt>
      <trkpt lat="47.79317" lon="3.57186">
        <ele>116</ele>
        <time>2014-04-16T06:31:16Z</time>
      </trkpt>
      <trkpt lat="47.7931" lon="3.57206">
        <ele>115</ele>
        <time>2014-04-16T06:31:26Z</time>
      </trkpt>
      <trkpt lat="47.7931" lon="3.57214">
        <ele>115</ele>
        <time>2014-04-16T06:31:30Z</time>
      </trkpt>
      <trkpt lat="47.79307" lon="3.5722">
        <ele>115</ele>
        <time>2014-04-16T06:31:35Z</time>
      </trkpt>
      <trkpt lat="47.79299" lon="3.57227">
        <ele>115</ele>
        <time>2014-04-16T06:31:42Z</time>
      </trkpt>
      <trkpt lat="47.79272" lon="3.57237">
        <ele>114</ele>
        <time>2014-04-16T06:32:04Z</time>
      </trkpt>
      <trkpt lat="47.79265" lon="3.57228">
        <ele>114</ele>
        <time>2014-04-16T06:32:09Z</time>
      </trkpt>
      <trkpt lat="47.79255" lon="3.57225">
        <ele>114</ele>
        <time>2014-04-16T06:32:15Z</time>
      </trkpt>
      <trkpt lat="47.79249" lon="3.57231">
        <ele>113</ele>
        <time>2014-04-16T06:32:23Z</time>
      </trkpt>
      <trkpt lat="47.79247" lon="3.57239">
        <ele>113</ele>
        <time>2014-04-16T06:32:27Z</time>
      </trkpt>
      <trkpt lat="47.79242" lon="3.57241">
        <ele>113</ele>
        <time>2014-04-16T06:32:31Z</time>
      </trkpt>
      <trkpt lat="47.79237" lon="3.57235">
        <ele>113</ele>
        <time>2014-04-16T06:32:34Z</time>
      </trkpt>
      <trkpt lat="47.79234" lon="3.57228">
        <ele>113</ele>
        <time>2014-04-16T06:32:36Z</time>
      </trkpt>
      <trkpt lat="47.7923" lon="3.57221">
        <ele>113</ele>
        <time>2014-04-16T06:32:39Z</time>
      </trkpt>
      <trkpt lat="47.79225" lon="3.57221">
        <ele>113</ele>
        <time>2014-04-16T06:32:44Z</time>
      </trkpt>
      <trkpt lat="47.79222" lon="3.57226">
        <ele>113</ele>
        <time>2014-04-16T06:32:48Z</time>
      </trkpt>
      <trkpt lat="47.79217" lon="3.5723">
        <ele>112</ele>
        <time>2014-04-16T06:32:52Z</time>
      </trkpt>
      <trkpt lat="47.79211" lon="3.57232">
        <ele>112</ele>
        <time>2014-04-16T06:32:56Z</time>
      </trkpt>
      <trkpt lat="47.79206" lon="3.57232">
        <ele>112</ele>
        <time>2014-04-16T06:33:03Z</time>
      </trkpt>
      <trkpt lat="47.792" lon="3.57236">
        <ele>112</ele>
        <time>2014-04-16T06:33:07Z</time>
      </trkpt>
      <trkpt lat="47.79194" lon="3.57239">
        <ele>111</ele>
        <time>2014-04-16T06:33:10Z</time>
      </trkpt>
      <trkpt lat="47.79188" lon="3.57238">
        <ele>111</ele>
        <time>2014-04-16T06:33:13Z</time>
      </trkpt>
      <trkpt lat="47.79183" lon="3.57241">
        <ele>111</ele>
        <time>2014-04-16T06:33:16Z</time>
      </trkpt>
      <trkpt lat="47.79178" lon="3.57245">
        <ele>110</ele>
        <time>2014-04-16T06:33:19Z</time>
      </trkpt>
      <trkpt lat="47.79174" lon="3.5725">
        <ele>110</ele>
        <time>2014-04-16T06:33:22Z</time>
      </trkpt>
      <trkpt lat="47.79171" lon="3.57255">
        <ele>109</ele>
        <time>2014-04-16T06:33:25Z</time>
      </trkpt>
      <trkpt lat="47.79167" lon="3.57257">
        <ele>109</ele>
        <time>2014-04-16T06:33:29Z</time>
      </trkpt>
      <trkpt lat="47.79161" lon="3.57261">
        <ele>108</ele>
        <time>2014-04-16T06:33:32Z</time>
      </trkpt>
      <trkpt lat="47.79157" lon="3.57266">
        <ele>108</ele>
        <time>2014-04-16T06:33:34Z</time>
      </trkpt>
      <trkpt lat="47.79153" lon="3.57271">
        <ele>107</ele>
        <time>2014-04-16T06:33:38Z</time>
      </trkpt>
      <trkpt lat="47.79149" lon="3.57275">
        <ele>107</ele>
        <time>2014-04-16T06:33:41Z</time>
      </trkpt>
      <trkpt lat="47.79145" lon="3.57274">
        <ele>107</ele>
        <time>2014-04-16T06:33:45Z</time>
      </trkpt>
      <trkpt lat="47.79141" lon="3.57269">
        <ele>107</ele>
        <time>2014-04-16T06:33:48Z</time>
      </trkpt>
      <trkpt lat="47.79137" lon="3.57263">
        <ele>107</ele>
        <time>2014-04-16T06:33:51Z</time>
      </trkpt>
      <trkpt lat="47.79132" lon="3.57265">
        <ele>107</ele>
        <time>2014-04-16T06:33:56Z</time>
      </trkpt>
      <trkpt lat="47.79129" lon="3.57269">
        <ele>107</ele>
        <time>2014-04-16T06:34:00Z</time>
      </trkpt>
      <trkpt lat="47.79124" lon="3.57273">
        <ele>107</ele>
        <time>2014-04-16T06:34:04Z</time>
      </trkpt>
      <trkpt lat="47.79119" lon="3.57276">
        <ele>106</ele>
        <time>2014-04-16T06:34:09Z</time>
      </trkpt>
      <trkpt lat="47.79116" lon="3.57281">
        <ele>106</ele>
        <time>2014-04-16T06:34:13Z</time>
      </trkpt>
      <trkpt lat="47.79111" lon="3.57286">
        <ele>106</ele>
        <time>2014-04-16T06:34:17Z</time>
      </trkpt>
      <trkpt lat="47.79106" lon="3.57288">
        <ele>106</ele>
        <time>2014-04-16T06:34:21Z</time>
      </trkpt>
      <trkpt lat="47.79102" lon="3.57292">
        <ele>106</ele>
        <time>2014-04-16T06:34:25Z</time>
      </trkpt>
      <trkpt lat="47.79097" lon="3.57295">
        <ele>106</ele>
        <time>2014-04-16T06:34:28Z</time>
      </trkpt>
      <trkpt lat="47.79092" lon="3.57297">
        <ele>106</ele>
        <time>2014-04-16T06:34:31Z</time>
      </trkpt>
      <trkpt lat="47.79088" lon="3.57301">
        <ele>106</ele>
        <time>2014-04-16T06:34:36Z</time>
      </trkpt>
      <trkpt lat="47.79085" lon="3.57306">
        <ele>106</ele>
        <time>2014-04-16T06:34:40Z</time>
      </trkpt>
      <trkpt lat="47.79079" lon="3.57309">
        <ele>106</ele>
        <time>2014-04-16T06:34:44Z</time>
      </trkpt>
      <trkpt lat="47.79074" lon="3.57312">
        <ele>106</ele>
        <time>2014-04-16T06:34:48Z</time>
      </trkpt>
      <trkpt lat="47.79069" lon="3.57315">
        <ele>106</ele>
        <time>2014-04-16T06:34:52Z</time>
      </trkpt>
      <trkpt lat="47.79067" lon="3.57315">
        <ele>106</ele>
        <time>2014-04-16T06:34:58Z</time>
      </trkpt>
      <trkpt lat="47.79061" lon="3.57317">
        <ele>106</ele>
        <time>2014-04-16T06:35:03Z</time>
      </trkpt>
      <trkpt lat="47.79057" lon="3.57315">
        <ele>106</ele>
        <time>2014-04-16T06:35:06Z</time>
      </trkpt>
      <trkpt lat="47.79052" lon="3.57315">
        <ele>106</ele>
        <time>2014-04-16T06:35:10Z</time>
      </trkpt>
      <trkpt lat="47.79047" lon="3.57318">
        <ele>106</ele>
        <time>2014-04-16T06:35:14Z</time>
      </trkpt>
      <trkpt lat="47.79042" lon="3.57321">
        <ele>106</ele>
        <time>2014-04-16T06:35:19Z</time>
      </trkpt>
      <trkpt lat="47.79038" lon="3.57323">
        <ele>106</ele>
        <time>2014-04-16T06:35:22Z</time>
      </trkpt>
      <trkpt lat="47.79033" lon="3.57328">
        <ele>106</ele>
        <time>2014-04-16T06:35:26Z</time>
      </trkpt>
      <trkpt lat="47.79029" lon="3.57332">
        <ele>106</ele>
        <time>2014-04-16T06:35:29Z</time>
      </trkpt>
      <trkpt lat="47.79025" lon="3.57336">
        <ele>106</ele>
        <time>2014-04-16T06:35:31Z</time>
      </trkpt>
      <trkpt lat="47.79021" lon="3.57342">
        <ele>106</ele>
        <time>2014-04-16T06:35:34Z</time>
      </trkpt>
      <trkpt lat="47.79017" lon="3.57347">
        <ele>106</ele>
        <time>2014-04-16T06:35:37Z</time>
      </trkpt>
      <trkpt lat="47.79013" lon="3.57351">
        <ele>106</ele>
        <time>2014-04-16T06:35:40Z</time>
      </trkpt>
      <trkpt lat="47.79008" lon="3.57354">
        <ele>106</ele>
        <time>2014-04-16T06:35:44Z</time>
      </trkpt>
      <trkpt lat="47.79002" lon="3.57356">
        <ele>106</ele>
        <time>2014-04-16T06:35:49Z</time>
      </trkpt>
      <trkpt lat="47.78998" lon="3.57359">
        <ele>107</ele>
        <time>2014-04-16T06:35:53Z</time>
      </trkpt>
      <trkpt lat="47.78993" lon="3.57362">
        <ele>107</ele>
        <time>2014-04-16T06:36:00Z</time>
      </trkpt>
      <trkpt lat="47.78989" lon="3.57364">
        <ele>107</ele>
        <time>2014-04-16T06:36:03Z</time>
      </trkpt>
      <trkpt lat="47.78983" lon="3.57368">
        <ele>107</ele>
        <time>2014-04-16T06:36:07Z</time>
      </trkpt>
      <trkpt lat="47.78978" lon="3.57372">
        <ele>107</ele>
        <time>2014-04-16T06:36:10Z</time>
      </trkpt>
      <trkpt lat="47.78974" lon="3.57375">
        <ele>107</ele>
        <time>2014-04-16T06:36:17Z</time>
      </trkpt>
      <trkpt lat="47.78968" lon="3.57377">
        <ele>107</ele>
        <time>2014-04-16T06:36:22Z</time>
      </trkpt>
      <trkpt lat="47.78963" lon="3.57382">
        <ele>107</ele>
        <time>2014-04-16T06:36:27Z</time>
      </trkpt>
      <trkpt lat="47.78959" lon="3.57382">
        <ele>107</ele>
        <time>2014-04-16T06:36:31Z</time>
      </trkpt>
      <trkpt lat="47.78954" lon="3.57383">
        <ele>107</ele>
        <time>2014-04-16T06:36:39Z</time>
      </trkpt>
      <trkpt lat="47.78949" lon="3.57387">
        <ele>107</ele>
        <time>2014-04-16T06:36:43Z</time>
      </trkpt>
      <trkpt lat="47.78944" lon="3.57392">
        <ele>107</ele>
        <time>2014-04-16T06:36:48Z</time>
      </trkpt>
      <trkpt lat="47.78939" lon="3.57394">
        <ele>107</ele>
        <time>2014-04-16T06:36:50Z</time>
      </trkpt>
      <trkpt lat="47.78935" lon="3.57396">
        <ele>107</ele>
        <time>2014-04-16T06:36:53Z</time>
      </trkpt>
      <trkpt lat="47.7893" lon="3.57397">
        <ele>107</ele>
        <time>2014-04-16T06:36:56Z</time>
      </trkpt>
      <trkpt lat="47.78926" lon="3.574">
        <ele>107</ele>
        <time>2014-04-16T06:36:59Z</time>
      </trkpt>
      <trkpt lat="47.7892" lon="3.57403">
        <ele>107</ele>
        <time>2014-04-16T06:37:03Z</time>
      </trkpt>
      <trkpt lat="47.78915" lon="3.57404">
        <ele>107</ele>
        <time>2014-04-16T06:37:07Z</time>
      </trkpt>
      <trkpt lat="47.7891" lon="3.57408">
        <ele>107</ele>
        <time>2014-04-16T06:37:12Z</time>
      </trkpt>
      <trkpt lat="47.78906" lon="3.57408">
        <ele>107</ele>
        <time>2014-04-16T06:37:18Z</time>
      </trkpt>
      <trkpt lat="47.78906" lon="3.57417">
        <ele>107</ele>
        <time>2014-04-16T06:37:24Z</time>
      </trkpt>
      <trkpt lat="47.78904" lon="3.57423">
        <ele>107</ele>
        <time>2014-04-16T06:37:27Z</time>
      </trkpt>
      <trkpt lat="47.78898" lon="3.57422">
        <ele>107</ele>
        <time>2014-04-16T06:37:31Z</time>
      </trkpt>
      <trkpt lat="47.78894" lon="3.57422">
        <ele>107</ele>
        <time>2014-04-16T06:37:34Z</time>
      </trkpt>
      <trkpt lat="47.78889" lon="3.57423">
        <ele>107</ele>
        <time>2014-04-16T06:37:37Z</time>
      </trkpt>
      <trkpt lat="47.78884" lon="3.57424">
        <ele>107</ele>
        <time>2014-04-16T06:37:40Z</time>
      </trkpt>
      <trkpt lat="47.78879" lon="3.57426">
        <ele>107</ele>
        <time>2014-04-16T06:37:43Z</time>
      </trkpt>
      <trkpt lat="47.78874" lon="3.57431">
        <ele>107</ele>
        <time>2014-04-16T06:37:46Z</time>
      </trkpt>
      <trkpt lat="47.78869" lon="3.57436">
        <ele>107</ele>
        <time>2014-04-16T06:37:49Z</time>
      </trkpt>
      <trkpt lat="47.78865" lon="3.57439">
        <ele>107</ele>
        <time>2014-04-16T06:37:55Z</time>
      </trkpt>
      <trkpt lat="47.7886" lon="3.5744">
        <ele>107</ele>
        <time>2014-04-16T06:38:00Z</time>
      </trkpt>
      <trkpt lat="47.78855" lon="3.57439">
        <ele>107</ele>
        <time>2014-04-16T06:38:06Z</time>
      </trkpt>
      <trkpt lat="47.7885" lon="3.5744">
        <ele>107</ele>
        <time>2014-04-16T06:38:09Z</time>
      </trkpt>
      <trkpt lat="47.78846" lon="3.57437">
        <ele>107</ele>
        <time>2014-04-16T06:38:18Z</time>
      </trkpt>
      <trkpt lat="47.78841" lon="3.57437">
        <ele>107</ele>
        <time>2014-04-16T06:38:22Z</time>
      </trkpt>
      <trkpt lat="47.78835" lon="3.57438">
        <ele>107</ele>
        <time>2014-04-16T06:38:26Z</time>
      </trkpt>
      <trkpt lat="47.78831" lon="3.57438">
        <ele>107</ele>
        <time>2014-04-16T06:38:29Z</time>
      </trkpt>
      <trkpt lat="47.78826" lon="3.57439">
        <ele>107</ele>
        <time>2014-04-16T06:38:32Z</time>
      </trkpt>
      <trkpt lat="47.78821" lon="3.5744">
        <ele>107</ele>
        <time>2014-04-16T06:38:36Z</time>
      </trkpt>
      <trkpt lat="47.78816" lon="3.57444">
        <ele>107</ele>
        <time>2014-04-16T06:38:41Z</time>
      </trkpt>
      <trkpt lat="47.78813" lon="3.57451">
        <ele>107</ele>
        <time>2014-04-16T06:38:46Z</time>
      </trkpt>
      <trkpt lat="47.78809" lon="3.57455">
        <ele>107</ele>
        <time>2014-04-16T06:38:50Z</time>
      </trkpt>
      <trkpt lat="47.78803" lon="3.57456">
        <ele>107</ele>
        <time>2014-04-16T06:38:54Z</time>
      </trkpt>
      <trkpt lat="47.78798" lon="3.57458">
        <ele>107</ele>
        <time>2014-04-16T06:38:58Z</time>
      </trkpt>
      <trkpt lat="47.78794" lon="3.57462">
        <ele>107</ele>
        <time>2014-04-16T06:39:02Z</time>
      </trkpt>
      <trkpt lat="47.78789" lon="3.57463">
        <ele>107</ele>
        <time>2014-04-16T06:39:07Z</time>
      </trkpt>
      <trkpt lat="47.78784" lon="3.57465">
        <ele>107</ele>
        <time>2014-04-16T06:39:11Z</time>
      </trkpt>
      <trkpt lat="47.78779" lon="3.57468">
        <ele>107</ele>
        <time>2014-04-16T06:39:15Z</time>
      </trkpt>
      <trkpt lat="47.78775" lon="3.57472">
        <ele>107</ele>
        <time>2014-04-16T06:39:19Z</time>
      </trkpt>
      <trkpt lat="47.78771" lon="3.57475">
        <ele>107</ele>
        <time>2014-04-16T06:39:24Z</time>
      </trkpt>
      <trkpt lat="47.78766" lon="3.57478">
        <ele>107</ele>
        <time>2014-04-16T06:39:28Z</time>
      </trkpt>
      <trkpt lat="47.78761" lon="3.57476">
        <ele>107</ele>
        <time>2014-04-16T06:39:32Z</time>
      </trkpt>
      <trkpt lat="47.78756" lon="3.57475">
        <ele>107</ele>
        <time>2014-04-16T06:39:36Z</time>
      </trkpt>
      <trkpt lat="47.78752" lon="3.57479">
        <ele>107</ele>
        <time>2014-04-16T06:39:40Z</time>
      </trkpt>
      <trkpt lat="47.78748" lon="3.57483">
        <ele>109</ele>
        <time>2014-04-16T06:39:44Z</time>
      </trkpt>
      <trkpt lat="47.78743" lon="3.57486">
        <ele>109</ele>
        <time>2014-04-16T06:39:48Z</time>
      </trkpt>
      <trkpt lat="47.78739" lon="3.5749">
        <ele>109</ele>
        <time>2014-04-16T06:39:52Z</time>
      </trkpt>
      <trkpt lat="47.78734" lon="3.57495">
        <ele>109</ele>
        <time>2014-04-16T06:39:56Z</time>
      </trkpt>
      <trkpt lat="47.78729" lon="3.57496">
        <ele>109</ele>
        <time>2014-04-16T06:40:00Z</time>
      </trkpt>
      <trkpt lat="47.78725" lon="3.57497">
        <ele>109</ele>
        <time>2014-04-16T06:40:06Z</time>
      </trkpt>
      <trkpt lat="47.7872" lon="3.57498">
        <ele>110</ele>
        <time>2014-04-16T06:40:12Z</time>
      </trkpt>
      <trkpt lat="47.78715" lon="3.575">
        <ele>110</ele>
        <time>2014-04-16T06:40:17Z</time>
      </trkpt>
      <trkpt lat="47.78709" lon="3.575">
        <ele>110</ele>
        <time>2014-04-16T06:40:21Z</time>
      </trkpt>
      <trkpt lat="47.78704" lon="3.57501">
        <ele>110</ele>
        <time>2014-04-16T06:40:25Z</time>
      </trkpt>
      <trkpt lat="47.78699" lon="3.57504">
        <ele>110</ele>
        <time>2014-04-16T06:40:29Z</time>
      </trkpt>
      <trkpt lat="47.78689" lon="3.57508">
        <ele>111</ele>
        <time>2014-04-16T06:40:36Z</time>
      </trkpt>
      <trkpt lat="47.7868" lon="3.57507">
        <ele>112</ele>
        <time>2014-04-16T06:40:47Z</time>
      </trkpt>
      <trkpt lat="47.78671" lon="3.57511">
        <ele>112</ele>
        <time>2014-04-16T06:40:52Z</time>
      </trkpt>
      <trkpt lat="47.78662" lon="3.5751">
        <ele>115</ele>
        <time>2014-04-16T06:40:58Z</time>
      </trkpt>
      <trkpt lat="47.78653" lon="3.57512">
        <ele>116</ele>
        <time>2014-04-16T06:41:03Z</time>
      </trkpt>
      <trkpt lat="47.78646" lon="3.57521">
        <ele>116</ele>
        <time>2014-04-16T06:41:17Z</time>
      </trkpt>
      <trkpt lat="47.78646" lon="3.57534">
        <ele>116</ele>
        <time>2014-04-16T06:41:25Z</time>
      </trkpt>
      <trkpt lat="47.7864" lon="3.57542">
        <ele>116</ele>
        <time>2014-04-16T06:41:33Z</time>
      </trkpt>
      <trkpt lat="47.78634" lon="3.5754">
        <ele>116</ele>
        <time>2014-04-16T06:41:36Z</time>
      </trkpt>
      <trkpt lat="47.78629" lon="3.5754">
        <ele>117</ele>
        <time>2014-04-16T06:41:41Z</time>
      </trkpt>
      <trkpt lat="47.78619" lon="3.57544">
        <ele>117</ele>
        <time>2014-04-16T06:41:54Z</time>
      </trkpt>
      <trkpt lat="47.78609" lon="3.57547">
        <ele>118</ele>
        <time>2014-04-16T06:41:59Z</time>
      </trkpt>
      <trkpt lat="47.78599" lon="3.5755">
        <ele>118</ele>
        <time>2014-04-16T06:42:04Z</time>
      </trkpt>
      <trkpt lat="47.78589" lon="3.57553">
        <ele>119</ele>
        <time>2014-04-16T06:42:08Z</time>
      </trkpt>
      <trkpt lat="47.78586" lon="3.57563">
        <ele>119</ele>
        <time>2014-04-16T06:42:20Z</time>
      </trkpt>
      <trkpt lat="47.78581" lon="3.57564">
        <ele>123</ele>
        <time>2014-04-16T06:42:24Z</time>
      </trkpt>
      <trkpt lat="47.78576" lon="3.57566">
        <ele>123</ele>
        <time>2014-04-16T06:42:27Z</time>
      </trkpt>
      <trkpt lat="47.78571" lon="3.57568">
        <ele>123</ele>
        <time>2014-04-16T06:42:32Z</time>
      </trkpt>
      <trkpt lat="47.78565" lon="3.57567">
        <ele>124</ele>
        <time>2014-04-16T06:42:35Z</time>
      </trkpt>
      <trkpt lat="47.7856" lon="3.57565">
        <ele>124</ele>
        <time>2014-04-16T06:42:38Z</time>
      </trkpt>
      <trkpt lat="47.78554" lon="3.57562">
        <ele>125</ele>
        <time>2014-04-16T06:42:42Z</time>
      </trkpt>
      <trkpt lat="47.7855" lon="3.57563">
        <ele>125</ele>
        <time>2014-04-16T06:42:48Z</time>
      </trkpt>
      <trkpt lat="47.78541" lon="3.57571">
        <ele>125</ele>
        <time>2014-04-16T06:42:54Z</time>
      </trkpt>
      <trkpt lat="47.78536" lon="3.57573">
        <ele>126</ele>
        <time>2014-04-16T06:42:57Z</time>
      </trkpt>
      <trkpt lat="47.78531" lon="3.57574">
        <ele>126</ele>
        <time>2014-04-16T06:43:00Z</time>
      </trkpt>
      <trkpt lat="47.78526" lon="3.57575">
        <ele>126</ele>
        <time>2014-04-16T06:43:04Z</time>
      </trkpt>
      <trkpt lat="47.78521" lon="3.57573">
        <ele>126</ele>
        <time>2014-04-16T06:43:06Z</time>
      </trkpt>
      <trkpt lat="47.78519" lon="3.5757">
        <ele>126</ele>
        <time>2014-04-16T06:43:14Z</time>
      </trkpt>
      <trkpt lat="47.78514" lon="3.5757">
        <ele>127</ele>
        <time>2014-04-16T06:43:20Z</time>
      </trkpt>
      <trkpt lat="47.78509" lon="3.57567">
        <ele>127</ele>
        <time>2014-04-16T06:43:23Z</time>
      </trkpt>
      <trkpt lat="47.78503" lon="3.57567">
        <ele>127</ele>
        <time>2014-04-16T06:43:28Z</time>
      </trkpt>
      <trkpt lat="47.78498" lon="3.57567">
        <ele>129</ele>
        <time>2014-04-16T06:43:30Z</time>
      </trkpt>
      <trkpt lat="47.78494" lon="3.57569">
        <ele>129</ele>
        <time>2014-04-16T06:43:34Z</time>
      </trkpt>
      <trkpt lat="47.78489" lon="3.57569">
        <ele>129</ele>
        <time>2014-04-16T06:43:40Z</time>
      </trkpt>
      <trkpt lat="47.78483" lon="3.57567">
        <ele>129</ele>
        <time>2014-04-16T06:43:43Z</time>
      </trkpt>
      <trkpt lat="47.78478" lon="3.57568">
        <ele>130</ele>
        <time>2014-04-16T06:43:46Z</time>
      </trkpt>
      <trkpt lat="47.78472" lon="3.57567">
        <ele>130</ele>
        <time>2014-04-16T06:43:51Z</time>
      </trkpt>
      <trkpt lat="47.78468" lon="3.57566">
        <ele>130</ele>
        <time>2014-04-16T06:43:55Z</time>
      </trkpt>
      <trkpt lat="47.78463" lon="3.57567">
        <ele>130</ele>
        <time>2014-04-16T06:43:59Z</time>
      </trkpt>
      <trkpt lat="47.78458" lon="3.57567">
        <ele>130</ele>
        <time>2014-04-16T06:44:04Z</time>
      </trkpt>
      <trkpt lat="47.78453" lon="3.57566">
        <ele>130</ele>
        <time>2014-04-16T06:44:06Z</time>
      </trkpt>
      <trkpt lat="47.78448" lon="3.57565">
        <ele>130</ele>
        <time>2014-04-16T06:44:11Z</time>
      </trkpt>
      <trkpt lat="47.78442" lon="3.57564">
        <ele>130</ele>
        <time>2014-04-16T06:44:14Z</time>
      </trkpt>
      <trkpt lat="47.78437" lon="3.57563">
        <ele>130</ele>
        <time>2014-04-16T06:44:18Z</time>
      </trkpt>
      <trkpt lat="47.78432" lon="3.57563">
        <ele>131</ele>
        <time>2014-04-16T06:44:22Z</time>
      </trkpt>
      <trkpt lat="47.78435" lon="3.57566">
        <ele>130</ele>
        <time>2014-04-16T06:44:45Z</time>
      </trkpt>
      <trkpt lat="47.78434" lon="3.57574">
        <ele>131</ele>
        <time>2014-04-16T06:44:49Z</time>
      </trkpt>
      <trkpt lat="47.78429" lon="3.57576">
        <ele>131</ele>
        <time>2014-04-16T06:44:54Z</time>
      </trkpt>
      <trkpt lat="47.78424" lon="3.57575">
        <ele>131</ele>
        <time>2014-04-16T06:44:57Z</time>
      </trkpt>
      <trkpt lat="47.7842" lon="3.57573">
        <ele>131</ele>
        <time>2014-04-16T06:45:01Z</time>
      </trkpt>
      <trkpt lat="47.78415" lon="3.57571">
        <ele>132</ele>
        <time>2014-04-16T06:45:06Z</time>
      </trkpt>
      <trkpt lat="47.7841" lon="3.57569">
        <ele>133</ele>
        <time>2014-04-16T06:45:12Z</time>
      </trkpt>
      <trkpt lat="47.78405" lon="3.57567">
        <ele>133</ele>
        <time>2014-04-16T06:45:17Z</time>
      </trkpt>
      <trkpt lat="47.78399" lon="3.57565">
        <ele>133</ele>
        <time>2014-04-16T06:45:21Z</time>
      </trkpt>
      <trkpt lat="47.78394" lon="3.57563">
        <ele>134</ele>
        <time>2014-04-16T06:45:25Z</time>
      </trkpt>
      <trkpt lat="47.7839" lon="3.57562">
        <ele>134</ele>
        <time>2014-04-16T06:45:29Z</time>
      </trkpt>
      <trkpt lat="47.78384" lon="3.57561">
        <ele>134</ele>
        <time>2014-04-16T06:45:33Z</time>
      </trkpt>
      <trkpt lat="47.7838" lon="3.57559">
        <ele>134</ele>
        <time>2014-04-16T06:45:36Z</time>
      </trkpt>
      <trkpt lat="47.78375" lon="3.5756">
        <ele>135</ele>
        <time>2014-04-16T06:45:39Z</time>
      </trkpt>
      <trkpt lat="47.7837" lon="3.57558">
        <ele>135</ele>
        <time>2014-04-16T06:45:44Z</time>
      </trkpt>
      <trkpt lat="47.78366" lon="3.57555">
        <ele>135</ele>
        <time>2014-04-16T06:45:48Z</time>
      </trkpt>
      <trkpt lat="47.78361" lon="3.57554">
        <ele>135</ele>
        <time>2014-04-16T06:45:52Z</time>
      </trkpt>
      <trkpt lat="47.78356" lon="3.57555">
        <ele>136</ele>
        <time>2014-04-16T06:45:56Z</time>
      </trkpt>
      <trkpt lat="47.78351" lon="3.57561">
        <ele>136</ele>
        <time>2014-04-16T06:46:00Z</time>
      </trkpt>
      <trkpt lat="47.78346" lon="3.57563">
        <ele>136</ele>
        <time>2014-04-16T06:46:04Z</time>
      </trkpt>
      <trkpt lat="47.7834" lon="3.57566">
        <ele>136</ele>
        <time>2014-04-16T06:46:08Z</time>
      </trkpt>
      <trkpt lat="47.78336" lon="3.57569">
        <ele>137</ele>
        <time>2014-04-16T06:46:11Z</time>
      </trkpt>
      <trkpt lat="47.78335" lon="3.57576">
        <ele>137</ele>
        <time>2014-04-16T06:46:15Z</time>
      </trkpt>
      <trkpt lat="47.78336" lon="3.57583">
        <ele>138</ele>
        <time>2014-04-16T06:46:18Z</time>
      </trkpt>
      <trkpt lat="47.78335" lon="3.5759">
        <ele>137</ele>
        <time>2014-04-16T06:46:22Z</time>
      </trkpt>
      <trkpt lat="47.78334" lon="3.57598">
        <ele>136</ele>
        <time>2014-04-16T06:46:26Z</time>
      </trkpt>
      <trkpt lat="47.78332" lon="3.57604">
        <ele>139</ele>
        <time>2014-04-16T06:46:32Z</time>
      </trkpt>
      <trkpt lat="47.78329" lon="3.57611">
        <ele>139</ele>
        <time>2014-04-16T06:46:36Z</time>
      </trkpt>
      <trkpt lat="47.78326" lon="3.57617">
        <ele>139</ele>
        <time>2014-04-16T06:46:40Z</time>
      </trkpt>
      <trkpt lat="47.78323" lon="3.57623">
        <ele>139</ele>
        <time>2014-04-16T06:46:44Z</time>
      </trkpt>
      <trkpt lat="47.78319" lon="3.57628">
        <ele>139</ele>
        <time>2014-04-16T06:46:47Z</time>
      </trkpt>
      <trkpt lat="47.78316" lon="3.57632">
        <ele>139</ele>
        <time>2014-04-16T06:46:50Z</time>
      </trkpt>
      <trkpt lat="47.78312" lon="3.57636">
        <ele>139</ele>
        <time>2014-04-16T06:46:54Z</time>
      </trkpt>
      <trkpt lat="47.78308" lon="3.57639">
        <ele>139</ele>
        <time>2014-04-16T06:46:57Z</time>
      </trkpt>
      <trkpt lat="47.78302" lon="3.57641">
        <ele>139</ele>
        <time>2014-04-16T06:47:01Z</time>
      </trkpt>
      <trkpt lat="47.78297" lon="3.57642">
        <ele>139</ele>
        <time>2014-04-16T06:47:05Z</time>
      </trkpt>
      <trkpt lat="47.78292" lon="3.57645">
        <ele>139</ele>
        <time>2014-04-16T06:47:09Z</time>
      </trkpt>
      <trkpt lat="47.78287" lon="3.57646">
        <ele>140</ele>
        <time>2014-04-16T06:47:13Z</time>
      </trkpt>
      <trkpt lat="47.78282" lon="3.57646">
        <ele>140</ele>
        <time>2014-04-16T06:47:17Z</time>
      </trkpt>
      <trkpt lat="47.78277" lon="3.57646">
        <ele>140</ele>
        <time>2014-04-16T06:47:21Z</time>
      </trkpt>
      <trkpt lat="47.78272" lon="3.57648">
        <ele>140</ele>
        <time>2014-04-16T06:47:25Z</time>
      </trkpt>
      <trkpt lat="47.78267" lon="3.57651">
        <ele>140</ele>
        <time>2014-04-16T06:47:29Z</time>
      </trkpt>
      <trkpt lat="47.78263" lon="3.57656">
        <ele>140</ele>
        <time>2014-04-16T06:47:33Z</time>
      </trkpt>
      <trkpt lat="47.78258" lon="3.57661">
        <ele>140</ele>
        <time>2014-04-16T06:47:39Z</time>
      </trkpt>
      <trkpt lat="47.78254" lon="3.57664">
        <ele>141</ele>
        <time>2014-04-16T06:47:44Z</time>
      </trkpt>
      <trkpt lat="47.7825" lon="3.57669">
        <ele>141</ele>
        <time>2014-04-16T06:47:49Z</time>
      </trkpt>
      <trkpt lat="47.78246" lon="3.57672">
        <ele>141</ele>
        <time>2014-04-16T06:47:53Z</time>
      </trkpt>
      <trkpt lat="47.78242" lon="3.57676">
        <ele>141</ele>
        <time>2014-04-16T06:47:56Z</time>
      </trkpt>
      <trkpt lat="47.78237" lon="3.5768">
        <ele>141</ele>
        <time>2014-04-16T06:48:00Z</time>
      </trkpt>
      <trkpt lat="47.78233" lon="3.57683">
        <ele>141</ele>
        <time>2014-04-16T06:48:04Z</time>
      </trkpt>
      <trkpt lat="47.78228" lon="3.57687">
        <ele>142</ele>
        <time>2014-04-16T06:48:06Z</time>
      </trkpt>
      <trkpt lat="47.78224" lon="3.57691">
        <ele>142</ele>
        <time>2014-04-16T06:48:09Z</time>
      </trkpt>
      <trkpt lat="47.7822" lon="3.57696">
        <ele>142</ele>
        <time>2014-04-16T06:48:14Z</time>
      </trkpt>
      <trkpt lat="47.78217" lon="3.57702">
        <ele>142</ele>
        <time>2014-04-16T06:48:20Z</time>
      </trkpt>
      <trkpt lat="47.78213" lon="3.57705">
        <ele>142</ele>
        <time>2014-04-16T06:48:23Z</time>
      </trkpt>
      <trkpt lat="47.78208" lon="3.57707">
        <ele>142</ele>
        <time>2014-04-16T06:48:27Z</time>
      </trkpt>
      <trkpt lat="47.78203" lon="3.57709">
        <ele>142</ele>
        <time>2014-04-16T06:48:31Z</time>
      </trkpt>
      <trkpt lat="47.78199" lon="3.57713">
        <ele>142</ele>
        <time>2014-04-16T06:48:35Z</time>
      </trkpt>
      <trkpt lat="47.78194" lon="3.57716">
        <ele>142</ele>
        <time>2014-04-16T06:48:40Z</time>
      </trkpt>
      <trkpt lat="47.78189" lon="3.5772">
        <ele>142</ele>
        <time>2014-04-16T06:48:43Z</time>
      </trkpt>
      <trkpt lat="47.78184" lon="3.57723">
        <ele>142</ele>
        <time>2014-04-16T06:48:48Z</time>
      </trkpt>
      <trkpt lat="47.78179" lon="3.57726">
        <ele>142</ele>
        <time>2014-04-16T06:48:52Z</time>
      </trkpt>
      <trkpt lat="47.78173" lon="3.57729">
        <ele>142</ele>
        <time>2014-04-16T06:48:56Z</time>
      </trkpt>
      <trkpt lat="47.78168" lon="3.57731">
        <ele>142</ele>
        <time>2014-04-16T06:49:01Z</time>
      </trkpt>
      <trkpt lat="47.78164" lon="3.57736">
        <ele>144</ele>
        <time>2014-04-16T06:49:05Z</time>
      </trkpt>
      <trkpt lat="47.7816" lon="3.57739">
        <ele>144</ele>
        <time>2014-04-16T06:49:10Z</time>
      </trkpt>
      <trkpt lat="47.78155" lon="3.57742">
        <ele>144</ele>
        <time>2014-04-16T06:49:14Z</time>
      </trkpt>
      <trkpt lat="47.78149" lon="3.57744">
        <ele>144</ele>
        <time>2014-04-16T06:49:18Z</time>
      </trkpt>
      <trkpt lat="47.78144" lon="3.57747">
        <ele>144</ele>
        <time>2014-04-16T06:49:22Z</time>
      </trkpt>
      <trkpt lat="47.7814" lon="3.5775">
        <ele>144</ele>
        <time>2014-04-16T06:49:25Z</time>
      </trkpt>
      <trkpt lat="47.78135" lon="3.57752">
        <ele>144</ele>
        <time>2014-04-16T06:49:28Z</time>
      </trkpt>
      <trkpt lat="47.7813" lon="3.57754">
        <ele>144</ele>
        <time>2014-04-16T06:49:34Z</time>
      </trkpt>
      <trkpt lat="47.78125" lon="3.57756">
        <ele>144</ele>
        <time>2014-04-16T06:49:38Z</time>
      </trkpt>
      <trkpt lat="47.78121" lon="3.57759">
        <ele>145</ele>
        <time>2014-04-16T06:49:41Z</time>
      </trkpt>
      <trkpt lat="47.78116" lon="3.57761">
        <ele>145</ele>
        <time>2014-04-16T06:49:44Z</time>
      </trkpt>
      <trkpt lat="47.78112" lon="3.57765">
        <ele>145</ele>
        <time>2014-04-16T06:49:49Z</time>
      </trkpt>
      <trkpt lat="47.78108" lon="3.57769">
        <ele>145</ele>
        <time>2014-04-16T06:49:53Z</time>
      </trkpt>
      <trkpt lat="47.78104" lon="3.57773">
        <ele>145</ele>
        <time>2014-04-16T06:49:58Z</time>
      </trkpt>
      <trkpt lat="47.78098" lon="3.57777">
        <ele>145</ele>
        <time>2014-04-16T06:50:03Z</time>
      </trkpt>
      <trkpt lat="47.78093" lon="3.57779">
        <ele>145</ele>
        <time>2014-04-16T06:50:07Z</time>
      </trkpt>
      <trkpt lat="47.78088" lon="3.57779">
        <ele>145</ele>
        <time>2014-04-16T06:50:14Z</time>
      </trkpt>
      <trkpt lat="47.78083" lon="3.57782">
        <ele>148</ele>
        <time>2014-04-16T06:50:18Z</time>
      </trkpt>
      <trkpt lat="47.78079" lon="3.57787">
        <ele>148</ele>
        <time>2014-04-16T06:50:21Z</time>
      </trkpt>
      <trkpt lat="47.78076" lon="3.57791">
        <ele>148</ele>
        <time>2014-04-16T06:50:24Z</time>
      </trkpt>
      <trkpt lat="47.78071" lon="3.57793">
        <ele>148</ele>
        <time>2014-04-16T06:50:27Z</time>
      </trkpt>
      <trkpt lat="47.78067" lon="3.57796">
        <ele>148</ele>
        <time>2014-04-16T06:50:30Z</time>
      </trkpt>
      <trkpt lat="47.78062" lon="3.57797">
        <ele>148</ele>
        <time>2014-04-16T06:50:36Z</time>
      </trkpt>
      <trkpt lat="47.78058" lon="3.57799">
        <ele>148</ele>
        <time>2014-04-16T06:50:40Z</time>
      </trkpt>
      <trkpt lat="47.78053" lon="3.57802">
        <ele>148</ele>
        <time>2014-04-16T06:50:43Z</time>
      </trkpt>
      <trkpt lat="47.78048" lon="3.57806">
        <ele>148</ele>
        <time>2014-04-16T06:50:47Z</time>
      </trkpt>
      <trkpt lat="47.78042" lon="3.57808">
        <ele>149</ele>
        <time>2014-04-16T06:50:52Z</time>
      </trkpt>
      <trkpt lat="47.78038" lon="3.57812">
        <ele>149</ele>
        <time>2014-04-16T06:50:57Z</time>
      </trkpt>
      <trkpt lat="47.78033" lon="3.57817">
        <ele>149</ele>
        <time>2014-04-16T06:51:02Z</time>
      </trkpt>
      <trkpt lat="47.7803" lon="3.57821">
        <ele>149</ele>
        <time>2014-04-16T06:51:06Z</time>
      </trkpt>
      <trkpt lat="47.78026" lon="3.57824">
        <ele>150</ele>
        <time>2014-04-16T06:51:10Z</time>
      </trkpt>
      <trkpt lat="47.78022" lon="3.57829">
        <ele>150</ele>
        <time>2014-04-16T06:51:14Z</time>
      </trkpt>
      <trkpt lat="47.78016" lon="3.57833">
        <ele>150</ele>
        <time>2014-04-16T06:51:18Z</time>
      </trkpt>
      <trkpt lat="47.78012" lon="3.57837">
        <ele>151</ele>
        <time>2014-04-16T06:51:21Z</time>
      </trkpt>
      <trkpt lat="47.78007" lon="3.57842">
        <ele>151</ele>
        <time>2014-04-16T06:51:26Z</time>
      </trkpt>
      <trkpt lat="47.78002" lon="3.57846">
        <ele>151</ele>
        <time>2014-04-16T06:51:29Z</time>
      </trkpt>
      <trkpt lat="47.77998" lon="3.57848">
        <ele>152</ele>
        <time>2014-04-16T06:51:34Z</time>
      </trkpt>
      <trkpt lat="47.77992" lon="3.5785">
        <ele>152</ele>
        <time>2014-04-16T06:51:42Z</time>
      </trkpt>
      <trkpt lat="47.77988" lon="3.57853">
        <ele>152</ele>
        <time>2014-04-16T06:51:45Z</time>
      </trkpt>
      <trkpt lat="47.77983" lon="3.57856">
        <ele>152</ele>
        <time>2014-04-16T06:51:49Z</time>
      </trkpt>
      <trkpt lat="47.77978" lon="3.57858">
        <ele>152</ele>
        <time>2014-04-16T06:51:51Z</time>
      </trkpt>
      <trkpt lat="47.77975" lon="3.57864">
        <ele>152</ele>
        <time>2014-04-16T06:51:55Z</time>
      </trkpt>
      <trkpt lat="47.77971" lon="3.57869">
        <ele>152</ele>
        <time>2014-04-16T06:51:59Z</time>
      </trkpt>
      <trkpt lat="47.77969" lon="3.57876">
        <ele>152</ele>
        <time>2014-04-16T06:52:03Z</time>
      </trkpt>
      <trkpt lat="47.77965" lon="3.57881">
        <ele>152</ele>
        <time>2014-04-16T06:52:08Z</time>
      </trkpt>
      <trkpt lat="47.77959" lon="3.57881">
        <ele>152</ele>
        <time>2014-04-16T06:52:12Z</time>
      </trkpt>
      <trkpt lat="47.77954" lon="3.57879">
        <ele>152</ele>
        <time>2014-04-16T06:52:16Z</time>
      </trkpt>
      <trkpt lat="47.7795" lon="3.57877">
        <ele>152</ele>
        <time>2014-04-16T06:52:18Z</time>
      </trkpt>
      <trkpt lat="47.77946" lon="3.57873">
        <ele>152</ele>
        <time>2014-04-16T06:52:21Z</time>
      </trkpt>
      <trkpt lat="47.77942" lon="3.57867">
        <ele>152</ele>
        <time>2014-04-16T06:52:26Z</time>
      </trkpt>
      <trkpt lat="47.77941" lon="3.57861">
        <ele>152</ele>
        <time>2014-04-16T06:52:30Z</time>
      </trkpt>
      <trkpt lat="47.77939" lon="3.57854">
        <ele>152</ele>
        <time>2014-04-16T06:52:34Z</time>
      </trkpt>
      <trkpt lat="47.77935" lon="3.57848">
        <ele>152</ele>
        <time>2014-04-16T06:52:42Z</time>
      </trkpt>
      <trkpt lat="47.77931" lon="3.57844">
        <ele>152</ele>
        <time>2014-04-16T06:52:45Z</time>
      </trkpt>
      <trkpt lat="47.77928" lon="3.57836">
        <ele>153</ele>
        <time>2014-04-16T06:52:49Z</time>
      </trkpt>
      <trkpt lat="47.77928" lon="3.57831">
        <ele>152</ele>
        <time>2014-04-16T06:55:35Z</time>
      </trkpt>
      <trkpt lat="47.77923" lon="3.57828">
        <ele>153</ele>
        <time>2014-04-16T06:55:40Z</time>
      </trkpt>
      <trkpt lat="47.77918" lon="3.57825">
        <ele>153</ele>
        <time>2014-04-16T06:55:44Z</time>
      </trkpt>
      <trkpt lat="47.77914" lon="3.57821">
        <ele>154</ele>
        <time>2014-04-16T06:55:47Z</time>
      </trkpt>
      <trkpt lat="47.77911" lon="3.57816">
        <ele>154</ele>
        <time>2014-04-16T06:55:51Z</time>
      </trkpt>
      <trkpt lat="47.7791" lon="3.57809">
        <ele>154</ele>
        <time>2014-04-16T06:55:56Z</time>
      </trkpt>
      <trkpt lat="47.7791" lon="3.57801">
        <ele>154</ele>
        <time>2014-04-16T06:56:00Z</time>
      </trkpt>
      <trkpt lat="47.77909" lon="3.57793">
        <ele>154</ele>
        <time>2014-04-16T06:56:04Z</time>
      </trkpt>
      <trkpt lat="47.77906" lon="3.57786">
        <ele>154</ele>
        <time>2014-04-16T06:56:08Z</time>
      </trkpt>
      <trkpt lat="47.77901" lon="3.57784">
        <ele>154</ele>
        <time>2014-04-16T06:56:12Z</time>
      </trkpt>
      <trkpt lat="47.77897" lon="3.57781">
        <ele>154</ele>
        <time>2014-04-16T06:56:16Z</time>
      </trkpt>
      <trkpt lat="47.77892" lon="3.57775">
        <ele>154</ele>
        <time>2014-04-16T06:56:21Z</time>
      </trkpt>
      <trkpt lat="47.77883" lon="3.57755">
        <ele>154</ele>
        <time>2014-04-16T06:56:33Z</time>
      </trkpt>
      <trkpt lat="47.77882" lon="3.57748">
        <ele>153</ele>
        <time>2014-04-16T06:56:39Z</time>
      </trkpt>
      <trkpt lat="47.77878" lon="3.57744">
        <ele>154</ele>
        <time>2014-04-16T06:56:44Z</time>
      </trkpt>
      <trkpt lat="47.77875" lon="3.57737">
        <ele>154</ele>
        <time>2014-04-16T06:56:48Z</time>
      </trkpt>
      <trkpt lat="47.77875" lon="3.57729">
        <ele>154</ele>
        <time>2014-04-16T06:56:53Z</time>
      </trkpt>
      <trkpt lat="47.77873" lon="3.57722">
        <ele>154</ele>
        <time>2014-04-16T06:56:57Z</time>
      </trkpt>
      <trkpt lat="47.77872" lon="3.57714">
        <ele>154</ele>
        <time>2014-04-16T06:57:02Z</time>
      </trkpt>
      <trkpt lat="47.7787" lon="3.57708">
        <ele>154</ele>
        <time>2014-04-16T06:57:07Z</time>
      </trkpt>
      <trkpt lat="47.77866" lon="3.57706">
        <ele>154</ele>
        <time>2014-04-16T06:57:11Z</time>
      </trkpt>
      <trkpt lat="47.77861" lon="3.57707">
        <ele>154</ele>
        <time>2014-04-16T06:57:15Z</time>
      </trkpt>
      <trkpt lat="47.77862" lon="3.57712">
        <ele>154</ele>
        <time>2014-04-16T06:57:31Z</time>
      </trkpt>
      <trkpt lat="47.77865" lon="3.57705">
        <ele>154</ele>
        <time>2014-04-16T06:57:36Z</time>
      </trkpt>
      <trkpt lat="47.77869" lon="3.577">
        <ele>154</ele>
        <time>2014-04-16T06:57:39Z</time>
      </trkpt>
      <trkpt lat="47.77873" lon="3.57697">
        <ele>153</ele>
        <time>2014-04-16T06:57:43Z</time>
      </trkpt>
      <trkpt lat="47.77876" lon="3.57691">
        <ele>153</ele>
        <time>2014-04-16T06:57:48Z</time>
      </trkpt>
      <trkpt lat="47.77875" lon="3.57683">
        <ele>153</ele>
        <time>2014-04-16T06:57:51Z</time>
      </trkpt>
      <trkpt lat="47.77877" lon="3.57677">
        <ele>153</ele>
        <time>2014-04-16T06:57:56Z</time>
      </trkpt>
      <trkpt lat="47.77876" lon="3.57669">
        <ele>153</ele>
        <time>2014-04-16T06:58:01Z</time>
      </trkpt>
      <trkpt lat="47.77874" lon="3.57661">
        <ele>152</ele>
        <time>2014-04-16T06:58:05Z</time>
      </trkpt>
      <trkpt lat="47.7787" lon="3.57656">
        <ele>152</ele>
        <time>2014-04-16T06:58:09Z</time>
      </trkpt>
      <trkpt lat="47.77866" lon="3.57656">
        <ele>153</ele>
        <time>2014-04-16T06:58:12Z</time>
      </trkpt>
      <trkpt lat="47.77861" lon="3.57657">
        <ele>153</ele>
        <time>2014-04-16T06:58:15Z</time>
      </trkpt>
      <trkpt lat="47.77856" lon="3.57658">
        <ele>153</ele>
        <time>2014-04-16T06:58:18Z</time>
      </trkpt>
      <trkpt lat="47.77852" lon="3.5766">
        <ele>153</ele>
        <time>2014-04-16T06:58:21Z</time>
      </trkpt>
      <trkpt lat="47.77846" lon="3.5766">
        <ele>153</ele>
        <time>2014-04-16T06:58:25Z</time>
      </trkpt>
      <trkpt lat="47.77841" lon="3.57662">
        <ele>153</ele>
        <time>2014-04-16T06:58:30Z</time>
      </trkpt>
      <trkpt lat="47.77838" lon="3.5767">
        <ele>154</ele>
        <time>2014-04-16T06:58:34Z</time>
      </trkpt>
      <trkpt lat="47.77835" lon="3.57676">
        <ele>154</ele>
        <time>2014-04-16T06:58:38Z</time>
      </trkpt>
      <trkpt lat="47.7783" lon="3.57676">
        <ele>155</ele>
        <time>2014-04-16T06:58:42Z</time>
      </trkpt>
      <trkpt lat="47.77825" lon="3.57676">
        <ele>155</ele>
        <time>2014-04-16T06:58:46Z</time>
      </trkpt>
      <trkpt lat="47.7782" lon="3.57678">
        <ele>156</ele>
        <time>2014-04-16T06:58:51Z</time>
      </trkpt>
      <trkpt lat="47.77815" lon="3.57679">
        <ele>156</ele>
        <time>2014-04-16T06:58:57Z</time>
      </trkpt>
      <trkpt lat="47.7781" lon="3.57681">
        <ele>156</ele>
        <time>2014-04-16T06:59:00Z</time>
      </trkpt>
      <trkpt lat="47.77805" lon="3.57685">
        <ele>157</ele>
        <time>2014-04-16T06:59:04Z</time>
      </trkpt>
      <trkpt lat="47.77801" lon="3.5769">
        <ele>157</ele>
        <time>2014-04-16T06:59:08Z</time>
      </trkpt>
      <trkpt lat="47.77796" lon="3.57692">
        <ele>157</ele>
        <time>2014-04-16T06:59:12Z</time>
      </trkpt>
      <trkpt lat="47.77792" lon="3.57694">
        <ele>157</ele>
        <time>2014-04-16T06:59:16Z</time>
      </trkpt>
      <trkpt lat="47.77787" lon="3.57697">
        <ele>158</ele>
        <time>2014-04-16T06:59:20Z</time>
      </trkpt>
      <trkpt lat="47.77782" lon="3.57698">
        <ele>158</ele>
        <time>2014-04-16T06:59:23Z</time>
      </trkpt>
      <trkpt lat="47.7778" lon="3.57694">
        <ele>158</ele>
        <time>2014-04-16T06:59:35Z</time>
      </trkpt>
      <trkpt lat="47.77776" lon="3.57696">
        <ele>158</ele>
        <time>2014-04-16T06:59:49Z</time>
      </trkpt>
      <trkpt lat="47.77771" lon="3.57701">
        <ele>158</ele>
        <time>2014-04-16T06:59:53Z</time>
      </trkpt>
      <trkpt lat="47.77766" lon="3.57705">
        <ele>158</ele>
        <time>2014-04-16T06:59:57Z</time>
      </trkpt>
      <trkpt lat="47.77762" lon="3.57707">
        <ele>158</ele>
        <time>2014-04-16T07:00:01Z</time>
      </trkpt>
      <trkpt lat="47.77756" lon="3.57711">
        <ele>158</ele>
        <time>2014-04-16T07:00:06Z</time>
      </trkpt>
      <trkpt lat="47.77751" lon="3.57714">
        <ele>159</ele>
        <time>2014-04-16T07:00:11Z</time>
      </trkpt>
      <trkpt lat="47.77746" lon="3.57717">
        <ele>161</ele>
        <time>2014-04-16T07:00:16Z</time>
      </trkpt>
      <trkpt lat="47.7774" lon="3.57719">
        <ele>161</ele>
        <time>2014-04-16T07:00:19Z</time>
      </trkpt>
      <trkpt lat="47.77736" lon="3.57723">
        <ele>162</ele>
        <time>2014-04-16T07:00:23Z</time>
      </trkpt>
      <trkpt lat="47.7773" lon="3.57726">
        <ele>162</ele>
        <time>2014-04-16T07:00:27Z</time>
      </trkpt>
      <trkpt lat="47.77726" lon="3.57728">
        <ele>162</ele>
        <time>2014-04-16T07:00:31Z</time>
      </trkpt>
      <trkpt lat="47.77721" lon="3.57732">
        <ele>162</ele>
        <time>2014-04-16T07:00:37Z</time>
      </trkpt>
      <trkpt lat="47.77716" lon="3.57733">
        <ele>162</ele>
        <time>2014-04-16T07:00:42Z</time>
      </trkpt>
      <trkpt lat="47.77711" lon="3.57734">
        <ele>162</ele>
        <time>2014-04-16T07:00:47Z</time>
      </trkpt>
      <trkpt lat="47.77707" lon="3.57737">
        <ele>162</ele>
        <time>2014-04-16T07:00:51Z</time>
      </trkpt>
      <trkpt lat="47.77702" lon="3.57738">
        <ele>163</ele>
        <time>2014-04-16T07:00:56Z</time>
      </trkpt>
      <trkpt lat="47.77697" lon="3.5774">
        <ele>163</ele>
        <time>2014-04-16T07:01:02Z</time>
      </trkpt>
      <trkpt lat="47.77692" lon="3.5774">
        <ele>163</ele>
        <time>2014-04-16T07:01:06Z</time>
      </trkpt>
      <trkpt lat="47.77687" lon="3.57745">
        <ele>163</ele>
        <time>2014-04-16T07:01:10Z</time>
      </trkpt>
      <trkpt lat="47.77683" lon="3.57749">
        <ele>164</ele>
        <time>2014-04-16T07:01:13Z</time>
      </trkpt>
      <trkpt lat="47.77678" lon="3.57751">
        <ele>165</ele>
        <time>2014-04-16T07:01:17Z</time>
      </trkpt>
      <trkpt lat="47.77674" lon="3.57755">
        <ele>165</ele>
        <time>2014-04-16T07:01:21Z</time>
      </trkpt>
      <trkpt lat="47.7767" lon="3.57757">
        <ele>165</ele>
        <time>2014-04-16T07:01:27Z</time>
      </trkpt>
      <trkpt lat="47.77666" lon="3.57761">
        <ele>166</ele>
        <time>2014-04-16T07:01:33Z</time>
      </trkpt>
      <trkpt lat="47.7766" lon="3.57761">
        <ele>166</ele>
        <time>2014-04-16T07:01:39Z</time>
      </trkpt>
      <trkpt lat="47.77655" lon="3.57762">
        <ele>167</ele>
        <time>2014-04-16T07:01:42Z</time>
      </trkpt>
      <trkpt lat="47.7765" lon="3.57765">
        <ele>167</ele>
        <time>2014-04-16T07:01:45Z</time>
      </trkpt>
      <trkpt lat="47.77646" lon="3.57768">
        <ele>167</ele>
        <time>2014-04-16T07:01:48Z</time>
      </trkpt>
      <trkpt lat="47.77641" lon="3.57772">
        <ele>168</ele>
        <time>2014-04-16T07:01:53Z</time>
      </trkpt>
      <trkpt lat="47.77634" lon="3.57775">
        <ele>168</ele>
        <time>2014-04-16T07:01:56Z</time>
      </trkpt>
      <trkpt lat="47.77629" lon="3.57778">
        <ele>168</ele>
        <time>2014-04-16T07:01:59Z</time>
      </trkpt>
      <trkpt lat="47.77624" lon="3.5778">
        <ele>168</ele>
        <time>2014-04-16T07:02:05Z</time>
      </trkpt>
      <trkpt lat="47.77619" lon="3.57778">
        <ele>168</ele>
        <time>2014-04-16T07:02:12Z</time>
      </trkpt>
      <trkpt lat="47.77609" lon="3.57786">
        <ele>169</ele>
        <time>2014-04-16T07:02:20Z</time>
      </trkpt>
      <trkpt lat="47.776" lon="3.57794">
        <ele>169</ele>
        <time>2014-04-16T07:02:25Z</time>
      </trkpt>
      <trkpt lat="47.77592" lon="3.578">
        <ele>169</ele>
        <time>2014-04-16T07:02:31Z</time>
      </trkpt>
      <trkpt lat="47.77583" lon="3.57803">
        <ele>172</ele>
        <time>2014-04-16T07:02:41Z</time>
      </trkpt>
      <trkpt lat="47.77575" lon="3.57809">
        <ele>172</ele>
        <time>2014-04-16T07:02:48Z</time>
      </trkpt>
      <trkpt lat="47.77565" lon="3.57816">
        <ele>172</ele>
        <time>2014-04-16T07:02:58Z</time>
      </trkpt>
      <trkpt lat="47.77556" lon="3.57821">
        <ele>172</ele>
        <time>2014-04-16T07:03:07Z</time>
      </trkpt>
      <trkpt lat="47.77547" lon="3.57827">
        <ele>172</ele>
        <time>2014-04-16T07:03:18Z</time>
      </trkpt>
      <trkpt lat="47.77541" lon="3.57832">
        <ele>173</ele>
        <time>2014-04-16T07:03:25Z</time>
      </trkpt>
      <trkpt lat="47.77537" lon="3.57837">
        <ele>173</ele>
        <time>2014-04-16T07:03:28Z</time>
      </trkpt>
      <trkpt lat="47.77533" lon="3.57841">
        <ele>173</ele>
        <time>2014-04-16T07:03:32Z</time>
      </trkpt>
      <trkpt lat="47.77528" lon="3.57844">
        <ele>173</ele>
        <time>2014-04-16T07:03:36Z</time>
      </trkpt>
      <trkpt lat="47.77524" lon="3.57846">
        <ele>173</ele>
        <time>2014-04-16T07:03:40Z</time>
      </trkpt>
      <trkpt lat="47.77515" lon="3.5785">
        <ele>174</ele>
        <time>2014-04-16T07:03:45Z</time>
      </trkpt>
      <trkpt lat="47.77507" lon="3.5786">
        <ele>174</ele>
        <time>2014-04-16T07:03:53Z</time>
      </trkpt>
      <trkpt lat="47.77499" lon="3.57867">
        <ele>176</ele>
        <time>2014-04-16T07:04:00Z</time>
      </trkpt>
      <trkpt lat="47.77491" lon="3.5787">
        <ele>176</ele>
        <time>2014-04-16T07:04:10Z</time>
      </trkpt>
      <trkpt lat="47.77486" lon="3.5787">
        <ele>176</ele>
        <time>2014-04-16T07:04:31Z</time>
      </trkpt>
      <trkpt lat="47.77482" lon="3.57873">
        <ele>176</ele>
        <time>2014-04-16T07:04:34Z</time>
      </trkpt>
      <trkpt lat="47.77477" lon="3.57875">
        <ele>176</ele>
        <time>2014-04-16T07:04:38Z</time>
      </trkpt>
      <trkpt lat="47.77473" lon="3.57879">
        <ele>176</ele>
        <time>2014-04-16T07:04:41Z</time>
      </trkpt>
      <trkpt lat="47.77469" lon="3.57885">
        <ele>176</ele>
        <time>2014-04-16T07:04:44Z</time>
      </trkpt>
      <trkpt lat="47.77464" lon="3.57889">
        <ele>176</ele>
        <time>2014-04-16T07:04:48Z</time>
      </trkpt>
      <trkpt lat="47.77458" lon="3.57891">
        <ele>176</ele>
        <time>2014-04-16T07:04:53Z</time>
      </trkpt>
      <trkpt lat="47.77454" lon="3.57894">
        <ele>176</ele>
        <time>2014-04-16T07:04:57Z</time>
      </trkpt>
      <trkpt lat="47.77449" lon="3.57897">
        <ele>176</ele>
        <time>2014-04-16T07:05:02Z</time>
      </trkpt>
      <trkpt lat="47.77444" lon="3.57899">
        <ele>176</ele>
        <time>2014-04-16T07:05:06Z</time>
      </trkpt>
      <trkpt lat="47.77438" lon="3.57902">
        <ele>176</ele>
        <time>2014-04-16T07:05:10Z</time>
      </trkpt>
      <trkpt lat="47.77434" lon="3.57906">
        <ele>177</ele>
        <time>2014-04-16T07:05:13Z</time>
      </trkpt>
      <trkpt lat="47.7743" lon="3.57912">
        <ele>177</ele>
        <time>2014-04-16T07:05:16Z</time>
      </trkpt>
      <trkpt lat="47.77426" lon="3.57917">
        <ele>176</ele>
        <time>2014-04-16T07:05:19Z</time>
      </trkpt>
      <trkpt lat="47.77421" lon="3.57922">
        <ele>176</ele>
        <time>2014-04-16T07:05:23Z</time>
      </trkpt>
      <trkpt lat="47.77414" lon="3.57924">
        <ele>177</ele>
        <time>2014-04-16T07:05:28Z</time>
      </trkpt>
      <trkpt lat="47.77409" lon="3.57926">
        <ele>177</ele>
        <time>2014-04-16T07:05:34Z</time>
      </trkpt>
      <trkpt lat="47.77404" lon="3.57925">
        <ele>177</ele>
        <time>2014-04-16T07:05:39Z</time>
      </trkpt>
      <trkpt lat="47.77395" lon="3.57927">
        <ele>177</ele>
        <time>2014-04-16T07:05:48Z</time>
      </trkpt>
      <trkpt lat="47.77386" lon="3.57934">
        <ele>177</ele>
        <time>2014-04-16T07:05:54Z</time>
      </trkpt>
      <trkpt lat="47.77379" lon="3.57944">
        <ele>177</ele>
        <time>2014-04-16T07:05:59Z</time>
      </trkpt>
      <trkpt lat="47.7737" lon="3.57948">
        <ele>177</ele>
        <time>2014-04-16T07:06:06Z</time>
      </trkpt>
      <trkpt lat="47.77366" lon="3.57952">
        <ele>177</ele>
        <time>2014-04-16T07:06:10Z</time>
      </trkpt>
      <trkpt lat="47.77361" lon="3.57954">
        <ele>177</ele>
        <time>2014-04-16T07:06:16Z</time>
      </trkpt>
      <trkpt lat="47.77356" lon="3.57954">
        <ele>177</ele>
        <time>2014-04-16T07:06:21Z</time>
      </trkpt>
      <trkpt lat="47.77352" lon="3.57958">
        <ele>177</ele>
        <time>2014-04-16T07:06:27Z</time>
      </trkpt>
      <trkpt lat="47.77349" lon="3.57963">
        <ele>177</ele>
        <time>2014-04-16T07:06:31Z</time>
      </trkpt>
      <trkpt lat="47.77348" lon="3.57966">
        <ele>177</ele>
        <time>2014-04-16T07:06:37Z</time>
      </trkpt>
      <trkpt lat="47.77343" lon="3.57969">
        <ele>177</ele>
        <time>2014-04-16T07:06:49Z</time>
      </trkpt>
      <trkpt lat="47.77339" lon="3.57973">
        <ele>177</ele>
        <time>2014-04-16T07:06:53Z</time>
      </trkpt>
      <trkpt lat="47.77334" lon="3.57977">
        <ele>177</ele>
        <time>2014-04-16T07:06:58Z</time>
      </trkpt>
      <trkpt lat="47.77329" lon="3.5798">
        <ele>178</ele>
        <time>2014-04-16T07:07:02Z</time>
      </trkpt>
      <trkpt lat="47.77323" lon="3.57983">
        <ele>178</ele>
        <time>2014-04-16T07:07:06Z</time>
      </trkpt>
      <trkpt lat="47.77319" lon="3.57983">
        <ele>178</ele>
        <time>2014-04-16T07:07:10Z</time>
      </trkpt>
      <trkpt lat="47.77314" lon="3.57984">
        <ele>178</ele>
        <time>2014-04-16T07:07:14Z</time>
      </trkpt>
      <trkpt lat="47.77309" lon="3.57987">
        <ele>178</ele>
        <time>2014-04-16T07:07:18Z</time>
      </trkpt>
      <trkpt lat="47.77304" lon="3.57989">
        <ele>178</ele>
        <time>2014-04-16T07:07:22Z</time>
      </trkpt>
      <trkpt lat="47.77299" lon="3.57991">
        <ele>178</ele>
        <time>2014-04-16T07:07:26Z</time>
      </trkpt>
      <trkpt lat="47.77294" lon="3.57993">
        <ele>178</ele>
        <time>2014-04-16T07:07:30Z</time>
      </trkpt>
      <trkpt lat="47.7729" lon="3.57996">
        <ele>178</ele>
        <time>2014-04-16T07:07:34Z</time>
      </trkpt>
      <trkpt lat="47.77285" lon="3.57999">
        <ele>179</ele>
        <time>2014-04-16T07:07:38Z</time>
      </trkpt>
      <trkpt lat="47.7728" lon="3.58001">
        <ele>179</ele>
        <time>2014-04-16T07:07:42Z</time>
      </trkpt>
      <trkpt lat="47.77275" lon="3.58001">
        <ele>179</ele>
        <time>2014-04-16T07:07:47Z</time>
      </trkpt>
      <trkpt lat="47.7727" lon="3.58002">
        <ele>179</ele>
        <time>2014-04-16T07:07:52Z</time>
      </trkpt>
      <trkpt lat="47.77265" lon="3.58">
        <ele>179</ele>
        <time>2014-04-16T07:07:56Z</time>
      </trkpt>
      <trkpt lat="47.7726" lon="3.57999">
        <ele>179</ele>
        <time>2014-04-16T07:08:00Z</time>
      </trkpt>
      <trkpt lat="47.77255" lon="3.58003">
        <ele>180</ele>
        <time>2014-04-16T07:08:04Z</time>
      </trkpt>
      <trkpt lat="47.77251" lon="3.58007">
        <ele>180</ele>
        <time>2014-04-16T07:08:07Z</time>
      </trkpt>
      <trkpt lat="47.77247" lon="3.58009">
        <ele>180</ele>
        <time>2014-04-16T07:08:10Z</time>
      </trkpt>
      <trkpt lat="47.77242" lon="3.5801">
        <ele>180</ele>
        <time>2014-04-16T07:08:14Z</time>
      </trkpt>
      <trkpt lat="47.77238" lon="3.58014">
        <ele>180</ele>
        <time>2014-04-16T07:08:19Z</time>
      </trkpt>
      <trkpt lat="47.77233" lon="3.58017">
        <ele>180</ele>
        <time>2014-04-16T07:08:25Z</time>
      </trkpt>
      <trkpt lat="47.77227" lon="3.58019">
        <ele>180</ele>
        <time>2014-04-16T07:08:28Z</time>
      </trkpt>
      <trkpt lat="47.77223" lon="3.5802">
        <ele>180</ele>
        <time>2014-04-16T07:08:32Z</time>
      </trkpt>
      <trkpt lat="47.77217" lon="3.58021">
        <ele>180</ele>
        <time>2014-04-16T07:08:36Z</time>
      </trkpt>
      <trkpt lat="47.77212" lon="3.58021">
        <ele>180</ele>
        <time>2014-04-16T07:08:40Z</time>
      </trkpt>
      <trkpt lat="47.77207" lon="3.58022">
        <ele>180</ele>
        <time>2014-04-16T07:08:44Z</time>
      </trkpt>
      <trkpt lat="47.77198" lon="3.58024">
        <ele>180</ele>
        <time>2014-04-16T07:08:50Z</time>
      </trkpt>
      <trkpt lat="47.77192" lon="3.58027">
        <ele>180</ele>
        <time>2014-04-16T07:08:54Z</time>
      </trkpt>
      <trkpt lat="47.77188" lon="3.58031">
        <ele>180</ele>
        <time>2014-04-16T07:08:58Z</time>
      </trkpt>
      <trkpt lat="47.77184" lon="3.58031">
        <ele>180</ele>
        <time>2014-04-16T07:09:03Z</time>
      </trkpt>
      <trkpt lat="47.7718" lon="3.58036">
        <ele>180</ele>
        <time>2014-04-16T07:09:19Z</time>
      </trkpt>
      <trkpt lat="47.77175" lon="3.58037">
        <ele>181</ele>
        <time>2014-04-16T07:09:22Z</time>
      </trkpt>
      <trkpt lat="47.7717" lon="3.58036">
        <ele>181</ele>
        <time>2014-04-16T07:09:25Z</time>
      </trkpt>
      <trkpt lat="47.77165" lon="3.58036">
        <ele>181</ele>
        <time>2014-04-16T07:09:30Z</time>
      </trkpt>
      <trkpt lat="47.7716" lon="3.58038">
        <ele>181</ele>
        <time>2014-04-16T07:09:35Z</time>
      </trkpt>
      <trkpt lat="47.77155" lon="3.58037">
        <ele>181</ele>
        <time>2014-04-16T07:09:40Z</time>
      </trkpt>
      <trkpt lat="47.7715" lon="3.58041">
        <ele>181</ele>
        <time>2014-04-16T07:09:44Z</time>
      </trkpt>
      <trkpt lat="47.77145" lon="3.58045">
        <ele>181</ele>
        <time>2014-04-16T07:09:48Z</time>
      </trkpt>
      <trkpt lat="47.7714" lon="3.58048">
        <ele>181</ele>
        <time>2014-04-16T07:09:52Z</time>
      </trkpt>
      <trkpt lat="47.77135" lon="3.58051">
        <ele>181</ele>
        <time>2014-04-16T07:09:56Z</time>
      </trkpt>
      <trkpt lat="47.7713" lon="3.58052">
        <ele>181</ele>
        <time>2014-04-16T07:10:00Z</time>
      </trkpt>
      <trkpt lat="47.77125" lon="3.58052">
        <ele>181</ele>
        <time>2014-04-16T07:10:03Z</time>
      </trkpt>
      <trkpt lat="47.77117" lon="3.58053">
        <ele>181</ele>
        <time>2014-04-16T07:10:09Z</time>
      </trkpt>
      <trkpt lat="47.77112" lon="3.58056">
        <ele>181</ele>
        <time>2014-04-16T07:10:15Z</time>
      </trkpt>
      <trkpt lat="47.77107" lon="3.58057">
        <ele>181</ele>
        <time>2014-04-16T07:10:19Z</time>
      </trkpt>
      <trkpt lat="47.77102" lon="3.58061">
        <ele>181</ele>
        <time>2014-04-16T07:10:24Z</time>
      </trkpt>
      <trkpt lat="47.77097" lon="3.58062">
        <ele>181</ele>
        <time>2014-04-16T07:10:27Z</time>
      </trkpt>
      <trkpt lat="47.77093" lon="3.58059">
        <ele>181</ele>
        <time>2014-04-16T07:10:30Z</time>
      </trkpt>
      <trkpt lat="47.77088" lon="3.58061">
        <ele>181</ele>
        <time>2014-04-16T07:10:34Z</time>
      </trkpt>
      <trkpt lat="47.77084" lon="3.58065">
        <ele>181</ele>
        <time>2014-04-16T07:10:41Z</time>
      </trkpt>
      <trkpt lat="47.77079" lon="3.58068">
        <ele>181</ele>
        <time>2014-04-16T07:10:45Z</time>
      </trkpt>
      <trkpt lat="47.77074" lon="3.58071">
        <ele>181</ele>
        <time>2014-04-16T07:10:49Z</time>
      </trkpt>
      <trkpt lat="47.7707" lon="3.58075">
        <ele>181</ele>
        <time>2014-04-16T07:10:55Z</time>
      </trkpt>
      <trkpt lat="47.77064" lon="3.58077">
        <ele>181</ele>
        <time>2014-04-16T07:10:59Z</time>
      </trkpt>
      <trkpt lat="47.77059" lon="3.58077">
        <ele>181</ele>
        <time>2014-04-16T07:11:02Z</time>
      </trkpt>
      <trkpt lat="47.77054" lon="3.58081">
        <ele>181</ele>
        <time>2014-04-16T07:11:05Z</time>
      </trkpt>
      <trkpt lat="47.77049" lon="3.58084">
        <ele>180</ele>
        <time>2014-04-16T07:11:12Z</time>
      </trkpt>
      <trkpt lat="47.77045" lon="3.58088">
        <ele>180</ele>
        <time>2014-04-16T07:11:14Z</time>
      </trkpt>
      <trkpt lat="47.7704" lon="3.58092">
        <ele>180</ele>
        <time>2014-04-16T07:11:17Z</time>
      </trkpt>
      <trkpt lat="47.77036" lon="3.58095">
        <ele>180</ele>
        <time>2014-04-16T07:11:23Z</time>
      </trkpt>
      <trkpt lat="47.77031" lon="3.58094">
        <ele>180</ele>
        <time>2014-04-16T07:11:27Z</time>
      </trkpt>
      <trkpt lat="47.77027" lon="3.58099">
        <ele>180</ele>
        <time>2014-04-16T07:11:32Z</time>
      </trkpt>
      <trkpt lat="47.77022" lon="3.58103">
        <ele>180</ele>
        <time>2014-04-16T07:11:35Z</time>
      </trkpt>
      <trkpt lat="47.77018" lon="3.58107">
        <ele>180</ele>
        <time>2014-04-16T07:11:40Z</time>
      </trkpt>
      <trkpt lat="47.77013" lon="3.58109">
        <ele>180</ele>
        <time>2014-04-16T07:11:43Z</time>
      </trkpt>
      <trkpt lat="47.77008" lon="3.5811">
        <ele>179</ele>
        <time>2014-04-16T07:11:46Z</time>
      </trkpt>
      <trkpt lat="47.77004" lon="3.58112">
        <ele>179</ele>
        <time>2014-04-16T07:11:50Z</time>
      </trkpt>
      <trkpt lat="47.77" lon="3.58119">
        <ele>179</ele>
        <time>2014-04-16T07:11:53Z</time>
      </trkpt>
      <trkpt lat="47.76996" lon="3.58124">
        <ele>179</ele>
        <time>2014-04-16T07:11:56Z</time>
      </trkpt>
      <trkpt lat="47.76991" lon="3.58123">
        <ele>179</ele>
        <time>2014-04-16T07:12:02Z</time>
      </trkpt>
      <trkpt lat="47.76987" lon="3.58119">
        <ele>179</ele>
        <time>2014-04-16T07:12:07Z</time>
      </trkpt>
      <trkpt lat="47.76982" lon="3.58116">
        <ele>179</ele>
        <time>2014-04-16T07:12:12Z</time>
      </trkpt>
      <trkpt lat="47.76978" lon="3.58118">
        <ele>179</ele>
        <time>2014-04-16T07:12:15Z</time>
      </trkpt>
      <trkpt lat="47.76973" lon="3.58121">
        <ele>179</ele>
        <time>2014-04-16T07:12:18Z</time>
      </trkpt>
      <trkpt lat="47.76969" lon="3.58126">
        <ele>178</ele>
        <time>2014-04-16T07:12:21Z</time>
      </trkpt>
      <trkpt lat="47.76964" lon="3.58129">
        <ele>178</ele>
        <time>2014-04-16T07:12:25Z</time>
      </trkpt>
      <trkpt lat="47.7696" lon="3.58132">
        <ele>178</ele>
        <time>2014-04-16T07:12:28Z</time>
      </trkpt>
      <trkpt lat="47.76954" lon="3.58134">
        <ele>178</ele>
        <time>2014-04-16T07:12:31Z</time>
      </trkpt>
      <trkpt lat="47.7695" lon="3.58136">
        <ele>178</ele>
        <time>2014-04-16T07:12:37Z</time>
      </trkpt>
      <trkpt lat="47.76946" lon="3.58143">
        <ele>178</ele>
        <time>2014-04-16T07:12:43Z</time>
      </trkpt>
      <trkpt lat="47.76941" lon="3.58145">
        <ele>178</ele>
        <time>2014-04-16T07:12:49Z</time>
      </trkpt>
      <trkpt lat="47.76937" lon="3.58148">
        <ele>178</ele>
        <time>2014-04-16T07:12:55Z</time>
      </trkpt>
      <trkpt lat="47.76933" lon="3.58153">
        <ele>177</ele>
        <time>2014-04-16T07:12:59Z</time>
      </trkpt>
      <trkpt lat="47.76929" lon="3.58156">
        <ele>177</ele>
        <time>2014-04-16T07:13:04Z</time>
      </trkpt>
      <trkpt lat="47.76925" lon="3.58159">
        <ele>177</ele>
        <time>2014-04-16T07:13:08Z</time>
      </trkpt>
      <trkpt lat="47.7692" lon="3.58163">
        <ele>176</ele>
        <time>2014-04-16T07:13:12Z</time>
      </trkpt>
      <trkpt lat="47.76916" lon="3.58168">
        <ele>176</ele>
        <time>2014-04-16T07:13:16Z</time>
      </trkpt>
      <trkpt lat="47.76912" lon="3.58173">
        <ele>176</ele>
        <time>2014-04-16T07:13:18Z</time>
      </trkpt>
      <trkpt lat="47.76907" lon="3.58176">
        <ele>176</ele>
        <time>2014-04-16T07:13:22Z</time>
      </trkpt>
      <trkpt lat="47.76902" lon="3.58179">
        <ele>175</ele>
        <time>2014-04-16T07:13:26Z</time>
      </trkpt>
      <trkpt lat="47.76898" lon="3.58181">
        <ele>175</ele>
        <time>2014-04-16T07:13:30Z</time>
      </trkpt>
      <trkpt lat="47.76893" lon="3.58185">
        <ele>175</ele>
        <time>2014-04-16T07:13:33Z</time>
      </trkpt>
      <trkpt lat="47.76889" lon="3.58189">
        <ele>175</ele>
        <time>2014-04-16T07:13:36Z</time>
      </trkpt>
      <trkpt lat="47.76885" lon="3.58193">
        <ele>175</ele>
        <time>2014-04-16T07:13:41Z</time>
      </trkpt>
      <trkpt lat="47.76881" lon="3.58195">
        <ele>175</ele>
        <time>2014-04-16T07:13:46Z</time>
      </trkpt>
      <trkpt lat="47.76876" lon="3.58196">
        <ele>175</ele>
        <time>2014-04-16T07:13:51Z</time>
      </trkpt>
      <trkpt lat="47.76871" lon="3.58199">
        <ele>175</ele>
        <time>2014-04-16T07:13:56Z</time>
      </trkpt>
      <trkpt lat="47.76866" lon="3.58198">
        <ele>175</ele>
        <time>2014-04-16T07:14:00Z</time>
      </trkpt>
      <trkpt lat="47.76861" lon="3.58198">
        <ele>175</ele>
        <time>2014-04-16T07:14:05Z</time>
      </trkpt>
      <trkpt lat="47.76857" lon="3.58202">
        <ele>175</ele>
        <time>2014-04-16T07:14:09Z</time>
      </trkpt>
      <trkpt lat="47.76853" lon="3.58205">
        <ele>175</ele>
        <time>2014-04-16T07:14:13Z</time>
      </trkpt>
      <trkpt lat="47.76848" lon="3.58209">
        <ele>175</ele>
        <time>2014-04-16T07:14:17Z</time>
      </trkpt>
      <trkpt lat="47.76843" lon="3.58212">
        <ele>175</ele>
        <time>2014-04-16T07:14:22Z</time>
      </trkpt>
      <trkpt lat="47.76839" lon="3.58216">
        <ele>174</ele>
        <time>2014-04-16T07:14:25Z</time>
      </trkpt>
      <trkpt lat="47.76835" lon="3.58223">
        <ele>174</ele>
        <time>2014-04-16T07:14:29Z</time>
      </trkpt>
      <trkpt lat="47.7683" lon="3.58227">
        <ele>174</ele>
        <time>2014-04-16T07:14:34Z</time>
      </trkpt>
      <trkpt lat="47.76827" lon="3.58231">
        <ele>174</ele>
        <time>2014-04-16T07:14:39Z</time>
      </trkpt>
      <trkpt lat="47.76821" lon="3.58233">
        <ele>174</ele>
        <time>2014-04-16T07:14:45Z</time>
      </trkpt>
      <trkpt lat="47.76818" lon="3.58238">
        <ele>174</ele>
        <time>2014-04-16T07:14:49Z</time>
      </trkpt>
      <trkpt lat="47.76818" lon="3.58244">
        <ele>173</ele>
        <time>2014-04-16T07:15:14Z</time>
      </trkpt>
      <trkpt lat="47.76813" lon="3.58242">
        <ele>174</ele>
        <time>2014-04-16T07:15:21Z</time>
      </trkpt>
      <trkpt lat="47.76812" lon="3.58246">
        <ele>174</ele>
        <time>2014-04-16T07:15:48Z</time>
      </trkpt>
      <trkpt lat="47.76807" lon="3.58249">
        <ele>174</ele>
        <time>2014-04-16T07:15:53Z</time>
      </trkpt>
      <trkpt lat="47.76802" lon="3.58251">
        <ele>172</ele>
        <time>2014-04-16T07:16:01Z</time>
      </trkpt>
      <trkpt lat="47.76797" lon="3.5825">
        <ele>175</ele>
        <time>2014-04-16T07:16:07Z</time>
      </trkpt>
      <trkpt lat="47.76792" lon="3.58252">
        <ele>173</ele>
        <time>2014-04-16T07:16:11Z</time>
      </trkpt>
      <trkpt lat="47.76788" lon="3.58255">
        <ele>173</ele>
        <time>2014-04-16T07:16:15Z</time>
      </trkpt>
      <trkpt lat="47.76784" lon="3.5826">
        <ele>173</ele>
        <time>2014-04-16T07:16:19Z</time>
      </trkpt>
      <trkpt lat="47.76779" lon="3.58263">
        <ele>173</ele>
        <time>2014-04-16T07:16:25Z</time>
      </trkpt>
      <trkpt lat="47.76774" lon="3.58264">
        <ele>173</ele>
        <time>2014-04-16T07:16:29Z</time>
      </trkpt>
      <trkpt lat="47.76769" lon="3.58267">
        <ele>174</ele>
        <time>2014-04-16T07:16:34Z</time>
      </trkpt>
      <trkpt lat="47.76765" lon="3.58267">
        <ele>174</ele>
        <time>2014-04-16T07:16:41Z</time>
      </trkpt>
      <trkpt lat="47.7676" lon="3.58266">
        <ele>174</ele>
        <time>2014-04-16T07:16:46Z</time>
      </trkpt>
      <trkpt lat="47.76755" lon="3.58268">
        <ele>174</ele>
        <time>2014-04-16T07:16:51Z</time>
      </trkpt>
      <trkpt lat="47.76751" lon="3.58271">
        <ele>174</ele>
        <time>2014-04-16T07:16:55Z</time>
      </trkpt>
      <trkpt lat="47.76745" lon="3.58273">
        <ele>178</ele>
        <time>2014-04-16T07:17:00Z</time>
      </trkpt>
      <trkpt lat="47.7674" lon="3.58275">
        <ele>178</ele>
        <time>2014-04-16T07:17:04Z</time>
      </trkpt>
      <trkpt lat="47.76735" lon="3.58276">
        <ele>178</ele>
        <time>2014-04-16T07:17:09Z</time>
      </trkpt>
      <trkpt lat="47.7673" lon="3.58276">
        <ele>179</ele>
        <time>2014-04-16T07:17:15Z</time>
      </trkpt>
      <trkpt lat="47.76726" lon="3.58279">
        <ele>179</ele>
        <time>2014-04-16T07:17:19Z</time>
      </trkpt>
      <trkpt lat="47.76721" lon="3.58283">
        <ele>179</ele>
        <time>2014-04-16T07:17:23Z</time>
      </trkpt>
      <trkpt lat="47.76716" lon="3.58286">
        <ele>179</ele>
        <time>2014-04-16T07:17:27Z</time>
      </trkpt>
      <trkpt lat="47.76712" lon="3.58289">
        <ele>179</ele>
        <time>2014-04-16T07:17:32Z</time>
      </trkpt>
      <trkpt lat="47.76706" lon="3.58291">
        <ele>180</ele>
        <time>2014-04-16T07:17:36Z</time>
      </trkpt>
      <trkpt lat="47.76701" lon="3.58291">
        <ele>180</ele>
        <time>2014-04-16T07:17:39Z</time>
      </trkpt>
      <trkpt lat="47.76696" lon="3.58291">
        <ele>180</ele>
        <time>2014-04-16T07:17:44Z</time>
      </trkpt>
      <trkpt lat="47.76692" lon="3.58298">
        <ele>180</ele>
        <time>2014-04-16T07:17:55Z</time>
      </trkpt>
      <trkpt lat="47.76688" lon="3.58303">
        <ele>180</ele>
        <time>2014-04-16T07:18:00Z</time>
      </trkpt>
      <trkpt lat="47.76683" lon="3.58306">
        <ele>181</ele>
        <time>2014-04-16T07:18:05Z</time>
      </trkpt>
      <trkpt lat="47.76677" lon="3.58309">
        <ele>181</ele>
        <time>2014-04-16T07:18:09Z</time>
      </trkpt>
      <trkpt lat="47.76674" lon="3.58314">
        <ele>181</ele>
        <time>2014-04-16T07:18:14Z</time>
      </trkpt>
      <trkpt lat="47.76669" lon="3.58317">
        <ele>181</ele>
        <time>2014-04-16T07:18:19Z</time>
      </trkpt>
      <trkpt lat="47.76665" lon="3.5832">
        <ele>184</ele>
        <time>2014-04-16T07:18:22Z</time>
      </trkpt>
      <trkpt lat="47.7666" lon="3.58323">
        <ele>184</ele>
        <time>2014-04-16T07:18:26Z</time>
      </trkpt>
      <trkpt lat="47.76655" lon="3.58325">
        <ele>184</ele>
        <time>2014-04-16T07:18:31Z</time>
      </trkpt>
      <trkpt lat="47.7665" lon="3.58327">
        <ele>184</ele>
        <time>2014-04-16T07:18:35Z</time>
      </trkpt>
      <trkpt lat="47.76646" lon="3.5833">
        <ele>184</ele>
        <time>2014-04-16T07:18:39Z</time>
      </trkpt>
      <trkpt lat="47.76642" lon="3.58334">
        <ele>183</ele>
        <time>2014-04-16T07:18:43Z</time>
      </trkpt>
      <trkpt lat="47.76637" lon="3.58336">
        <ele>184</ele>
        <time>2014-04-16T07:18:47Z</time>
      </trkpt>
      <trkpt lat="47.76633" lon="3.5834">
        <ele>184</ele>
        <time>2014-04-16T07:18:51Z</time>
      </trkpt>
      <trkpt lat="47.76628" lon="3.58345">
        <ele>184</ele>
        <time>2014-04-16T07:18:55Z</time>
      </trkpt>
      <trkpt lat="47.76623" lon="3.58345">
        <ele>184</ele>
        <time>2014-04-16T07:18:59Z</time>
      </trkpt>
      <trkpt lat="47.76619" lon="3.58349">
        <ele>184</ele>
        <time>2014-04-16T07:19:03Z</time>
      </trkpt>
      <trkpt lat="47.76615" lon="3.58354">
        <ele>184</ele>
        <time>2014-04-16T07:19:07Z</time>
      </trkpt>
      <trkpt lat="47.76611" lon="3.58357">
        <ele>184</ele>
        <time>2014-04-16T07:19:10Z</time>
      </trkpt>
      <trkpt lat="47.76606" lon="3.58359">
        <ele>184</ele>
        <time>2014-04-16T07:19:14Z</time>
      </trkpt>
      <trkpt lat="47.76602" lon="3.58361">
        <ele>184</ele>
        <time>2014-04-16T07:19:18Z</time>
      </trkpt>
      <trkpt lat="47.76597" lon="3.58364">
        <ele>184</ele>
        <time>2014-04-16T07:19:23Z</time>
      </trkpt>
      <trkpt lat="47.76592" lon="3.58367">
        <ele>184</ele>
        <time>2014-04-16T07:19:28Z</time>
      </trkpt>
      <trkpt lat="47.76587" lon="3.5837">
        <ele>184</ele>
        <time>2014-04-16T07:19:31Z</time>
      </trkpt>
      <trkpt lat="47.76583" lon="3.58373">
        <ele>187</ele>
        <time>2014-04-16T07:19:34Z</time>
      </trkpt>
      <trkpt lat="47.76579" lon="3.58375">
        <ele>187</ele>
        <time>2014-04-16T07:19:39Z</time>
      </trkpt>
      <trkpt lat="47.76574" lon="3.58379">
        <ele>187</ele>
        <time>2014-04-16T07:19:45Z</time>
      </trkpt>
      <trkpt lat="47.76569" lon="3.58383">
        <ele>187</ele>
        <time>2014-04-16T07:19:49Z</time>
      </trkpt>
      <trkpt lat="47.76565" lon="3.58387">
        <ele>187</ele>
        <time>2014-04-16T07:19:53Z</time>
      </trkpt>
      <trkpt lat="47.7656" lon="3.58389">
        <ele>187</ele>
        <time>2014-04-16T07:19:58Z</time>
      </trkpt>
      <trkpt lat="47.76556" lon="3.58392">
        <ele>187</ele>
        <time>2014-04-16T07:20:01Z</time>
      </trkpt>
      <trkpt lat="47.76551" lon="3.58395">
        <ele>188</ele>
        <time>2014-04-16T07:20:04Z</time>
      </trkpt>
      <trkpt lat="47.76546" lon="3.58399">
        <ele>188</ele>
        <time>2014-04-16T07:20:07Z</time>
      </trkpt>
      <trkpt lat="47.76542" lon="3.58402">
        <ele>188</ele>
        <time>2014-04-16T07:20:10Z</time>
      </trkpt>
      <trkpt lat="47.76536" lon="3.58404">
        <ele>188</ele>
        <time>2014-04-16T07:20:14Z</time>
      </trkpt>
      <trkpt lat="47.76531" lon="3.58406">
        <ele>188</ele>
        <time>2014-04-16T07:20:19Z</time>
      </trkpt>
      <trkpt lat="47.76526" lon="3.58408">
        <ele>188</ele>
        <time>2014-04-16T07:20:24Z</time>
      </trkpt>
      <trkpt lat="47.76521" lon="3.5841">
        <ele>189</ele>
        <time>2014-04-16T07:20:28Z</time>
      </trkpt>
      <trkpt lat="47.76517" lon="3.58412">
        <ele>189</ele>
        <time>2014-04-16T07:20:32Z</time>
      </trkpt>
      <trkpt lat="47.76512" lon="3.58416">
        <ele>189</ele>
        <time>2014-04-16T07:20:36Z</time>
      </trkpt>
      <trkpt lat="47.76507" lon="3.58417">
        <ele>189</ele>
        <time>2014-04-16T07:20:40Z</time>
      </trkpt>
      <trkpt lat="47.76502" lon="3.58416">
        <ele>190</ele>
        <time>2014-04-16T07:20:44Z</time>
      </trkpt>
      <trkpt lat="47.76498" lon="3.58416">
        <ele>190</ele>
        <time>2014-04-16T07:20:49Z</time>
      </trkpt>
      <trkpt lat="47.76492" lon="3.58417">
        <ele>190</ele>
        <time>2014-04-16T07:20:53Z</time>
      </trkpt>
      <trkpt lat="47.76488" lon="3.58419">
        <ele>190</ele>
        <time>2014-04-16T07:20:57Z</time>
      </trkpt>
      <trkpt lat="47.76484" lon="3.58422">
        <ele>190</ele>
        <time>2014-04-16T07:21:01Z</time>
      </trkpt>
      <trkpt lat="47.76479" lon="3.58426">
        <ele>190</ele>
        <time>2014-04-16T07:21:05Z</time>
      </trkpt>
      <trkpt lat="47.76475" lon="3.58432">
        <ele>191</ele>
        <time>2014-04-16T07:21:09Z</time>
      </trkpt>
      <trkpt lat="47.76469" lon="3.58435">
        <ele>191</ele>
        <time>2014-04-16T07:21:13Z</time>
      </trkpt>
      <trkpt lat="47.76464" lon="3.58435">
        <ele>191</ele>
        <time>2014-04-16T07:21:17Z</time>
      </trkpt>
      <trkpt lat="47.76459" lon="3.58437">
        <ele>191</ele>
        <time>2014-04-16T07:21:20Z</time>
      </trkpt>
      <trkpt lat="47.76454" lon="3.58442">
        <ele>191</ele>
        <time>2014-04-16T07:21:23Z</time>
      </trkpt>
      <trkpt lat="47.7645" lon="3.58446">
        <ele>191</ele>
        <time>2014-04-16T07:21:26Z</time>
      </trkpt>
      <trkpt lat="47.76446" lon="3.58449">
        <ele>191</ele>
        <time>2014-04-16T07:21:30Z</time>
      </trkpt>
      <trkpt lat="47.76441" lon="3.5845">
        <ele>191</ele>
        <time>2014-04-16T07:21:35Z</time>
      </trkpt>
      <trkpt lat="47.76437" lon="3.58454">
        <ele>191</ele>
        <time>2014-04-16T07:21:39Z</time>
      </trkpt>
      <trkpt lat="47.76431" lon="3.58455">
        <ele>191</ele>
        <time>2014-04-16T07:21:43Z</time>
      </trkpt>
      <trkpt lat="47.76426" lon="3.58455">
        <ele>191</ele>
        <time>2014-04-16T07:21:48Z</time>
      </trkpt>
      <trkpt lat="47.76421" lon="3.58455">
        <ele>191</ele>
        <time>2014-04-16T07:21:53Z</time>
      </trkpt>
      <trkpt lat="47.76416" lon="3.58455">
        <ele>193</ele>
        <time>2014-04-16T07:21:58Z</time>
      </trkpt>
      <trkpt lat="47.76411" lon="3.58458">
        <ele>193</ele>
        <time>2014-04-16T07:22:03Z</time>
      </trkpt>
      <trkpt lat="47.76406" lon="3.58459">
        <ele>193</ele>
        <time>2014-04-16T07:22:07Z</time>
      </trkpt>
      <trkpt lat="47.764" lon="3.5846">
        <ele>193</ele>
        <time>2014-04-16T07:22:12Z</time>
      </trkpt>
      <trkpt lat="47.76395" lon="3.58463">
        <ele>193</ele>
        <time>2014-04-16T07:22:16Z</time>
      </trkpt>
      <trkpt lat="47.7639" lon="3.58464">
        <ele>193</ele>
        <time>2014-04-16T07:22:20Z</time>
      </trkpt>
      <trkpt lat="47.76385" lon="3.58464">
        <ele>193</ele>
        <time>2014-04-16T07:22:24Z</time>
      </trkpt>
      <trkpt lat="47.7638" lon="3.58464">
        <ele>193</ele>
        <time>2014-04-16T07:22:28Z</time>
      </trkpt>
      <trkpt lat="47.76376" lon="3.58468">
        <ele>193</ele>
        <time>2014-04-16T07:22:32Z</time>
      </trkpt>
      <trkpt lat="47.76372" lon="3.58472">
        <ele>193</ele>
        <time>2014-04-16T07:22:36Z</time>
      </trkpt>
      <trkpt lat="47.76368" lon="3.58473">
        <ele>193</ele>
        <time>2014-04-16T07:22:42Z</time>
      </trkpt>
      <trkpt lat="47.76363" lon="3.58473">
        <ele>193</ele>
        <time>2014-04-16T07:22:48Z</time>
      </trkpt>
      <trkpt lat="47.76358" lon="3.58473">
        <ele>193</ele>
        <time>2014-04-16T07:22:54Z</time>
      </trkpt>
      <trkpt lat="47.76353" lon="3.58475">
        <ele>193</ele>
        <time>2014-04-16T07:22:59Z</time>
      </trkpt>
      <trkpt lat="47.76348" lon="3.58479">
        <ele>193</ele>
        <time>2014-04-16T07:23:03Z</time>
      </trkpt>
      <trkpt lat="47.76343" lon="3.58482">
        <ele>193</ele>
        <time>2014-04-16T07:23:08Z</time>
      </trkpt>
      <trkpt lat="47.76338" lon="3.58484">
        <ele>194</ele>
        <time>2014-04-16T07:23:11Z</time>
      </trkpt>
      <trkpt lat="47.76333" lon="3.58487">
        <ele>194</ele>
        <time>2014-04-16T07:23:16Z</time>
      </trkpt>
      <trkpt lat="47.76328" lon="3.58491">
        <ele>194</ele>
        <time>2014-04-16T07:23:19Z</time>
      </trkpt>
      <trkpt lat="47.76324" lon="3.58493">
        <ele>194</ele>
        <time>2014-04-16T07:23:23Z</time>
      </trkpt>
      <trkpt lat="47.76319" lon="3.58495">
        <ele>194</ele>
        <time>2014-04-16T07:23:29Z</time>
      </trkpt>
      <trkpt lat="47.76314" lon="3.58495">
        <ele>194</ele>
        <time>2014-04-16T07:23:35Z</time>
      </trkpt>
      <trkpt lat="47.76309" lon="3.58496">
        <ele>193</ele>
        <time>2014-04-16T07:23:40Z</time>
      </trkpt>
      <trkpt lat="47.76304" lon="3.58498">
        <ele>193</ele>
        <time>2014-04-16T07:23:44Z</time>
      </trkpt>
      <trkpt lat="47.763" lon="3.58501">
        <ele>193</ele>
        <time>2014-04-16T07:23:49Z</time>
      </trkpt>
      <trkpt lat="47.76296" lon="3.58503">
        <ele>192</ele>
        <time>2014-04-16T07:23:53Z</time>
      </trkpt>
      <trkpt lat="47.76291" lon="3.58501">
        <ele>192</ele>
        <time>2014-04-16T07:23:58Z</time>
      </trkpt>
      <trkpt lat="47.76284" lon="3.58506">
        <ele>192</ele>
        <time>2014-04-16T07:24:02Z</time>
      </trkpt>
      <trkpt lat="47.7628" lon="3.5851">
        <ele>192</ele>
        <time>2014-04-16T07:24:06Z</time>
      </trkpt>
      <trkpt lat="47.76275" lon="3.58516">
        <ele>192</ele>
        <time>2014-04-16T07:24:09Z</time>
      </trkpt>
      <trkpt lat="47.7627" lon="3.58516">
        <ele>192</ele>
        <time>2014-04-16T07:24:13Z</time>
      </trkpt>
      <trkpt lat="47.76265" lon="3.58516">
        <ele>192</ele>
        <time>2014-04-16T07:24:16Z</time>
      </trkpt>
      <trkpt lat="47.7626" lon="3.5852">
        <ele>192</ele>
        <time>2014-04-16T07:24:23Z</time>
      </trkpt>
      <trkpt lat="47.76256" lon="3.58523">
        <ele>192</ele>
        <time>2014-04-16T07:24:28Z</time>
      </trkpt>
      <trkpt lat="47.76251" lon="3.58524">
        <ele>192</ele>
        <time>2014-04-16T07:24:33Z</time>
      </trkpt>
      <trkpt lat="47.76246" lon="3.58525">
        <ele>190</ele>
        <time>2014-04-16T07:24:36Z</time>
      </trkpt>
      <trkpt lat="47.76241" lon="3.58525">
        <ele>190</ele>
        <time>2014-04-16T07:24:40Z</time>
      </trkpt>
      <trkpt lat="47.76236" lon="3.5853">
        <ele>190</ele>
        <time>2014-04-16T07:24:48Z</time>
      </trkpt>
      <trkpt lat="47.76231" lon="3.58531">
        <ele>190</ele>
        <time>2014-04-16T07:24:52Z</time>
      </trkpt>
      <trkpt lat="47.76226" lon="3.58533">
        <ele>190</ele>
        <time>2014-04-16T07:24:57Z</time>
      </trkpt>
      <trkpt lat="47.76219" lon="3.58536">
        <ele>189</ele>
        <time>2014-04-16T07:25:02Z</time>
      </trkpt>
      <trkpt lat="47.76214" lon="3.58539">
        <ele>189</ele>
        <time>2014-04-16T07:25:07Z</time>
      </trkpt>
      <trkpt lat="47.76209" lon="3.58541">
        <ele>189</ele>
        <time>2014-04-16T07:25:09Z</time>
      </trkpt>
      <trkpt lat="47.76204" lon="3.58543">
        <ele>189</ele>
        <time>2014-04-16T07:25:12Z</time>
      </trkpt>
      <trkpt lat="47.76199" lon="3.58544">
        <ele>189</ele>
        <time>2014-04-16T07:25:17Z</time>
      </trkpt>
      <trkpt lat="47.76194" lon="3.58546">
        <ele>189</ele>
        <time>2014-04-16T07:25:20Z</time>
      </trkpt>
      <trkpt lat="47.7619" lon="3.58548">
        <ele>189</ele>
        <time>2014-04-16T07:25:24Z</time>
      </trkpt>
      <trkpt lat="47.76185" lon="3.58551">
        <ele>188</ele>
        <time>2014-04-16T07:25:29Z</time>
      </trkpt>
      <trkpt lat="47.7618" lon="3.58554">
        <ele>188</ele>
        <time>2014-04-16T07:25:33Z</time>
      </trkpt>
      <trkpt lat="47.76175" lon="3.58557">
        <ele>188</ele>
        <time>2014-04-16T07:25:37Z</time>
      </trkpt>
      <trkpt lat="47.7617" lon="3.58561">
        <ele>188</ele>
        <time>2014-04-16T07:25:40Z</time>
      </trkpt>
      <trkpt lat="47.76166" lon="3.58565">
        <ele>186</ele>
        <time>2014-04-16T07:25:43Z</time>
      </trkpt>
      <trkpt lat="47.76162" lon="3.58567">
        <ele>186</ele>
        <time>2014-04-16T07:25:47Z</time>
      </trkpt>
      <trkpt lat="47.76157" lon="3.58569">
        <ele>186</ele>
        <time>2014-04-16T07:25:51Z</time>
      </trkpt>
      <trkpt lat="47.7615" lon="3.58572">
        <ele>186</ele>
        <time>2014-04-16T07:26:00Z</time>
      </trkpt>
      <trkpt lat="47.76145" lon="3.58572">
        <ele>186</ele>
        <time>2014-04-16T07:26:06Z</time>
      </trkpt>
      <trkpt lat="47.7614" lon="3.58574">
        <ele>186</ele>
        <time>2014-04-16T07:26:10Z</time>
      </trkpt>
      <trkpt lat="47.76135" lon="3.58576">
        <ele>186</ele>
        <time>2014-04-16T07:26:13Z</time>
      </trkpt>
      <trkpt lat="47.7613" lon="3.58578">
        <ele>186</ele>
        <time>2014-04-16T07:26:16Z</time>
      </trkpt>
      <trkpt lat="47.76124" lon="3.58582">
        <ele>186</ele>
        <time>2014-04-16T07:26:21Z</time>
      </trkpt>
      <trkpt lat="47.7612" lon="3.58586">
        <ele>187</ele>
        <time>2014-04-16T07:26:28Z</time>
      </trkpt>
      <trkpt lat="47.76115" lon="3.58586">
        <ele>187</ele>
        <time>2014-04-16T07:26:33Z</time>
      </trkpt>
      <trkpt lat="47.7611" lon="3.58587">
        <ele>187</ele>
        <time>2014-04-16T07:26:38Z</time>
      </trkpt>
      <trkpt lat="47.76105" lon="3.58589">
        <ele>187</ele>
        <time>2014-04-16T07:26:42Z</time>
      </trkpt>
      <trkpt lat="47.761" lon="3.58591">
        <ele>187</ele>
        <time>2014-04-16T07:26:46Z</time>
      </trkpt>
      <trkpt lat="47.76097" lon="3.58595">
        <ele>187</ele>
        <time>2014-04-16T07:26:50Z</time>
      </trkpt>
      <trkpt lat="47.76093" lon="3.58599">
        <ele>187</ele>
        <time>2014-04-16T07:26:53Z</time>
      </trkpt>
      <trkpt lat="47.76089" lon="3.58604">
        <ele>187</ele>
        <time>2014-04-16T07:26:58Z</time>
      </trkpt>
      <trkpt lat="47.76083" lon="3.58605">
        <ele>186</ele>
        <time>2014-04-16T07:27:02Z</time>
      </trkpt>
      <trkpt lat="47.76079" lon="3.58607">
        <ele>186</ele>
        <time>2014-04-16T07:27:06Z</time>
      </trkpt>
      <trkpt lat="47.76074" lon="3.58609">
        <ele>186</ele>
        <time>2014-04-16T07:27:10Z</time>
      </trkpt>
      <trkpt lat="47.7607" lon="3.58613">
        <ele>186</ele>
        <time>2014-04-16T07:27:14Z</time>
      </trkpt>
      <trkpt lat="47.76067" lon="3.58617">
        <ele>186</ele>
        <time>2014-04-16T07:27:19Z</time>
      </trkpt>
      <trkpt lat="47.76063" lon="3.58622">
        <ele>186</ele>
        <time>2014-04-16T07:27:24Z</time>
      </trkpt>
      <trkpt lat="47.7606" lon="3.58626">
        <ele>186</ele>
        <time>2014-04-16T07:27:28Z</time>
      </trkpt>
      <trkpt lat="47.76055" lon="3.58629">
        <ele>186</ele>
        <time>2014-04-16T07:27:33Z</time>
      </trkpt>
      <trkpt lat="47.7605" lon="3.58633">
        <ele>186</ele>
        <time>2014-04-16T07:27:37Z</time>
      </trkpt>
      <trkpt lat="47.76046" lon="3.58637">
        <ele>186</ele>
        <time>2014-04-16T07:27:40Z</time>
      </trkpt>
      <trkpt lat="47.76043" lon="3.58643">
        <ele>186</ele>
        <time>2014-04-16T07:27:44Z</time>
      </trkpt>
      <trkpt lat="47.76039" lon="3.58641">
        <ele>186</ele>
        <time>2014-04-16T07:27:54Z</time>
      </trkpt>
      <trkpt lat="47.76034" lon="3.58645">
        <ele>186</ele>
        <time>2014-04-16T07:27:59Z</time>
      </trkpt>
      <trkpt lat="47.7603" lon="3.58648">
        <ele>186</ele>
        <time>2014-04-16T07:28:01Z</time>
      </trkpt>
      <trkpt lat="47.76026" lon="3.58652">
        <ele>186</ele>
        <time>2014-04-16T07:28:06Z</time>
      </trkpt>
      <trkpt lat="47.76021" lon="3.58657">
        <ele>186</ele>
        <time>2014-04-16T07:28:10Z</time>
      </trkpt>
      <trkpt lat="47.76018" lon="3.58662">
        <ele>185</ele>
        <time>2014-04-16T07:28:13Z</time>
      </trkpt>
      <trkpt lat="47.76013" lon="3.58665">
        <ele>185</ele>
        <time>2014-04-16T07:28:19Z</time>
      </trkpt>
      <trkpt lat="47.76008" lon="3.58667">
        <ele>186</ele>
        <time>2014-04-16T07:28:24Z</time>
      </trkpt>
      <trkpt lat="47.76004" lon="3.58671">
        <ele>185</ele>
        <time>2014-04-16T07:28:29Z</time>
      </trkpt>
      <trkpt lat="47.76" lon="3.58675">
        <ele>184</ele>
        <time>2014-04-16T07:28:34Z</time>
      </trkpt>
      <trkpt lat="47.75995" lon="3.58679">
        <ele>183</ele>
        <time>2014-04-16T07:28:39Z</time>
      </trkpt>
      <trkpt lat="47.7599" lon="3.58683">
        <ele>183</ele>
        <time>2014-04-16T07:28:48Z</time>
      </trkpt>
      <trkpt lat="47.75986" lon="3.58687">
        <ele>182</ele>
        <time>2014-04-16T07:28:53Z</time>
      </trkpt>
      <trkpt lat="47.75982" lon="3.58692">
        <ele>182</ele>
        <time>2014-04-16T07:28:57Z</time>
      </trkpt>
      <trkpt lat="47.75977" lon="3.58696">
        <ele>181</ele>
        <time>2014-04-16T07:29:02Z</time>
      </trkpt>
      <trkpt lat="47.75972" lon="3.58699">
        <ele>181</ele>
        <time>2014-04-16T07:29:08Z</time>
      </trkpt>
      <trkpt lat="47.75969" lon="3.58704">
        <ele>181</ele>
        <time>2014-04-16T07:29:11Z</time>
      </trkpt>
      <trkpt lat="47.75964" lon="3.58707">
        <ele>181</ele>
        <time>2014-04-16T07:29:16Z</time>
      </trkpt>
      <trkpt lat="47.75959" lon="3.58711">
        <ele>180</ele>
        <time>2014-04-16T07:29:21Z</time>
      </trkpt>
      <trkpt lat="47.75955" lon="3.58715">
        <ele>180</ele>
        <time>2014-04-16T07:29:24Z</time>
      </trkpt>
      <trkpt lat="47.75951" lon="3.58719">
        <ele>180</ele>
        <time>2014-04-16T07:29:28Z</time>
      </trkpt>
      <trkpt lat="47.75948" lon="3.58725">
        <ele>180</ele>
        <time>2014-04-16T07:30:21Z</time>
      </trkpt>
      <trkpt lat="47.75942" lon="3.58727">
        <ele>179</ele>
        <time>2014-04-16T07:30:25Z</time>
      </trkpt>
      <trkpt lat="47.75938" lon="3.5873">
        <ele>179</ele>
        <time>2014-04-16T07:30:30Z</time>
      </trkpt>
      <trkpt lat="47.75934" lon="3.58733">
        <ele>179</ele>
        <time>2014-04-16T07:30:33Z</time>
      </trkpt>
      <trkpt lat="47.7593" lon="3.58736">
        <ele>178</ele>
        <time>2014-04-16T07:30:36Z</time>
      </trkpt>
      <trkpt lat="47.75926" lon="3.5874">
        <ele>178</ele>
        <time>2014-04-16T07:30:40Z</time>
      </trkpt>
      <trkpt lat="47.75921" lon="3.58741">
        <ele>177</ele>
        <time>2014-04-16T07:30:44Z</time>
      </trkpt>
      <trkpt lat="47.75917" lon="3.58744">
        <ele>177</ele>
        <time>2014-04-16T07:30:49Z</time>
      </trkpt>
      <trkpt lat="47.75911" lon="3.58742">
        <ele>173</ele>
        <time>2014-04-16T07:30:57Z</time>
      </trkpt>
      <trkpt lat="47.75907" lon="3.58745">
        <ele>173</ele>
        <time>2014-04-16T07:31:02Z</time>
      </trkpt>
      <trkpt lat="47.75903" lon="3.5875">
        <ele>172</ele>
        <time>2014-04-16T07:31:08Z</time>
      </trkpt>
      <trkpt lat="47.75899" lon="3.58749">
        <ele>171</ele>
        <time>2014-04-16T07:31:15Z</time>
      </trkpt>
      <trkpt lat="47.75891" lon="3.58745">
        <ele>170</ele>
        <time>2014-04-16T07:31:25Z</time>
      </trkpt>
      <trkpt lat="47.75888" lon="3.58745">
        <ele>169</ele>
        <time>2014-04-16T07:31:33Z</time>
      </trkpt>
      <trkpt lat="47.75884" lon="3.58749">
        <ele>168</ele>
        <time>2014-04-16T07:31:39Z</time>
      </trkpt>
      <trkpt lat="47.75879" lon="3.58749">
        <ele>168</ele>
        <time>2014-04-16T07:31:45Z</time>
      </trkpt>
      <trkpt lat="47.75874" lon="3.5875">
        <ele>167</ele>
        <time>2014-04-16T07:31:52Z</time>
      </trkpt>
      <trkpt lat="47.75872" lon="3.58749">
        <ele>167</ele>
        <time>2014-04-16T07:31:58Z</time>
      </trkpt>
      <trkpt lat="47.7587" lon="3.58751">
        <ele>168</ele>
        <time>2014-04-16T07:32:05Z</time>
      </trkpt>
      <trkpt lat="47.75865" lon="3.58753">
        <ele>167</ele>
        <time>2014-04-16T07:32:13Z</time>
      </trkpt>
      <trkpt lat="47.75862" lon="3.58756">
        <ele>167</ele>
        <time>2014-04-16T07:33:02Z</time>
      </trkpt>
      <trkpt lat="47.75859" lon="3.58758">
        <ele>166</ele>
        <time>2014-04-16T07:35:27Z</time>
      </trkpt>
      <trkpt lat="47.75854" lon="3.5876">
        <ele>166</ele>
        <time>2014-04-16T07:35:50Z</time>
      </trkpt>
      <trkpt lat="47.75849" lon="3.58761">
        <ele>165</ele>
        <time>2014-04-16T07:35:55Z</time>
      </trkpt>
      <trkpt lat="47.75845" lon="3.5876">
        <ele>164</ele>
        <time>2014-04-16T07:36:00Z</time>
      </trkpt>
      <trkpt lat="47.7584" lon="3.58757">
        <ele>163</ele>
        <time>2014-04-16T07:36:06Z</time>
      </trkpt>
      <trkpt lat="47.75836" lon="3.58757">
        <ele>162</ele>
        <time>2014-04-16T07:36:13Z</time>
      </trkpt>
      <trkpt lat="47.7583" lon="3.58756">
        <ele>157</ele>
        <time>2014-04-16T07:36:20Z</time>
      </trkpt>
      <trkpt lat="47.75806" lon="3.58751">
        <ele>152</ele>
        <time>2014-04-16T07:36:51Z</time>
      </trkpt>
      <trkpt lat="47.75802" lon="3.5875">
        <ele>148</ele>
        <time>2014-04-16T07:36:56Z</time>
      </trkpt>
      <trkpt lat="47.75799" lon="3.58751">
        <ele>150</ele>
        <time>2014-04-16T07:37:02Z</time>
      </trkpt>
      <trkpt lat="47.75794" lon="3.58746">
        <ele>146</ele>
        <time>2014-04-16T07:37:15Z</time>
      </trkpt>
      <trkpt lat="47.75789" lon="3.58746">
        <ele>145</ele>
        <time>2014-04-16T07:37:21Z</time>
      </trkpt>
      <trkpt lat="47.75784" lon="3.58747">
        <ele>144</ele>
        <time>2014-04-16T07:37:26Z</time>
      </trkpt>
      <trkpt lat="47.75779" lon="3.58751">
        <ele>146</ele>
        <time>2014-04-16T07:37:30Z</time>
      </trkpt>
      <trkpt lat="47.75775" lon="3.58756">
        <ele>145</ele>
        <time>2014-04-16T07:37:38Z</time>
      </trkpt>
      <trkpt lat="47.7577" lon="3.58757">
        <ele>144</ele>
        <time>2014-04-16T07:37:44Z</time>
      </trkpt>
      <trkpt lat="47.75765" lon="3.58758">
        <ele>142</ele>
        <time>2014-04-16T07:37:49Z</time>
      </trkpt>
      <trkpt lat="47.75761" lon="3.58762">
        <ele>142</ele>
        <time>2014-04-16T07:37:55Z</time>
      </trkpt>
      <trkpt lat="47.75757" lon="3.58765">
        <ele>142</ele>
        <time>2014-04-16T07:37:59Z</time>
      </trkpt>
      <trkpt lat="47.75752" lon="3.58768">
        <ele>142</ele>
        <time>2014-04-16T07:38:04Z</time>
      </trkpt>
      <trkpt lat="47.75751" lon="3.58767">
        <ele>142</ele>
        <time>2014-04-16T07:38:21Z</time>
      </trkpt>
      <trkpt lat="47.75747" lon="3.5877">
        <ele>131</ele>
        <time>2014-04-16T07:38:27Z</time>
      </trkpt>
      <trkpt lat="47.75737" lon="3.58774">
        <ele>130</ele>
        <time>2014-04-16T07:39:29Z</time>
      </trkpt>
      <trkpt lat="47.75732" lon="3.58775">
        <ele>129</ele>
        <time>2014-04-16T07:39:34Z</time>
      </trkpt>
      <trkpt lat="47.75727" lon="3.58774">
        <ele>129</ele>
        <time>2014-04-16T07:39:39Z</time>
      </trkpt>
      <trkpt lat="47.75722" lon="3.58777">
        <ele>128</ele>
        <time>2014-04-16T07:39:43Z</time>
      </trkpt>
      <trkpt lat="47.75718" lon="3.58781">
        <ele>128</ele>
        <time>2014-04-16T07:39:47Z</time>
      </trkpt>
      <trkpt lat="47.75714" lon="3.58785">
        <ele>127</ele>
        <time>2014-04-16T07:39:51Z</time>
      </trkpt>
      <trkpt lat="47.7571" lon="3.58789">
        <ele>127</ele>
        <time>2014-04-16T07:39:57Z</time>
      </trkpt>
      <trkpt lat="47.75705" lon="3.5879">
        <ele>126</ele>
        <time>2014-04-16T07:40:01Z</time>
      </trkpt>
      <trkpt lat="47.75701" lon="3.58792">
        <ele>126</ele>
        <time>2014-04-16T07:40:09Z</time>
      </trkpt>
      <trkpt lat="47.75702" lon="3.58787">
        <ele>126</ele>
        <time>2014-04-16T07:40:57Z</time>
      </trkpt>
      <trkpt lat="47.75695" lon="3.58793">
        <ele>125</ele>
        <time>2014-04-16T07:41:17Z</time>
      </trkpt>
      <trkpt lat="47.7569" lon="3.58797">
        <ele>125</ele>
        <time>2014-04-16T07:41:37Z</time>
      </trkpt>
      <trkpt lat="47.75686" lon="3.58801">
        <ele>124</ele>
        <time>2014-04-16T07:41:42Z</time>
      </trkpt>
      <trkpt lat="47.75681" lon="3.588">
        <ele>124</ele>
        <time>2014-04-16T07:41:47Z</time>
      </trkpt>
      <trkpt lat="47.75676" lon="3.58801">
        <ele>123</ele>
        <time>2014-04-16T07:41:53Z</time>
      </trkpt>
      <trkpt lat="47.75671" lon="3.58805">
        <ele>123</ele>
        <time>2014-04-16T07:41:58Z</time>
      </trkpt>
      <trkpt lat="47.7567" lon="3.58809">
        <ele>122</ele>
        <time>2014-04-16T07:42:05Z</time>
      </trkpt>
      <trkpt lat="47.75664" lon="3.58809">
        <ele>115</ele>
        <time>2014-04-16T07:42:10Z</time>
      </trkpt>
      <trkpt lat="47.75659" lon="3.58811">
        <ele>115</ele>
        <time>2014-04-16T07:42:14Z</time>
      </trkpt>
      <trkpt lat="47.75654" lon="3.58812">
        <ele>115</ele>
        <time>2014-04-16T07:42:17Z</time>
      </trkpt>
      <trkpt lat="47.75649" lon="3.58815">
        <ele>115</ele>
        <time>2014-04-16T07:42:21Z</time>
      </trkpt>
      <trkpt lat="47.75645" lon="3.58821">
        <ele>115</ele>
        <time>2014-04-16T07:42:25Z</time>
      </trkpt>
      <trkpt lat="47.75641" lon="3.58822">
        <ele>115</ele>
        <time>2014-04-16T07:42:30Z</time>
      </trkpt>
      <trkpt lat="47.75636" lon="3.58824">
        <ele>115</ele>
        <time>2014-04-16T07:42:35Z</time>
      </trkpt>
      <trkpt lat="47.75632" lon="3.5883">
        <ele>115</ele>
        <time>2014-04-16T07:42:40Z</time>
      </trkpt>
      <trkpt lat="47.75628" lon="3.58835">
        <ele>114</ele>
        <time>2014-04-16T07:42:45Z</time>
      </trkpt>
      <trkpt lat="47.75619" lon="3.5884">
        <ele>113</ele>
        <time>2014-04-16T07:42:54Z</time>
      </trkpt>
      <trkpt lat="47.75616" lon="3.58838">
        <ele>113</ele>
        <time>2014-04-16T07:43:01Z</time>
      </trkpt>
      <trkpt lat="47.75615" lon="3.58835">
        <ele>113</ele>
        <time>2014-04-16T07:43:23Z</time>
      </trkpt>
      <trkpt lat="47.75611" lon="3.58839">
        <ele>113</ele>
        <time>2014-04-16T07:43:27Z</time>
      </trkpt>
      <trkpt lat="47.75609" lon="3.58847">
        <ele>112</ele>
        <time>2014-04-16T07:43:31Z</time>
      </trkpt>
      <trkpt lat="47.75607" lon="3.58855">
        <ele>112</ele>
        <time>2014-04-16T07:43:33Z</time>
      </trkpt>
      <trkpt lat="47.75604" lon="3.58861">
        <ele>112</ele>
        <time>2014-04-16T07:43:35Z</time>
      </trkpt>
      <trkpt lat="47.756" lon="3.58873">
        <ele>112</ele>
        <time>2014-04-16T07:43:43Z</time>
      </trkpt>
      <trkpt lat="47.75603" lon="3.58881">
        <ele>112</ele>
        <time>2014-04-16T07:43:50Z</time>
      </trkpt>
      <trkpt lat="47.75602" lon="3.58887">
        <ele>112</ele>
        <time>2014-04-16T07:43:55Z</time>
      </trkpt>
      <trkpt lat="47.75601" lon="3.58894">
        <ele>111</ele>
        <time>2014-04-16T07:44:00Z</time>
      </trkpt>
      <trkpt lat="47.756" lon="3.58902">
        <ele>111</ele>
        <time>2014-04-16T07:44:04Z</time>
      </trkpt>
      <trkpt lat="47.75601" lon="3.5891">
        <ele>110</ele>
        <time>2014-04-16T07:44:10Z</time>
      </trkpt>
      <trkpt lat="47.75601" lon="3.58918">
        <ele>108</ele>
        <time>2014-04-16T07:44:15Z</time>
      </trkpt>
      <trkpt lat="47.75601" lon="3.58925">
        <ele>108</ele>
        <time>2014-04-16T07:44:20Z</time>
      </trkpt>
      <trkpt lat="47.75598" lon="3.58931">
        <ele>108</ele>
        <time>2014-04-16T07:44:24Z</time>
      </trkpt>
      <trkpt lat="47.75597" lon="3.58938">
        <ele>108</ele>
        <time>2014-04-16T07:44:29Z</time>
      </trkpt>
      <trkpt lat="47.75595" lon="3.58944">
        <ele>108</ele>
        <time>2014-04-16T07:44:33Z</time>
      </trkpt>
      <trkpt lat="47.75593" lon="3.58952">
        <ele>108</ele>
        <time>2014-04-16T07:44:38Z</time>
      </trkpt>
      <trkpt lat="47.75591" lon="3.5896">
        <ele>108</ele>
        <time>2014-04-16T07:44:42Z</time>
      </trkpt>
      <trkpt lat="47.75588" lon="3.58965">
        <ele>107</ele>
        <time>2014-04-16T07:44:45Z</time>
      </trkpt>
      <trkpt lat="47.75583" lon="3.5897">
        <ele>107</ele>
        <time>2014-04-16T07:44:49Z</time>
      </trkpt>
      <trkpt lat="47.75578" lon="3.58972">
        <ele>105</ele>
        <time>2014-04-16T07:44:53Z</time>
      </trkpt>
      <trkpt lat="47.75574" lon="3.58973">
        <ele>105</ele>
        <time>2014-04-16T07:44:56Z</time>
      </trkpt>
      <trkpt lat="47.75569" lon="3.58974">
        <ele>105</ele>
        <time>2014-04-16T07:45:00Z</time>
      </trkpt>
      <trkpt lat="47.75565" lon="3.58978">
        <ele>105</ele>
        <time>2014-04-16T07:45:05Z</time>
      </trkpt>
      <trkpt lat="47.75565" lon="3.58986">
        <ele>104</ele>
        <time>2014-04-16T07:45:10Z</time>
      </trkpt>
      <trkpt lat="47.7556" lon="3.58987">
        <ele>104</ele>
        <time>2014-04-16T07:45:20Z</time>
      </trkpt>
      <trkpt lat="47.75557" lon="3.58993">
        <ele>104</ele>
        <time>2014-04-16T07:45:25Z</time>
      </trkpt>
      <trkpt lat="47.75553" lon="3.58998">
        <ele>104</ele>
        <time>2014-04-16T07:45:30Z</time>
      </trkpt>
      <trkpt lat="47.75548" lon="3.58997">
        <ele>104</ele>
        <time>2014-04-16T07:45:34Z</time>
      </trkpt>
      <trkpt lat="47.75544" lon="3.58995">
        <ele>104</ele>
        <time>2014-04-16T07:45:38Z</time>
      </trkpt>
      <trkpt lat="47.75538" lon="3.58998">
        <ele>104</ele>
        <time>2014-04-16T07:45:42Z</time>
      </trkpt>
      <trkpt lat="47.75533" lon="3.58997">
        <ele>104</ele>
        <time>2014-04-16T07:45:45Z</time>
      </trkpt>
      <trkpt lat="47.75529" lon="3.58992">
        <ele>104</ele>
        <time>2014-04-16T07:45:51Z</time>
      </trkpt>
      <trkpt lat="47.75525" lon="3.58996">
        <ele>104</ele>
        <time>2014-04-16T07:45:57Z</time>
      </trkpt>
      <trkpt lat="47.75519" lon="3.58997">
        <ele>103</ele>
        <time>2014-04-16T07:46:02Z</time>
      </trkpt>
      <trkpt lat="47.75514" lon="3.58997">
        <ele>103</ele>
        <time>2014-04-16T07:46:07Z</time>
      </trkpt>
      <trkpt lat="47.75511" lon="3.58995">
        <ele>103</ele>
        <time>2014-04-16T07:46:23Z</time>
      </trkpt>
      <trkpt lat="47.75505" lon="3.58997">
        <ele>103</ele>
        <time>2014-04-16T07:46:28Z</time>
      </trkpt>
      <trkpt lat="47.755" lon="3.58996">
        <ele>102</ele>
        <time>2014-04-16T07:46:32Z</time>
      </trkpt>
      <trkpt lat="47.75495" lon="3.58996">
        <ele>102</ele>
        <time>2014-04-16T07:46:36Z</time>
      </trkpt>
      <trkpt lat="47.7549" lon="3.58994">
        <ele>102</ele>
        <time>2014-04-16T07:46:39Z</time>
      </trkpt>
      <trkpt lat="47.75486" lon="3.58993">
        <ele>102</ele>
        <time>2014-04-16T07:46:42Z</time>
      </trkpt>
      <trkpt lat="47.7548" lon="3.58993">
        <ele>102</ele>
        <time>2014-04-16T07:46:46Z</time>
      </trkpt>
      <trkpt lat="47.75477" lon="3.58998">
        <ele>102</ele>
        <time>2014-04-16T07:46:51Z</time>
      </trkpt>
      <trkpt lat="47.75476" lon="3.59006">
        <ele>101</ele>
        <time>2014-04-16T07:46:57Z</time>
      </trkpt>
      <trkpt lat="47.7547" lon="3.59011">
        <ele>101</ele>
        <time>2014-04-16T07:47:07Z</time>
      </trkpt>
      <trkpt lat="47.75467" lon="3.59016">
        <ele>101</ele>
        <time>2014-04-16T07:47:10Z</time>
      </trkpt>
      <trkpt lat="47.75466" lon="3.59024">
        <ele>101</ele>
        <time>2014-04-16T07:47:14Z</time>
      </trkpt>
      <trkpt lat="47.75465" lon="3.59031">
        <ele>101</ele>
        <time>2014-04-16T07:47:18Z</time>
      </trkpt>
      <trkpt lat="47.75463" lon="3.59039">
        <ele>101</ele>
        <time>2014-04-16T07:47:22Z</time>
      </trkpt>
      <trkpt lat="47.7546" lon="3.59046">
        <ele>101</ele>
        <time>2014-04-16T07:47:27Z</time>
      </trkpt>
      <trkpt lat="47.75457" lon="3.59053">
        <ele>101</ele>
        <time>2014-04-16T07:47:31Z</time>
      </trkpt>
      <trkpt lat="47.75454" lon="3.59061">
        <ele>101</ele>
        <time>2014-04-16T07:47:35Z</time>
      </trkpt>
      <trkpt lat="47.75452" lon="3.59066">
        <ele>101</ele>
        <time>2014-04-16T07:47:40Z</time>
      </trkpt>
      <trkpt lat="47.7545" lon="3.59073">
        <ele>101</ele>
        <time>2014-04-16T07:47:44Z</time>
      </trkpt>
      <trkpt lat="47.75449" lon="3.59077">
        <ele>101</ele>
        <time>2014-04-16T07:47:51Z</time>
      </trkpt>
      <trkpt lat="47.75445" lon="3.59084">
        <ele>101</ele>
        <time>2014-04-16T07:48:00Z</time>
      </trkpt>
      <trkpt lat="47.75443" lon="3.59091">
        <ele>101</ele>
        <time>2014-04-16T07:48:04Z</time>
      </trkpt>
      <trkpt lat="47.75442" lon="3.59098">
        <ele>101</ele>
        <time>2014-04-16T07:48:08Z</time>
      </trkpt>
      <trkpt lat="47.75438" lon="3.59102">
        <ele>101</ele>
        <time>2014-04-16T07:48:10Z</time>
      </trkpt>
      <trkpt lat="47.75437" lon="3.5911">
        <ele>101</ele>
        <time>2014-04-16T07:48:18Z</time>
      </trkpt>
      <trkpt lat="47.75433" lon="3.59115">
        <ele>101</ele>
        <time>2014-04-16T07:48:21Z</time>
      </trkpt>
      <trkpt lat="47.75429" lon="3.5912">
        <ele>101</ele>
        <time>2014-04-16T07:48:24Z</time>
      </trkpt>
      <trkpt lat="47.75427" lon="3.59125">
        <ele>101</ele>
        <time>2014-04-16T07:48:28Z</time>
      </trkpt>
      <trkpt lat="47.75425" lon="3.59131">
        <ele>101</ele>
        <time>2014-04-16T07:48:31Z</time>
      </trkpt>
      <trkpt lat="47.75422" lon="3.59138">
        <ele>101</ele>
        <time>2014-04-16T07:48:34Z</time>
      </trkpt>
      <trkpt lat="47.7542" lon="3.59143">
        <ele>101</ele>
        <time>2014-04-16T07:48:37Z</time>
      </trkpt>
      <trkpt lat="47.75418" lon="3.59151">
        <ele>101</ele>
        <time>2014-04-16T07:48:43Z</time>
      </trkpt>
      <trkpt lat="47.75416" lon="3.59158">
        <ele>101</ele>
        <time>2014-04-16T07:48:46Z</time>
      </trkpt>
      <trkpt lat="47.75414" lon="3.59165">
        <ele>101</ele>
        <time>2014-04-16T07:48:49Z</time>
      </trkpt>
      <trkpt lat="47.75412" lon="3.59173">
        <ele>101</ele>
        <time>2014-04-16T07:48:52Z</time>
      </trkpt>
      <trkpt lat="47.75408" lon="3.59179">
        <ele>101</ele>
        <time>2014-04-16T07:48:56Z</time>
      </trkpt>
      <trkpt lat="47.75403" lon="3.59179">
        <ele>101</ele>
        <time>2014-04-16T07:49:01Z</time>
      </trkpt>
      <trkpt lat="47.75402" lon="3.5917">
        <ele>101</ele>
        <time>2014-04-16T07:49:07Z</time>
      </trkpt>
      <trkpt lat="47.75402" lon="3.59163">
        <ele>101</ele>
        <time>2014-04-16T07:49:09Z</time>
      </trkpt>
      <trkpt lat="47.75401" lon="3.59155">
        <ele>101</ele>
        <time>2014-04-16T07:49:12Z</time>
      </trkpt>
      <trkpt lat="47.75398" lon="3.59151">
        <ele>101</ele>
        <time>2014-04-16T07:49:20Z</time>
      </trkpt>
      <trkpt lat="47.75395" lon="3.59146">
        <ele>100</ele>
        <time>2014-04-16T07:49:27Z</time>
      </trkpt>
      <trkpt lat="47.7539" lon="3.59145">
        <ele>100</ele>
        <time>2014-04-16T07:49:30Z</time>
      </trkpt>
      <trkpt lat="47.75385" lon="3.59143">
        <ele>100</ele>
        <time>2014-04-16T07:49:34Z</time>
      </trkpt>
      <trkpt lat="47.7538" lon="3.59142">
        <ele>100</ele>
        <time>2014-04-16T07:49:38Z</time>
      </trkpt>
      <trkpt lat="47.75375" lon="3.5914">
        <ele>100</ele>
        <time>2014-04-16T07:49:41Z</time>
      </trkpt>
      <trkpt lat="47.7537" lon="3.59138">
        <ele>100</ele>
        <time>2014-04-16T07:49:44Z</time>
      </trkpt>
      <trkpt lat="47.75366" lon="3.59136">
        <ele>100</ele>
        <time>2014-04-16T07:49:49Z</time>
      </trkpt>
      <trkpt lat="47.75362" lon="3.59133">
        <ele>100</ele>
        <time>2014-04-16T07:49:53Z</time>
      </trkpt>
      <trkpt lat="47.75356" lon="3.59132">
        <ele>100</ele>
        <time>2014-04-16T07:49:57Z</time>
      </trkpt>
      <trkpt lat="47.75351" lon="3.59131">
        <ele>100</ele>
        <time>2014-04-16T07:50:01Z</time>
      </trkpt>
      <trkpt lat="47.75346" lon="3.59127">
        <ele>100</ele>
        <time>2014-04-16T07:50:06Z</time>
      </trkpt>
      <trkpt lat="47.75342" lon="3.59122">
        <ele>100</ele>
        <time>2014-04-16T07:50:10Z</time>
      </trkpt>
      <trkpt lat="47.75339" lon="3.59119">
        <ele>100</ele>
        <time>2014-04-16T07:50:13Z</time>
      </trkpt>
      <trkpt lat="47.75335" lon="3.59115">
        <ele>100</ele>
        <time>2014-04-16T07:50:16Z</time>
      </trkpt>
      <trkpt lat="47.75331" lon="3.5911">
        <ele>100</ele>
        <time>2014-04-16T07:50:20Z</time>
      </trkpt>
      <trkpt lat="47.75327" lon="3.59106">
        <ele>100</ele>
        <time>2014-04-16T07:50:24Z</time>
      </trkpt>
      <trkpt lat="47.75323" lon="3.59102">
        <ele>100</ele>
        <time>2014-04-16T07:50:28Z</time>
      </trkpt>
      <trkpt lat="47.75319" lon="3.59097">
        <ele>100</ele>
        <time>2014-04-16T07:50:33Z</time>
      </trkpt>
      <trkpt lat="47.75315" lon="3.59094">
        <ele>100</ele>
        <time>2014-04-16T07:50:40Z</time>
      </trkpt>
      <trkpt lat="47.75313" lon="3.59087">
        <ele>100</ele>
        <time>2014-04-16T07:50:45Z</time>
      </trkpt>
      <trkpt lat="47.7531" lon="3.59082">
        <ele>100</ele>
        <time>2014-04-16T07:50:48Z</time>
      </trkpt>
      <trkpt lat="47.75305" lon="3.59078">
        <ele>100</ele>
        <time>2014-04-16T07:50:52Z</time>
      </trkpt>
      <trkpt lat="47.75299" lon="3.59074">
        <ele>100</ele>
        <time>2014-04-16T07:50:54Z</time>
      </trkpt>
      <trkpt lat="47.75295" lon="3.59069">
        <ele>100</ele>
        <time>2014-04-16T07:50:57Z</time>
      </trkpt>
      <trkpt lat="47.75291" lon="3.59065">
        <ele>100</ele>
        <time>2014-04-16T07:51:00Z</time>
      </trkpt>
      <trkpt lat="47.75286" lon="3.59062">
        <ele>100</ele>
        <time>2014-04-16T07:51:04Z</time>
      </trkpt>
      <trkpt lat="47.75282" lon="3.59058">
        <ele>100</ele>
        <time>2014-04-16T07:51:09Z</time>
      </trkpt>
      <trkpt lat="47.7528" lon="3.59051">
        <ele>100</ele>
        <time>2014-04-16T07:51:14Z</time>
      </trkpt>
      <trkpt lat="47.75274" lon="3.5905">
        <ele>100</ele>
        <time>2014-04-16T07:51:19Z</time>
      </trkpt>
      <trkpt lat="47.75268" lon="3.59049">
        <ele>101</ele>
        <time>2014-04-16T07:51:23Z</time>
      </trkpt>
      <trkpt lat="47.75263" lon="3.59048">
        <ele>101</ele>
        <time>2014-04-16T07:51:27Z</time>
      </trkpt>
      <trkpt lat="47.75259" lon="3.59045">
        <ele>101</ele>
        <time>2014-04-16T07:51:31Z</time>
      </trkpt>
      <trkpt lat="47.75255" lon="3.59039">
        <ele>100</ele>
        <time>2014-04-16T07:51:37Z</time>
      </trkpt>
      <trkpt lat="47.75251" lon="3.59037">
        <ele>100</ele>
        <time>2014-04-16T07:51:42Z</time>
      </trkpt>
      <trkpt lat="47.75246" lon="3.59035">
        <ele>101</ele>
        <time>2014-04-16T07:51:47Z</time>
      </trkpt>
      <trkpt lat="47.7524" lon="3.59034">
        <ele>101</ele>
        <time>2014-04-16T07:51:50Z</time>
      </trkpt>
      <trkpt lat="47.75235" lon="3.59032">
        <ele>101</ele>
        <time>2014-04-16T07:51:53Z</time>
      </trkpt>
      <trkpt lat="47.7523" lon="3.59029">
        <ele>100</ele>
        <time>2014-04-16T07:51:57Z</time>
      </trkpt>
      <trkpt lat="47.75225" lon="3.59029">
        <ele>100</ele>
        <time>2014-04-16T07:52:01Z</time>
      </trkpt>
      <trkpt lat="47.75221" lon="3.59028">
        <ele>100</ele>
        <time>2014-04-16T07:52:05Z</time>
      </trkpt>
      <trkpt lat="47.75217" lon="3.59022">
        <ele>100</ele>
        <time>2014-04-16T07:52:09Z</time>
      </trkpt>
      <trkpt lat="47.75213" lon="3.59019">
        <ele>100</ele>
        <time>2014-04-16T07:52:13Z</time>
      </trkpt>
      <trkpt lat="47.75208" lon="3.59017">
        <ele>100</ele>
        <time>2014-04-16T07:52:18Z</time>
      </trkpt>
      <trkpt lat="47.75204" lon="3.59012">
        <ele>100</ele>
        <time>2014-04-16T07:52:22Z</time>
      </trkpt>
      <trkpt lat="47.75201" lon="3.59006">
        <ele>100</ele>
        <time>2014-04-16T07:52:27Z</time>
      </trkpt>
      <trkpt lat="47.75204" lon="3.58999">
        <ele>100</ele>
        <time>2014-04-16T07:52:34Z</time>
      </trkpt>
      <trkpt lat="47.75197" lon="3.58995">
        <ele>100</ele>
        <time>2014-04-16T07:53:42Z</time>
      </trkpt>
      <trkpt lat="47.75195" lon="3.58987">
        <ele>100</ele>
        <time>2014-04-16T07:53:49Z</time>
      </trkpt>
      <trkpt lat="47.75199" lon="3.58987">
        <ele>100</ele>
        <time>2014-04-16T07:55:55Z</time>
      </trkpt>
      <trkpt lat="47.75199" lon="3.58992">
        <ele>100</ele>
        <time>2014-04-16T07:56:19Z</time>
      </trkpt>
      <trkpt lat="47.75194" lon="3.58992">
        <ele>100</ele>
        <time>2014-04-16T07:56:23Z</time>
      </trkpt>
      <trkpt lat="47.75189" lon="3.58989">
        <ele>100</ele>
        <time>2014-04-16T07:56:27Z</time>
      </trkpt>
      <trkpt lat="47.75185" lon="3.58985">
        <ele>100</ele>
        <time>2014-04-16T07:56:30Z</time>
      </trkpt>
      <trkpt lat="47.75181" lon="3.58981">
        <ele>100</ele>
        <time>2014-04-16T07:56:36Z</time>
      </trkpt>
      <trkpt lat="47.75175" lon="3.58979">
        <ele>100</ele>
        <time>2014-04-16T07:56:39Z</time>
      </trkpt>
      <trkpt lat="47.75171" lon="3.58977">
        <ele>100</ele>
        <time>2014-04-16T07:56:47Z</time>
      </trkpt>
      <trkpt lat="47.75165" lon="3.58973">
        <ele>101</ele>
        <time>2014-04-16T07:56:50Z</time>
      </trkpt>
      <trkpt lat="47.75161" lon="3.58969">
        <ele>101</ele>
        <time>2014-04-16T07:56:55Z</time>
      </trkpt>
      <trkpt lat="47.75156" lon="3.58966">
        <ele>101</ele>
        <time>2014-04-16T07:57:00Z</time>
      </trkpt>
      <trkpt lat="47.75151" lon="3.58964">
        <ele>101</ele>
        <time>2014-04-16T07:57:05Z</time>
      </trkpt>
      <trkpt lat="47.75147" lon="3.58961">
        <ele>101</ele>
        <time>2014-04-16T07:57:09Z</time>
      </trkpt>
      <trkpt lat="47.75144" lon="3.58956">
        <ele>101</ele>
        <time>2014-04-16T07:57:16Z</time>
      </trkpt>
      <trkpt lat="47.75139" lon="3.58952">
        <ele>102</ele>
        <time>2014-04-16T07:57:21Z</time>
      </trkpt>
      <trkpt lat="47.75135" lon="3.58949">
        <ele>102</ele>
        <time>2014-04-16T07:57:25Z</time>
      </trkpt>
      <trkpt lat="47.7513" lon="3.58944">
        <ele>102</ele>
        <time>2014-04-16T07:57:29Z</time>
      </trkpt>
      <trkpt lat="47.75125" lon="3.58941">
        <ele>102</ele>
        <time>2014-04-16T07:57:33Z</time>
      </trkpt>
      <trkpt lat="47.75119" lon="3.58938">
        <ele>102</ele>
        <time>2014-04-16T07:57:36Z</time>
      </trkpt>
      <trkpt lat="47.75114" lon="3.58937">
        <ele>102</ele>
        <time>2014-04-16T07:57:40Z</time>
      </trkpt>
      <trkpt lat="47.75109" lon="3.58937">
        <ele>102</ele>
        <time>2014-04-16T07:57:44Z</time>
      </trkpt>
      <trkpt lat="47.75103" lon="3.58937">
        <ele>102</ele>
        <time>2014-04-16T07:57:48Z</time>
      </trkpt>
      <trkpt lat="47.75099" lon="3.58935">
        <ele>102</ele>
        <time>2014-04-16T07:57:53Z</time>
      </trkpt>
      <trkpt lat="47.75094" lon="3.58936">
        <ele>102</ele>
        <time>2014-04-16T07:57:57Z</time>
      </trkpt>
      <trkpt lat="47.75088" lon="3.58937">
        <ele>102</ele>
        <time>2014-04-16T07:58:01Z</time>
      </trkpt>
      <trkpt lat="47.75084" lon="3.58934">
        <ele>102</ele>
        <time>2014-04-16T07:58:06Z</time>
      </trkpt>
      <trkpt lat="47.75079" lon="3.58931">
        <ele>103</ele>
        <time>2014-04-16T07:58:12Z</time>
      </trkpt>
      <trkpt lat="47.75075" lon="3.58929">
        <ele>103</ele>
        <time>2014-04-16T07:58:16Z</time>
      </trkpt>
      <trkpt lat="47.7507" lon="3.58927">
        <ele>103</ele>
        <time>2014-04-16T07:58:20Z</time>
      </trkpt>
      <trkpt lat="47.75065" lon="3.58925">
        <ele>103</ele>
        <time>2014-04-16T07:58:25Z</time>
      </trkpt>
      <trkpt lat="47.75061" lon="3.58923">
        <ele>103</ele>
        <time>2014-04-16T07:58:29Z</time>
      </trkpt>
      <trkpt lat="47.75056" lon="3.5892">
        <ele>103</ele>
        <time>2014-04-16T07:58:34Z</time>
      </trkpt>
      <trkpt lat="47.7505" lon="3.58918">
        <ele>103</ele>
        <time>2014-04-16T07:58:41Z</time>
      </trkpt>
      <trkpt lat="47.75045" lon="3.58918">
        <ele>103</ele>
        <time>2014-04-16T07:58:45Z</time>
      </trkpt>
      <trkpt lat="47.7504" lon="3.58918">
        <ele>103</ele>
        <time>2014-04-16T07:58:52Z</time>
      </trkpt>
      <trkpt lat="47.75035" lon="3.58916">
        <ele>103</ele>
        <time>2014-04-16T07:58:56Z</time>
      </trkpt>
      <trkpt lat="47.7503" lon="3.58912">
        <ele>103</ele>
        <time>2014-04-16T07:59:00Z</time>
      </trkpt>
      <trkpt lat="47.75025" lon="3.58911">
        <ele>104</ele>
        <time>2014-04-16T07:59:02Z</time>
      </trkpt>
      <trkpt lat="47.7502" lon="3.58907">
        <ele>104</ele>
        <time>2014-04-16T07:59:07Z</time>
      </trkpt>
      <trkpt lat="47.75015" lon="3.58904">
        <ele>104</ele>
        <time>2014-04-16T07:59:12Z</time>
      </trkpt>
      <trkpt lat="47.75011" lon="3.58901">
        <ele>104</ele>
        <time>2014-04-16T07:59:18Z</time>
      </trkpt>
      <trkpt lat="47.75006" lon="3.58897">
        <ele>104</ele>
        <time>2014-04-16T07:59:22Z</time>
      </trkpt>
      <trkpt lat="47.74999" lon="3.58896">
        <ele>104</ele>
        <time>2014-04-16T07:59:25Z</time>
      </trkpt>
      <trkpt lat="47.74994" lon="3.58897">
        <ele>104</ele>
        <time>2014-04-16T07:59:28Z</time>
      </trkpt>
      <trkpt lat="47.74988" lon="3.58898">
        <ele>104</ele>
        <time>2014-04-16T07:59:32Z</time>
      </trkpt>
      <trkpt lat="47.74983" lon="3.58898">
        <ele>104</ele>
        <time>2014-04-16T07:59:35Z</time>
      </trkpt>
      <trkpt lat="47.74964" lon="3.58892">
        <ele>104</ele>
        <time>2014-04-16T07:59:51Z</time>
      </trkpt>
      <trkpt lat="47.74959" lon="3.5889">
        <ele>104</ele>
        <time>2014-04-16T07:59:54Z</time>
      </trkpt>
      <trkpt lat="47.74955" lon="3.58892">
        <ele>104</ele>
        <time>2014-04-16T07:59:58Z</time>
      </trkpt>
      <trkpt lat="47.7495" lon="3.58892">
        <ele>104</ele>
        <time>2014-04-16T08:00:03Z</time>
      </trkpt>
      <trkpt lat="47.74945" lon="3.58889">
        <ele>104</ele>
        <time>2014-04-16T08:00:08Z</time>
      </trkpt>
      <trkpt lat="47.74941" lon="3.58888">
        <ele>104</ele>
        <time>2014-04-16T08:00:11Z</time>
      </trkpt>
      <trkpt lat="47.74935" lon="3.58886">
        <ele>104</ele>
        <time>2014-04-16T08:00:15Z</time>
      </trkpt>
      <trkpt lat="47.7493" lon="3.58883">
        <ele>104</ele>
        <time>2014-04-16T08:00:20Z</time>
      </trkpt>
      <trkpt lat="47.74925" lon="3.58878">
        <ele>104</ele>
        <time>2014-04-16T08:00:24Z</time>
      </trkpt>
      <trkpt lat="47.7492" lon="3.58876">
        <ele>104</ele>
        <time>2014-04-16T08:00:27Z</time>
      </trkpt>
      <trkpt lat="47.74916" lon="3.58875">
        <ele>103</ele>
        <time>2014-04-16T08:00:30Z</time>
      </trkpt>
      <trkpt lat="47.74911" lon="3.58871">
        <ele>103</ele>
        <time>2014-04-16T08:00:34Z</time>
      </trkpt>
      <trkpt lat="47.74907" lon="3.58867">
        <ele>103</ele>
        <time>2014-04-16T08:00:44Z</time>
      </trkpt>
      <trkpt lat="47.74901" lon="3.58864">
        <ele>103</ele>
        <time>2014-04-16T08:00:46Z</time>
      </trkpt>
      <trkpt lat="47.74897" lon="3.58863">
        <ele>103</ele>
        <time>2014-04-16T08:00:49Z</time>
      </trkpt>
      <trkpt lat="47.74892" lon="3.58863">
        <ele>103</ele>
        <time>2014-04-16T08:00:52Z</time>
      </trkpt>
      <trkpt lat="47.74887" lon="3.58861">
        <ele>103</ele>
        <time>2014-04-16T08:00:55Z</time>
      </trkpt>
      <trkpt lat="47.74882" lon="3.58859">
        <ele>103</ele>
        <time>2014-04-16T08:00:59Z</time>
      </trkpt>
      <trkpt lat="47.74877" lon="3.58855">
        <ele>103</ele>
        <time>2014-04-16T08:01:02Z</time>
      </trkpt>
      <trkpt lat="47.74873" lon="3.58851">
        <ele>103</ele>
        <time>2014-04-16T08:01:06Z</time>
      </trkpt>
      <trkpt lat="47.74867" lon="3.5885">
        <ele>103</ele>
        <time>2014-04-16T08:01:10Z</time>
      </trkpt>
      <trkpt lat="47.74862" lon="3.58846">
        <ele>103</ele>
        <time>2014-04-16T08:01:14Z</time>
      </trkpt>
      <trkpt lat="47.74857" lon="3.58844">
        <ele>103</ele>
        <time>2014-04-16T08:01:18Z</time>
      </trkpt>
      <trkpt lat="47.74852" lon="3.58842">
        <ele>103</ele>
        <time>2014-04-16T08:01:22Z</time>
      </trkpt>
      <trkpt lat="47.74846" lon="3.58841">
        <ele>102</ele>
        <time>2014-04-16T08:01:26Z</time>
      </trkpt>
      <trkpt lat="47.74842" lon="3.58836">
        <ele>102</ele>
        <time>2014-04-16T08:01:30Z</time>
      </trkpt>
      <trkpt lat="47.74837" lon="3.58832">
        <ele>102</ele>
        <time>2014-04-16T08:01:34Z</time>
      </trkpt>
      <trkpt lat="47.74833" lon="3.58829">
        <ele>102</ele>
        <time>2014-04-16T08:01:40Z</time>
      </trkpt>
      <trkpt lat="47.74829" lon="3.58823">
        <ele>103</ele>
        <time>2014-04-16T08:01:45Z</time>
      </trkpt>
      <trkpt lat="47.74826" lon="3.58819">
        <ele>103</ele>
        <time>2014-04-16T08:01:50Z</time>
      </trkpt>
      <trkpt lat="47.74822" lon="3.58813">
        <ele>103</ele>
        <time>2014-04-16T08:01:54Z</time>
      </trkpt>
      <trkpt lat="47.74818" lon="3.5881">
        <ele>103</ele>
        <time>2014-04-16T08:01:57Z</time>
      </trkpt>
      <trkpt lat="47.74813" lon="3.58808">
        <ele>104</ele>
        <time>2014-04-16T08:02:00Z</time>
      </trkpt>
      <trkpt lat="47.74808" lon="3.58808">
        <ele>104</ele>
        <time>2014-04-16T08:02:04Z</time>
      </trkpt>
      <trkpt lat="47.74802" lon="3.58806">
        <ele>104</ele>
        <time>2014-04-16T08:02:08Z</time>
      </trkpt>
      <trkpt lat="47.74798" lon="3.58802">
        <ele>104</ele>
        <time>2014-04-16T08:02:11Z</time>
      </trkpt>
      <trkpt lat="47.74794" lon="3.58801">
        <ele>104</ele>
        <time>2014-04-16T08:02:14Z</time>
      </trkpt>
      <trkpt lat="47.74788" lon="3.588">
        <ele>104</ele>
        <time>2014-04-16T08:02:19Z</time>
      </trkpt>
      <trkpt lat="47.74783" lon="3.58797">
        <ele>104</ele>
        <time>2014-04-16T08:02:24Z</time>
      </trkpt>
      <trkpt lat="47.74778" lon="3.58794">
        <ele>104</ele>
        <time>2014-04-16T08:02:27Z</time>
      </trkpt>
      <trkpt lat="47.74774" lon="3.58792">
        <ele>104</ele>
        <time>2014-04-16T08:02:30Z</time>
      </trkpt>
      <trkpt lat="47.74769" lon="3.58788">
        <ele>104</ele>
        <time>2014-04-16T08:02:34Z</time>
      </trkpt>
      <trkpt lat="47.74764" lon="3.58785">
        <ele>104</ele>
        <time>2014-04-16T08:02:39Z</time>
      </trkpt>
      <trkpt lat="47.74759" lon="3.58782">
        <ele>104</ele>
        <time>2014-04-16T08:02:45Z</time>
      </trkpt>
      <trkpt lat="47.74754" lon="3.5878">
        <ele>104</ele>
        <time>2014-04-16T08:02:49Z</time>
      </trkpt>
      <trkpt lat="47.74748" lon="3.58779">
        <ele>104</ele>
        <time>2014-04-16T08:02:52Z</time>
      </trkpt>
      <trkpt lat="47.74743" lon="3.58777">
        <ele>104</ele>
        <time>2014-04-16T08:02:55Z</time>
      </trkpt>
      <trkpt lat="47.74739" lon="3.58774">
        <ele>104</ele>
        <time>2014-04-16T08:02:58Z</time>
      </trkpt>
      <trkpt lat="47.74734" lon="3.58769">
        <ele>104</ele>
        <time>2014-04-16T08:03:02Z</time>
      </trkpt>
      <trkpt lat="47.74731" lon="3.58764">
        <ele>104</ele>
        <time>2014-04-16T08:03:05Z</time>
      </trkpt>
      <trkpt lat="47.74726" lon="3.5876">
        <ele>104</ele>
        <time>2014-04-16T08:03:09Z</time>
      </trkpt>
      <trkpt lat="47.74722" lon="3.58758">
        <ele>103</ele>
        <time>2014-04-16T08:03:13Z</time>
      </trkpt>
      <trkpt lat="47.74718" lon="3.58754">
        <ele>103</ele>
        <time>2014-04-16T08:03:17Z</time>
      </trkpt>
      <trkpt lat="47.74714" lon="3.58748">
        <ele>105</ele>
        <time>2014-04-16T08:03:22Z</time>
      </trkpt>
      <trkpt lat="47.74709" lon="3.58745">
        <ele>105</ele>
        <time>2014-04-16T08:03:27Z</time>
      </trkpt>
      <trkpt lat="47.74705" lon="3.58741">
        <ele>105</ele>
        <time>2014-04-16T08:03:32Z</time>
      </trkpt>
      <trkpt lat="47.747" lon="3.58738">
        <ele>105</ele>
        <time>2014-04-16T08:03:35Z</time>
      </trkpt>
      <trkpt lat="47.74695" lon="3.58735">
        <ele>105</ele>
        <time>2014-04-16T08:03:39Z</time>
      </trkpt>
      <trkpt lat="47.74691" lon="3.58735">
        <ele>105</ele>
        <time>2014-04-16T08:03:44Z</time>
      </trkpt>
      <trkpt lat="47.74686" lon="3.58733">
        <ele>105</ele>
        <time>2014-04-16T08:03:48Z</time>
      </trkpt>
      <trkpt lat="47.74681" lon="3.58732">
        <ele>105</ele>
        <time>2014-04-16T08:03:51Z</time>
      </trkpt>
      <trkpt lat="47.74675" lon="3.5873">
        <ele>105</ele>
        <time>2014-04-16T08:03:54Z</time>
      </trkpt>
      <trkpt lat="47.74671" lon="3.58728">
        <ele>105</ele>
        <time>2014-04-16T08:03:57Z</time>
      </trkpt>
      <trkpt lat="47.74665" lon="3.58729">
        <ele>104</ele>
        <time>2014-04-16T08:04:01Z</time>
      </trkpt>
      <trkpt lat="47.7466" lon="3.58727">
        <ele>104</ele>
        <time>2014-04-16T08:04:06Z</time>
      </trkpt>
      <trkpt lat="47.74655" lon="3.58728">
        <ele>104</ele>
        <time>2014-04-16T08:04:11Z</time>
      </trkpt>
      <trkpt lat="47.74649" lon="3.58727">
        <ele>104</ele>
        <time>2014-04-16T08:04:16Z</time>
      </trkpt>
      <trkpt lat="47.74644" lon="3.58726">
        <ele>104</ele>
        <time>2014-04-16T08:04:20Z</time>
      </trkpt>
      <trkpt lat="47.74639" lon="3.58726">
        <ele>104</ele>
        <time>2014-04-16T08:04:24Z</time>
      </trkpt>
      <trkpt lat="47.74634" lon="3.58725">
        <ele>104</ele>
        <time>2014-04-16T08:04:28Z</time>
      </trkpt>
      <trkpt lat="47.74629" lon="3.58723">
        <ele>104</ele>
        <time>2014-04-16T08:04:31Z</time>
      </trkpt>
      <trkpt lat="47.74624" lon="3.58721">
        <ele>104</ele>
        <time>2014-04-16T08:04:36Z</time>
      </trkpt>
      <trkpt lat="47.74619" lon="3.58719">
        <ele>104</ele>
        <time>2014-04-16T08:04:40Z</time>
      </trkpt>
      <trkpt lat="47.74614" lon="3.58719">
        <ele>104</ele>
        <time>2014-04-16T08:04:44Z</time>
      </trkpt>
      <trkpt lat="47.74608" lon="3.58718">
        <ele>104</ele>
        <time>2014-04-16T08:04:48Z</time>
      </trkpt>
      <trkpt lat="47.74603" lon="3.5872">
        <ele>104</ele>
        <time>2014-04-16T08:04:52Z</time>
      </trkpt>
      <trkpt lat="47.74597" lon="3.5872">
        <ele>104</ele>
        <time>2014-04-16T08:04:56Z</time>
      </trkpt>
      <trkpt lat="47.74593" lon="3.5872">
        <ele>104</ele>
        <time>2014-04-16T08:05:00Z</time>
      </trkpt>
      <trkpt lat="47.74588" lon="3.58722">
        <ele>104</ele>
        <time>2014-04-16T08:05:04Z</time>
      </trkpt>
      <trkpt lat="47.74584" lon="3.58723">
        <ele>104</ele>
        <time>2014-04-16T08:05:09Z</time>
      </trkpt>
      <trkpt lat="47.74579" lon="3.58722">
        <ele>105</ele>
        <time>2014-04-16T08:05:14Z</time>
      </trkpt>
      <trkpt lat="47.74573" lon="3.58722">
        <ele>105</ele>
        <time>2014-04-16T08:05:18Z</time>
      </trkpt>
      <trkpt lat="47.74567" lon="3.58723">
        <ele>105</ele>
        <time>2014-04-16T08:05:22Z</time>
      </trkpt>
      <trkpt lat="47.74562" lon="3.58725">
        <ele>105</ele>
        <time>2014-04-16T08:05:26Z</time>
      </trkpt>
      <trkpt lat="47.74556" lon="3.58728">
        <ele>105</ele>
        <time>2014-04-16T08:05:30Z</time>
      </trkpt>
      <trkpt lat="47.74551" lon="3.5873">
        <ele>105</ele>
        <time>2014-04-16T08:05:34Z</time>
      </trkpt>
      <trkpt lat="47.74546" lon="3.58729">
        <ele>105</ele>
        <time>2014-04-16T08:05:38Z</time>
      </trkpt>
      <trkpt lat="47.74542" lon="3.5873">
        <ele>105</ele>
        <time>2014-04-16T08:05:44Z</time>
      </trkpt>
      <trkpt lat="47.74536" lon="3.58731">
        <ele>105</ele>
        <time>2014-04-16T08:05:48Z</time>
      </trkpt>
      <trkpt lat="47.74532" lon="3.58727">
        <ele>106</ele>
        <time>2014-04-16T08:05:52Z</time>
      </trkpt>
      <trkpt lat="47.74528" lon="3.58731">
        <ele>106</ele>
        <time>2014-04-16T08:05:56Z</time>
      </trkpt>
      <trkpt lat="47.74524" lon="3.58735">
        <ele>105</ele>
        <time>2014-04-16T08:06:01Z</time>
      </trkpt>
      <trkpt lat="47.74519" lon="3.58738">
        <ele>105</ele>
        <time>2014-04-16T08:06:05Z</time>
      </trkpt>
      <trkpt lat="47.74515" lon="3.58741">
        <ele>105</ele>
        <time>2014-04-16T08:06:08Z</time>
      </trkpt>
      <trkpt lat="47.7451" lon="3.58745">
        <ele>105</ele>
        <time>2014-04-16T08:06:11Z</time>
      </trkpt>
      <trkpt lat="47.74505" lon="3.58747">
        <ele>105</ele>
        <time>2014-04-16T08:06:15Z</time>
      </trkpt>
      <trkpt lat="47.745" lon="3.58748">
        <ele>105</ele>
        <time>2014-04-16T08:06:20Z</time>
      </trkpt>
      <trkpt lat="47.74495" lon="3.58749">
        <ele>106</ele>
        <time>2014-04-16T08:06:25Z</time>
      </trkpt>
      <trkpt lat="47.7449" lon="3.5875">
        <ele>106</ele>
        <time>2014-04-16T08:06:31Z</time>
      </trkpt>
      <trkpt lat="47.74486" lon="3.58751">
        <ele>105</ele>
        <time>2014-04-16T08:06:38Z</time>
      </trkpt>
      <trkpt lat="47.74481" lon="3.58754">
        <ele>105</ele>
        <time>2014-04-16T08:06:42Z</time>
      </trkpt>
      <trkpt lat="47.74477" lon="3.58758">
        <ele>104</ele>
        <time>2014-04-16T08:06:45Z</time>
      </trkpt>
      <trkpt lat="47.74473" lon="3.58763">
        <ele>104</ele>
        <time>2014-04-16T08:06:50Z</time>
      </trkpt>
      <trkpt lat="47.74468" lon="3.58765">
        <ele>104</ele>
        <time>2014-04-16T08:06:55Z</time>
      </trkpt>
      <trkpt lat="47.74464" lon="3.5877">
        <ele>104</ele>
        <time>2014-04-16T08:06:59Z</time>
      </trkpt>
      <trkpt lat="47.7446" lon="3.58775">
        <ele>104</ele>
        <time>2014-04-16T08:07:03Z</time>
      </trkpt>
      <trkpt lat="47.74455" lon="3.58776">
        <ele>104</ele>
        <time>2014-04-16T08:07:09Z</time>
      </trkpt>
      <trkpt lat="47.7445" lon="3.58778">
        <ele>104</ele>
        <time>2014-04-16T08:07:13Z</time>
      </trkpt>
      <trkpt lat="47.74446" lon="3.58781">
        <ele>104</ele>
        <time>2014-04-16T08:07:19Z</time>
      </trkpt>
      <trkpt lat="47.74441" lon="3.58784">
        <ele>104</ele>
        <time>2014-04-16T08:07:23Z</time>
      </trkpt>
      <trkpt lat="47.74437" lon="3.58789">
        <ele>104</ele>
        <time>2014-04-16T08:07:29Z</time>
      </trkpt>
      <trkpt lat="47.74432" lon="3.58792">
        <ele>104</ele>
        <time>2014-04-16T08:07:34Z</time>
      </trkpt>
      <trkpt lat="47.74427" lon="3.58795">
        <ele>104</ele>
        <time>2014-04-16T08:07:38Z</time>
      </trkpt>
      <trkpt lat="47.74422" lon="3.58797">
        <ele>104</ele>
        <time>2014-04-16T08:07:42Z</time>
      </trkpt>
      <trkpt lat="47.74418" lon="3.58799">
        <ele>104</ele>
        <time>2014-04-16T08:07:45Z</time>
      </trkpt>
      <trkpt lat="47.74413" lon="3.58802">
        <ele>105</ele>
        <time>2014-04-16T08:07:48Z</time>
      </trkpt>
      <trkpt lat="47.74408" lon="3.58803">
        <ele>105</ele>
        <time>2014-04-16T08:07:52Z</time>
      </trkpt>
      <trkpt lat="47.74403" lon="3.58806">
        <ele>105</ele>
        <time>2014-04-16T08:07:55Z</time>
      </trkpt>
      <trkpt lat="47.74398" lon="3.5881">
        <ele>104</ele>
        <time>2014-04-16T08:07:59Z</time>
      </trkpt>
      <trkpt lat="47.74393" lon="3.58813">
        <ele>104</ele>
        <time>2014-04-16T08:08:03Z</time>
      </trkpt>
      <trkpt lat="47.74388" lon="3.58815">
        <ele>105</ele>
        <time>2014-04-16T08:08:08Z</time>
      </trkpt>
      <trkpt lat="47.74383" lon="3.58817">
        <ele>105</ele>
        <time>2014-04-16T08:08:12Z</time>
      </trkpt>
      <trkpt lat="47.74379" lon="3.5882">
        <ele>105</ele>
        <time>2014-04-16T08:08:16Z</time>
      </trkpt>
      <trkpt lat="47.74375" lon="3.58825">
        <ele>105</ele>
        <time>2014-04-16T08:08:24Z</time>
      </trkpt>
      <trkpt lat="47.74369" lon="3.58827">
        <ele>104</ele>
        <time>2014-04-16T08:08:28Z</time>
      </trkpt>
      <trkpt lat="47.74365" lon="3.58829">
        <ele>104</ele>
        <time>2014-04-16T08:08:32Z</time>
      </trkpt>
      <trkpt lat="47.7436" lon="3.5883">
        <ele>104</ele>
        <time>2014-04-16T08:08:36Z</time>
      </trkpt>
      <trkpt lat="47.74355" lon="3.58833">
        <ele>102</ele>
        <time>2014-04-16T08:08:40Z</time>
      </trkpt>
      <trkpt lat="47.7435" lon="3.58836">
        <ele>102</ele>
        <time>2014-04-16T08:08:44Z</time>
      </trkpt>
      <trkpt lat="47.74345" lon="3.58841">
        <ele>102</ele>
        <time>2014-04-16T08:08:49Z</time>
      </trkpt>
      <trkpt lat="47.74341" lon="3.58845">
        <ele>102</ele>
        <time>2014-04-16T08:08:53Z</time>
      </trkpt>
      <trkpt lat="47.74336" lon="3.58847">
        <ele>102</ele>
        <time>2014-04-16T08:08:57Z</time>
      </trkpt>
      <trkpt lat="47.7433" lon="3.58847">
        <ele>103</ele>
        <time>2014-04-16T08:09:01Z</time>
      </trkpt>
      <trkpt lat="47.74326" lon="3.58848">
        <ele>103</ele>
        <time>2014-04-16T08:09:05Z</time>
      </trkpt>
      <trkpt lat="47.74321" lon="3.58849">
        <ele>103</ele>
        <time>2014-04-16T08:09:10Z</time>
      </trkpt>
      <trkpt lat="47.74316" lon="3.58853">
        <ele>103</ele>
        <time>2014-04-16T08:09:14Z</time>
      </trkpt>
      <trkpt lat="47.74311" lon="3.58859">
        <ele>103</ele>
        <time>2014-04-16T08:09:17Z</time>
      </trkpt>
      <trkpt lat="47.74308" lon="3.58865">
        <ele>103</ele>
        <time>2014-04-16T08:09:20Z</time>
      </trkpt>
      <trkpt lat="47.74305" lon="3.5887">
        <ele>102</ele>
        <time>2014-04-16T08:09:24Z</time>
      </trkpt>
      <trkpt lat="47.743" lon="3.58872">
        <ele>102</ele>
        <time>2014-04-16T08:09:28Z</time>
      </trkpt>
      <trkpt lat="47.74296" lon="3.58872">
        <ele>103</ele>
        <time>2014-04-16T08:09:32Z</time>
      </trkpt>
      <trkpt lat="47.74292" lon="3.58876">
        <ele>102</ele>
        <time>2014-04-16T08:09:37Z</time>
      </trkpt>
      <trkpt lat="47.74288" lon="3.5888">
        <ele>102</ele>
        <time>2014-04-16T08:09:41Z</time>
      </trkpt>
      <trkpt lat="47.74283" lon="3.58882">
        <ele>102</ele>
        <time>2014-04-16T08:09:45Z</time>
      </trkpt>
      <trkpt lat="47.74278" lon="3.58883">
        <ele>102</ele>
        <time>2014-04-16T08:09:49Z</time>
      </trkpt>
      <trkpt lat="47.74274" lon="3.58887">
        <ele>102</ele>
        <time>2014-04-16T08:09:54Z</time>
      </trkpt>
      <trkpt lat="47.74269" lon="3.58891">
        <ele>102</ele>
        <time>2014-04-16T08:09:59Z</time>
      </trkpt>
      <trkpt lat="47.74264" lon="3.58894">
        <ele>102</ele>
        <time>2014-04-16T08:10:03Z</time>
      </trkpt>
      <trkpt lat="47.7426" lon="3.58899">
        <ele>102</ele>
        <time>2014-04-16T08:10:07Z</time>
      </trkpt>
      <trkpt lat="47.74255" lon="3.58903">
        <ele>102</ele>
        <time>2014-04-16T08:10:10Z</time>
      </trkpt>
      <trkpt lat="47.7425" lon="3.58906">
        <ele>102</ele>
        <time>2014-04-16T08:10:14Z</time>
      </trkpt>
      <trkpt lat="47.74246" lon="3.58908">
        <ele>103</ele>
        <time>2014-04-16T08:10:20Z</time>
      </trkpt>
      <trkpt lat="47.74241" lon="3.58912">
        <ele>103</ele>
        <time>2014-04-16T08:10:24Z</time>
      </trkpt>
      <trkpt lat="47.74236" lon="3.58913">
        <ele>103</ele>
        <time>2014-04-16T08:10:28Z</time>
      </trkpt>
      <trkpt lat="47.74231" lon="3.58917">
        <ele>103</ele>
        <time>2014-04-16T08:10:33Z</time>
      </trkpt>
      <trkpt lat="47.74226" lon="3.58918">
        <ele>102</ele>
        <time>2014-04-16T08:10:38Z</time>
      </trkpt>
      <trkpt lat="47.74222" lon="3.58923">
        <ele>102</ele>
        <time>2014-04-16T08:10:43Z</time>
      </trkpt>
      <trkpt lat="47.74218" lon="3.58928">
        <ele>102</ele>
        <time>2014-04-16T08:10:47Z</time>
      </trkpt>
      <trkpt lat="47.74215" lon="3.58933">
        <ele>102</ele>
        <time>2014-04-16T08:10:51Z</time>
      </trkpt>
      <trkpt lat="47.74211" lon="3.58936">
        <ele>102</ele>
        <time>2014-04-16T08:10:53Z</time>
      </trkpt>
      <trkpt lat="47.74206" lon="3.58939">
        <ele>103</ele>
        <time>2014-04-16T08:10:57Z</time>
      </trkpt>
      <trkpt lat="47.74202" lon="3.58943">
        <ele>103</ele>
        <time>2014-04-16T08:11:01Z</time>
      </trkpt>
      <trkpt lat="47.74197" lon="3.58947">
        <ele>103</ele>
        <time>2014-04-16T08:11:05Z</time>
      </trkpt>
      <trkpt lat="47.74193" lon="3.5895">
        <ele>103</ele>
        <time>2014-04-16T08:11:09Z</time>
      </trkpt>
      <trkpt lat="47.74188" lon="3.58952">
        <ele>103</ele>
        <time>2014-04-16T08:11:13Z</time>
      </trkpt>
      <trkpt lat="47.74184" lon="3.58957">
        <ele>103</ele>
        <time>2014-04-16T08:11:18Z</time>
      </trkpt>
      <trkpt lat="47.74181" lon="3.58962">
        <ele>103</ele>
        <time>2014-04-16T08:11:22Z</time>
      </trkpt>
      <trkpt lat="47.74177" lon="3.58967">
        <ele>103</ele>
        <time>2014-04-16T08:11:27Z</time>
      </trkpt>
      <trkpt lat="47.74172" lon="3.58972">
        <ele>103</ele>
        <time>2014-04-16T08:11:30Z</time>
      </trkpt>
      <trkpt lat="47.74167" lon="3.58978">
        <ele>103</ele>
        <time>2014-04-16T08:11:33Z</time>
      </trkpt>
      <trkpt lat="47.74163" lon="3.58983">
        <ele>104</ele>
        <time>2014-04-16T08:11:36Z</time>
      </trkpt>
      <trkpt lat="47.74159" lon="3.58985">
        <ele>104</ele>
        <time>2014-04-16T08:11:41Z</time>
      </trkpt>
      <trkpt lat="47.74154" lon="3.58985">
        <ele>104</ele>
        <time>2014-04-16T08:11:45Z</time>
      </trkpt>
      <trkpt lat="47.7415" lon="3.58985">
        <ele>104</ele>
        <time>2014-04-16T08:11:51Z</time>
      </trkpt>
      <trkpt lat="47.74146" lon="3.58988">
        <ele>104</ele>
        <time>2014-04-16T08:11:56Z</time>
      </trkpt>
      <trkpt lat="47.74141" lon="3.58993">
        <ele>104</ele>
        <time>2014-04-16T08:11:59Z</time>
      </trkpt>
      <trkpt lat="47.74138" lon="3.58998">
        <ele>104</ele>
        <time>2014-04-16T08:12:05Z</time>
      </trkpt>
      <trkpt lat="47.74133" lon="3.59">
        <ele>105</ele>
        <time>2014-04-16T08:12:10Z</time>
      </trkpt>
      <trkpt lat="47.74128" lon="3.59005">
        <ele>103</ele>
        <time>2014-04-16T08:12:15Z</time>
      </trkpt>
      <trkpt lat="47.74124" lon="3.59009">
        <ele>103</ele>
        <time>2014-04-16T08:12:20Z</time>
      </trkpt>
      <trkpt lat="47.7412" lon="3.59014">
        <ele>103</ele>
        <time>2014-04-16T08:12:23Z</time>
      </trkpt>
      <trkpt lat="47.74116" lon="3.59019">
        <ele>103</ele>
        <time>2014-04-16T08:12:27Z</time>
      </trkpt>
      <trkpt lat="47.74112" lon="3.59026">
        <ele>103</ele>
        <time>2014-04-16T08:12:32Z</time>
      </trkpt>
      <trkpt lat="47.7411" lon="3.59031">
        <ele>103</ele>
        <time>2014-04-16T08:12:37Z</time>
      </trkpt>
      <trkpt lat="47.74105" lon="3.59036">
        <ele>103</ele>
        <time>2014-04-16T08:12:42Z</time>
      </trkpt>
      <trkpt lat="47.74102" lon="3.59042">
        <ele>103</ele>
        <time>2014-04-16T08:12:48Z</time>
      </trkpt>
      <trkpt lat="47.74102" lon="3.59048">
        <ele>103</ele>
        <time>2014-04-16T08:12:50Z</time>
      </trkpt>
      <trkpt lat="47.74102" lon="3.59055">
        <ele>102</ele>
        <time>2014-04-16T08:12:53Z</time>
      </trkpt>
      <trkpt lat="47.74105" lon="3.59063">
        <ele>102</ele>
        <time>2014-04-16T08:12:57Z</time>
      </trkpt>
      <trkpt lat="47.74106" lon="3.5907">
        <ele>102</ele>
        <time>2014-04-16T08:13:00Z</time>
      </trkpt>
      <trkpt lat="47.74109" lon="3.59076">
        <ele>102</ele>
        <time>2014-04-16T08:13:03Z</time>
      </trkpt>
      <trkpt lat="47.74113" lon="3.59079">
        <ele>102</ele>
        <time>2014-04-16T08:13:05Z</time>
      </trkpt>
      <trkpt lat="47.74117" lon="3.59083">
        <ele>102</ele>
        <time>2014-04-16T08:13:07Z</time>
      </trkpt>
      <trkpt lat="47.74119" lon="3.5909">
        <ele>101</ele>
        <time>2014-04-16T08:13:12Z</time>
      </trkpt>
      <trkpt lat="47.74119" lon="3.59097">
        <ele>101</ele>
        <time>2014-04-16T08:13:16Z</time>
      </trkpt>
      <trkpt lat="47.74117" lon="3.59105">
        <ele>101</ele>
        <time>2014-04-16T08:13:19Z</time>
      </trkpt>
      <trkpt lat="47.74116" lon="3.59113">
        <ele>101</ele>
        <time>2014-04-16T08:13:23Z</time>
      </trkpt>
      <trkpt lat="47.74114" lon="3.5912">
        <ele>101</ele>
        <time>2014-04-16T08:13:27Z</time>
      </trkpt>
      <trkpt lat="47.74114" lon="3.59127">
        <ele>101</ele>
        <time>2014-04-16T08:13:31Z</time>
      </trkpt>
      <trkpt lat="47.74114" lon="3.59135">
        <ele>101</ele>
        <time>2014-04-16T08:13:36Z</time>
      </trkpt>
      <trkpt lat="47.74114" lon="3.59142">
        <ele>101</ele>
        <time>2014-04-16T08:13:39Z</time>
      </trkpt>
      <trkpt lat="47.74114" lon="3.59151">
        <ele>101</ele>
        <time>2014-04-16T08:13:44Z</time>
      </trkpt>
      <trkpt lat="47.74114" lon="3.59159">
        <ele>100</ele>
        <time>2014-04-16T08:13:47Z</time>
      </trkpt>
      <trkpt lat="47.74114" lon="3.59166">
        <ele>100</ele>
        <time>2014-04-16T08:13:52Z</time>
      </trkpt>
      <trkpt lat="47.74115" lon="3.59174">
        <ele>100</ele>
        <time>2014-04-16T08:13:55Z</time>
      </trkpt>
      <trkpt lat="47.74116" lon="3.59182">
        <ele>100</ele>
        <time>2014-04-16T08:13:59Z</time>
      </trkpt>
      <trkpt lat="47.74116" lon="3.59189">
        <ele>100</ele>
        <time>2014-04-16T08:14:04Z</time>
      </trkpt>
      <trkpt lat="47.74116" lon="3.59205">
        <ele>100</ele>
        <time>2014-04-16T08:14:12Z</time>
      </trkpt>
      <trkpt lat="47.74115" lon="3.59213">
        <ele>100</ele>
        <time>2014-04-16T08:14:14Z</time>
      </trkpt>
      <trkpt lat="47.74117" lon="3.5922">
        <ele>100</ele>
        <time>2014-04-16T08:14:18Z</time>
      </trkpt>
      <trkpt lat="47.74117" lon="3.59227">
        <ele>100</ele>
        <time>2014-04-16T08:14:22Z</time>
      </trkpt>
      <trkpt lat="47.74117" lon="3.59234">
        <ele>100</ele>
        <time>2014-04-16T08:14:27Z</time>
      </trkpt>
      <trkpt lat="47.74117" lon="3.59242">
        <ele>100</ele>
        <time>2014-04-16T08:14:30Z</time>
      </trkpt>
      <trkpt lat="47.7412" lon="3.59249">
        <ele>100</ele>
        <time>2014-04-16T08:14:35Z</time>
      </trkpt>
      <trkpt lat="47.74121" lon="3.59257">
        <ele>101</ele>
        <time>2014-04-16T08:14:40Z</time>
      </trkpt>
      <trkpt lat="47.74121" lon="3.59263">
        <ele>101</ele>
        <time>2014-04-16T08:14:44Z</time>
      </trkpt>
      <trkpt lat="47.74121" lon="3.59271">
        <ele>101</ele>
        <time>2014-04-16T08:14:47Z</time>
      </trkpt>
      <trkpt lat="47.74119" lon="3.59279">
        <ele>101</ele>
        <time>2014-04-16T08:14:52Z</time>
      </trkpt>
      <trkpt lat="47.74114" lon="3.59282">
        <ele>101</ele>
        <time>2014-04-16T08:14:56Z</time>
      </trkpt>
      <trkpt lat="47.7411" lon="3.59283">
        <ele>101</ele>
        <time>2014-04-16T08:15:00Z</time>
      </trkpt>
      <trkpt lat="47.74104" lon="3.59284">
        <ele>101</ele>
        <time>2014-04-16T08:15:04Z</time>
      </trkpt>
      <trkpt lat="47.74099" lon="3.59286">
        <ele>101</ele>
        <time>2014-04-16T08:15:07Z</time>
      </trkpt>
      <trkpt lat="47.74093" lon="3.59288">
        <ele>101</ele>
        <time>2014-04-16T08:15:11Z</time>
      </trkpt>
      <trkpt lat="47.74088" lon="3.59287">
        <ele>101</ele>
        <time>2014-04-16T08:15:16Z</time>
      </trkpt>
      <trkpt lat="47.74083" lon="3.59291">
        <ele>101</ele>
        <time>2014-04-16T08:15:21Z</time>
      </trkpt>
      <trkpt lat="47.74078" lon="3.59292">
        <ele>102</ele>
        <time>2014-04-16T08:15:25Z</time>
      </trkpt>
      <trkpt lat="47.74073" lon="3.59295">
        <ele>102</ele>
        <time>2014-04-16T08:15:28Z</time>
      </trkpt>
      <trkpt lat="47.74068" lon="3.593">
        <ele>102</ele>
        <time>2014-04-16T08:15:31Z</time>
      </trkpt>
      <trkpt lat="47.74064" lon="3.59303">
        <ele>102</ele>
        <time>2014-04-16T08:15:34Z</time>
      </trkpt>
      <trkpt lat="47.74059" lon="3.59305">
        <ele>102</ele>
        <time>2014-04-16T08:15:38Z</time>
      </trkpt>
      <trkpt lat="47.74054" lon="3.59307">
        <ele>102</ele>
        <time>2014-04-16T08:15:42Z</time>
      </trkpt>
      <trkpt lat="47.74049" lon="3.59307">
        <ele>102</ele>
        <time>2014-04-16T08:15:46Z</time>
      </trkpt>
      <trkpt lat="47.74044" lon="3.59306">
        <ele>102</ele>
        <time>2014-04-16T08:15:51Z</time>
      </trkpt>
      <trkpt lat="47.74039" lon="3.59309">
        <ele>101</ele>
        <time>2014-04-16T08:15:56Z</time>
      </trkpt>
      <trkpt lat="47.74036" lon="3.59315">
        <ele>101</ele>
        <time>2014-04-16T08:16:02Z</time>
      </trkpt>
      <trkpt lat="47.74033" lon="3.59321">
        <ele>101</ele>
        <time>2014-04-16T08:16:05Z</time>
      </trkpt>
      <trkpt lat="47.7403" lon="3.59328">
        <ele>101</ele>
        <time>2014-04-16T08:16:10Z</time>
      </trkpt>
      <trkpt lat="47.74027" lon="3.59334">
        <ele>101</ele>
        <time>2014-04-16T08:16:14Z</time>
      </trkpt>
      <trkpt lat="47.74025" lon="3.59341">
        <ele>101</ele>
        <time>2014-04-16T08:16:17Z</time>
      </trkpt>
      <trkpt lat="47.74022" lon="3.59346">
        <ele>101</ele>
        <time>2014-04-16T08:16:20Z</time>
      </trkpt>
      <trkpt lat="47.74018" lon="3.59352">
        <ele>101</ele>
        <time>2014-04-16T08:16:24Z</time>
      </trkpt>
      <trkpt lat="47.74015" lon="3.59357">
        <ele>101</ele>
        <time>2014-04-16T08:16:28Z</time>
      </trkpt>
      <trkpt lat="47.74012" lon="3.59365">
        <ele>101</ele>
        <time>2014-04-16T08:16:32Z</time>
      </trkpt>
      <trkpt lat="47.74013" lon="3.59372">
        <ele>101</ele>
        <time>2014-04-16T08:16:34Z</time>
      </trkpt>
      <trkpt lat="47.74014" lon="3.59382">
        <ele>101</ele>
        <time>2014-04-16T08:16:36Z</time>
      </trkpt>
      <trkpt lat="47.74016" lon="3.5939">
        <ele>101</ele>
        <time>2014-04-16T08:16:39Z</time>
      </trkpt>
      <trkpt lat="47.74019" lon="3.59396">
        <ele>101</ele>
        <time>2014-04-16T08:16:44Z</time>
      </trkpt>
      <trkpt lat="47.74021" lon="3.59402">
        <ele>101</ele>
        <time>2014-04-16T08:16:51Z</time>
      </trkpt>
      <trkpt lat="47.74021" lon="3.59409">
        <ele>101</ele>
        <time>2014-04-16T08:16:56Z</time>
      </trkpt>
      <trkpt lat="47.7402" lon="3.59416">
        <ele>101</ele>
        <time>2014-04-16T08:17:00Z</time>
      </trkpt>
      <trkpt lat="47.7402" lon="3.59423">
        <ele>101</ele>
        <time>2014-04-16T08:17:04Z</time>
      </trkpt>
      <trkpt lat="47.7402" lon="3.59431">
        <ele>101</ele>
        <time>2014-04-16T08:17:08Z</time>
      </trkpt>
      <trkpt lat="47.74022" lon="3.59438">
        <ele>101</ele>
        <time>2014-04-16T08:17:12Z</time>
      </trkpt>
      <trkpt lat="47.74021" lon="3.59445">
        <ele>101</ele>
        <time>2014-04-16T08:17:17Z</time>
      </trkpt>
      <trkpt lat="47.74021" lon="3.59452">
        <ele>101</ele>
        <time>2014-04-16T08:17:20Z</time>
      </trkpt>
      <trkpt lat="47.7402" lon="3.59459">
        <ele>101</ele>
        <time>2014-04-16T08:17:24Z</time>
      </trkpt>
      <trkpt lat="47.7402" lon="3.59465">
        <ele>101</ele>
        <time>2014-04-16T08:17:26Z</time>
      </trkpt>
      <trkpt lat="47.74021" lon="3.59473">
        <ele>101</ele>
        <time>2014-04-16T08:17:31Z</time>
      </trkpt>
      <trkpt lat="47.74023" lon="3.5948">
        <ele>101</ele>
        <time>2014-04-16T08:17:36Z</time>
      </trkpt>
      <trkpt lat="47.74024" lon="3.59488">
        <ele>101</ele>
        <time>2014-04-16T08:17:40Z</time>
      </trkpt>
      <trkpt lat="47.74025" lon="3.59495">
        <ele>101</ele>
        <time>2014-04-16T08:17:43Z</time>
      </trkpt>
      <trkpt lat="47.74025" lon="3.59503">
        <ele>101</ele>
        <time>2014-04-16T08:17:46Z</time>
      </trkpt>
      <trkpt lat="47.74026" lon="3.5951">
        <ele>101</ele>
        <time>2014-04-16T08:17:49Z</time>
      </trkpt>
      <trkpt lat="47.74027" lon="3.59518">
        <ele>101</ele>
        <time>2014-04-16T08:17:52Z</time>
      </trkpt>
      <trkpt lat="47.74027" lon="3.59525">
        <ele>101</ele>
        <time>2014-04-16T08:17:55Z</time>
      </trkpt>
      <trkpt lat="47.74028" lon="3.59532">
        <ele>101</ele>
        <time>2014-04-16T08:18:00Z</time>
      </trkpt>
      <trkpt lat="47.74028" lon="3.59541">
        <ele>101</ele>
        <time>2014-04-16T08:18:03Z</time>
      </trkpt>
      <trkpt lat="47.74028" lon="3.59549">
        <ele>101</ele>
        <time>2014-04-16T08:18:08Z</time>
      </trkpt>
      <trkpt lat="47.74028" lon="3.59556">
        <ele>101</ele>
        <time>2014-04-16T08:18:12Z</time>
      </trkpt>
      <trkpt lat="47.74027" lon="3.59563">
        <ele>101</ele>
        <time>2014-04-16T08:18:15Z</time>
      </trkpt>
      <trkpt lat="47.74025" lon="3.5957">
        <ele>101</ele>
        <time>2014-04-16T08:18:19Z</time>
      </trkpt>
      <trkpt lat="47.74025" lon="3.59577">
        <ele>101</ele>
        <time>2014-04-16T08:18:23Z</time>
      </trkpt>
      <trkpt lat="47.74026" lon="3.59583">
        <ele>101</ele>
        <time>2014-04-16T08:18:28Z</time>
      </trkpt>
      <trkpt lat="47.74027" lon="3.59592">
        <ele>101</ele>
        <time>2014-04-16T08:18:31Z</time>
      </trkpt>
      <trkpt lat="47.74027" lon="3.59599">
        <ele>101</ele>
        <time>2014-04-16T08:18:35Z</time>
      </trkpt>
      <trkpt lat="47.74028" lon="3.59607">
        <ele>101</ele>
        <time>2014-04-16T08:18:39Z</time>
      </trkpt>
      <trkpt lat="47.74029" lon="3.59615">
        <ele>101</ele>
        <time>2014-04-16T08:18:44Z</time>
      </trkpt>
      <trkpt lat="47.74029" lon="3.59622">
        <ele>101</ele>
        <time>2014-04-16T08:18:48Z</time>
      </trkpt>
      <trkpt lat="47.7403" lon="3.59629">
        <ele>101</ele>
        <time>2014-04-16T08:18:53Z</time>
      </trkpt>
      <trkpt lat="47.74031" lon="3.59637">
        <ele>101</ele>
        <time>2014-04-16T08:18:58Z</time>
      </trkpt>
      <trkpt lat="47.74031" lon="3.59644">
        <ele>101</ele>
        <time>2014-04-16T08:19:02Z</time>
      </trkpt>
      <trkpt lat="47.7403" lon="3.59653">
        <ele>101</ele>
        <time>2014-04-16T08:19:06Z</time>
      </trkpt>
      <trkpt lat="47.74029" lon="3.59661">
        <ele>101</ele>
        <time>2014-04-16T08:19:10Z</time>
      </trkpt>
      <trkpt lat="47.74029" lon="3.59669">
        <ele>101</ele>
        <time>2014-04-16T08:19:16Z</time>
      </trkpt>
      <trkpt lat="47.7403" lon="3.59676">
        <ele>101</ele>
        <time>2014-04-16T08:19:19Z</time>
      </trkpt>
      <trkpt lat="47.74031" lon="3.59685">
        <ele>101</ele>
        <time>2014-04-16T08:19:24Z</time>
      </trkpt>
      <trkpt lat="47.74031" lon="3.59693">
        <ele>101</ele>
        <time>2014-04-16T08:19:27Z</time>
      </trkpt>
      <trkpt lat="47.7403" lon="3.597">
        <ele>101</ele>
        <time>2014-04-16T08:19:31Z</time>
      </trkpt>
      <trkpt lat="47.74031" lon="3.59707">
        <ele>101</ele>
        <time>2014-04-16T08:19:36Z</time>
      </trkpt>
      <trkpt lat="47.74033" lon="3.59713">
        <ele>101</ele>
        <time>2014-04-16T08:19:40Z</time>
      </trkpt>
      <trkpt lat="47.74033" lon="3.59722">
        <ele>101</ele>
        <time>2014-04-16T08:19:44Z</time>
      </trkpt>
      <trkpt lat="47.74033" lon="3.5973">
        <ele>101</ele>
        <time>2014-04-16T08:19:48Z</time>
      </trkpt>
      <trkpt lat="47.74032" lon="3.59738">
        <ele>101</ele>
        <time>2014-04-16T08:19:52Z</time>
      </trkpt>
      <trkpt lat="47.74031" lon="3.59745">
        <ele>101</ele>
        <time>2014-04-16T08:19:56Z</time>
      </trkpt>
      <trkpt lat="47.7403" lon="3.59753">
        <ele>101</ele>
        <time>2014-04-16T08:20:01Z</time>
      </trkpt>
      <trkpt lat="47.74029" lon="3.59761">
        <ele>101</ele>
        <time>2014-04-16T08:20:12Z</time>
      </trkpt>
      <trkpt lat="47.74029" lon="3.59768">
        <ele>102</ele>
        <time>2014-04-16T08:20:17Z</time>
      </trkpt>
      <trkpt lat="47.74031" lon="3.59773">
        <ele>102</ele>
        <time>2014-04-16T08:20:26Z</time>
      </trkpt>
      <trkpt lat="47.74034" lon="3.5978">
        <ele>102</ele>
        <time>2014-04-16T08:22:25Z</time>
      </trkpt>
      <trkpt lat="47.74034" lon="3.59788">
        <ele>102</ele>
        <time>2014-04-16T08:22:29Z</time>
      </trkpt>
      <trkpt lat="47.74033" lon="3.59796">
        <ele>102</ele>
        <time>2014-04-16T08:22:34Z</time>
      </trkpt>
      <trkpt lat="47.74033" lon="3.59803">
        <ele>102</ele>
        <time>2014-04-16T08:22:38Z</time>
      </trkpt>
      <trkpt lat="47.74034" lon="3.59811">
        <ele>102</ele>
        <time>2014-04-16T08:22:42Z</time>
      </trkpt>
      <trkpt lat="47.74033" lon="3.59818">
        <ele>102</ele>
        <time>2014-04-16T08:22:46Z</time>
      </trkpt>
      <trkpt lat="47.74034" lon="3.59826">
        <ele>102</ele>
        <time>2014-04-16T08:22:52Z</time>
      </trkpt>
      <trkpt lat="47.74035" lon="3.59832">
        <ele>102</ele>
        <time>2014-04-16T08:22:56Z</time>
      </trkpt>
      <trkpt lat="47.74038" lon="3.59839">
        <ele>103</ele>
        <time>2014-04-16T08:23:00Z</time>
      </trkpt>
      <trkpt lat="47.74039" lon="3.59847">
        <ele>103</ele>
        <time>2014-04-16T08:23:04Z</time>
      </trkpt>
      <trkpt lat="47.74037" lon="3.59855">
        <ele>103</ele>
        <time>2014-04-16T08:23:10Z</time>
      </trkpt>
      <trkpt lat="47.74035" lon="3.59863">
        <ele>103</ele>
        <time>2014-04-16T08:23:14Z</time>
      </trkpt>
      <trkpt lat="47.74035" lon="3.5987">
        <ele>103</ele>
        <time>2014-04-16T08:23:18Z</time>
      </trkpt>
      <trkpt lat="47.74036" lon="3.59878">
        <ele>103</ele>
        <time>2014-04-16T08:23:22Z</time>
      </trkpt>
      <trkpt lat="47.74039" lon="3.59885">
        <ele>103</ele>
        <time>2014-04-16T08:23:26Z</time>
      </trkpt>
      <trkpt lat="47.74043" lon="3.59892">
        <ele>103</ele>
        <time>2014-04-16T08:23:30Z</time>
      </trkpt>
      <trkpt lat="47.74043" lon="3.59899">
        <ele>103</ele>
        <time>2014-04-16T08:23:34Z</time>
      </trkpt>
      <trkpt lat="47.74042" lon="3.59907">
        <ele>103</ele>
        <time>2014-04-16T08:23:39Z</time>
      </trkpt>
      <trkpt lat="47.74044" lon="3.59913">
        <ele>103</ele>
        <time>2014-04-16T08:23:43Z</time>
      </trkpt>
      <trkpt lat="47.74047" lon="3.59919">
        <ele>103</ele>
        <time>2014-04-16T08:23:46Z</time>
      </trkpt>
      <trkpt lat="47.74048" lon="3.59926">
        <ele>103</ele>
        <time>2014-04-16T08:23:50Z</time>
      </trkpt>
      <trkpt lat="47.74044" lon="3.59931">
        <ele>103</ele>
        <time>2014-04-16T08:23:53Z</time>
      </trkpt>
      <trkpt lat="47.74041" lon="3.59937">
        <ele>103</ele>
        <time>2014-04-16T08:23:56Z</time>
      </trkpt>
      <trkpt lat="47.74038" lon="3.59944">
        <ele>103</ele>
        <time>2014-04-16T08:24:00Z</time>
      </trkpt>
      <trkpt lat="47.74037" lon="3.59951">
        <ele>104</ele>
        <time>2014-04-16T08:24:04Z</time>
      </trkpt>
      <trkpt lat="47.74035" lon="3.59959">
        <ele>104</ele>
        <time>2014-04-16T08:24:10Z</time>
      </trkpt>
      <trkpt lat="47.74033" lon="3.59966">
        <ele>104</ele>
        <time>2014-04-16T08:24:16Z</time>
      </trkpt>
      <trkpt lat="47.7403" lon="3.59972">
        <ele>104</ele>
        <time>2014-04-16T08:24:20Z</time>
      </trkpt>
      <trkpt lat="47.7403" lon="3.59979">
        <ele>104</ele>
        <time>2014-04-16T08:24:27Z</time>
      </trkpt>
      <trkpt lat="47.74032" lon="3.59985">
        <ele>104</ele>
        <time>2014-04-16T08:24:35Z</time>
      </trkpt>
      <trkpt lat="47.74038" lon="3.59987">
        <ele>104</ele>
        <time>2014-04-16T08:24:40Z</time>
      </trkpt>
      <trkpt lat="47.74042" lon="3.5999">
        <ele>104</ele>
        <time>2014-04-16T08:24:53Z</time>
      </trkpt>
      <trkpt lat="47.74043" lon="3.59994">
        <ele>104</ele>
        <time>2014-04-16T08:25:00Z</time>
      </trkpt>
      <trkpt lat="47.74043" lon="3.60002">
        <ele>104</ele>
        <time>2014-04-16T08:25:08Z</time>
      </trkpt>
      <trkpt lat="47.74042" lon="3.60006">
        <ele>104</ele>
        <time>2014-04-16T08:26:31Z</time>
      </trkpt>
      <trkpt lat="47.74044" lon="3.60014">
        <ele>104</ele>
        <time>2014-04-16T08:26:55Z</time>
      </trkpt>
      <trkpt lat="47.74043" lon="3.6002">
        <ele>104</ele>
        <time>2014-04-16T08:27:20Z</time>
      </trkpt>
      <trkpt lat="47.74043" lon="3.60015">
        <ele>104</ele>
        <time>2014-04-16T08:28:43Z</time>
      </trkpt>
      <trkpt lat="47.74044" lon="3.60008">
        <ele>104</ele>
        <time>2014-04-16T08:29:02Z</time>
      </trkpt>
      <trkpt lat="47.74047" lon="3.60007">
        <ele>104</ele>
        <time>2014-04-16T08:29:13Z</time>
      </trkpt>
      <trkpt lat="47.7405" lon="3.60009">
        <ele>104</ele>
        <time>2014-04-16T08:29:21Z</time>
      </trkpt>
      <trkpt lat="47.74051" lon="3.60001">
        <ele>104</ele>
        <time>2014-04-16T08:29:35Z</time>
      </trkpt>
      <trkpt lat="47.74046" lon="3.59999">
        <ele>104</ele>
        <time>2014-04-16T08:29:40Z</time>
      </trkpt>
      <trkpt lat="47.74042" lon="3.59995">
        <ele>104</ele>
        <time>2014-04-16T08:29:50Z</time>
      </trkpt>
      <trkpt lat="47.7404" lon="3.5999">
        <ele>104</ele>
        <time>2014-04-16T08:30:36Z</time>
      </trkpt>
      <trkpt lat="47.74044" lon="3.59985">
        <ele>104</ele>
        <time>2014-04-16T08:30:44Z</time>
      </trkpt>
      <trkpt lat="47.7405" lon="3.59984">
        <ele>104</ele>
        <time>2014-04-16T08:31:25Z</time>
      </trkpt>
      <trkpt lat="47.74053" lon="3.59986">
        <ele>103</ele>
        <time>2014-04-16T08:31:32Z</time>
      </trkpt>
      <trkpt lat="47.74048" lon="3.5999">
        <ele>104</ele>
        <time>2014-04-16T08:31:37Z</time>
      </trkpt>
      <trkpt lat="47.74045" lon="3.59989">
        <ele>104</ele>
        <time>2014-04-16T08:31:46Z</time>
      </trkpt>
      <trkpt lat="47.74042" lon="3.5999">
        <ele>104</ele>
        <time>2014-04-16T08:32:42Z</time>
      </trkpt>
      <trkpt lat="47.74044" lon="3.59989">
        <ele>104</ele>
        <time>2014-04-16T08:33:20Z</time>
      </trkpt>
      <trkpt lat="47.74048" lon="3.59986">
        <ele>104</ele>
        <time>2014-04-16T08:34:48Z</time>
      </trkpt>
      <trkpt lat="47.74048" lon="3.59987">
        <ele>104</ele>
        <time>2014-04-16T08:35:29Z</time>
      </trkpt>
      <trkpt lat="47.74043" lon="3.5999">
        <ele>104</ele>
        <time>2014-04-16T08:35:59Z</time>
      </trkpt>
      <trkpt lat="47.74037" lon="3.5999">
        <ele>104</ele>
        <time>2014-04-16T08:36:03Z</time>
      </trkpt>
      <trkpt lat="47.74033" lon="3.59986">
        <ele>104</ele>
        <time>2014-04-16T08:36:06Z</time>
      </trkpt>
      <trkpt lat="47.74031" lon="3.59978">
        <ele>104</ele>
        <time>2014-04-16T08:36:10Z</time>
      </trkpt>
      <trkpt lat="47.74029" lon="3.59971">
        <ele>104</ele>
        <time>2014-04-16T08:36:14Z</time>
      </trkpt>
      <trkpt lat="47.7403" lon="3.59964">
        <ele>104</ele>
        <time>2014-04-16T08:36:18Z</time>
      </trkpt>
      <trkpt lat="47.7403" lon="3.59955">
        <ele>104</ele>
        <time>2014-04-16T08:36:23Z</time>
      </trkpt>
      <trkpt lat="47.7403" lon="3.59947">
        <ele>104</ele>
        <time>2014-04-16T08:36:27Z</time>
      </trkpt>
      <trkpt lat="47.74032" lon="3.59941">
        <ele>104</ele>
        <time>2014-04-16T08:36:30Z</time>
      </trkpt>
      <trkpt lat="47.74029" lon="3.59931">
        <ele>104</ele>
        <time>2014-04-16T08:36:36Z</time>
      </trkpt>
      <trkpt lat="47.74027" lon="3.59925">
        <ele>104</ele>
        <time>2014-04-16T08:36:44Z</time>
      </trkpt>
      <trkpt lat="47.74027" lon="3.59917">
        <ele>104</ele>
        <time>2014-04-16T08:36:48Z</time>
      </trkpt>
      <trkpt lat="47.74027" lon="3.5991">
        <ele>103</ele>
        <time>2014-04-16T08:36:51Z</time>
      </trkpt>
      <trkpt lat="47.74026" lon="3.59902">
        <ele>103</ele>
        <time>2014-04-16T08:37:00Z</time>
      </trkpt>
      <trkpt lat="47.74026" lon="3.59895">
        <ele>103</ele>
        <time>2014-04-16T08:37:03Z</time>
      </trkpt>
      <trkpt lat="47.74025" lon="3.59888">
        <ele>103</ele>
        <time>2014-04-16T08:37:08Z</time>
      </trkpt>
      <trkpt lat="47.74022" lon="3.59881">
        <ele>103</ele>
        <time>2014-04-16T08:37:13Z</time>
      </trkpt>
      <trkpt lat="47.7402" lon="3.59874">
        <ele>103</ele>
        <time>2014-04-16T08:37:18Z</time>
      </trkpt>
      <trkpt lat="47.7402" lon="3.59867">
        <ele>103</ele>
        <time>2014-04-16T08:37:23Z</time>
      </trkpt>
      <trkpt lat="47.7402" lon="3.59859">
        <ele>103</ele>
        <time>2014-04-16T08:37:28Z</time>
      </trkpt>
      <trkpt lat="47.74021" lon="3.5985">
        <ele>103</ele>
        <time>2014-04-16T08:37:45Z</time>
      </trkpt>
      <trkpt lat="47.74022" lon="3.59843">
        <ele>103</ele>
        <time>2014-04-16T08:37:49Z</time>
      </trkpt>
      <trkpt lat="47.74024" lon="3.59836">
        <ele>103</ele>
        <time>2014-04-16T08:37:57Z</time>
      </trkpt>
      <trkpt lat="47.74024" lon="3.59829">
        <ele>102</ele>
        <time>2014-04-16T08:38:08Z</time>
      </trkpt>
      <trkpt lat="47.74025" lon="3.59821">
        <ele>102</ele>
        <time>2014-04-16T08:38:14Z</time>
      </trkpt>
      <trkpt lat="47.74025" lon="3.59813">
        <ele>102</ele>
        <time>2014-04-16T08:38:18Z</time>
      </trkpt>
      <trkpt lat="47.74023" lon="3.59805">
        <ele>102</ele>
        <time>2014-04-16T08:38:24Z</time>
      </trkpt>
      <trkpt lat="47.74022" lon="3.59801">
        <ele>102</ele>
        <time>2014-04-16T08:39:28Z</time>
      </trkpt>
      <trkpt lat="47.74017" lon="3.59798">
        <ele>102</ele>
        <time>2014-04-16T08:39:38Z</time>
      </trkpt>
      <trkpt lat="47.74013" lon="3.59793">
        <ele>102</ele>
        <time>2014-04-16T08:39:42Z</time>
      </trkpt>
      <trkpt lat="47.74008" lon="3.5979">
        <ele>102</ele>
        <time>2014-04-16T08:39:46Z</time>
      </trkpt>
      <trkpt lat="47.74004" lon="3.59794">
        <ele>102</ele>
        <time>2014-04-16T08:39:51Z</time>
      </trkpt>
      <trkpt lat="47.73999" lon="3.59796">
        <ele>102</ele>
        <time>2014-04-16T08:39:56Z</time>
      </trkpt>
      <trkpt lat="47.73994" lon="3.59798">
        <ele>102</ele>
        <time>2014-04-16T08:39:58Z</time>
      </trkpt>
      <trkpt lat="47.73989" lon="3.598">
        <ele>102</ele>
        <time>2014-04-16T08:40:01Z</time>
      </trkpt>
      <trkpt lat="47.73984" lon="3.59805">
        <ele>102</ele>
        <time>2014-04-16T08:40:04Z</time>
      </trkpt>
      <trkpt lat="47.7398" lon="3.59809">
        <ele>102</ele>
        <time>2014-04-16T08:40:06Z</time>
      </trkpt>
      <trkpt lat="47.73975" lon="3.59813">
        <ele>102</ele>
        <time>2014-04-16T08:40:09Z</time>
      </trkpt>
      <trkpt lat="47.73972" lon="3.59809">
        <ele>102</ele>
        <time>2014-04-16T08:40:15Z</time>
      </trkpt>
      <trkpt lat="47.73969" lon="3.59803">
        <ele>102</ele>
        <time>2014-04-16T08:40:20Z</time>
      </trkpt>
      <trkpt lat="47.73965" lon="3.59799">
        <ele>102</ele>
        <time>2014-04-16T08:40:25Z</time>
      </trkpt>
      <trkpt lat="47.73959" lon="3.59797">
        <ele>102</ele>
        <time>2014-04-16T08:40:30Z</time>
      </trkpt>
      <trkpt lat="47.73953" lon="3.59801">
        <ele>102</ele>
        <time>2014-04-16T08:40:35Z</time>
      </trkpt>
      <trkpt lat="47.73949" lon="3.59804">
        <ele>102</ele>
        <time>2014-04-16T08:40:38Z</time>
      </trkpt>
      <trkpt lat="47.73944" lon="3.59804">
        <ele>102</ele>
        <time>2014-04-16T08:40:43Z</time>
      </trkpt>
      <trkpt lat="47.73939" lon="3.59807">
        <ele>102</ele>
        <time>2014-04-16T08:40:48Z</time>
      </trkpt>
      <trkpt lat="47.73928" lon="3.59805">
        <ele>102</ele>
        <time>2014-04-16T08:40:59Z</time>
      </trkpt>
      <trkpt lat="47.73924" lon="3.59807">
        <ele>102</ele>
        <time>2014-04-16T08:41:02Z</time>
      </trkpt>
      <trkpt lat="47.7392" lon="3.59812">
        <ele>102</ele>
        <time>2014-04-16T08:41:07Z</time>
      </trkpt>
      <trkpt lat="47.73915" lon="3.59815">
        <ele>102</ele>
        <time>2014-04-16T08:41:12Z</time>
      </trkpt>
      <trkpt lat="47.73911" lon="3.59817">
        <ele>102</ele>
        <time>2014-04-16T08:41:16Z</time>
      </trkpt>
      <trkpt lat="47.73906" lon="3.59818">
        <ele>102</ele>
        <time>2014-04-16T08:41:20Z</time>
      </trkpt>
      <trkpt lat="47.739" lon="3.59817">
        <ele>102</ele>
        <time>2014-04-16T08:41:23Z</time>
      </trkpt>
      <trkpt lat="47.73896" lon="3.59815">
        <ele>102</ele>
        <time>2014-04-16T08:41:28Z</time>
      </trkpt>
      <trkpt lat="47.7389" lon="3.59815">
        <ele>102</ele>
        <time>2014-04-16T08:43:58Z</time>
      </trkpt>
      <trkpt lat="47.73885" lon="3.59817">
        <ele>102</ele>
        <time>2014-04-16T08:44:02Z</time>
      </trkpt>
      <trkpt lat="47.7388" lon="3.59819">
        <ele>102</ele>
        <time>2014-04-16T08:44:06Z</time>
      </trkpt>
      <trkpt lat="47.73875" lon="3.59823">
        <ele>102</ele>
        <time>2014-04-16T08:44:10Z</time>
      </trkpt>
      <trkpt lat="47.73871" lon="3.59825">
        <ele>102</ele>
        <time>2014-04-16T08:44:15Z</time>
      </trkpt>
      <trkpt lat="47.73866" lon="3.59829">
        <ele>102</ele>
        <time>2014-04-16T08:44:20Z</time>
      </trkpt>
      <trkpt lat="47.73861" lon="3.5983">
        <ele>102</ele>
        <time>2014-04-16T08:44:24Z</time>
      </trkpt>
      <trkpt lat="47.73856" lon="3.59831">
        <ele>102</ele>
        <time>2014-04-16T08:44:29Z</time>
      </trkpt>
      <trkpt lat="47.73851" lon="3.59833">
        <ele>102</ele>
        <time>2014-04-16T08:44:33Z</time>
      </trkpt>
      <trkpt lat="47.73846" lon="3.59836">
        <ele>101</ele>
        <time>2014-04-16T08:44:37Z</time>
      </trkpt>
      <trkpt lat="47.73842" lon="3.59838">
        <ele>101</ele>
        <time>2014-04-16T08:44:42Z</time>
      </trkpt>
      <trkpt lat="47.73837" lon="3.59841">
        <ele>101</ele>
        <time>2014-04-16T08:44:47Z</time>
      </trkpt>
      <trkpt lat="47.73832" lon="3.59843">
        <ele>101</ele>
        <time>2014-04-16T08:44:52Z</time>
      </trkpt>
      <trkpt lat="47.73828" lon="3.59844">
        <ele>102</ele>
        <time>2014-04-16T08:44:57Z</time>
      </trkpt>
      <trkpt lat="47.73823" lon="3.59845">
        <ele>102</ele>
        <time>2014-04-16T08:45:02Z</time>
      </trkpt>
      <trkpt lat="47.73818" lon="3.59846">
        <ele>102</ele>
        <time>2014-04-16T08:45:07Z</time>
      </trkpt>
      <trkpt lat="47.73813" lon="3.59848">
        <ele>102</ele>
        <time>2014-04-16T08:45:11Z</time>
      </trkpt>
      <trkpt lat="47.73807" lon="3.59846">
        <ele>102</ele>
        <time>2014-04-16T08:45:19Z</time>
      </trkpt>
      <trkpt lat="47.73802" lon="3.59847">
        <ele>102</ele>
        <time>2014-04-16T08:45:22Z</time>
      </trkpt>
      <trkpt lat="47.73797" lon="3.59845">
        <ele>102</ele>
        <time>2014-04-16T08:45:26Z</time>
      </trkpt>
      <trkpt lat="47.73792" lon="3.59844">
        <ele>102</ele>
        <time>2014-04-16T08:45:30Z</time>
      </trkpt>
      <trkpt lat="47.73787" lon="3.59845">
        <ele>102</ele>
        <time>2014-04-16T08:45:34Z</time>
      </trkpt>
      <trkpt lat="47.73782" lon="3.59846">
        <ele>103</ele>
        <time>2014-04-16T08:45:38Z</time>
      </trkpt>
      <trkpt lat="47.73777" lon="3.59844">
        <ele>103</ele>
        <time>2014-04-16T08:45:42Z</time>
      </trkpt>
      <trkpt lat="47.73773" lon="3.59842">
        <ele>103</ele>
        <time>2014-04-16T08:45:46Z</time>
      </trkpt>
      <trkpt lat="47.73769" lon="3.59839">
        <ele>103</ele>
        <time>2014-04-16T08:45:51Z</time>
      </trkpt>
      <trkpt lat="47.73764" lon="3.59836">
        <ele>103</ele>
        <time>2014-04-16T08:45:56Z</time>
      </trkpt>
      <trkpt lat="47.73759" lon="3.59836">
        <ele>103</ele>
        <time>2014-04-16T08:46:01Z</time>
      </trkpt>
      <trkpt lat="47.73755" lon="3.59839">
        <ele>103</ele>
        <time>2014-04-16T08:46:05Z</time>
      </trkpt>
      <trkpt lat="47.7375" lon="3.59841">
        <ele>103</ele>
        <time>2014-04-16T08:46:10Z</time>
      </trkpt>
      <trkpt lat="47.73746" lon="3.59846">
        <ele>103</ele>
        <time>2014-04-16T08:46:16Z</time>
      </trkpt>
      <trkpt lat="47.73743" lon="3.5985">
        <ele>103</ele>
        <time>2014-04-16T08:46:20Z</time>
      </trkpt>
      <trkpt lat="47.73738" lon="3.59855">
        <ele>103</ele>
        <time>2014-04-16T08:46:24Z</time>
      </trkpt>
      <trkpt lat="47.73735" lon="3.5986">
        <ele>103</ele>
        <time>2014-04-16T08:46:28Z</time>
      </trkpt>
      <trkpt lat="47.73733" lon="3.59867">
        <ele>103</ele>
        <time>2014-04-16T08:46:33Z</time>
      </trkpt>
      <trkpt lat="47.73729" lon="3.59873">
        <ele>103</ele>
        <time>2014-04-16T08:46:37Z</time>
      </trkpt>
      <trkpt lat="47.73724" lon="3.59878">
        <ele>103</ele>
        <time>2014-04-16T08:46:41Z</time>
      </trkpt>
      <trkpt lat="47.7372" lon="3.5988">
        <ele>103</ele>
        <time>2014-04-16T08:46:45Z</time>
      </trkpt>
      <trkpt lat="47.73715" lon="3.5988">
        <ele>103</ele>
        <time>2014-04-16T08:46:48Z</time>
      </trkpt>
      <trkpt lat="47.7371" lon="3.5988">
        <ele>103</ele>
        <time>2014-04-16T08:46:52Z</time>
      </trkpt>
      <trkpt lat="47.73705" lon="3.59882">
        <ele>103</ele>
        <time>2014-04-16T08:46:56Z</time>
      </trkpt>
      <trkpt lat="47.73702" lon="3.59887">
        <ele>103</ele>
        <time>2014-04-16T08:47:01Z</time>
      </trkpt>
      <trkpt lat="47.73699" lon="3.59893">
        <ele>103</ele>
        <time>2014-04-16T08:47:03Z</time>
      </trkpt>
      <trkpt lat="47.73694" lon="3.59896">
        <ele>103</ele>
        <time>2014-04-16T08:47:08Z</time>
      </trkpt>
      <trkpt lat="47.73689" lon="3.59895">
        <ele>103</ele>
        <time>2014-04-16T08:47:12Z</time>
      </trkpt>
      <trkpt lat="47.73684" lon="3.59899">
        <ele>103</ele>
        <time>2014-04-16T08:47:17Z</time>
      </trkpt>
      <trkpt lat="47.73679" lon="3.59901">
        <ele>103</ele>
        <time>2014-04-16T08:47:20Z</time>
      </trkpt>
      <trkpt lat="47.73675" lon="3.59904">
        <ele>103</ele>
        <time>2014-04-16T08:47:24Z</time>
      </trkpt>
      <trkpt lat="47.73671" lon="3.59909">
        <ele>103</ele>
        <time>2014-04-16T08:47:27Z</time>
      </trkpt>
      <trkpt lat="47.73667" lon="3.59913">
        <ele>103</ele>
        <time>2014-04-16T08:47:32Z</time>
      </trkpt>
      <trkpt lat="47.73662" lon="3.59914">
        <ele>103</ele>
        <time>2014-04-16T08:47:38Z</time>
      </trkpt>
      <trkpt lat="47.73657" lon="3.59913">
        <ele>103</ele>
        <time>2014-04-16T08:47:41Z</time>
      </trkpt>
      <trkpt lat="47.73652" lon="3.59913">
        <ele>103</ele>
        <time>2014-04-16T08:47:44Z</time>
      </trkpt>
      <trkpt lat="47.73647" lon="3.59914">
        <ele>103</ele>
        <time>2014-04-16T08:47:47Z</time>
      </trkpt>
      <trkpt lat="47.73642" lon="3.59916">
        <ele>103</ele>
        <time>2014-04-16T08:47:51Z</time>
      </trkpt>
      <trkpt lat="47.73638" lon="3.59919">
        <ele>103</ele>
        <time>2014-04-16T08:47:55Z</time>
      </trkpt>
      <trkpt lat="47.73634" lon="3.59923">
        <ele>103</ele>
        <time>2014-04-16T08:48:00Z</time>
      </trkpt>
      <trkpt lat="47.73632" lon="3.59929">
        <ele>103</ele>
        <time>2014-04-16T08:48:05Z</time>
      </trkpt>
      <trkpt lat="47.73627" lon="3.59933">
        <ele>103</ele>
        <time>2014-04-16T08:48:11Z</time>
      </trkpt>
      <trkpt lat="47.73623" lon="3.59938">
        <ele>103</ele>
        <time>2014-04-16T08:48:14Z</time>
      </trkpt>
      <trkpt lat="47.73619" lon="3.59942">
        <ele>103</ele>
        <time>2014-04-16T08:48:17Z</time>
      </trkpt>
      <trkpt lat="47.73615" lon="3.59945">
        <ele>103</ele>
        <time>2014-04-16T08:48:20Z</time>
      </trkpt>
      <trkpt lat="47.73611" lon="3.59951">
        <ele>103</ele>
        <time>2014-04-16T08:48:23Z</time>
      </trkpt>
      <trkpt lat="47.73607" lon="3.59956">
        <ele>103</ele>
        <time>2014-04-16T08:48:26Z</time>
      </trkpt>
      <trkpt lat="47.73603" lon="3.59959">
        <ele>103</ele>
        <time>2014-04-16T08:48:33Z</time>
      </trkpt>
      <trkpt lat="47.73598" lon="3.59963">
        <ele>103</ele>
        <time>2014-04-16T08:48:37Z</time>
      </trkpt>
      <trkpt lat="47.73594" lon="3.59966">
        <ele>103</ele>
        <time>2014-04-16T08:48:42Z</time>
      </trkpt>
      <trkpt lat="47.73588" lon="3.59969">
        <ele>103</ele>
        <time>2014-04-16T08:48:45Z</time>
      </trkpt>
      <trkpt lat="47.73583" lon="3.59973">
        <ele>102</ele>
        <time>2014-04-16T08:48:49Z</time>
      </trkpt>
      <trkpt lat="47.73579" lon="3.59977">
        <ele>102</ele>
        <time>2014-04-16T08:48:51Z</time>
      </trkpt>
      <trkpt lat="47.73575" lon="3.59981">
        <ele>102</ele>
        <time>2014-04-16T08:48:56Z</time>
      </trkpt>
      <trkpt lat="47.73572" lon="3.59987">
        <ele>102</ele>
        <time>2014-04-16T08:49:00Z</time>
      </trkpt>
      <trkpt lat="47.73563" lon="3.60021">
        <ele>102</ele>
        <time>2014-04-16T08:49:20Z</time>
      </trkpt>
      <trkpt lat="47.73559" lon="3.60024">
        <ele>102</ele>
        <time>2014-04-16T08:49:23Z</time>
      </trkpt>
      <trkpt lat="47.73555" lon="3.60019">
        <ele>102</ele>
        <time>2014-04-16T08:49:26Z</time>
      </trkpt>
      <trkpt lat="47.73549" lon="3.60023">
        <ele>102</ele>
        <time>2014-04-16T08:49:31Z</time>
      </trkpt>
      <trkpt lat="47.73545" lon="3.60028">
        <ele>102</ele>
        <time>2014-04-16T08:49:34Z</time>
      </trkpt>
      <trkpt lat="47.7354" lon="3.60031">
        <ele>102</ele>
        <time>2014-04-16T08:49:40Z</time>
      </trkpt>
      <trkpt lat="47.73536" lon="3.60038">
        <ele>102</ele>
        <time>2014-04-16T08:49:44Z</time>
      </trkpt>
      <trkpt lat="47.73533" lon="3.60044">
        <ele>102</ele>
        <time>2014-04-16T08:49:47Z</time>
      </trkpt>
      <trkpt lat="47.7353" lon="3.60049">
        <ele>102</ele>
        <time>2014-04-16T08:49:51Z</time>
      </trkpt>
      <trkpt lat="47.73526" lon="3.60054">
        <ele>102</ele>
        <time>2014-04-16T08:49:55Z</time>
      </trkpt>
      <trkpt lat="47.73522" lon="3.60058">
        <ele>102</ele>
        <time>2014-04-16T08:49:58Z</time>
      </trkpt>
      <trkpt lat="47.73517" lon="3.60058">
        <ele>102</ele>
        <time>2014-04-16T08:50:01Z</time>
      </trkpt>
      <trkpt lat="47.73511" lon="3.60057">
        <ele>102</ele>
        <time>2014-04-16T08:50:05Z</time>
      </trkpt>
      <trkpt lat="47.73507" lon="3.60059">
        <ele>102</ele>
        <time>2014-04-16T08:50:08Z</time>
      </trkpt>
      <trkpt lat="47.73463" lon="3.60067">
        <ele>101</ele>
        <time>2014-04-16T08:50:38Z</time>
      </trkpt>
      <trkpt lat="47.73459" lon="3.60072">
        <ele>101</ele>
        <time>2014-04-16T08:50:44Z</time>
      </trkpt>
      <trkpt lat="47.73454" lon="3.60071">
        <ele>101</ele>
        <time>2014-04-16T08:50:49Z</time>
      </trkpt>
      <trkpt lat="47.73449" lon="3.60072">
        <ele>101</ele>
        <time>2014-04-16T08:50:53Z</time>
      </trkpt>
      <trkpt lat="47.73444" lon="3.60072">
        <ele>101</ele>
        <time>2014-04-16T08:50:58Z</time>
      </trkpt>
      <trkpt lat="47.73437" lon="3.60071">
        <ele>101</ele>
        <time>2014-04-16T08:51:04Z</time>
      </trkpt>
      <trkpt lat="47.73434" lon="3.60075">
        <ele>101</ele>
        <time>2014-04-16T08:51:12Z</time>
      </trkpt>
      <trkpt lat="47.73438" lon="3.60078">
        <ele>101</ele>
        <time>2014-04-16T08:51:24Z</time>
      </trkpt>
      <trkpt lat="47.73435" lon="3.6008">
        <ele>101</ele>
        <time>2014-04-16T08:52:06Z</time>
      </trkpt>
      <trkpt lat="47.7343" lon="3.60077">
        <ele>100</ele>
        <time>2014-04-16T08:52:09Z</time>
      </trkpt>
      <trkpt lat="47.73426" lon="3.60073">
        <ele>100</ele>
        <time>2014-04-16T08:52:11Z</time>
      </trkpt>
      <trkpt lat="47.7342" lon="3.6007">
        <ele>100</ele>
        <time>2014-04-16T08:52:14Z</time>
      </trkpt>
      <trkpt lat="47.73416" lon="3.60067">
        <ele>100</ele>
        <time>2014-04-16T08:52:17Z</time>
      </trkpt>
      <trkpt lat="47.73411" lon="3.60067">
        <ele>100</ele>
        <time>2014-04-16T08:52:22Z</time>
      </trkpt>
      <trkpt lat="47.73405" lon="3.60065">
        <ele>100</ele>
        <time>2014-04-16T08:52:26Z</time>
      </trkpt>
      <trkpt lat="47.73401" lon="3.60063">
        <ele>100</ele>
        <time>2014-04-16T08:52:28Z</time>
      </trkpt>
      <trkpt lat="47.73397" lon="3.60062">
        <ele>100</ele>
        <time>2014-04-16T08:52:37Z</time>
      </trkpt>
      <trkpt lat="47.73393" lon="3.60066">
        <ele>100</ele>
        <time>2014-04-16T08:52:42Z</time>
      </trkpt>
      <trkpt lat="47.73387" lon="3.60067">
        <ele>100</ele>
        <time>2014-04-16T08:52:46Z</time>
      </trkpt>
      <trkpt lat="47.73382" lon="3.60069">
        <ele>100</ele>
        <time>2014-04-16T08:52:51Z</time>
      </trkpt>
      <trkpt lat="47.73378" lon="3.60069">
        <ele>100</ele>
        <time>2014-04-16T08:52:54Z</time>
      </trkpt>
      <trkpt lat="47.73372" lon="3.60071">
        <ele>100</ele>
        <time>2014-04-16T08:52:58Z</time>
      </trkpt>
      <trkpt lat="47.73367" lon="3.60073">
        <ele>100</ele>
        <time>2014-04-16T08:53:02Z</time>
      </trkpt>
      <trkpt lat="47.73363" lon="3.60077">
        <ele>100</ele>
        <time>2014-04-16T08:53:06Z</time>
      </trkpt>
      <trkpt lat="47.73359" lon="3.60081">
        <ele>100</ele>
        <time>2014-04-16T08:53:09Z</time>
      </trkpt>
      <trkpt lat="47.73354" lon="3.60086">
        <ele>100</ele>
        <time>2014-04-16T08:53:13Z</time>
      </trkpt>
      <trkpt lat="47.7335" lon="3.60091">
        <ele>100</ele>
        <time>2014-04-16T08:53:17Z</time>
      </trkpt>
      <trkpt lat="47.73345" lon="3.60094">
        <ele>100</ele>
        <time>2014-04-16T08:53:21Z</time>
      </trkpt>
      <trkpt lat="47.7334" lon="3.60093">
        <ele>100</ele>
        <time>2014-04-16T08:53:28Z</time>
      </trkpt>
      <trkpt lat="47.73336" lon="3.60097">
        <ele>100</ele>
        <time>2014-04-16T08:53:31Z</time>
      </trkpt>
      <trkpt lat="47.73332" lon="3.60101">
        <ele>100</ele>
        <time>2014-04-16T08:53:35Z</time>
      </trkpt>
      <trkpt lat="47.73326" lon="3.60103">
        <ele>100</ele>
        <time>2014-04-16T08:53:42Z</time>
      </trkpt>
      <trkpt lat="47.73321" lon="3.60107">
        <ele>101</ele>
        <time>2014-04-16T08:53:45Z</time>
      </trkpt>
      <trkpt lat="47.73316" lon="3.6011">
        <ele>101</ele>
        <time>2014-04-16T08:53:49Z</time>
      </trkpt>
      <trkpt lat="47.73312" lon="3.60114">
        <ele>101</ele>
        <time>2014-04-16T08:53:53Z</time>
      </trkpt>
      <trkpt lat="47.73307" lon="3.60116">
        <ele>101</ele>
        <time>2014-04-16T08:53:57Z</time>
      </trkpt>
      <trkpt lat="47.73302" lon="3.60119">
        <ele>101</ele>
        <time>2014-04-16T08:54:01Z</time>
      </trkpt>
      <trkpt lat="47.73298" lon="3.60122">
        <ele>101</ele>
        <time>2014-04-16T08:54:07Z</time>
      </trkpt>
      <trkpt lat="47.73293" lon="3.60124">
        <ele>101</ele>
        <time>2014-04-16T08:54:11Z</time>
      </trkpt>
      <trkpt lat="47.73289" lon="3.60127">
        <ele>101</ele>
        <time>2014-04-16T08:54:16Z</time>
      </trkpt>
      <trkpt lat="47.73284" lon="3.6013">
        <ele>101</ele>
        <time>2014-04-16T08:54:20Z</time>
      </trkpt>
      <trkpt lat="47.7328" lon="3.60134">
        <ele>101</ele>
        <time>2014-04-16T08:54:25Z</time>
      </trkpt>
      <trkpt lat="47.73276" lon="3.6014">
        <ele>102</ele>
        <time>2014-04-16T08:54:30Z</time>
      </trkpt>
      <trkpt lat="47.73272" lon="3.60144">
        <ele>102</ele>
        <time>2014-04-16T08:54:35Z</time>
      </trkpt>
      <trkpt lat="47.73268" lon="3.60147">
        <ele>102</ele>
        <time>2014-04-16T08:54:38Z</time>
      </trkpt>
      <trkpt lat="47.73263" lon="3.60151">
        <ele>102</ele>
        <time>2014-04-16T08:54:44Z</time>
      </trkpt>
      <trkpt lat="47.73259" lon="3.60148">
        <ele>102</ele>
        <time>2014-04-16T08:54:47Z</time>
      </trkpt>
      <trkpt lat="47.73256" lon="3.6014">
        <ele>102</ele>
        <time>2014-04-16T08:54:52Z</time>
      </trkpt>
      <trkpt lat="47.73254" lon="3.60133">
        <ele>102</ele>
        <time>2014-04-16T08:54:56Z</time>
      </trkpt>
      <trkpt lat="47.73251" lon="3.60126">
        <ele>102</ele>
        <time>2014-04-16T08:54:59Z</time>
      </trkpt>
      <trkpt lat="47.7325" lon="3.60119">
        <ele>102</ele>
        <time>2014-04-16T08:55:04Z</time>
      </trkpt>
      <trkpt lat="47.73248" lon="3.60111">
        <ele>102</ele>
        <time>2014-04-16T08:55:09Z</time>
      </trkpt>
      <trkpt lat="47.73245" lon="3.60104">
        <ele>102</ele>
        <time>2014-04-16T08:55:14Z</time>
      </trkpt>
      <trkpt lat="47.73244" lon="3.60097">
        <ele>101</ele>
        <time>2014-04-16T08:55:17Z</time>
      </trkpt>
      <trkpt lat="47.73241" lon="3.60091">
        <ele>101</ele>
        <time>2014-04-16T08:55:21Z</time>
      </trkpt>
      <trkpt lat="47.73239" lon="3.60084">
        <ele>101</ele>
        <time>2014-04-16T08:55:24Z</time>
      </trkpt>
      <trkpt lat="47.73239" lon="3.60076">
        <ele>101</ele>
        <time>2014-04-16T08:55:28Z</time>
      </trkpt>
      <trkpt lat="47.73236" lon="3.60069">
        <ele>101</ele>
        <time>2014-04-16T08:55:33Z</time>
      </trkpt>
      <trkpt lat="47.73234" lon="3.60062">
        <ele>101</ele>
        <time>2014-04-16T08:55:37Z</time>
      </trkpt>
      <trkpt lat="47.73232" lon="3.60056">
        <ele>101</ele>
        <time>2014-04-16T08:55:41Z</time>
      </trkpt>
      <trkpt lat="47.7323" lon="3.6005">
        <ele>101</ele>
        <time>2014-04-16T08:55:45Z</time>
      </trkpt>
      <trkpt lat="47.73228" lon="3.60042">
        <ele>101</ele>
        <time>2014-04-16T08:55:49Z</time>
      </trkpt>
      <trkpt lat="47.73226" lon="3.60035">
        <ele>101</ele>
        <time>2014-04-16T08:55:54Z</time>
      </trkpt>
      <trkpt lat="47.73222" lon="3.6003">
        <ele>101</ele>
        <time>2014-04-16T08:55:59Z</time>
      </trkpt>
      <trkpt lat="47.73217" lon="3.60034">
        <ele>101</ele>
        <time>2014-04-16T08:56:02Z</time>
      </trkpt>
      <trkpt lat="47.73213" lon="3.60037">
        <ele>101</ele>
        <time>2014-04-16T08:56:05Z</time>
      </trkpt>
      <trkpt lat="47.73208" lon="3.60041">
        <ele>101</ele>
        <time>2014-04-16T08:56:09Z</time>
      </trkpt>
      <trkpt lat="47.73203" lon="3.60047">
        <ele>101</ele>
        <time>2014-04-16T08:56:14Z</time>
      </trkpt>
      <trkpt lat="47.73201" lon="3.60053">
        <ele>101</ele>
        <time>2014-04-16T08:56:16Z</time>
      </trkpt>
      <trkpt lat="47.73197" lon="3.6006">
        <ele>101</ele>
        <time>2014-04-16T08:56:18Z</time>
      </trkpt>
      <trkpt lat="47.73194" lon="3.60064">
        <ele>101</ele>
        <time>2014-04-16T08:56:20Z</time>
      </trkpt>
      <trkpt lat="47.73188" lon="3.60067">
        <ele>101</ele>
        <time>2014-04-16T08:56:27Z</time>
      </trkpt>
      <trkpt lat="47.73183" lon="3.60068">
        <ele>101</ele>
        <time>2014-04-16T08:56:33Z</time>
      </trkpt>
      <trkpt lat="47.73178" lon="3.60072">
        <ele>101</ele>
        <time>2014-04-16T08:56:37Z</time>
      </trkpt>
      <trkpt lat="47.73173" lon="3.60075">
        <ele>101</ele>
        <time>2014-04-16T08:56:41Z</time>
      </trkpt>
      <trkpt lat="47.73169" lon="3.60077">
        <ele>101</ele>
        <time>2014-04-16T08:58:34Z</time>
      </trkpt>
      <trkpt lat="47.73164" lon="3.60079">
        <ele>101</ele>
        <time>2014-04-16T08:59:36Z</time>
      </trkpt>
      <trkpt lat="47.7316" lon="3.60083">
        <ele>101</ele>
        <time>2014-04-16T08:59:41Z</time>
      </trkpt>
      <trkpt lat="47.73155" lon="3.60086">
        <ele>101</ele>
        <time>2014-04-16T08:59:46Z</time>
      </trkpt>
      <trkpt lat="47.73151" lon="3.60092">
        <ele>101</ele>
        <time>2014-04-16T08:59:52Z</time>
      </trkpt>
      <trkpt lat="47.73147" lon="3.60096">
        <ele>102</ele>
        <time>2014-04-16T08:59:55Z</time>
      </trkpt>
      <trkpt lat="47.73142" lon="3.60101">
        <ele>102</ele>
        <time>2014-04-16T08:59:58Z</time>
      </trkpt>
      <trkpt lat="47.73137" lon="3.60102">
        <ele>102</ele>
        <time>2014-04-16T09:00:08Z</time>
      </trkpt>
      <trkpt lat="47.73133" lon="3.60106">
        <ele>102</ele>
        <time>2014-04-16T09:00:14Z</time>
      </trkpt>
      <trkpt lat="47.73129" lon="3.60113">
        <ele>102</ele>
        <time>2014-04-16T09:00:20Z</time>
      </trkpt>
      <trkpt lat="47.73125" lon="3.60117">
        <ele>102</ele>
        <time>2014-04-16T09:00:24Z</time>
      </trkpt>
      <trkpt lat="47.73121" lon="3.6012">
        <ele>102</ele>
        <time>2014-04-16T09:00:28Z</time>
      </trkpt>
      <trkpt lat="47.73118" lon="3.60125">
        <ele>102</ele>
        <time>2014-04-16T09:00:32Z</time>
      </trkpt>
      <trkpt lat="47.73115" lon="3.60132">
        <ele>102</ele>
        <time>2014-04-16T09:00:36Z</time>
      </trkpt>
      <trkpt lat="47.73111" lon="3.60137">
        <ele>102</ele>
        <time>2014-04-16T09:00:40Z</time>
      </trkpt>
      <trkpt lat="47.73108" lon="3.60144">
        <ele>102</ele>
        <time>2014-04-16T09:00:44Z</time>
      </trkpt>
      <trkpt lat="47.73106" lon="3.60151">
        <ele>102</ele>
        <time>2014-04-16T09:00:47Z</time>
      </trkpt>
      <trkpt lat="47.73103" lon="3.60157">
        <ele>102</ele>
        <time>2014-04-16T09:00:52Z</time>
      </trkpt>
      <trkpt lat="47.73099" lon="3.60163">
        <ele>103</ele>
        <time>2014-04-16T09:00:57Z</time>
      </trkpt>
      <trkpt lat="47.73096" lon="3.60169">
        <ele>103</ele>
        <time>2014-04-16T09:01:04Z</time>
      </trkpt>
      <trkpt lat="47.73094" lon="3.60176">
        <ele>103</ele>
        <time>2014-04-16T09:01:09Z</time>
      </trkpt>
      <trkpt lat="47.73092" lon="3.60184">
        <ele>103</ele>
        <time>2014-04-16T09:01:16Z</time>
      </trkpt>
      <trkpt lat="47.73091" lon="3.60193">
        <ele>103</ele>
        <time>2014-04-16T09:01:18Z</time>
      </trkpt>
      <trkpt lat="47.73089" lon="3.60201">
        <ele>103</ele>
        <time>2014-04-16T09:01:22Z</time>
      </trkpt>
      <trkpt lat="47.73087" lon="3.60207">
        <ele>103</ele>
        <time>2014-04-16T09:01:27Z</time>
      </trkpt>
      <trkpt lat="47.73087" lon="3.60215">
        <ele>103</ele>
        <time>2014-04-16T09:01:31Z</time>
      </trkpt>
      <trkpt lat="47.73085" lon="3.60223">
        <ele>103</ele>
        <time>2014-04-16T09:01:36Z</time>
      </trkpt>
      <trkpt lat="47.73081" lon="3.60229">
        <ele>102</ele>
        <time>2014-04-16T09:01:40Z</time>
      </trkpt>
      <trkpt lat="47.7308" lon="3.60237">
        <ele>102</ele>
        <time>2014-04-16T09:01:44Z</time>
      </trkpt>
      <trkpt lat="47.7308" lon="3.60245">
        <ele>102</ele>
        <time>2014-04-16T09:01:48Z</time>
      </trkpt>
      <trkpt lat="47.73077" lon="3.60253">
        <ele>102</ele>
        <time>2014-04-16T09:01:52Z</time>
      </trkpt>
      <trkpt lat="47.73075" lon="3.60259">
        <ele>102</ele>
        <time>2014-04-16T09:01:57Z</time>
      </trkpt>
      <trkpt lat="47.73073" lon="3.60265">
        <ele>102</ele>
        <time>2014-04-16T09:02:02Z</time>
      </trkpt>
      <trkpt lat="47.73069" lon="3.60271">
        <ele>102</ele>
        <time>2014-04-16T09:02:06Z</time>
      </trkpt>
      <trkpt lat="47.73064" lon="3.60277">
        <ele>102</ele>
        <time>2014-04-16T09:02:10Z</time>
      </trkpt>
      <trkpt lat="47.73061" lon="3.60282">
        <ele>102</ele>
        <time>2014-04-16T09:02:14Z</time>
      </trkpt>
      <trkpt lat="47.73057" lon="3.60288">
        <ele>102</ele>
        <time>2014-04-16T09:02:17Z</time>
      </trkpt>
      <trkpt lat="47.73054" lon="3.60293">
        <ele>102</ele>
        <time>2014-04-16T09:02:20Z</time>
      </trkpt>
      <trkpt lat="47.7305" lon="3.60298">
        <ele>102</ele>
        <time>2014-04-16T09:02:24Z</time>
      </trkpt>
      <trkpt lat="47.73046" lon="3.60304">
        <ele>102</ele>
        <time>2014-04-16T09:02:27Z</time>
      </trkpt>
      <trkpt lat="47.73043" lon="3.6031">
        <ele>102</ele>
        <time>2014-04-16T09:02:31Z</time>
      </trkpt>
      <trkpt lat="47.7304" lon="3.60316">
        <ele>102</ele>
        <time>2014-04-16T09:02:36Z</time>
      </trkpt>
      <trkpt lat="47.73037" lon="3.60321">
        <ele>102</ele>
        <time>2014-04-16T09:02:40Z</time>
      </trkpt>
      <trkpt lat="47.73033" lon="3.60327">
        <ele>102</ele>
        <time>2014-04-16T09:02:44Z</time>
      </trkpt>
      <trkpt lat="47.7303" lon="3.60333">
        <ele>102</ele>
        <time>2014-04-16T09:02:47Z</time>
      </trkpt>
      <trkpt lat="47.73026" lon="3.60338">
        <ele>102</ele>
        <time>2014-04-16T09:02:52Z</time>
      </trkpt>
      <trkpt lat="47.73022" lon="3.60342">
        <ele>102</ele>
        <time>2014-04-16T09:02:55Z</time>
      </trkpt>
      <trkpt lat="47.73019" lon="3.60347">
        <ele>102</ele>
        <time>2014-04-16T09:02:57Z</time>
      </trkpt>
      <trkpt lat="47.73015" lon="3.60352">
        <ele>102</ele>
        <time>2014-04-16T09:03:01Z</time>
      </trkpt>
      <trkpt lat="47.73011" lon="3.60358">
        <ele>102</ele>
        <time>2014-04-16T09:03:04Z</time>
      </trkpt>
      <trkpt lat="47.73007" lon="3.60365">
        <ele>102</ele>
        <time>2014-04-16T09:03:06Z</time>
      </trkpt>
      <trkpt lat="47.73003" lon="3.60371">
        <ele>102</ele>
        <time>2014-04-16T09:03:10Z</time>
      </trkpt>
      <trkpt lat="47.73" lon="3.60377">
        <ele>103</ele>
        <time>2014-04-16T09:03:14Z</time>
      </trkpt>
      <trkpt lat="47.72997" lon="3.60382">
        <ele>103</ele>
        <time>2014-04-16T09:03:21Z</time>
      </trkpt>
      <trkpt lat="47.72993" lon="3.60387">
        <ele>103</ele>
        <time>2014-04-16T09:03:26Z</time>
      </trkpt>
      <trkpt lat="47.72991" lon="3.60394">
        <ele>103</ele>
        <time>2014-04-16T09:03:31Z</time>
      </trkpt>
      <trkpt lat="47.72988" lon="3.60401">
        <ele>103</ele>
        <time>2014-04-16T09:03:36Z</time>
      </trkpt>
      <trkpt lat="47.72984" lon="3.60404">
        <ele>103</ele>
        <time>2014-04-16T09:03:38Z</time>
      </trkpt>
      <trkpt lat="47.72978" lon="3.60408">
        <ele>103</ele>
        <time>2014-04-16T09:03:44Z</time>
      </trkpt>
      <trkpt lat="47.72974" lon="3.60415">
        <ele>103</ele>
        <time>2014-04-16T09:03:48Z</time>
      </trkpt>
      <trkpt lat="47.72972" lon="3.60421">
        <ele>102</ele>
        <time>2014-04-16T09:03:51Z</time>
      </trkpt>
      <trkpt lat="47.72969" lon="3.60428">
        <ele>102</ele>
        <time>2014-04-16T09:03:54Z</time>
      </trkpt>
      <trkpt lat="47.72965" lon="3.60433">
        <ele>102</ele>
        <time>2014-04-16T09:03:58Z</time>
      </trkpt>
      <trkpt lat="47.72961" lon="3.60438">
        <ele>102</ele>
        <time>2014-04-16T09:04:04Z</time>
      </trkpt>
      <trkpt lat="47.72956" lon="3.60441">
        <ele>102</ele>
        <time>2014-04-16T09:04:10Z</time>
      </trkpt>
      <trkpt lat="47.72953" lon="3.60446">
        <ele>102</ele>
        <time>2014-04-16T09:04:13Z</time>
      </trkpt>
      <trkpt lat="47.72949" lon="3.60452">
        <ele>102</ele>
        <time>2014-04-16T09:04:16Z</time>
      </trkpt>
      <trkpt lat="47.72946" lon="3.60458">
        <ele>102</ele>
        <time>2014-04-16T09:04:20Z</time>
      </trkpt>
      <trkpt lat="47.72941" lon="3.60461">
        <ele>102</ele>
        <time>2014-04-16T09:04:24Z</time>
      </trkpt>
      <trkpt lat="47.72937" lon="3.60467">
        <ele>102</ele>
        <time>2014-04-16T09:04:29Z</time>
      </trkpt>
      <trkpt lat="47.72934" lon="3.60472">
        <ele>102</ele>
        <time>2014-04-16T09:04:33Z</time>
      </trkpt>
      <trkpt lat="47.72931" lon="3.60478">
        <ele>102</ele>
        <time>2014-04-16T09:04:37Z</time>
      </trkpt>
      <trkpt lat="47.72928" lon="3.60484">
        <ele>101</ele>
        <time>2014-04-16T09:04:40Z</time>
      </trkpt>
      <trkpt lat="47.72924" lon="3.6049">
        <ele>101</ele>
        <time>2014-04-16T09:04:44Z</time>
      </trkpt>
      <trkpt lat="47.72921" lon="3.60495">
        <ele>101</ele>
        <time>2014-04-16T09:04:46Z</time>
      </trkpt>
      <trkpt lat="47.72917" lon="3.60501">
        <ele>101</ele>
        <time>2014-04-16T09:04:50Z</time>
      </trkpt>
      <trkpt lat="47.72913" lon="3.60507">
        <ele>101</ele>
        <time>2014-04-16T09:04:53Z</time>
      </trkpt>
      <trkpt lat="47.72909" lon="3.60515">
        <ele>101</ele>
        <time>2014-04-16T09:04:56Z</time>
      </trkpt>
      <trkpt lat="47.72905" lon="3.60522">
        <ele>101</ele>
        <time>2014-04-16T09:05:00Z</time>
      </trkpt>
      <trkpt lat="47.72902" lon="3.60528">
        <ele>101</ele>
        <time>2014-04-16T09:05:08Z</time>
      </trkpt>
      <trkpt lat="47.72897" lon="3.60533">
        <ele>101</ele>
        <time>2014-04-16T09:05:11Z</time>
      </trkpt>
      <trkpt lat="47.72894" lon="3.60538">
        <ele>101</ele>
        <time>2014-04-16T09:05:14Z</time>
      </trkpt>
      <trkpt lat="47.72889" lon="3.6055">
        <ele>101</ele>
        <time>2014-04-16T09:05:20Z</time>
      </trkpt>
      <trkpt lat="47.72885" lon="3.60555">
        <ele>101</ele>
        <time>2014-04-16T09:05:24Z</time>
      </trkpt>
      <trkpt lat="47.72881" lon="3.60558">
        <ele>101</ele>
        <time>2014-04-16T09:05:32Z</time>
      </trkpt>
      <trkpt lat="47.72877" lon="3.60564">
        <ele>101</ele>
        <time>2014-04-16T09:05:36Z</time>
      </trkpt>
      <trkpt lat="47.72873" lon="3.6057">
        <ele>101</ele>
        <time>2014-04-16T09:05:40Z</time>
      </trkpt>
      <trkpt lat="47.7287" lon="3.60576">
        <ele>101</ele>
        <time>2014-04-16T09:05:42Z</time>
      </trkpt>
      <trkpt lat="47.72867" lon="3.60582">
        <ele>101</ele>
        <time>2014-04-16T09:05:45Z</time>
      </trkpt>
      <trkpt lat="47.72863" lon="3.60587">
        <ele>100</ele>
        <time>2014-04-16T09:05:48Z</time>
      </trkpt>
      <trkpt lat="47.7286" lon="3.60593">
        <ele>100</ele>
        <time>2014-04-16T09:05:51Z</time>
      </trkpt>
      <trkpt lat="47.72857" lon="3.60599">
        <ele>100</ele>
        <time>2014-04-16T09:05:54Z</time>
      </trkpt>
      <trkpt lat="47.72847" lon="3.60608">
        <ele>100</ele>
        <time>2014-04-16T09:06:05Z</time>
      </trkpt>
      <trkpt lat="47.72843" lon="3.60615">
        <ele>100</ele>
        <time>2014-04-16T09:06:08Z</time>
      </trkpt>
      <trkpt lat="47.7284" lon="3.6062">
        <ele>100</ele>
        <time>2014-04-16T09:06:13Z</time>
      </trkpt>
      <trkpt lat="47.72837" lon="3.60627">
        <ele>100</ele>
        <time>2014-04-16T09:06:17Z</time>
      </trkpt>
      <trkpt lat="47.72834" lon="3.60633">
        <ele>100</ele>
        <time>2014-04-16T09:06:21Z</time>
      </trkpt>
      <trkpt lat="47.72831" lon="3.60639">
        <ele>101</ele>
        <time>2014-04-16T09:06:24Z</time>
      </trkpt>
      <trkpt lat="47.72827" lon="3.60643">
        <ele>101</ele>
        <time>2014-04-16T09:06:28Z</time>
      </trkpt>
      <trkpt lat="47.72823" lon="3.60648">
        <ele>101</ele>
        <time>2014-04-16T09:06:31Z</time>
      </trkpt>
      <trkpt lat="47.72819" lon="3.60653">
        <ele>101</ele>
        <time>2014-04-16T09:06:36Z</time>
      </trkpt>
      <trkpt lat="47.72814" lon="3.60657">
        <ele>101</ele>
        <time>2014-04-16T09:06:42Z</time>
      </trkpt>
      <trkpt lat="47.7281" lon="3.60662">
        <ele>101</ele>
        <time>2014-04-16T09:06:47Z</time>
      </trkpt>
      <trkpt lat="47.72809" lon="3.60669">
        <ele>100</ele>
        <time>2014-04-16T09:06:52Z</time>
      </trkpt>
      <trkpt lat="47.72808" lon="3.60673">
        <ele>100</ele>
        <time>2014-04-16T09:06:59Z</time>
      </trkpt>
      <trkpt lat="47.72804" lon="3.60677">
        <ele>100</ele>
        <time>2014-04-16T09:07:04Z</time>
      </trkpt>
      <trkpt lat="47.728" lon="3.60681">
        <ele>100</ele>
        <time>2014-04-16T09:07:06Z</time>
      </trkpt>
      <trkpt lat="47.72797" lon="3.60685">
        <ele>100</ele>
        <time>2014-04-16T09:07:08Z</time>
      </trkpt>
      <trkpt lat="47.72792" lon="3.60691">
        <ele>100</ele>
        <time>2014-04-16T09:07:10Z</time>
      </trkpt>
      <trkpt lat="47.72788" lon="3.60697">
        <ele>100</ele>
        <time>2014-04-16T09:07:13Z</time>
      </trkpt>
      <trkpt lat="47.72786" lon="3.60703">
        <ele>100</ele>
        <time>2014-04-16T09:07:17Z</time>
      </trkpt>
      <trkpt lat="47.72783" lon="3.60709">
        <ele>100</ele>
        <time>2014-04-16T09:07:22Z</time>
      </trkpt>
      <trkpt lat="47.7278" lon="3.60716">
        <ele>100</ele>
        <time>2014-04-16T09:07:26Z</time>
      </trkpt>
      <trkpt lat="47.72777" lon="3.60721">
        <ele>100</ele>
        <time>2014-04-16T09:07:32Z</time>
      </trkpt>
      <trkpt lat="47.72772" lon="3.60726">
        <ele>100</ele>
        <time>2014-04-16T09:07:56Z</time>
      </trkpt>
      <trkpt lat="47.72767" lon="3.60728">
        <ele>100</ele>
        <time>2014-04-16T09:08:06Z</time>
      </trkpt>
      <trkpt lat="47.72762" lon="3.6073">
        <ele>100</ele>
        <time>2014-04-16T09:08:09Z</time>
      </trkpt>
      <trkpt lat="47.72758" lon="3.60733">
        <ele>100</ele>
        <time>2014-04-16T09:08:17Z</time>
      </trkpt>
      <trkpt lat="47.72748" lon="3.60735">
        <ele>103</ele>
        <time>2014-04-16T09:08:24Z</time>
      </trkpt>
      <trkpt lat="47.72739" lon="3.60738">
        <ele>103</ele>
        <time>2014-04-16T09:08:34Z</time>
      </trkpt>
      <trkpt lat="47.72735" lon="3.60744">
        <ele>103</ele>
        <time>2014-04-16T09:08:40Z</time>
      </trkpt>
      <trkpt lat="47.72731" lon="3.60749">
        <ele>104</ele>
        <time>2014-04-16T09:08:43Z</time>
      </trkpt>
      <trkpt lat="47.72727" lon="3.60754">
        <ele>103</ele>
        <time>2014-04-16T09:08:47Z</time>
      </trkpt>
      <trkpt lat="47.72721" lon="3.60756">
        <ele>104</ele>
        <time>2014-04-16T09:08:52Z</time>
      </trkpt>
      <trkpt lat="47.72711" lon="3.6076">
        <ele>105</ele>
        <time>2014-04-16T09:09:03Z</time>
      </trkpt>
      <trkpt lat="47.72704" lon="3.60767">
        <ele>105</ele>
        <time>2014-04-16T09:09:08Z</time>
      </trkpt>
      <trkpt lat="47.72696" lon="3.60779">
        <ele>106</ele>
        <time>2014-04-16T09:09:13Z</time>
      </trkpt>
      <trkpt lat="47.72686" lon="3.60784">
        <ele>106</ele>
        <time>2014-04-16T09:09:26Z</time>
      </trkpt>
      <trkpt lat="47.72677" lon="3.6079">
        <ele>106</ele>
        <time>2014-04-16T09:09:33Z</time>
      </trkpt>
      <trkpt lat="47.72669" lon="3.608">
        <ele>106</ele>
        <time>2014-04-16T09:09:39Z</time>
      </trkpt>
      <trkpt lat="47.72662" lon="3.60809">
        <ele>108</ele>
        <time>2014-04-16T09:09:44Z</time>
      </trkpt>
      <trkpt lat="47.72654" lon="3.60817">
        <ele>107</ele>
        <time>2014-04-16T09:09:50Z</time>
      </trkpt>
      <trkpt lat="47.72645" lon="3.6082">
        <ele>107</ele>
        <time>2014-04-16T09:10:01Z</time>
      </trkpt>
      <trkpt lat="47.72635" lon="3.60831">
        <ele>107</ele>
        <time>2014-04-16T09:10:16Z</time>
      </trkpt>
      <trkpt lat="47.72628" lon="3.60841">
        <ele>105</ele>
        <time>2014-04-16T09:10:19Z</time>
      </trkpt>
      <trkpt lat="47.72621" lon="3.60849">
        <ele>105</ele>
        <time>2014-04-16T09:10:24Z</time>
      </trkpt>
      <trkpt lat="47.72614" lon="3.6086">
        <ele>105</ele>
        <time>2014-04-16T09:10:32Z</time>
      </trkpt>
      <trkpt lat="47.72605" lon="3.60867">
        <ele>105</ele>
        <time>2014-04-16T09:10:38Z</time>
      </trkpt>
      <trkpt lat="47.72597" lon="3.60875">
        <ele>104</ele>
        <time>2014-04-16T09:10:44Z</time>
      </trkpt>
      <trkpt lat="47.72594" lon="3.60882">
        <ele>104</ele>
        <time>2014-04-16T09:10:48Z</time>
      </trkpt>
      <trkpt lat="47.72592" lon="3.6089">
        <ele>104</ele>
        <time>2014-04-16T09:10:52Z</time>
      </trkpt>
      <trkpt lat="47.72587" lon="3.60892">
        <ele>104</ele>
        <time>2014-04-16T09:10:58Z</time>
      </trkpt>
      <trkpt lat="47.72583" lon="3.60897">
        <ele>104</ele>
        <time>2014-04-16T09:11:02Z</time>
      </trkpt>
      <trkpt lat="47.72581" lon="3.60904">
        <ele>103</ele>
        <time>2014-04-16T09:11:08Z</time>
      </trkpt>
      <trkpt lat="47.72577" lon="3.60909">
        <ele>103</ele>
        <time>2014-04-16T09:11:11Z</time>
      </trkpt>
      <trkpt lat="47.72573" lon="3.60913">
        <ele>103</ele>
        <time>2014-04-16T09:11:13Z</time>
      </trkpt>
      <trkpt lat="47.72568" lon="3.60917">
        <ele>103</ele>
        <time>2014-04-16T09:11:18Z</time>
      </trkpt>
      <trkpt lat="47.72564" lon="3.60922">
        <ele>103</ele>
        <time>2014-04-16T09:11:21Z</time>
      </trkpt>
      <trkpt lat="47.72559" lon="3.60927">
        <ele>103</ele>
        <time>2014-04-16T09:11:27Z</time>
      </trkpt>
      <trkpt lat="47.72556" lon="3.60933">
        <ele>103</ele>
        <time>2014-04-16T09:11:31Z</time>
      </trkpt>
      <trkpt lat="47.72554" lon="3.6094">
        <ele>103</ele>
        <time>2014-04-16T09:11:34Z</time>
      </trkpt>
      <trkpt lat="47.72552" lon="3.60947">
        <ele>103</ele>
        <time>2014-04-16T09:11:39Z</time>
      </trkpt>
      <trkpt lat="47.72549" lon="3.60953">
        <ele>103</ele>
        <time>2014-04-16T09:11:42Z</time>
      </trkpt>
      <trkpt lat="47.72546" lon="3.6096">
        <ele>103</ele>
        <time>2014-04-16T09:11:47Z</time>
      </trkpt>
      <trkpt lat="47.72545" lon="3.60967">
        <ele>103</ele>
        <time>2014-04-16T09:11:52Z</time>
      </trkpt>
      <trkpt lat="47.72543" lon="3.60973">
        <ele>103</ele>
        <time>2014-04-16T09:11:56Z</time>
      </trkpt>
      <trkpt lat="47.7254" lon="3.60979">
        <ele>103</ele>
        <time>2014-04-16T09:11:59Z</time>
      </trkpt>
      <trkpt lat="47.72538" lon="3.60986">
        <ele>103</ele>
        <time>2014-04-16T09:12:03Z</time>
      </trkpt>
      <trkpt lat="47.72537" lon="3.61">
        <ele>103</ele>
        <time>2014-04-16T09:12:11Z</time>
      </trkpt>
      <trkpt lat="47.72532" lon="3.61011">
        <ele>102</ele>
        <time>2014-04-16T09:12:19Z</time>
      </trkpt>
      <trkpt lat="47.72529" lon="3.61025">
        <ele>102</ele>
        <time>2014-04-16T09:12:27Z</time>
      </trkpt>
      <trkpt lat="47.72527" lon="3.61033">
        <ele>102</ele>
        <time>2014-04-16T09:12:30Z</time>
      </trkpt>
      <trkpt lat="47.72524" lon="3.6104">
        <ele>102</ele>
        <time>2014-04-16T09:12:35Z</time>
      </trkpt>
      <trkpt lat="47.72522" lon="3.61047">
        <ele>102</ele>
        <time>2014-04-16T09:12:41Z</time>
      </trkpt>
      <trkpt lat="47.7252" lon="3.61054">
        <ele>102</ele>
        <time>2014-04-16T09:12:44Z</time>
      </trkpt>
      <trkpt lat="47.72516" lon="3.6106">
        <ele>102</ele>
        <time>2014-04-16T09:12:48Z</time>
      </trkpt>
      <trkpt lat="47.72513" lon="3.61067">
        <ele>102</ele>
        <time>2014-04-16T09:12:53Z</time>
      </trkpt>
      <trkpt lat="47.72511" lon="3.61074">
        <ele>102</ele>
        <time>2014-04-16T09:12:56Z</time>
      </trkpt>
      <trkpt lat="47.72508" lon="3.61081">
        <ele>102</ele>
        <time>2014-04-16T09:13:01Z</time>
      </trkpt>
      <trkpt lat="47.72506" lon="3.61086">
        <ele>102</ele>
        <time>2014-04-16T09:13:05Z</time>
      </trkpt>
      <trkpt lat="47.72502" lon="3.61092">
        <ele>102</ele>
        <time>2014-04-16T09:13:09Z</time>
      </trkpt>
      <trkpt lat="47.72499" lon="3.61098">
        <ele>103</ele>
        <time>2014-04-16T09:13:13Z</time>
      </trkpt>
      <trkpt lat="47.72497" lon="3.61105">
        <ele>103</ele>
        <time>2014-04-16T09:13:17Z</time>
      </trkpt>
      <trkpt lat="47.72496" lon="3.61113">
        <ele>103</ele>
        <time>2014-04-16T09:13:22Z</time>
      </trkpt>
      <trkpt lat="47.72495" lon="3.6112">
        <ele>103</ele>
        <time>2014-04-16T09:13:25Z</time>
      </trkpt>
      <trkpt lat="47.72495" lon="3.61127">
        <ele>103</ele>
        <time>2014-04-16T09:13:28Z</time>
      </trkpt>
      <trkpt lat="47.72495" lon="3.61134">
        <ele>103</ele>
        <time>2014-04-16T09:13:32Z</time>
      </trkpt>
      <trkpt lat="47.72493" lon="3.6114">
        <ele>103</ele>
        <time>2014-04-16T09:13:37Z</time>
      </trkpt>
      <trkpt lat="47.7249" lon="3.61147">
        <ele>103</ele>
        <time>2014-04-16T09:13:41Z</time>
      </trkpt>
      <trkpt lat="47.72488" lon="3.61154">
        <ele>103</ele>
        <time>2014-04-16T09:13:46Z</time>
      </trkpt>
      <trkpt lat="47.72487" lon="3.61161">
        <ele>103</ele>
        <time>2014-04-16T09:13:49Z</time>
      </trkpt>
      <trkpt lat="47.72486" lon="3.6117">
        <ele>102</ele>
        <time>2014-04-16T09:13:52Z</time>
      </trkpt>
      <trkpt lat="47.72485" lon="3.61177">
        <ele>102</ele>
        <time>2014-04-16T09:13:56Z</time>
      </trkpt>
      <trkpt lat="47.72481" lon="3.61183">
        <ele>103</ele>
        <time>2014-04-16T09:13:58Z</time>
      </trkpt>
      <trkpt lat="47.72478" lon="3.61188">
        <ele>103</ele>
        <time>2014-04-16T09:14:02Z</time>
      </trkpt>
      <trkpt lat="47.72475" lon="3.61195">
        <ele>103</ele>
        <time>2014-04-16T09:14:07Z</time>
      </trkpt>
      <trkpt lat="47.72474" lon="3.61202">
        <ele>103</ele>
        <time>2014-04-16T09:14:10Z</time>
      </trkpt>
      <trkpt lat="47.7248" lon="3.612">
        <ele>103</ele>
        <time>2014-04-16T09:14:21Z</time>
      </trkpt>
      <trkpt lat="47.72481" lon="3.61208">
        <ele>103</ele>
        <time>2014-04-16T09:15:17Z</time>
      </trkpt>
      <trkpt lat="47.72479" lon="3.61214">
        <ele>103</ele>
        <time>2014-04-16T09:15:24Z</time>
      </trkpt>
      <trkpt lat="47.72478" lon="3.6122">
        <ele>103</ele>
        <time>2014-04-16T09:15:28Z</time>
      </trkpt>
      <trkpt lat="47.72479" lon="3.61228">
        <ele>103</ele>
        <time>2014-04-16T09:15:33Z</time>
      </trkpt>
      <trkpt lat="47.72476" lon="3.61234">
        <ele>103</ele>
        <time>2014-04-16T09:15:37Z</time>
      </trkpt>
      <trkpt lat="47.72472" lon="3.6124">
        <ele>103</ele>
        <time>2014-04-16T09:15:41Z</time>
      </trkpt>
      <trkpt lat="47.72469" lon="3.61246">
        <ele>103</ele>
        <time>2014-04-16T09:15:46Z</time>
      </trkpt>
      <trkpt lat="47.72467" lon="3.61252">
        <ele>103</ele>
        <time>2014-04-16T09:15:49Z</time>
      </trkpt>
      <trkpt lat="47.72466" lon="3.6126">
        <ele>103</ele>
        <time>2014-04-16T09:15:53Z</time>
      </trkpt>
      <trkpt lat="47.72467" lon="3.61268">
        <ele>103</ele>
        <time>2014-04-16T09:15:55Z</time>
      </trkpt>
      <trkpt lat="47.72466" lon="3.61275">
        <ele>103</ele>
        <time>2014-04-16T09:15:57Z</time>
      </trkpt>
      <trkpt lat="47.72462" lon="3.6128">
        <ele>103</ele>
        <time>2014-04-16T09:16:00Z</time>
      </trkpt>
      <trkpt lat="47.72458" lon="3.61284">
        <ele>103</ele>
        <time>2014-04-16T09:16:04Z</time>
      </trkpt>
      <trkpt lat="47.72456" lon="3.61291">
        <ele>103</ele>
        <time>2014-04-16T09:16:11Z</time>
      </trkpt>
      <trkpt lat="47.72455" lon="3.61299">
        <ele>103</ele>
        <time>2014-04-16T09:16:16Z</time>
      </trkpt>
      <trkpt lat="47.72454" lon="3.61306">
        <ele>103</ele>
        <time>2014-04-16T09:16:19Z</time>
      </trkpt>
      <trkpt lat="47.72452" lon="3.61313">
        <ele>103</ele>
        <time>2014-04-16T09:16:23Z</time>
      </trkpt>
      <trkpt lat="47.72449" lon="3.61319">
        <ele>103</ele>
        <time>2014-04-16T09:16:29Z</time>
      </trkpt>
      <trkpt lat="47.72448" lon="3.61328">
        <ele>103</ele>
        <time>2014-04-16T09:16:34Z</time>
      </trkpt>
      <trkpt lat="47.72448" lon="3.61338">
        <ele>103</ele>
        <time>2014-04-16T09:16:40Z</time>
      </trkpt>
      <trkpt lat="47.72447" lon="3.61345">
        <ele>103</ele>
        <time>2014-04-16T09:16:45Z</time>
      </trkpt>
      <trkpt lat="47.72446" lon="3.61352">
        <ele>103</ele>
        <time>2014-04-16T09:16:50Z</time>
      </trkpt>
      <trkpt lat="47.72446" lon="3.6136">
        <ele>103</ele>
        <time>2014-04-16T09:16:54Z</time>
      </trkpt>
      <trkpt lat="47.72446" lon="3.61368">
        <ele>103</ele>
        <time>2014-04-16T09:16:59Z</time>
      </trkpt>
      <trkpt lat="47.72445" lon="3.61374">
        <ele>103</ele>
        <time>2014-04-16T09:17:01Z</time>
      </trkpt>
      <trkpt lat="47.72442" lon="3.6138">
        <ele>103</ele>
        <time>2014-04-16T09:17:05Z</time>
      </trkpt>
      <trkpt lat="47.7244" lon="3.61387">
        <ele>102</ele>
        <time>2014-04-16T09:17:10Z</time>
      </trkpt>
      <trkpt lat="47.72439" lon="3.61394">
        <ele>102</ele>
        <time>2014-04-16T09:17:13Z</time>
      </trkpt>
      <trkpt lat="47.72438" lon="3.61402">
        <ele>102</ele>
        <time>2014-04-16T09:17:17Z</time>
      </trkpt>
      <trkpt lat="47.72437" lon="3.61408">
        <ele>102</ele>
        <time>2014-04-16T09:17:22Z</time>
      </trkpt>
      <trkpt lat="47.72436" lon="3.61415">
        <ele>102</ele>
        <time>2014-04-16T09:17:26Z</time>
      </trkpt>
      <trkpt lat="47.72435" lon="3.61422">
        <ele>102</ele>
        <time>2014-04-16T09:17:30Z</time>
      </trkpt>
      <trkpt lat="47.72433" lon="3.61428">
        <ele>102</ele>
        <time>2014-04-16T09:17:34Z</time>
      </trkpt>
      <trkpt lat="47.72431" lon="3.61436">
        <ele>102</ele>
        <time>2014-04-16T09:17:37Z</time>
      </trkpt>
      <trkpt lat="47.72428" lon="3.61441">
        <ele>102</ele>
        <time>2014-04-16T09:17:40Z</time>
      </trkpt>
      <trkpt lat="47.72426" lon="3.61449">
        <ele>102</ele>
        <time>2014-04-16T09:17:45Z</time>
      </trkpt>
      <trkpt lat="47.72425" lon="3.61457">
        <ele>102</ele>
        <time>2014-04-16T09:17:49Z</time>
      </trkpt>
      <trkpt lat="47.72427" lon="3.61464">
        <ele>101</ele>
        <time>2014-04-16T09:17:52Z</time>
      </trkpt>
      <trkpt lat="47.72428" lon="3.61471">
        <ele>102</ele>
        <time>2014-04-16T09:17:56Z</time>
      </trkpt>
      <trkpt lat="47.72428" lon="3.61478">
        <ele>102</ele>
        <time>2014-04-16T09:18:00Z</time>
      </trkpt>
      <trkpt lat="47.72428" lon="3.61485">
        <ele>102</ele>
        <time>2014-04-16T09:18:04Z</time>
      </trkpt>
      <trkpt lat="47.72428" lon="3.61494">
        <ele>102</ele>
        <time>2014-04-16T09:18:08Z</time>
      </trkpt>
      <trkpt lat="47.72427" lon="3.61501">
        <ele>102</ele>
        <time>2014-04-16T09:18:12Z</time>
      </trkpt>
      <trkpt lat="47.72426" lon="3.61509">
        <ele>102</ele>
        <time>2014-04-16T09:18:16Z</time>
      </trkpt>
      <trkpt lat="47.72425" lon="3.61516">
        <ele>101</ele>
        <time>2014-04-16T09:18:20Z</time>
      </trkpt>
      <trkpt lat="47.72425" lon="3.61523">
        <ele>101</ele>
        <time>2014-04-16T09:18:22Z</time>
      </trkpt>
      <trkpt lat="47.72426" lon="3.61532">
        <ele>101</ele>
        <time>2014-04-16T09:18:26Z</time>
      </trkpt>
      <trkpt lat="47.72426" lon="3.61539">
        <ele>101</ele>
        <time>2014-04-16T09:18:30Z</time>
      </trkpt>
      <trkpt lat="47.72423" lon="3.61547">
        <ele>101</ele>
        <time>2014-04-16T09:18:34Z</time>
      </trkpt>
      <trkpt lat="47.72421" lon="3.61561">
        <ele>101</ele>
        <time>2014-04-16T09:18:45Z</time>
      </trkpt>
      <trkpt lat="47.7242" lon="3.61568">
        <ele>101</ele>
        <time>2014-04-16T09:18:49Z</time>
      </trkpt>
      <trkpt lat="47.72419" lon="3.61574">
        <ele>101</ele>
        <time>2014-04-16T09:18:53Z</time>
      </trkpt>
      <trkpt lat="47.7242" lon="3.61582">
        <ele>101</ele>
        <time>2014-04-16T09:18:58Z</time>
      </trkpt>
      <trkpt lat="47.72422" lon="3.61589">
        <ele>101</ele>
        <time>2014-04-16T09:19:02Z</time>
      </trkpt>
      <trkpt lat="47.72423" lon="3.61597">
        <ele>101</ele>
        <time>2014-04-16T09:19:06Z</time>
      </trkpt>
      <trkpt lat="47.72422" lon="3.61605">
        <ele>101</ele>
        <time>2014-04-16T09:19:10Z</time>
      </trkpt>
      <trkpt lat="47.7242" lon="3.61612">
        <ele>101</ele>
        <time>2014-04-16T09:19:13Z</time>
      </trkpt>
      <trkpt lat="47.72418" lon="3.61618">
        <ele>101</ele>
        <time>2014-04-16T09:19:16Z</time>
      </trkpt>
      <trkpt lat="47.72417" lon="3.61626">
        <ele>101</ele>
        <time>2014-04-16T09:19:21Z</time>
      </trkpt>
      <trkpt lat="47.72414" lon="3.61632">
        <ele>102</ele>
        <time>2014-04-16T09:19:26Z</time>
      </trkpt>
      <trkpt lat="47.72413" lon="3.61639">
        <ele>102</ele>
        <time>2014-04-16T09:19:30Z</time>
      </trkpt>
      <trkpt lat="47.72412" lon="3.61647">
        <ele>102</ele>
        <time>2014-04-16T09:19:35Z</time>
      </trkpt>
      <trkpt lat="47.72413" lon="3.61654">
        <ele>102</ele>
        <time>2014-04-16T09:19:38Z</time>
      </trkpt>
      <trkpt lat="47.72408" lon="3.61667">
        <ele>102</ele>
        <time>2014-04-16T09:19:45Z</time>
      </trkpt>
      <trkpt lat="47.72407" lon="3.61675">
        <ele>102</ele>
        <time>2014-04-16T09:19:49Z</time>
      </trkpt>
      <trkpt lat="47.72404" lon="3.61682">
        <ele>102</ele>
        <time>2014-04-16T09:19:53Z</time>
      </trkpt>
      <trkpt lat="47.72404" lon="3.61689">
        <ele>102</ele>
        <time>2014-04-16T09:19:57Z</time>
      </trkpt>
      <trkpt lat="47.72405" lon="3.61697">
        <ele>102</ele>
        <time>2014-04-16T09:20:02Z</time>
      </trkpt>
      <trkpt lat="47.72404" lon="3.61705">
        <ele>102</ele>
        <time>2014-04-16T09:20:06Z</time>
      </trkpt>
      <trkpt lat="47.72403" lon="3.61712">
        <ele>102</ele>
        <time>2014-04-16T09:20:10Z</time>
      </trkpt>
      <trkpt lat="47.72402" lon="3.6172">
        <ele>102</ele>
        <time>2014-04-16T09:20:14Z</time>
      </trkpt>
      <trkpt lat="47.72402" lon="3.61727">
        <ele>103</ele>
        <time>2014-04-16T09:20:20Z</time>
      </trkpt>
      <trkpt lat="47.72402" lon="3.61734">
        <ele>103</ele>
        <time>2014-04-16T09:20:25Z</time>
      </trkpt>
      <trkpt lat="47.72401" lon="3.61742">
        <ele>103</ele>
        <time>2014-04-16T09:20:29Z</time>
      </trkpt>
      <trkpt lat="47.72401" lon="3.6175">
        <ele>104</ele>
        <time>2014-04-16T09:20:33Z</time>
      </trkpt>
      <trkpt lat="47.72399" lon="3.61759">
        <ele>104</ele>
        <time>2014-04-16T09:20:37Z</time>
      </trkpt>
      <trkpt lat="47.72397" lon="3.61767">
        <ele>104</ele>
        <time>2014-04-16T09:20:40Z</time>
      </trkpt>
      <trkpt lat="47.72397" lon="3.61774">
        <ele>104</ele>
        <time>2014-04-16T09:20:44Z</time>
      </trkpt>
      <trkpt lat="47.72395" lon="3.61782">
        <ele>104</ele>
        <time>2014-04-16T09:20:48Z</time>
      </trkpt>
      <trkpt lat="47.72395" lon="3.61789">
        <ele>104</ele>
        <time>2014-04-16T09:20:52Z</time>
      </trkpt>
      <trkpt lat="47.72394" lon="3.61797">
        <ele>104</ele>
        <time>2014-04-16T09:21:00Z</time>
      </trkpt>
      <trkpt lat="47.72393" lon="3.61804">
        <ele>104</ele>
        <time>2014-04-16T09:21:04Z</time>
      </trkpt>
      <trkpt lat="47.72393" lon="3.61811">
        <ele>104</ele>
        <time>2014-04-16T09:21:06Z</time>
      </trkpt>
      <trkpt lat="47.72392" lon="3.61818">
        <ele>105</ele>
        <time>2014-04-16T09:21:09Z</time>
      </trkpt>
      <trkpt lat="47.72389" lon="3.61824">
        <ele>105</ele>
        <time>2014-04-16T09:21:14Z</time>
      </trkpt>
      <trkpt lat="47.72387" lon="3.61831">
        <ele>105</ele>
        <time>2014-04-16T09:21:18Z</time>
      </trkpt>
      <trkpt lat="47.72386" lon="3.61838">
        <ele>106</ele>
        <time>2014-04-16T09:21:21Z</time>
      </trkpt>
      <trkpt lat="47.72384" lon="3.61845">
        <ele>106</ele>
        <time>2014-04-16T09:21:25Z</time>
      </trkpt>
      <trkpt lat="47.72383" lon="3.61851">
        <ele>106</ele>
        <time>2014-04-16T09:21:29Z</time>
      </trkpt>
      <trkpt lat="47.72382" lon="3.61858">
        <ele>106</ele>
        <time>2014-04-16T09:21:33Z</time>
      </trkpt>
      <trkpt lat="47.72382" lon="3.61867">
        <ele>106</ele>
        <time>2014-04-16T09:21:39Z</time>
      </trkpt>
      <trkpt lat="47.72382" lon="3.61874">
        <ele>106</ele>
        <time>2014-04-16T09:21:42Z</time>
      </trkpt>
      <trkpt lat="47.72381" lon="3.61881">
        <ele>107</ele>
        <time>2014-04-16T09:21:47Z</time>
      </trkpt>
      <trkpt lat="47.7238" lon="3.61888">
        <ele>107</ele>
        <time>2014-04-16T09:21:51Z</time>
      </trkpt>
      <trkpt lat="47.72378" lon="3.61896">
        <ele>107</ele>
        <time>2014-04-16T09:21:54Z</time>
      </trkpt>
      <trkpt lat="47.72376" lon="3.61902">
        <ele>107</ele>
        <time>2014-04-16T09:21:57Z</time>
      </trkpt>
      <trkpt lat="47.72373" lon="3.61908">
        <ele>107</ele>
        <time>2014-04-16T09:22:02Z</time>
      </trkpt>
      <trkpt lat="47.72373" lon="3.61916">
        <ele>107</ele>
        <time>2014-04-16T09:22:08Z</time>
      </trkpt>
      <trkpt lat="47.72371" lon="3.61923">
        <ele>108</ele>
        <time>2014-04-16T09:22:10Z</time>
      </trkpt>
      <trkpt lat="47.7237" lon="3.6193">
        <ele>109</ele>
        <time>2014-04-16T09:22:15Z</time>
      </trkpt>
      <trkpt lat="47.72369" lon="3.61936">
        <ele>109</ele>
        <time>2014-04-16T09:22:19Z</time>
      </trkpt>
      <trkpt lat="47.72368" lon="3.6194">
        <ele>109</ele>
        <time>2014-04-16T09:22:24Z</time>
      </trkpt>
      <trkpt lat="47.72369" lon="3.61947">
        <ele>109</ele>
        <time>2014-04-16T09:22:28Z</time>
      </trkpt>
      <trkpt lat="47.7237" lon="3.61955">
        <ele>109</ele>
        <time>2014-04-16T09:22:33Z</time>
      </trkpt>
      <trkpt lat="47.72371" lon="3.61962">
        <ele>109</ele>
        <time>2014-04-16T09:22:37Z</time>
      </trkpt>
      <trkpt lat="47.7237" lon="3.6197">
        <ele>109</ele>
        <time>2014-04-16T09:22:40Z</time>
      </trkpt>
      <trkpt lat="47.72369" lon="3.61977">
        <ele>109</ele>
        <time>2014-04-16T09:22:44Z</time>
      </trkpt>
      <trkpt lat="47.72367" lon="3.61984">
        <ele>110</ele>
        <time>2014-04-16T09:22:48Z</time>
      </trkpt>
      <trkpt lat="47.72365" lon="3.6199">
        <ele>110</ele>
        <time>2014-04-16T09:22:51Z</time>
      </trkpt>
      <trkpt lat="47.72363" lon="3.61997">
        <ele>110</ele>
        <time>2014-04-16T09:22:57Z</time>
      </trkpt>
      <trkpt lat="47.72361" lon="3.62004">
        <ele>110</ele>
        <time>2014-04-16T09:23:02Z</time>
      </trkpt>
      <trkpt lat="47.72363" lon="3.62005">
        <ele>110</ele>
        <time>2014-04-16T09:23:09Z</time>
      </trkpt>
      <trkpt lat="47.72368" lon="3.62004">
        <ele>110</ele>
        <time>2014-04-16T09:23:10Z</time>
      </trkpt>
      <trkpt lat="47.72366" lon="3.62011">
        <ele>110</ele>
        <time>2014-04-16T09:23:26Z</time>
      </trkpt>
      <trkpt lat="47.72364" lon="3.62018">
        <ele>110</ele>
        <time>2014-04-16T09:23:29Z</time>
      </trkpt>
      <trkpt lat="47.72362" lon="3.62025">
        <ele>110</ele>
        <time>2014-04-16T09:23:33Z</time>
      </trkpt>
      <trkpt lat="47.72361" lon="3.62035">
        <ele>110</ele>
        <time>2014-04-16T09:23:37Z</time>
      </trkpt>
      <trkpt lat="47.72359" lon="3.62043">
        <ele>110</ele>
        <time>2014-04-16T09:23:40Z</time>
      </trkpt>
      <trkpt lat="47.72362" lon="3.6205">
        <ele>110</ele>
        <time>2014-04-16T09:23:46Z</time>
      </trkpt>
      <trkpt lat="47.72364" lon="3.62056">
        <ele>109</ele>
        <time>2014-04-16T09:23:50Z</time>
      </trkpt>
      <trkpt lat="47.72366" lon="3.62063">
        <ele>109</ele>
        <time>2014-04-16T09:23:54Z</time>
      </trkpt>
      <trkpt lat="47.72366" lon="3.62071">
        <ele>109</ele>
        <time>2014-04-16T09:23:58Z</time>
      </trkpt>
      <trkpt lat="47.72365" lon="3.62078">
        <ele>109</ele>
        <time>2014-04-16T09:24:03Z</time>
      </trkpt>
      <trkpt lat="47.72369" lon="3.62076">
        <ele>109</ele>
        <time>2014-04-16T09:24:10Z</time>
      </trkpt>
      <trkpt lat="47.72367" lon="3.62085">
        <ele>107</ele>
        <time>2014-04-16T09:24:28Z</time>
      </trkpt>
      <trkpt lat="47.72364" lon="3.62091">
        <ele>107</ele>
        <time>2014-04-16T09:24:31Z</time>
      </trkpt>
      <trkpt lat="47.72362" lon="3.62097">
        <ele>107</ele>
        <time>2014-04-16T09:24:35Z</time>
      </trkpt>
      <trkpt lat="47.7236" lon="3.62104">
        <ele>107</ele>
        <time>2014-04-16T09:24:37Z</time>
      </trkpt>
      <trkpt lat="47.72358" lon="3.62112">
        <ele>107</ele>
        <time>2014-04-16T09:24:41Z</time>
      </trkpt>
      <trkpt lat="47.72357" lon="3.62119">
        <ele>107</ele>
        <time>2014-04-16T09:24:46Z</time>
      </trkpt>
      <trkpt lat="47.72357" lon="3.62126">
        <ele>107</ele>
        <time>2014-04-16T09:24:50Z</time>
      </trkpt>
      <trkpt lat="47.72357" lon="3.62134">
        <ele>106</ele>
        <time>2014-04-16T09:24:54Z</time>
      </trkpt>
      <trkpt lat="47.72356" lon="3.6214">
        <ele>106</ele>
        <time>2014-04-16T09:24:58Z</time>
      </trkpt>
      <trkpt lat="47.72355" lon="3.62148">
        <ele>106</ele>
        <time>2014-04-16T09:25:02Z</time>
      </trkpt>
      <trkpt lat="47.72348" lon="3.62152">
        <ele>106</ele>
        <time>2014-04-16T09:25:05Z</time>
      </trkpt>
      <trkpt lat="47.72342" lon="3.62152">
        <ele>106</ele>
        <time>2014-04-16T09:25:08Z</time>
      </trkpt>
      <trkpt lat="47.72336" lon="3.62151">
        <ele>106</ele>
        <time>2014-04-16T09:25:09Z</time>
      </trkpt>
      <trkpt lat="47.72331" lon="3.6215">
        <ele>107</ele>
        <time>2014-04-16T09:25:12Z</time>
      </trkpt>
      <trkpt lat="47.72327" lon="3.62151">
        <ele>107</ele>
        <time>2014-04-16T09:25:18Z</time>
      </trkpt>
      <trkpt lat="47.72325" lon="3.62159">
        <ele>106</ele>
        <time>2014-04-16T09:25:20Z</time>
      </trkpt>
      <trkpt lat="47.72325" lon="3.62166">
        <ele>106</ele>
        <time>2014-04-16T09:25:23Z</time>
      </trkpt>
      <trkpt lat="47.72325" lon="3.62173">
        <ele>105</ele>
        <time>2014-04-16T09:25:27Z</time>
      </trkpt>
      <trkpt lat="47.72326" lon="3.62181">
        <ele>105</ele>
        <time>2014-04-16T09:25:30Z</time>
      </trkpt>
      <trkpt lat="47.72324" lon="3.62189">
        <ele>104</ele>
        <time>2014-04-16T09:25:35Z</time>
      </trkpt>
      <trkpt lat="47.72324" lon="3.62198">
        <ele>104</ele>
        <time>2014-04-16T09:25:40Z</time>
      </trkpt>
      <trkpt lat="47.72323" lon="3.62207">
        <ele>104</ele>
        <time>2014-04-16T09:25:44Z</time>
      </trkpt>
      <trkpt lat="47.72315" lon="3.62231">
        <ele>103</ele>
        <time>2014-04-16T09:26:00Z</time>
      </trkpt>
      <trkpt lat="47.72313" lon="3.62239">
        <ele>103</ele>
        <time>2014-04-16T09:26:03Z</time>
      </trkpt>
      <trkpt lat="47.72312" lon="3.62247">
        <ele>103</ele>
        <time>2014-04-16T09:26:07Z</time>
      </trkpt>
      <trkpt lat="47.72313" lon="3.62255">
        <ele>102</ele>
        <time>2014-04-16T09:26:12Z</time>
      </trkpt>
      <trkpt lat="47.72314" lon="3.62262">
        <ele>102</ele>
        <time>2014-04-16T09:26:16Z</time>
      </trkpt>
      <trkpt lat="47.72312" lon="3.6227">
        <ele>102</ele>
        <time>2014-04-16T09:26:20Z</time>
      </trkpt>
      <trkpt lat="47.7231" lon="3.62277">
        <ele>102</ele>
        <time>2014-04-16T09:26:24Z</time>
      </trkpt>
      <trkpt lat="47.72309" lon="3.62284">
        <ele>102</ele>
        <time>2014-04-16T09:26:29Z</time>
      </trkpt>
      <trkpt lat="47.72309" lon="3.62291">
        <ele>102</ele>
        <time>2014-04-16T09:26:34Z</time>
      </trkpt>
      <trkpt lat="47.72306" lon="3.62298">
        <ele>102</ele>
        <time>2014-04-16T09:26:38Z</time>
      </trkpt>
      <trkpt lat="47.72306" lon="3.62304">
        <ele>102</ele>
        <time>2014-04-16T09:26:42Z</time>
      </trkpt>
      <trkpt lat="47.72304" lon="3.62312">
        <ele>102</ele>
        <time>2014-04-16T09:26:46Z</time>
      </trkpt>
      <trkpt lat="47.72303" lon="3.62319">
        <ele>102</ele>
        <time>2014-04-16T09:26:51Z</time>
      </trkpt>
      <trkpt lat="47.72301" lon="3.62326">
        <ele>102</ele>
        <time>2014-04-16T09:26:56Z</time>
      </trkpt>
      <trkpt lat="47.72298" lon="3.62333">
        <ele>102</ele>
        <time>2014-04-16T09:27:16Z</time>
      </trkpt>
      <trkpt lat="47.72296" lon="3.62337">
        <ele>103</ele>
        <time>2014-04-16T09:27:18Z</time>
      </trkpt>
      <trkpt lat="47.72293" lon="3.62344">
        <ele>103</ele>
        <time>2014-04-16T09:27:20Z</time>
      </trkpt>
      <trkpt lat="47.72291" lon="3.62356">
        <ele>103</ele>
        <time>2014-04-16T09:27:24Z</time>
      </trkpt>
      <trkpt lat="47.7229" lon="3.6236">
        <ele>103</ele>
        <time>2014-04-16T09:27:28Z</time>
      </trkpt>
      <trkpt lat="47.72288" lon="3.62364">
        <ele>103</ele>
        <time>2014-04-16T09:27:38Z</time>
      </trkpt>
      <trkpt lat="47.72284" lon="3.62368">
        <ele>103</ele>
        <time>2014-04-16T09:28:17Z</time>
      </trkpt>
      <trkpt lat="47.7228" lon="3.62376">
        <ele>103</ele>
        <time>2014-04-16T09:28:23Z</time>
      </trkpt>
      <trkpt lat="47.72278" lon="3.62385">
        <ele>103</ele>
        <time>2014-04-16T09:28:45Z</time>
      </trkpt>
      <trkpt lat="47.72278" lon="3.62392">
        <ele>102</ele>
        <time>2014-04-16T09:28:54Z</time>
      </trkpt>
      <trkpt lat="47.72275" lon="3.62399">
        <ele>102</ele>
        <time>2014-04-16T09:29:00Z</time>
      </trkpt>
      <trkpt lat="47.72273" lon="3.62406">
        <ele>102</ele>
        <time>2014-04-16T09:29:05Z</time>
      </trkpt>
      <trkpt lat="47.72271" lon="3.62411">
        <ele>102</ele>
        <time>2014-04-16T09:29:14Z</time>
      </trkpt>
      <trkpt lat="47.72269" lon="3.62418">
        <ele>102</ele>
        <time>2014-04-16T09:29:21Z</time>
      </trkpt>
      <trkpt lat="47.72266" lon="3.62429">
        <ele>102</ele>
        <time>2014-04-16T09:31:19Z</time>
      </trkpt>
      <trkpt lat="47.72265" lon="3.62435">
        <ele>102</ele>
        <time>2014-04-16T09:31:44Z</time>
      </trkpt>
      <trkpt lat="47.72263" lon="3.62442">
        <ele>103</ele>
        <time>2014-04-16T09:31:48Z</time>
      </trkpt>
      <trkpt lat="47.72261" lon="3.62449">
        <ele>103</ele>
        <time>2014-04-16T09:31:51Z</time>
      </trkpt>
      <trkpt lat="47.72258" lon="3.62456">
        <ele>103</ele>
        <time>2014-04-16T09:31:54Z</time>
      </trkpt>
      <trkpt lat="47.72255" lon="3.62463">
        <ele>103</ele>
        <time>2014-04-16T09:31:58Z</time>
      </trkpt>
      <trkpt lat="47.72252" lon="3.6247">
        <ele>103</ele>
        <time>2014-04-16T09:32:01Z</time>
      </trkpt>
      <trkpt lat="47.72249" lon="3.62476">
        <ele>101</ele>
        <time>2014-04-16T09:32:04Z</time>
      </trkpt>
      <trkpt lat="47.72246" lon="3.62483">
        <ele>101</ele>
        <time>2014-04-16T09:32:08Z</time>
      </trkpt>
      <trkpt lat="47.72246" lon="3.62488">
        <ele>102</ele>
        <time>2014-04-16T09:32:24Z</time>
      </trkpt>
      <trkpt lat="47.72242" lon="3.62497">
        <ele>102</ele>
        <time>2014-04-16T09:32:48Z</time>
      </trkpt>
      <trkpt lat="47.72239" lon="3.62502">
        <ele>102</ele>
        <time>2014-04-16T09:32:52Z</time>
      </trkpt>
      <trkpt lat="47.72232" lon="3.6251">
        <ele>102</ele>
        <time>2014-04-16T09:33:07Z</time>
      </trkpt>
      <trkpt lat="47.72128" lon="3.62716">
        <ele>105</ele>
        <time>2014-04-16T09:35:29Z</time>
      </trkpt>
      <trkpt lat="47.72129" lon="3.6272">
        <ele>105</ele>
        <time>2014-04-16T09:35:53Z</time>
      </trkpt>
      <trkpt lat="47.72131" lon="3.62736">
        <ele>105</ele>
        <time>2014-04-16T09:36:09Z</time>
      </trkpt>
      <trkpt lat="47.7213" lon="3.62751">
        <ele>106</ele>
        <time>2014-04-16T09:36:14Z</time>
      </trkpt>
      <trkpt lat="47.72127" lon="3.62765">
        <ele>106</ele>
        <time>2014-04-16T09:36:21Z</time>
      </trkpt>
      <trkpt lat="47.72123" lon="3.62825">
        <ele>106</ele>
        <time>2014-04-16T09:36:52Z</time>
      </trkpt>
      <trkpt lat="47.72129" lon="3.62881">
        <ele>109</ele>
        <time>2014-04-16T09:37:22Z</time>
      </trkpt>
      <trkpt lat="47.7204" lon="3.62966">
        <ele>104</ele>
        <time>2014-04-16T09:38:19Z</time>
      </trkpt>
      <trkpt lat="47.72001" lon="3.63005">
        <ele>104</ele>
        <time>2014-04-16T09:38:49Z</time>
      </trkpt>
      <trkpt lat="47.71965" lon="3.63042">
        <ele>107</ele>
        <time>2014-04-16T09:39:32Z</time>
      </trkpt>
      <trkpt lat="47.71943" lon="3.63067">
        <ele>108</ele>
        <time>2014-04-16T09:39:48Z</time>
      </trkpt>
      <trkpt lat="47.71919" lon="3.63087">
        <ele>110</ele>
        <time>2014-04-16T09:40:05Z</time>
      </trkpt>
      <trkpt lat="47.71895" lon="3.63106">
        <ele>108</ele>
        <time>2014-04-16T09:40:21Z</time>
      </trkpt>
      <trkpt lat="47.71889" lon="3.63119">
        <ele>108</ele>
        <time>2014-04-16T09:40:30Z</time>
      </trkpt>
      <trkpt lat="47.71885" lon="3.63134">
        <ele>108</ele>
        <time>2014-04-16T09:40:40Z</time>
      </trkpt>
      <trkpt lat="47.71875" lon="3.63139">
        <ele>107</ele>
        <time>2014-04-16T09:40:48Z</time>
      </trkpt>
      <trkpt lat="47.71867" lon="3.63145">
        <ele>107</ele>
        <time>2014-04-16T09:40:56Z</time>
      </trkpt>
      <trkpt lat="47.71858" lon="3.63152">
        <ele>107</ele>
        <time>2014-04-16T09:41:11Z</time>
      </trkpt>
      <trkpt lat="47.71853" lon="3.63163">
        <ele>107</ele>
        <time>2014-04-16T09:41:20Z</time>
      </trkpt>
      <trkpt lat="47.71849" lon="3.63165">
        <ele>107</ele>
        <time>2014-04-16T09:41:31Z</time>
      </trkpt>
      <trkpt lat="47.71842" lon="3.63175">
        <ele>106</ele>
        <time>2014-04-16T09:41:36Z</time>
      </trkpt>
      <trkpt lat="47.71837" lon="3.63184">
        <ele>106</ele>
        <time>2014-04-16T09:41:40Z</time>
      </trkpt>
      <trkpt lat="47.71832" lon="3.63187">
        <ele>106</ele>
        <time>2014-04-16T09:41:45Z</time>
      </trkpt>
      <trkpt lat="47.71827" lon="3.63188">
        <ele>106</ele>
        <time>2014-04-16T09:41:50Z</time>
      </trkpt>
      <trkpt lat="47.71818" lon="3.63193">
        <ele>106</ele>
        <time>2014-04-16T09:42:00Z</time>
      </trkpt>
      <trkpt lat="47.71811" lon="3.63202">
        <ele>106</ele>
        <time>2014-04-16T09:42:05Z</time>
      </trkpt>
      <trkpt lat="47.71807" lon="3.63206">
        <ele>106</ele>
        <time>2014-04-16T09:42:08Z</time>
      </trkpt>
      <trkpt lat="47.71803" lon="3.63209">
        <ele>106</ele>
        <time>2014-04-16T09:42:13Z</time>
      </trkpt>
      <trkpt lat="47.71798" lon="3.63209">
        <ele>106</ele>
        <time>2014-04-16T09:42:17Z</time>
      </trkpt>
      <trkpt lat="47.71789" lon="3.63209">
        <ele>105</ele>
        <time>2014-04-16T09:42:23Z</time>
      </trkpt>
      <trkpt lat="47.71781" lon="3.63212">
        <ele>105</ele>
        <time>2014-04-16T09:42:28Z</time>
      </trkpt>
      <trkpt lat="47.71779" lon="3.63218">
        <ele>106</ele>
        <time>2014-04-16T09:42:31Z</time>
      </trkpt>
      <trkpt lat="47.71776" lon="3.63225">
        <ele>106</ele>
        <time>2014-04-16T09:42:36Z</time>
      </trkpt>
      <trkpt lat="47.71772" lon="3.63229">
        <ele>106</ele>
        <time>2014-04-16T09:42:38Z</time>
      </trkpt>
      <trkpt lat="47.71768" lon="3.63233">
        <ele>106</ele>
        <time>2014-04-16T09:42:42Z</time>
      </trkpt>
      <trkpt lat="47.71761" lon="3.63242">
        <ele>106</ele>
        <time>2014-04-16T09:42:48Z</time>
      </trkpt>
      <trkpt lat="47.71756" lon="3.63246">
        <ele>106</ele>
        <time>2014-04-16T09:42:53Z</time>
      </trkpt>
      <trkpt lat="47.7175" lon="3.63248">
        <ele>106</ele>
        <time>2014-04-16T09:42:57Z</time>
      </trkpt>
      <trkpt lat="47.71745" lon="3.63251">
        <ele>106</ele>
        <time>2014-04-16T09:43:01Z</time>
      </trkpt>
      <trkpt lat="47.71742" lon="3.63256">
        <ele>106</ele>
        <time>2014-04-16T09:43:04Z</time>
      </trkpt>
      <trkpt lat="47.71738" lon="3.63261">
        <ele>106</ele>
        <time>2014-04-16T09:43:07Z</time>
      </trkpt>
      <trkpt lat="47.71734" lon="3.63267">
        <ele>106</ele>
        <time>2014-04-16T09:43:12Z</time>
      </trkpt>
      <trkpt lat="47.71729" lon="3.63267">
        <ele>106</ele>
        <time>2014-04-16T09:43:16Z</time>
      </trkpt>
      <trkpt lat="47.71725" lon="3.63271">
        <ele>106</ele>
        <time>2014-04-16T09:43:18Z</time>
      </trkpt>
      <trkpt lat="47.71721" lon="3.63274">
        <ele>106</ele>
        <time>2014-04-16T09:43:23Z</time>
      </trkpt>
      <trkpt lat="47.71716" lon="3.63277">
        <ele>106</ele>
        <time>2014-04-16T09:43:28Z</time>
      </trkpt>
      <trkpt lat="47.71711" lon="3.63281">
        <ele>106</ele>
        <time>2014-04-16T09:43:33Z</time>
      </trkpt>
      <trkpt lat="47.71703" lon="3.63289">
        <ele>105</ele>
        <time>2014-04-16T09:43:39Z</time>
      </trkpt>
      <trkpt lat="47.71696" lon="3.63299">
        <ele>105</ele>
        <time>2014-04-16T09:43:45Z</time>
      </trkpt>
      <trkpt lat="47.71692" lon="3.63303">
        <ele>105</ele>
        <time>2014-04-16T09:43:49Z</time>
      </trkpt>
      <trkpt lat="47.71687" lon="3.6331">
        <ele>105</ele>
        <time>2014-04-16T09:43:50Z</time>
      </trkpt>
      <trkpt lat="47.71683" lon="3.63315">
        <ele>105</ele>
        <time>2014-04-16T09:43:52Z</time>
      </trkpt>
      <trkpt lat="47.71678" lon="3.63322">
        <ele>105</ele>
        <time>2014-04-16T09:43:55Z</time>
      </trkpt>
      <trkpt lat="47.71671" lon="3.63329">
        <ele>105</ele>
        <time>2014-04-16T09:44:01Z</time>
      </trkpt>
      <trkpt lat="47.71667" lon="3.63332">
        <ele>105</ele>
        <time>2014-04-16T09:44:05Z</time>
      </trkpt>
      <trkpt lat="47.71663" lon="3.63336">
        <ele>105</ele>
        <time>2014-04-16T09:44:10Z</time>
      </trkpt>
      <trkpt lat="47.71658" lon="3.63341">
        <ele>105</ele>
        <time>2014-04-16T09:44:12Z</time>
      </trkpt>
      <trkpt lat="47.71652" lon="3.63341">
        <ele>106</ele>
        <time>2014-04-16T09:44:22Z</time>
      </trkpt>
      <trkpt lat="47.71647" lon="3.63344">
        <ele>106</ele>
        <time>2014-04-16T09:44:27Z</time>
      </trkpt>
      <trkpt lat="47.71647" lon="3.6335">
        <ele>106</ele>
        <time>2014-04-16T09:44:34Z</time>
      </trkpt>
      <trkpt lat="47.71636" lon="3.63349">
        <ele>106</ele>
        <time>2014-04-16T09:44:47Z</time>
      </trkpt>
      <trkpt lat="47.71627" lon="3.63357">
        <ele>106</ele>
        <time>2014-04-16T09:44:52Z</time>
      </trkpt>
      <trkpt lat="47.71619" lon="3.63367">
        <ele>106</ele>
        <time>2014-04-16T09:44:57Z</time>
      </trkpt>
      <trkpt lat="47.71612" lon="3.63377">
        <ele>106</ele>
        <time>2014-04-16T09:45:03Z</time>
      </trkpt>
      <trkpt lat="47.71605" lon="3.63387">
        <ele>106</ele>
        <time>2014-04-16T09:45:08Z</time>
      </trkpt>
      <trkpt lat="47.71596" lon="3.63396">
        <ele>106</ele>
        <time>2014-04-16T09:45:14Z</time>
      </trkpt>
      <trkpt lat="47.71589" lon="3.63405">
        <ele>106</ele>
        <time>2014-04-16T09:45:18Z</time>
      </trkpt>
      <trkpt lat="47.71585" lon="3.63409">
        <ele>106</ele>
        <time>2014-04-16T09:45:22Z</time>
      </trkpt>
      <trkpt lat="47.71576" lon="3.6341">
        <ele>106</ele>
        <time>2014-04-16T09:45:34Z</time>
      </trkpt>
      <trkpt lat="47.7157" lon="3.63417">
        <ele>106</ele>
        <time>2014-04-16T09:45:40Z</time>
      </trkpt>
      <trkpt lat="47.71565" lon="3.6342">
        <ele>106</ele>
        <time>2014-04-16T09:45:45Z</time>
      </trkpt>
      <trkpt lat="47.71561" lon="3.63425">
        <ele>106</ele>
        <time>2014-04-16T09:45:49Z</time>
      </trkpt>
      <trkpt lat="47.71557" lon="3.6343">
        <ele>106</ele>
        <time>2014-04-16T09:45:53Z</time>
      </trkpt>
      <trkpt lat="47.71552" lon="3.63436">
        <ele>105</ele>
        <time>2014-04-16T09:45:56Z</time>
      </trkpt>
      <trkpt lat="47.71546" lon="3.63441">
        <ele>105</ele>
        <time>2014-04-16T09:46:02Z</time>
      </trkpt>
      <trkpt lat="47.71541" lon="3.63443">
        <ele>105</ele>
        <time>2014-04-16T09:46:08Z</time>
      </trkpt>
      <trkpt lat="47.71536" lon="3.63447">
        <ele>105</ele>
        <time>2014-04-16T09:46:12Z</time>
      </trkpt>
      <trkpt lat="47.71531" lon="3.63449">
        <ele>105</ele>
        <time>2014-04-16T09:46:16Z</time>
      </trkpt>
      <trkpt lat="47.71528" lon="3.63455">
        <ele>105</ele>
        <time>2014-04-16T09:46:21Z</time>
      </trkpt>
      <trkpt lat="47.71524" lon="3.63462">
        <ele>105</ele>
        <time>2014-04-16T09:46:24Z</time>
      </trkpt>
      <trkpt lat="47.71521" lon="3.63467">
        <ele>105</ele>
        <time>2014-04-16T09:46:26Z</time>
      </trkpt>
      <trkpt lat="47.71515" lon="3.63478">
        <ele>105</ele>
        <time>2014-04-16T09:46:30Z</time>
      </trkpt>
      <trkpt lat="47.7151" lon="3.63483">
        <ele>105</ele>
        <time>2014-04-16T09:46:33Z</time>
      </trkpt>
      <trkpt lat="47.71505" lon="3.63488">
        <ele>105</ele>
        <time>2014-04-16T09:46:36Z</time>
      </trkpt>
      <trkpt lat="47.71501" lon="3.63492">
        <ele>104</ele>
        <time>2014-04-16T09:46:39Z</time>
      </trkpt>
      <trkpt lat="47.71497" lon="3.63498">
        <ele>104</ele>
        <time>2014-04-16T09:46:43Z</time>
      </trkpt>
      <trkpt lat="47.71488" lon="3.63501">
        <ele>104</ele>
        <time>2014-04-16T09:46:56Z</time>
      </trkpt>
      <trkpt lat="47.7148" lon="3.63508">
        <ele>105</ele>
        <time>2014-04-16T09:47:02Z</time>
      </trkpt>
      <trkpt lat="47.71469" lon="3.63511">
        <ele>105</ele>
        <time>2014-04-16T09:47:07Z</time>
      </trkpt>
      <trkpt lat="47.7146" lon="3.63517">
        <ele>105</ele>
        <time>2014-04-16T09:47:13Z</time>
      </trkpt>
      <trkpt lat="47.71453" lon="3.63527">
        <ele>105</ele>
        <time>2014-04-16T09:47:17Z</time>
      </trkpt>
      <trkpt lat="47.71446" lon="3.63535">
        <ele>105</ele>
        <time>2014-04-16T09:47:24Z</time>
      </trkpt>
      <trkpt lat="47.71435" lon="3.63537">
        <ele>104</ele>
        <time>2014-04-16T09:47:31Z</time>
      </trkpt>
      <trkpt lat="47.71425" lon="3.63538">
        <ele>104</ele>
        <time>2014-04-16T09:47:37Z</time>
      </trkpt>
      <trkpt lat="47.7141" lon="3.63544">
        <ele>103</ele>
        <time>2014-04-16T09:47:54Z</time>
      </trkpt>
      <trkpt lat="47.71404" lon="3.63556">
        <ele>103</ele>
        <time>2014-04-16T09:48:02Z</time>
      </trkpt>
      <trkpt lat="47.71395" lon="3.63565">
        <ele>102</ele>
        <time>2014-04-16T09:48:07Z</time>
      </trkpt>
      <trkpt lat="47.71386" lon="3.6357">
        <ele>102</ele>
        <time>2014-04-16T09:48:15Z</time>
      </trkpt>
      <trkpt lat="47.71372" lon="3.63582">
        <ele>102</ele>
        <time>2014-04-16T09:48:37Z</time>
      </trkpt>
      <trkpt lat="47.71362" lon="3.63589">
        <ele>104</ele>
        <time>2014-04-16T09:48:44Z</time>
      </trkpt>
      <trkpt lat="47.71351" lon="3.636">
        <ele>103</ele>
        <time>2014-04-16T09:49:00Z</time>
      </trkpt>
      <trkpt lat="47.7134" lon="3.63604">
        <ele>103</ele>
        <time>2014-04-16T09:49:14Z</time>
      </trkpt>
      <trkpt lat="47.71331" lon="3.63606">
        <ele>103</ele>
        <time>2014-04-16T09:49:20Z</time>
      </trkpt>
      <trkpt lat="47.71322" lon="3.63601">
        <ele>103</ele>
        <time>2014-04-16T09:49:30Z</time>
      </trkpt>
      <trkpt lat="47.71312" lon="3.63605">
        <ele>103</ele>
        <time>2014-04-16T09:49:37Z</time>
      </trkpt>
      <trkpt lat="47.71304" lon="3.63614">
        <ele>103</ele>
        <time>2014-04-16T09:49:44Z</time>
      </trkpt>
      <trkpt lat="47.71296" lon="3.63622">
        <ele>104</ele>
        <time>2014-04-16T09:49:50Z</time>
      </trkpt>
      <trkpt lat="47.71287" lon="3.63626">
        <ele>104</ele>
        <time>2014-04-16T09:49:56Z</time>
      </trkpt>
      <trkpt lat="47.71274" lon="3.6364">
        <ele>104</ele>
        <time>2014-04-16T09:50:04Z</time>
      </trkpt>
      <trkpt lat="47.71267" lon="3.63649">
        <ele>104</ele>
        <time>2014-04-16T09:50:08Z</time>
      </trkpt>
      <trkpt lat="47.71258" lon="3.63653">
        <ele>104</ele>
        <time>2014-04-16T09:50:16Z</time>
      </trkpt>
      <trkpt lat="47.7123" lon="3.63657">
        <ele>105</ele>
        <time>2014-04-16T09:50:34Z</time>
      </trkpt>
      <trkpt lat="47.71203" lon="3.63658">
        <ele>105</ele>
        <time>2014-04-16T09:50:58Z</time>
      </trkpt>
      <trkpt lat="47.71196" lon="3.63648">
        <ele>104</ele>
        <time>2014-04-16T09:51:06Z</time>
      </trkpt>
      <trkpt lat="47.7119" lon="3.63659">
        <ele>105</ele>
        <time>2014-04-16T09:51:14Z</time>
      </trkpt>
      <trkpt lat="47.71181" lon="3.63654">
        <ele>105</ele>
        <time>2014-04-16T09:51:26Z</time>
      </trkpt>
      <trkpt lat="47.7117" lon="3.63651">
        <ele>105</ele>
        <time>2014-04-16T09:51:40Z</time>
      </trkpt>
      <trkpt lat="47.71159" lon="3.63648">
        <ele>104</ele>
        <time>2014-04-16T09:51:44Z</time>
      </trkpt>
      <trkpt lat="47.7115" lon="3.63647">
        <ele>104</ele>
        <time>2014-04-16T09:51:52Z</time>
      </trkpt>
      <trkpt lat="47.71145" lon="3.63645">
        <ele>104</ele>
        <time>2014-04-16T09:51:56Z</time>
      </trkpt>
      <trkpt lat="47.7114" lon="3.63643">
        <ele>104</ele>
        <time>2014-04-16T09:52:00Z</time>
      </trkpt>
      <trkpt lat="47.71135" lon="3.63642">
        <ele>104</ele>
        <time>2014-04-16T09:52:04Z</time>
      </trkpt>
      <trkpt lat="47.71129" lon="3.63643">
        <ele>104</ele>
        <time>2014-04-16T09:52:06Z</time>
      </trkpt>
      <trkpt lat="47.71123" lon="3.63644">
        <ele>104</ele>
        <time>2014-04-16T09:52:09Z</time>
      </trkpt>
      <trkpt lat="47.71119" lon="3.63645">
        <ele>104</ele>
        <time>2014-04-16T09:52:12Z</time>
      </trkpt>
      <trkpt lat="47.71115" lon="3.63639">
        <ele>104</ele>
        <time>2014-04-16T09:52:20Z</time>
      </trkpt>
      <trkpt lat="47.7111" lon="3.63637">
        <ele>104</ele>
        <time>2014-04-16T09:52:24Z</time>
      </trkpt>
      <trkpt lat="47.71105" lon="3.63637">
        <ele>104</ele>
        <time>2014-04-16T09:52:28Z</time>
      </trkpt>
      <trkpt lat="47.71099" lon="3.63637">
        <ele>104</ele>
        <time>2014-04-16T09:52:32Z</time>
      </trkpt>
      <trkpt lat="47.71094" lon="3.63637">
        <ele>104</ele>
        <time>2014-04-16T09:52:36Z</time>
      </trkpt>
      <trkpt lat="47.71089" lon="3.63638">
        <ele>104</ele>
        <time>2014-04-16T09:52:40Z</time>
      </trkpt>
      <trkpt lat="47.71084" lon="3.63636">
        <ele>104</ele>
        <time>2014-04-16T09:52:44Z</time>
      </trkpt>
      <trkpt lat="47.71079" lon="3.63638">
        <ele>104</ele>
        <time>2014-04-16T09:52:48Z</time>
      </trkpt>
      <trkpt lat="47.71074" lon="3.63641">
        <ele>104</ele>
        <time>2014-04-16T09:52:52Z</time>
      </trkpt>
      <trkpt lat="47.7107" lon="3.63643">
        <ele>104</ele>
        <time>2014-04-16T09:52:56Z</time>
      </trkpt>
      <trkpt lat="47.71065" lon="3.63643">
        <ele>104</ele>
        <time>2014-04-16T09:52:58Z</time>
      </trkpt>
      <trkpt lat="47.7106" lon="3.63641">
        <ele>104</ele>
        <time>2014-04-16T09:53:01Z</time>
      </trkpt>
      <trkpt lat="47.71054" lon="3.63641">
        <ele>104</ele>
        <time>2014-04-16T09:53:05Z</time>
      </trkpt>
      <trkpt lat="47.7105" lon="3.63637">
        <ele>104</ele>
        <time>2014-04-16T09:53:09Z</time>
      </trkpt>
      <trkpt lat="47.71045" lon="3.63635">
        <ele>104</ele>
        <time>2014-04-16T09:53:12Z</time>
      </trkpt>
      <trkpt lat="47.7104" lon="3.63636">
        <ele>104</ele>
        <time>2014-04-16T09:53:15Z</time>
      </trkpt>
      <trkpt lat="47.71036" lon="3.63638">
        <ele>104</ele>
        <time>2014-04-16T09:53:18Z</time>
      </trkpt>
      <trkpt lat="47.71031" lon="3.63639">
        <ele>104</ele>
        <time>2014-04-16T09:53:24Z</time>
      </trkpt>
      <trkpt lat="47.71029" lon="3.63633">
        <ele>105</ele>
        <time>2014-04-16T09:53:28Z</time>
      </trkpt>
      <trkpt lat="47.71024" lon="3.63632">
        <ele>105</ele>
        <time>2014-04-16T09:53:31Z</time>
      </trkpt>
      <trkpt lat="47.71019" lon="3.63636">
        <ele>105</ele>
        <time>2014-04-16T09:53:36Z</time>
      </trkpt>
      <trkpt lat="47.71014" lon="3.63637">
        <ele>105</ele>
        <time>2014-04-16T09:53:40Z</time>
      </trkpt>
      <trkpt lat="47.7101" lon="3.63635">
        <ele>105</ele>
        <time>2014-04-16T09:53:44Z</time>
      </trkpt>
      <trkpt lat="47.71005" lon="3.63633">
        <ele>105</ele>
        <time>2014-04-16T09:53:48Z</time>
      </trkpt>
      <trkpt lat="47.70999" lon="3.63633">
        <ele>105</ele>
        <time>2014-04-16T09:53:53Z</time>
      </trkpt>
      <trkpt lat="47.70994" lon="3.63633">
        <ele>105</ele>
        <time>2014-04-16T09:53:58Z</time>
      </trkpt>
      <trkpt lat="47.7099" lon="3.63633">
        <ele>104</ele>
        <time>2014-04-16T09:54:02Z</time>
      </trkpt>
      <trkpt lat="47.70985" lon="3.63636">
        <ele>104</ele>
        <time>2014-04-16T09:54:06Z</time>
      </trkpt>
      <trkpt lat="47.70979" lon="3.63637">
        <ele>104</ele>
        <time>2014-04-16T09:54:10Z</time>
      </trkpt>
      <trkpt lat="47.70974" lon="3.63636">
        <ele>104</ele>
        <time>2014-04-16T09:54:15Z</time>
      </trkpt>
      <trkpt lat="47.70969" lon="3.63634">
        <ele>104</ele>
        <time>2014-04-16T09:54:19Z</time>
      </trkpt>
      <trkpt lat="47.70965" lon="3.63632">
        <ele>104</ele>
        <time>2014-04-16T09:54:24Z</time>
      </trkpt>
      <trkpt lat="47.70959" lon="3.63632">
        <ele>104</ele>
        <time>2014-04-16T09:54:29Z</time>
      </trkpt>
      <trkpt lat="47.70955" lon="3.63631">
        <ele>104</ele>
        <time>2014-04-16T09:54:34Z</time>
      </trkpt>
      <trkpt lat="47.70949" lon="3.63632">
        <ele>104</ele>
        <time>2014-04-16T09:54:37Z</time>
      </trkpt>
      <trkpt lat="47.70944" lon="3.63631">
        <ele>104</ele>
        <time>2014-04-16T09:54:42Z</time>
      </trkpt>
      <trkpt lat="47.70939" lon="3.6363">
        <ele>104</ele>
        <time>2014-04-16T09:54:46Z</time>
      </trkpt>
      <trkpt lat="47.70935" lon="3.63628">
        <ele>104</ele>
        <time>2014-04-16T09:55:01Z</time>
      </trkpt>
      <trkpt lat="47.7093" lon="3.63629">
        <ele>104</ele>
        <time>2014-04-16T09:55:05Z</time>
      </trkpt>
      <trkpt lat="47.70925" lon="3.63628">
        <ele>104</ele>
        <time>2014-04-16T09:55:09Z</time>
      </trkpt>
      <trkpt lat="47.70921" lon="3.63626">
        <ele>104</ele>
        <time>2014-04-16T09:55:14Z</time>
      </trkpt>
      <trkpt lat="47.70915" lon="3.63627">
        <ele>103</ele>
        <time>2014-04-16T09:55:17Z</time>
      </trkpt>
      <trkpt lat="47.7091" lon="3.63629">
        <ele>103</ele>
        <time>2014-04-16T09:55:22Z</time>
      </trkpt>
      <trkpt lat="47.70905" lon="3.63627">
        <ele>103</ele>
        <time>2014-04-16T09:55:25Z</time>
      </trkpt>
      <trkpt lat="47.709" lon="3.63624">
        <ele>103</ele>
        <time>2014-04-16T09:55:30Z</time>
      </trkpt>
      <trkpt lat="47.70896" lon="3.63621">
        <ele>103</ele>
        <time>2014-04-16T09:55:33Z</time>
      </trkpt>
      <trkpt lat="47.70887" lon="3.6362">
        <ele>103</ele>
        <time>2014-04-16T09:55:39Z</time>
      </trkpt>
      <trkpt lat="47.70878" lon="3.63616">
        <ele>104</ele>
        <time>2014-04-16T09:55:48Z</time>
      </trkpt>
      <trkpt lat="47.70869" lon="3.63619">
        <ele>104</ele>
        <time>2014-04-16T09:55:53Z</time>
      </trkpt>
      <trkpt lat="47.70865" lon="3.63616">
        <ele>104</ele>
        <time>2014-04-16T09:55:58Z</time>
      </trkpt>
      <trkpt lat="47.70859" lon="3.63619">
        <ele>104</ele>
        <time>2014-04-16T09:56:03Z</time>
      </trkpt>
      <trkpt lat="47.70853" lon="3.63622">
        <ele>104</ele>
        <time>2014-04-16T09:56:07Z</time>
      </trkpt>
      <trkpt lat="47.70847" lon="3.63623">
        <ele>104</ele>
        <time>2014-04-16T09:56:11Z</time>
      </trkpt>
      <trkpt lat="47.70841" lon="3.63626">
        <ele>104</ele>
        <time>2014-04-16T09:56:16Z</time>
      </trkpt>
      <trkpt lat="47.70836" lon="3.63627">
        <ele>104</ele>
        <time>2014-04-16T09:56:19Z</time>
      </trkpt>
      <trkpt lat="47.70831" lon="3.63628">
        <ele>104</ele>
        <time>2014-04-16T09:56:23Z</time>
      </trkpt>
      <trkpt lat="47.70825" lon="3.63627">
        <ele>104</ele>
        <time>2014-04-16T09:56:27Z</time>
      </trkpt>
      <trkpt lat="47.70821" lon="3.63626">
        <ele>104</ele>
        <time>2014-04-16T09:56:32Z</time>
      </trkpt>
      <trkpt lat="47.70816" lon="3.63625">
        <ele>104</ele>
        <time>2014-04-16T09:56:36Z</time>
      </trkpt>
      <trkpt lat="47.7081" lon="3.63626">
        <ele>104</ele>
        <time>2014-04-16T09:56:40Z</time>
      </trkpt>
      <trkpt lat="47.70806" lon="3.63627">
        <ele>104</ele>
        <time>2014-04-16T09:56:44Z</time>
      </trkpt>
      <trkpt lat="47.708" lon="3.63627">
        <ele>104</ele>
        <time>2014-04-16T09:56:48Z</time>
      </trkpt>
      <trkpt lat="47.70796" lon="3.63623">
        <ele>104</ele>
        <time>2014-04-16T09:56:53Z</time>
      </trkpt>
      <trkpt lat="47.7079" lon="3.63622">
        <ele>105</ele>
        <time>2014-04-16T09:57:00Z</time>
      </trkpt>
      <trkpt lat="47.70785" lon="3.6362">
        <ele>105</ele>
        <time>2014-04-16T09:57:05Z</time>
      </trkpt>
      <trkpt lat="47.7078" lon="3.6362">
        <ele>105</ele>
        <time>2014-04-16T09:57:07Z</time>
      </trkpt>
      <trkpt lat="47.70775" lon="3.63621">
        <ele>105</ele>
        <time>2014-04-16T09:57:10Z</time>
      </trkpt>
      <trkpt lat="47.7077" lon="3.63619">
        <ele>105</ele>
        <time>2014-04-16T09:57:15Z</time>
      </trkpt>
      <trkpt lat="47.70765" lon="3.63618">
        <ele>105</ele>
        <time>2014-04-16T09:57:21Z</time>
      </trkpt>
      <trkpt lat="47.7076" lon="3.63619">
        <ele>105</ele>
        <time>2014-04-16T09:57:24Z</time>
      </trkpt>
      <trkpt lat="47.70754" lon="3.63619">
        <ele>105</ele>
        <time>2014-04-16T09:57:28Z</time>
      </trkpt>
      <trkpt lat="47.70749" lon="3.63619">
        <ele>105</ele>
        <time>2014-04-16T09:57:31Z</time>
      </trkpt>
      <trkpt lat="47.70744" lon="3.63621">
        <ele>105</ele>
        <time>2014-04-16T09:57:34Z</time>
      </trkpt>
      <trkpt lat="47.7074" lon="3.63624">
        <ele>105</ele>
        <time>2014-04-16T09:57:37Z</time>
      </trkpt>
      <trkpt lat="47.70735" lon="3.63624">
        <ele>105</ele>
        <time>2014-04-16T09:57:41Z</time>
      </trkpt>
      <trkpt lat="47.7073" lon="3.63625">
        <ele>105</ele>
        <time>2014-04-16T09:57:45Z</time>
      </trkpt>
      <trkpt lat="47.70725" lon="3.63625">
        <ele>105</ele>
        <time>2014-04-16T09:57:49Z</time>
      </trkpt>
      <trkpt lat="47.7072" lon="3.63627">
        <ele>105</ele>
        <time>2014-04-16T09:57:52Z</time>
      </trkpt>
      <trkpt lat="47.70715" lon="3.63625">
        <ele>105</ele>
        <time>2014-04-16T09:57:56Z</time>
      </trkpt>
      <trkpt lat="47.70711" lon="3.63624">
        <ele>105</ele>
        <time>2014-04-16T09:58:00Z</time>
      </trkpt>
      <trkpt lat="47.70706" lon="3.63624">
        <ele>105</ele>
        <time>2014-04-16T09:58:04Z</time>
      </trkpt>
      <trkpt lat="47.707" lon="3.63625">
        <ele>105</ele>
        <time>2014-04-16T09:58:08Z</time>
      </trkpt>
      <trkpt lat="47.70696" lon="3.63624">
        <ele>105</ele>
        <time>2014-04-16T09:58:12Z</time>
      </trkpt>
      <trkpt lat="47.70691" lon="3.63622">
        <ele>105</ele>
        <time>2014-04-16T09:58:16Z</time>
      </trkpt>
      <trkpt lat="47.70687" lon="3.63622">
        <ele>105</ele>
        <time>2014-04-16T09:58:20Z</time>
      </trkpt>
      <trkpt lat="47.7068" lon="3.63621">
        <ele>105</ele>
        <time>2014-04-16T09:58:24Z</time>
      </trkpt>
      <trkpt lat="47.70675" lon="3.63619">
        <ele>105</ele>
        <time>2014-04-16T09:58:28Z</time>
      </trkpt>
      <trkpt lat="47.70671" lon="3.63618">
        <ele>105</ele>
        <time>2014-04-16T09:58:32Z</time>
      </trkpt>
      <trkpt lat="47.70667" lon="3.63613">
        <ele>105</ele>
        <time>2014-04-16T09:58:37Z</time>
      </trkpt>
      <trkpt lat="47.70665" lon="3.63607">
        <ele>105</ele>
        <time>2014-04-16T09:58:41Z</time>
      </trkpt>
      <trkpt lat="47.70662" lon="3.63601">
        <ele>105</ele>
        <time>2014-04-16T09:58:48Z</time>
      </trkpt>
      <trkpt lat="47.70666" lon="3.63597">
        <ele>105</ele>
        <time>2014-04-16T09:58:50Z</time>
      </trkpt>
      <trkpt lat="47.70671" lon="3.63593">
        <ele>105</ele>
        <time>2014-04-16T09:58:54Z</time>
      </trkpt>
      <trkpt lat="47.70675" lon="3.63588">
        <ele>105</ele>
        <time>2014-04-16T09:58:57Z</time>
      </trkpt>
      <trkpt lat="47.70674" lon="3.63587">
        <ele>105</ele>
        <time>2014-04-16T09:59:12Z</time>
      </trkpt>
      <trkpt lat="47.70672" lon="3.63589">
        <ele>105</ele>
        <time>2014-04-16T09:59:33Z</time>
      </trkpt>
      <trkpt lat="47.70671" lon="3.63578">
        <ele>105</ele>
        <time>2014-04-16T10:00:47Z</time>
      </trkpt>
      <trkpt lat="47.70668" lon="3.63572">
        <ele>105</ele>
        <time>2014-04-16T10:00:49Z</time>
      </trkpt>
      <trkpt lat="47.70664" lon="3.63567">
        <ele>105</ele>
        <time>2014-04-16T10:00:51Z</time>
      </trkpt>
      <trkpt lat="47.70661" lon="3.63562">
        <ele>105</ele>
        <time>2014-04-16T10:00:53Z</time>
      </trkpt>
      <trkpt lat="47.70661" lon="3.6356">
        <ele>105</ele>
        <time>2014-04-16T10:01:00Z</time>
      </trkpt>
      <trkpt lat="47.70679" lon="3.63585">
        <ele>105</ele>
        <time>2014-04-16T10:01:13Z</time>
      </trkpt>
      <trkpt lat="47.70677" lon="3.6359">
        <ele>105</ele>
        <time>2014-04-16T10:03:20Z</time>
      </trkpt>
      <trkpt lat="47.70675" lon="3.63579">
        <ele>105</ele>
        <time>2014-04-16T10:03:37Z</time>
      </trkpt>
      <trkpt lat="47.70667" lon="3.63572">
        <ele>105</ele>
        <time>2014-04-16T10:04:21Z</time>
      </trkpt>
      <trkpt lat="47.70669" lon="3.63573">
        <ele>105</ele>
        <time>2014-04-16T10:04:32Z</time>
      </trkpt>
      <trkpt lat="47.70674" lon="3.63579">
        <ele>105</ele>
        <time>2014-04-16T10:04:40Z</time>
      </trkpt>
      <trkpt lat="47.70671" lon="3.63591">
        <ele>105</ele>
        <time>2014-04-16T10:08:43Z</time>
      </trkpt>
      <trkpt lat="47.70673" lon="3.63588">
        <ele>105</ele>
        <time>2014-04-16T10:08:56Z</time>
      </trkpt>
      <trkpt lat="47.70676" lon="3.6359">
        <ele>105</ele>
        <time>2014-04-16T10:09:52Z</time>
      </trkpt>
      <trkpt lat="47.70674" lon="3.63587">
        <ele>105</ele>
        <time>2014-04-16T10:14:10Z</time>
      </trkpt>
      <trkpt lat="47.70672" lon="3.63582">
        <ele>105</ele>
        <time>2014-04-16T10:14:41Z</time>
      </trkpt>
      <trkpt lat="47.7067" lon="3.63583">
        <ele>105</ele>
        <time>2014-04-16T10:21:13Z</time>
      </trkpt>
      <trkpt lat="47.7067" lon="3.63581">
        <ele>105</ele>
        <time>2014-04-16T10:26:39Z</time>
      </trkpt>
      <trkpt lat="47.70673" lon="3.63578">
        <ele>105</ele>
        <time>2014-04-16T10:26:48Z</time>
      </trkpt>
      <trkpt lat="47.70676" lon="3.63583">
        <ele>105</ele>
        <time>2014-04-16T10:26:53Z</time>
      </trkpt>
      <trkpt lat="47.70677" lon="3.63583">
        <ele>105</ele>
        <time>2014-04-16T10:28:12Z</time>
      </trkpt>
      <trkpt lat="47.70677" lon="3.63585">
        <ele>105</ele>
        <time>2014-04-16T10:28:32Z</time>
      </trkpt>
      <trkpt lat="47.70671" lon="3.63595">
        <ele>105</ele>
        <time>2014-04-16T10:28:36Z</time>
      </trkpt>
      <trkpt lat="47.70669" lon="3.63612">
        <ele>105</ele>
        <time>2014-04-16T10:28:42Z</time>
      </trkpt>
      <trkpt lat="47.70667" lon="3.63619">
        <ele>105</ele>
        <time>2014-04-16T10:28:47Z</time>
      </trkpt>
      <trkpt lat="47.70662" lon="3.63619">
        <ele>105</ele>
        <time>2014-04-16T10:28:53Z</time>
      </trkpt>
      <trkpt lat="47.70657" lon="3.63616">
        <ele>105</ele>
        <time>2014-04-16T10:28:57Z</time>
      </trkpt>
      <trkpt lat="47.70653" lon="3.63612">
        <ele>105</ele>
        <time>2014-04-16T10:29:00Z</time>
      </trkpt>
      <trkpt lat="47.70648" lon="3.6361">
        <ele>105</ele>
        <time>2014-04-16T10:29:04Z</time>
      </trkpt>
      <trkpt lat="47.70643" lon="3.6361">
        <ele>105</ele>
        <time>2014-04-16T10:29:07Z</time>
      </trkpt>
      <trkpt lat="47.70638" lon="3.63613">
        <ele>105</ele>
        <time>2014-04-16T10:29:12Z</time>
      </trkpt>
      <trkpt lat="47.70632" lon="3.63615">
        <ele>105</ele>
        <time>2014-04-16T10:29:15Z</time>
      </trkpt>
      <trkpt lat="47.70628" lon="3.63612">
        <ele>105</ele>
        <time>2014-04-16T10:29:20Z</time>
      </trkpt>
      <trkpt lat="47.70624" lon="3.63609">
        <ele>105</ele>
        <time>2014-04-16T10:29:25Z</time>
      </trkpt>
      <trkpt lat="47.70616" lon="3.63609">
        <ele>105</ele>
        <time>2014-04-16T10:29:38Z</time>
      </trkpt>
      <trkpt lat="47.70611" lon="3.63609">
        <ele>105</ele>
        <time>2014-04-16T10:29:42Z</time>
      </trkpt>
      <trkpt lat="47.70606" lon="3.63608">
        <ele>105</ele>
        <time>2014-04-16T10:29:48Z</time>
      </trkpt>
      <trkpt lat="47.70601" lon="3.63609">
        <ele>105</ele>
        <time>2014-04-16T10:29:52Z</time>
      </trkpt>
      <trkpt lat="47.70595" lon="3.63613">
        <ele>105</ele>
        <time>2014-04-16T10:29:56Z</time>
      </trkpt>
      <trkpt lat="47.70591" lon="3.63615">
        <ele>105</ele>
        <time>2014-04-16T10:29:59Z</time>
      </trkpt>
      <trkpt lat="47.70582" lon="3.63611">
        <ele>105</ele>
        <time>2014-04-16T10:30:09Z</time>
      </trkpt>
      <trkpt lat="47.70577" lon="3.636">
        <ele>105</ele>
        <time>2014-04-16T10:30:16Z</time>
      </trkpt>
      <trkpt lat="47.7055" lon="3.63585">
        <ele>104</ele>
        <time>2014-04-16T10:30:36Z</time>
      </trkpt>
      <trkpt lat="47.70526" lon="3.63605">
        <ele>104</ele>
        <time>2014-04-16T10:30:53Z</time>
      </trkpt>
      <trkpt lat="47.70516" lon="3.63626">
        <ele>104</ele>
        <time>2014-04-16T10:31:04Z</time>
      </trkpt>
      <trkpt lat="47.70505" lon="3.63626">
        <ele>104</ele>
        <time>2014-04-16T10:31:09Z</time>
      </trkpt>
      <trkpt lat="47.70505" lon="3.63618">
        <ele>104</ele>
        <time>2014-04-16T10:31:12Z</time>
      </trkpt>
      <trkpt lat="47.70499" lon="3.63615">
        <ele>103</ele>
        <time>2014-04-16T10:32:24Z</time>
      </trkpt>
      <trkpt lat="47.70488" lon="3.63616">
        <ele>103</ele>
        <time>2014-04-16T10:32:30Z</time>
      </trkpt>
      <trkpt lat="47.70483" lon="3.63618">
        <ele>103</ele>
        <time>2014-04-16T10:32:34Z</time>
      </trkpt>
      <trkpt lat="47.70479" lon="3.63622">
        <ele>103</ele>
        <time>2014-04-16T10:32:40Z</time>
      </trkpt>
      <trkpt lat="47.70474" lon="3.6362">
        <ele>103</ele>
        <time>2014-04-16T10:32:46Z</time>
      </trkpt>
      <trkpt lat="47.70468" lon="3.63618">
        <ele>103</ele>
        <time>2014-04-16T10:32:50Z</time>
      </trkpt>
      <trkpt lat="47.70464" lon="3.6362">
        <ele>103</ele>
        <time>2014-04-16T10:32:54Z</time>
      </trkpt>
      <trkpt lat="47.70459" lon="3.63619">
        <ele>103</ele>
        <time>2014-04-16T10:33:00Z</time>
      </trkpt>
      <trkpt lat="47.70454" lon="3.63621">
        <ele>103</ele>
        <time>2014-04-16T10:33:04Z</time>
      </trkpt>
      <trkpt lat="47.70449" lon="3.63623">
        <ele>103</ele>
        <time>2014-04-16T10:33:11Z</time>
      </trkpt>
      <trkpt lat="47.70444" lon="3.63624">
        <ele>103</ele>
        <time>2014-04-16T10:33:13Z</time>
      </trkpt>
      <trkpt lat="47.7044" lon="3.63624">
        <ele>103</ele>
        <time>2014-04-16T10:33:17Z</time>
      </trkpt>
      <trkpt lat="47.70434" lon="3.63625">
        <ele>103</ele>
        <time>2014-04-16T10:33:22Z</time>
      </trkpt>
      <trkpt lat="47.7043" lon="3.63628">
        <ele>103</ele>
        <time>2014-04-16T10:33:26Z</time>
      </trkpt>
      <trkpt lat="47.70422" lon="3.63636">
        <ele>103</ele>
        <time>2014-04-16T10:33:34Z</time>
      </trkpt>
      <trkpt lat="47.70413" lon="3.6363">
        <ele>103</ele>
        <time>2014-04-16T10:33:44Z</time>
      </trkpt>
      <trkpt lat="47.70404" lon="3.63632">
        <ele>103</ele>
        <time>2014-04-16T10:33:51Z</time>
      </trkpt>
      <trkpt lat="47.70396" lon="3.63623">
        <ele>103</ele>
        <time>2014-04-16T10:33:57Z</time>
      </trkpt>
      <trkpt lat="47.70386" lon="3.63623">
        <ele>103</ele>
        <time>2014-04-16T10:34:03Z</time>
      </trkpt>
      <trkpt lat="47.70377" lon="3.63624">
        <ele>103</ele>
        <time>2014-04-16T10:34:12Z</time>
      </trkpt>
      <trkpt lat="47.70367" lon="3.63625">
        <ele>103</ele>
        <time>2014-04-16T10:34:20Z</time>
      </trkpt>
      <trkpt lat="47.70362" lon="3.63626">
        <ele>103</ele>
        <time>2014-04-16T10:34:24Z</time>
      </trkpt>
      <trkpt lat="47.70357" lon="3.63628">
        <ele>103</ele>
        <time>2014-04-16T10:34:28Z</time>
      </trkpt>
      <trkpt lat="47.70351" lon="3.63628">
        <ele>103</ele>
        <time>2014-04-16T10:34:32Z</time>
      </trkpt>
      <trkpt lat="47.70347" lon="3.63629">
        <ele>103</ele>
        <time>2014-04-16T10:34:36Z</time>
      </trkpt>
      <trkpt lat="47.70342" lon="3.63627">
        <ele>103</ele>
        <time>2014-04-16T10:34:41Z</time>
      </trkpt>
      <trkpt lat="47.70337" lon="3.63628">
        <ele>103</ele>
        <time>2014-04-16T10:34:45Z</time>
      </trkpt>
      <trkpt lat="47.70331" lon="3.63628">
        <ele>104</ele>
        <time>2014-04-16T10:34:52Z</time>
      </trkpt>
      <trkpt lat="47.70326" lon="3.63626">
        <ele>104</ele>
        <time>2014-04-16T10:34:56Z</time>
      </trkpt>
      <trkpt lat="47.70319" lon="3.63619">
        <ele>104</ele>
        <time>2014-04-16T10:35:03Z</time>
      </trkpt>
      <trkpt lat="47.70311" lon="3.63626">
        <ele>104</ele>
        <time>2014-04-16T10:35:10Z</time>
      </trkpt>
      <trkpt lat="47.70301" lon="3.63635">
        <ele>104</ele>
        <time>2014-04-16T10:35:16Z</time>
      </trkpt>
      <trkpt lat="47.70292" lon="3.63638">
        <ele>104</ele>
        <time>2014-04-16T10:35:23Z</time>
      </trkpt>
      <trkpt lat="47.70283" lon="3.63634">
        <ele>104</ele>
        <time>2014-04-16T10:35:30Z</time>
      </trkpt>
      <trkpt lat="47.70273" lon="3.63631">
        <ele>104</ele>
        <time>2014-04-16T10:35:39Z</time>
      </trkpt>
      <trkpt lat="47.70266" lon="3.63622">
        <ele>104</ele>
        <time>2014-04-16T10:35:48Z</time>
      </trkpt>
      <trkpt lat="47.70256" lon="3.63623">
        <ele>105</ele>
        <time>2014-04-16T10:35:56Z</time>
      </trkpt>
      <trkpt lat="47.70248" lon="3.6363">
        <ele>106</ele>
        <time>2014-04-16T10:36:02Z</time>
      </trkpt>
      <trkpt lat="47.7024" lon="3.63639">
        <ele>106</ele>
        <time>2014-04-16T10:36:12Z</time>
      </trkpt>
      <trkpt lat="47.70231" lon="3.63645">
        <ele>106</ele>
        <time>2014-04-16T10:36:20Z</time>
      </trkpt>
      <trkpt lat="47.70221" lon="3.6364">
        <ele>106</ele>
        <time>2014-04-16T10:36:27Z</time>
      </trkpt>
      <trkpt lat="47.70212" lon="3.6364">
        <ele>106</ele>
        <time>2014-04-16T10:36:33Z</time>
      </trkpt>
      <trkpt lat="47.70203" lon="3.63639">
        <ele>106</ele>
        <time>2014-04-16T10:36:41Z</time>
      </trkpt>
      <trkpt lat="47.7019" lon="3.6364">
        <ele>106</ele>
        <time>2014-04-16T10:36:56Z</time>
      </trkpt>
      <trkpt lat="47.70183" lon="3.63648">
        <ele>106</ele>
        <time>2014-04-16T10:37:02Z</time>
      </trkpt>
      <trkpt lat="47.70173" lon="3.63647">
        <ele>106</ele>
        <time>2014-04-16T10:37:08Z</time>
      </trkpt>
      <trkpt lat="47.70163" lon="3.63639">
        <ele>107</ele>
        <time>2014-04-16T10:37:16Z</time>
      </trkpt>
      <trkpt lat="47.70154" lon="3.63645">
        <ele>107</ele>
        <time>2014-04-16T10:37:22Z</time>
      </trkpt>
      <trkpt lat="47.70142" lon="3.63647">
        <ele>106</ele>
        <time>2014-04-16T10:37:32Z</time>
      </trkpt>
      <trkpt lat="47.70134" lon="3.63654">
        <ele>106</ele>
        <time>2014-04-16T10:37:44Z</time>
      </trkpt>
      <trkpt lat="47.70129" lon="3.63665">
        <ele>106</ele>
        <time>2014-04-16T10:38:26Z</time>
      </trkpt>
      <trkpt lat="47.7012" lon="3.63674">
        <ele>106</ele>
        <time>2014-04-16T10:38:30Z</time>
      </trkpt>
      <trkpt lat="47.70121" lon="3.63676">
        <ele>106</ele>
        <time>2014-04-16T10:38:52Z</time>
      </trkpt>
      <trkpt lat="47.70117" lon="3.63679">
        <ele>106</ele>
        <time>2014-04-16T10:39:08Z</time>
      </trkpt>
      <trkpt lat="47.70116" lon="3.63683">
        <ele>106</ele>
        <time>2014-04-16T10:39:32Z</time>
      </trkpt>
      <trkpt lat="47.70113" lon="3.63689">
        <ele>106</ele>
        <time>2014-04-16T10:39:37Z</time>
      </trkpt>
      <trkpt lat="47.7011" lon="3.63694">
        <ele>106</ele>
        <time>2014-04-16T10:39:40Z</time>
      </trkpt>
      <trkpt lat="47.70106" lon="3.63699">
        <ele>106</ele>
        <time>2014-04-16T10:39:45Z</time>
      </trkpt>
      <trkpt lat="47.70102" lon="3.63703">
        <ele>106</ele>
        <time>2014-04-16T10:39:49Z</time>
      </trkpt>
      <trkpt lat="47.70097" lon="3.63706">
        <ele>106</ele>
        <time>2014-04-16T10:39:53Z</time>
      </trkpt>
      <trkpt lat="47.70094" lon="3.6371">
        <ele>106</ele>
        <time>2014-04-16T10:40:00Z</time>
      </trkpt>
      <trkpt lat="47.70091" lon="3.63716">
        <ele>106</ele>
        <time>2014-04-16T10:40:06Z</time>
      </trkpt>
      <trkpt lat="47.70089" lon="3.63723">
        <ele>106</ele>
        <time>2014-04-16T10:40:10Z</time>
      </trkpt>
      <trkpt lat="47.70087" lon="3.63729">
        <ele>106</ele>
        <time>2014-04-16T10:40:13Z</time>
      </trkpt>
      <trkpt lat="47.70084" lon="3.63734">
        <ele>106</ele>
        <time>2014-04-16T10:40:18Z</time>
      </trkpt>
      <trkpt lat="47.7008" lon="3.63738">
        <ele>106</ele>
        <time>2014-04-16T10:40:22Z</time>
      </trkpt>
      <trkpt lat="47.70076" lon="3.63743">
        <ele>106</ele>
        <time>2014-04-16T10:40:26Z</time>
      </trkpt>
      <trkpt lat="47.70074" lon="3.6375">
        <ele>106</ele>
        <time>2014-04-16T10:40:30Z</time>
      </trkpt>
      <trkpt lat="47.70071" lon="3.63756">
        <ele>106</ele>
        <time>2014-04-16T10:40:33Z</time>
      </trkpt>
      <trkpt lat="47.70066" lon="3.6376">
        <ele>106</ele>
        <time>2014-04-16T10:40:36Z</time>
      </trkpt>
      <trkpt lat="47.70062" lon="3.63765">
        <ele>105</ele>
        <time>2014-04-16T10:40:40Z</time>
      </trkpt>
      <trkpt lat="47.70055" lon="3.63775">
        <ele>105</ele>
        <time>2014-04-16T10:40:44Z</time>
      </trkpt>
      <trkpt lat="47.70051" lon="3.63787">
        <ele>105</ele>
        <time>2014-04-16T10:40:54Z</time>
      </trkpt>
      <trkpt lat="47.70044" lon="3.63795">
        <ele>105</ele>
        <time>2014-04-16T10:41:04Z</time>
      </trkpt>
      <trkpt lat="47.70037" lon="3.63802">
        <ele>105</ele>
        <time>2014-04-16T10:41:13Z</time>
      </trkpt>
      <trkpt lat="47.70033" lon="3.63811">
        <ele>105</ele>
        <time>2014-04-16T10:41:18Z</time>
      </trkpt>
      <trkpt lat="47.70028" lon="3.63816">
        <ele>105</ele>
        <time>2014-04-16T10:41:21Z</time>
      </trkpt>
      <trkpt lat="47.70026" lon="3.63822">
        <ele>105</ele>
        <time>2014-04-16T10:41:28Z</time>
      </trkpt>
      <trkpt lat="47.70023" lon="3.63828">
        <ele>105</ele>
        <time>2014-04-16T10:41:32Z</time>
      </trkpt>
      <trkpt lat="47.70019" lon="3.63832">
        <ele>106</ele>
        <time>2014-04-16T10:41:36Z</time>
      </trkpt>
      <trkpt lat="47.70016" lon="3.63838">
        <ele>106</ele>
        <time>2014-04-16T10:41:42Z</time>
      </trkpt>
      <trkpt lat="47.70012" lon="3.63845">
        <ele>106</ele>
        <time>2014-04-16T10:41:45Z</time>
      </trkpt>
      <trkpt lat="47.70009" lon="3.6385">
        <ele>106</ele>
        <time>2014-04-16T10:41:50Z</time>
      </trkpt>
      <trkpt lat="47.70008" lon="3.63857">
        <ele>106</ele>
        <time>2014-04-16T10:41:56Z</time>
      </trkpt>
      <trkpt lat="47.70003" lon="3.63862">
        <ele>106</ele>
        <time>2014-04-16T10:42:04Z</time>
      </trkpt>
      <trkpt lat="47.69998" lon="3.63867">
        <ele>107</ele>
        <time>2014-04-16T10:42:10Z</time>
      </trkpt>
      <trkpt lat="47.69992" lon="3.63878">
        <ele>108</ele>
        <time>2014-04-16T10:42:18Z</time>
      </trkpt>
      <trkpt lat="47.69983" lon="3.63887">
        <ele>108</ele>
        <time>2014-04-16T10:42:24Z</time>
      </trkpt>
      <trkpt lat="47.69974" lon="3.63893">
        <ele>108</ele>
        <time>2014-04-16T10:42:30Z</time>
      </trkpt>
      <trkpt lat="47.69966" lon="3.63902">
        <ele>108</ele>
        <time>2014-04-16T10:42:37Z</time>
      </trkpt>
      <trkpt lat="47.6996" lon="3.63912">
        <ele>109</ele>
        <time>2014-04-16T10:42:44Z</time>
      </trkpt>
      <trkpt lat="47.69955" lon="3.63926">
        <ele>110</ele>
        <time>2014-04-16T10:42:48Z</time>
      </trkpt>
      <trkpt lat="47.69956" lon="3.6394">
        <ele>110</ele>
        <time>2014-04-16T10:42:56Z</time>
      </trkpt>
      <trkpt lat="47.6995" lon="3.6395">
        <ele>110</ele>
        <time>2014-04-16T10:43:02Z</time>
      </trkpt>
      <trkpt lat="47.69943" lon="3.63962">
        <ele>110</ele>
        <time>2014-04-16T10:43:08Z</time>
      </trkpt>
      <trkpt lat="47.69936" lon="3.63971">
        <ele>110</ele>
        <time>2014-04-16T10:43:16Z</time>
      </trkpt>
      <trkpt lat="47.6993" lon="3.63982">
        <ele>110</ele>
        <time>2014-04-16T10:43:24Z</time>
      </trkpt>
      <trkpt lat="47.69922" lon="3.63985">
        <ele>110</ele>
        <time>2014-04-16T10:43:32Z</time>
      </trkpt>
      <trkpt lat="47.69915" lon="3.63995">
        <ele>111</ele>
        <time>2014-04-16T10:43:36Z</time>
      </trkpt>
      <trkpt lat="47.69909" lon="3.64007">
        <ele>111</ele>
        <time>2014-04-16T10:43:42Z</time>
      </trkpt>
      <trkpt lat="47.69905" lon="3.64019">
        <ele>111</ele>
        <time>2014-04-16T10:43:48Z</time>
      </trkpt>
      <trkpt lat="47.69895" lon="3.64025">
        <ele>111</ele>
        <time>2014-04-16T10:43:56Z</time>
      </trkpt>
      <trkpt lat="47.69886" lon="3.64047">
        <ele>111</ele>
        <time>2014-04-16T10:44:18Z</time>
      </trkpt>
      <trkpt lat="47.69881" lon="3.6406">
        <ele>110</ele>
        <time>2014-04-16T10:44:29Z</time>
      </trkpt>
      <trkpt lat="47.69869" lon="3.64072">
        <ele>111</ele>
        <time>2014-04-16T10:44:50Z</time>
      </trkpt>
      <trkpt lat="47.6986" lon="3.64077">
        <ele>111</ele>
        <time>2014-04-16T10:44:56Z</time>
      </trkpt>
      <trkpt lat="47.6985" lon="3.64083">
        <ele>111</ele>
        <time>2014-04-16T10:45:00Z</time>
      </trkpt>
      <trkpt lat="47.69842" lon="3.64091">
        <ele>109</ele>
        <time>2014-04-16T10:45:08Z</time>
      </trkpt>
      <trkpt lat="47.69835" lon="3.64103">
        <ele>109</ele>
        <time>2014-04-16T10:45:14Z</time>
      </trkpt>
      <trkpt lat="47.69831" lon="3.64117">
        <ele>108</ele>
        <time>2014-04-16T10:45:20Z</time>
      </trkpt>
      <trkpt lat="47.69824" lon="3.64128">
        <ele>108</ele>
        <time>2014-04-16T10:45:24Z</time>
      </trkpt>
      <trkpt lat="47.69815" lon="3.64137">
        <ele>107</ele>
        <time>2014-04-16T10:45:30Z</time>
      </trkpt>
      <trkpt lat="47.6981" lon="3.64142">
        <ele>107</ele>
        <time>2014-04-16T10:45:36Z</time>
      </trkpt>
      <trkpt lat="47.69804" lon="3.64146">
        <ele>107</ele>
        <time>2014-04-16T10:45:41Z</time>
      </trkpt>
      <trkpt lat="47.69796" lon="3.64154">
        <ele>107</ele>
        <time>2014-04-16T10:45:48Z</time>
      </trkpt>
      <trkpt lat="47.69791" lon="3.64156">
        <ele>107</ele>
        <time>2014-04-16T10:45:52Z</time>
      </trkpt>
      <trkpt lat="47.69788" lon="3.64163">
        <ele>107</ele>
        <time>2014-04-16T10:45:56Z</time>
      </trkpt>
      <trkpt lat="47.69785" lon="3.64169">
        <ele>106</ele>
        <time>2014-04-16T10:46:00Z</time>
      </trkpt>
      <trkpt lat="47.69781" lon="3.64173">
        <ele>106</ele>
        <time>2014-04-16T10:46:05Z</time>
      </trkpt>
      <trkpt lat="47.69778" lon="3.64178">
        <ele>106</ele>
        <time>2014-04-16T10:46:10Z</time>
      </trkpt>
      <trkpt lat="47.69775" lon="3.64185">
        <ele>106</ele>
        <time>2014-04-16T10:46:14Z</time>
      </trkpt>
      <trkpt lat="47.69773" lon="3.64193">
        <ele>106</ele>
        <time>2014-04-16T10:46:18Z</time>
      </trkpt>
      <trkpt lat="47.69772" lon="3.642">
        <ele>106</ele>
        <time>2014-04-16T10:46:22Z</time>
      </trkpt>
      <trkpt lat="47.6977" lon="3.64207">
        <ele>106</ele>
        <time>2014-04-16T10:46:25Z</time>
      </trkpt>
      <trkpt lat="47.69768" lon="3.64214">
        <ele>106</ele>
        <time>2014-04-16T10:46:28Z</time>
      </trkpt>
      <trkpt lat="47.69765" lon="3.64218">
        <ele>106</ele>
        <time>2014-04-16T10:46:32Z</time>
      </trkpt>
      <trkpt lat="47.69762" lon="3.64218">
        <ele>106</ele>
        <time>2014-04-16T10:46:38Z</time>
      </trkpt>
      <trkpt lat="47.69758" lon="3.64223">
        <ele>106</ele>
        <time>2014-04-16T10:46:42Z</time>
      </trkpt>
      <trkpt lat="47.69753" lon="3.64224">
        <ele>106</ele>
        <time>2014-04-16T10:46:46Z</time>
      </trkpt>
      <trkpt lat="47.69748" lon="3.64226">
        <ele>106</ele>
        <time>2014-04-16T10:46:49Z</time>
      </trkpt>
      <trkpt lat="47.69743" lon="3.64229">
        <ele>106</ele>
        <time>2014-04-16T10:46:52Z</time>
      </trkpt>
      <trkpt lat="47.69738" lon="3.64233">
        <ele>106</ele>
        <time>2014-04-16T10:46:55Z</time>
      </trkpt>
      <trkpt lat="47.69734" lon="3.64238">
        <ele>106</ele>
        <time>2014-04-16T10:46:59Z</time>
      </trkpt>
      <trkpt lat="47.69732" lon="3.64245">
        <ele>106</ele>
        <time>2014-04-16T10:47:04Z</time>
      </trkpt>
      <trkpt lat="47.69729" lon="3.64251">
        <ele>106</ele>
        <time>2014-04-16T10:47:08Z</time>
      </trkpt>
      <trkpt lat="47.69727" lon="3.64257">
        <ele>106</ele>
        <time>2014-04-16T10:47:11Z</time>
      </trkpt>
      <trkpt lat="47.69724" lon="3.64265">
        <ele>106</ele>
        <time>2014-04-16T10:47:14Z</time>
      </trkpt>
      <trkpt lat="47.69722" lon="3.64272">
        <ele>106</ele>
        <time>2014-04-16T10:47:18Z</time>
      </trkpt>
      <trkpt lat="47.69719" lon="3.64279">
        <ele>106</ele>
        <time>2014-04-16T10:47:22Z</time>
      </trkpt>
      <trkpt lat="47.69715" lon="3.64284">
        <ele>106</ele>
        <time>2014-04-16T10:47:29Z</time>
      </trkpt>
      <trkpt lat="47.69713" lon="3.6429">
        <ele>106</ele>
        <time>2014-04-16T10:47:33Z</time>
      </trkpt>
      <trkpt lat="47.69708" lon="3.64295">
        <ele>107</ele>
        <time>2014-04-16T10:47:37Z</time>
      </trkpt>
      <trkpt lat="47.69703" lon="3.64297">
        <ele>107</ele>
        <time>2014-04-16T10:47:40Z</time>
      </trkpt>
      <trkpt lat="47.697" lon="3.64303">
        <ele>107</ele>
        <time>2014-04-16T10:47:45Z</time>
      </trkpt>
      <trkpt lat="47.69697" lon="3.6431">
        <ele>107</ele>
        <time>2014-04-16T10:47:50Z</time>
      </trkpt>
      <trkpt lat="47.69693" lon="3.64317">
        <ele>107</ele>
        <time>2014-04-16T10:47:54Z</time>
      </trkpt>
      <trkpt lat="47.69691" lon="3.64323">
        <ele>107</ele>
        <time>2014-04-16T10:47:57Z</time>
      </trkpt>
      <trkpt lat="47.69689" lon="3.6433">
        <ele>107</ele>
        <time>2014-04-16T10:48:01Z</time>
      </trkpt>
      <trkpt lat="47.69685" lon="3.64335">
        <ele>107</ele>
        <time>2014-04-16T10:48:07Z</time>
      </trkpt>
      <trkpt lat="47.69682" lon="3.64341">
        <ele>107</ele>
        <time>2014-04-16T10:48:11Z</time>
      </trkpt>
      <trkpt lat="47.69679" lon="3.64346">
        <ele>107</ele>
        <time>2014-04-16T10:48:16Z</time>
      </trkpt>
      <trkpt lat="47.69676" lon="3.64353">
        <ele>107</ele>
        <time>2014-04-16T10:48:20Z</time>
      </trkpt>
      <trkpt lat="47.69673" lon="3.64358">
        <ele>107</ele>
        <time>2014-04-16T10:48:24Z</time>
      </trkpt>
      <trkpt lat="47.69671" lon="3.64364">
        <ele>107</ele>
        <time>2014-04-16T10:48:28Z</time>
      </trkpt>
      <trkpt lat="47.69669" lon="3.64371">
        <ele>107</ele>
        <time>2014-04-16T10:48:32Z</time>
      </trkpt>
      <trkpt lat="47.69666" lon="3.64378">
        <ele>107</ele>
        <time>2014-04-16T10:48:37Z</time>
      </trkpt>
      <trkpt lat="47.69663" lon="3.64384">
        <ele>107</ele>
        <time>2014-04-16T10:48:41Z</time>
      </trkpt>
      <trkpt lat="47.69659" lon="3.6439">
        <ele>107</ele>
        <time>2014-04-16T10:48:45Z</time>
      </trkpt>
      <trkpt lat="47.69658" lon="3.64396">
        <ele>107</ele>
        <time>2014-04-16T10:48:49Z</time>
      </trkpt>
      <trkpt lat="47.69657" lon="3.64404">
        <ele>107</ele>
        <time>2014-04-16T10:48:53Z</time>
      </trkpt>
      <trkpt lat="47.69655" lon="3.64412">
        <ele>107</ele>
        <time>2014-04-16T10:48:57Z</time>
      </trkpt>
      <trkpt lat="47.69652" lon="3.64425">
        <ele>107</ele>
        <time>2014-04-16T10:49:06Z</time>
      </trkpt>
      <trkpt lat="47.69652" lon="3.64438">
        <ele>107</ele>
        <time>2014-04-16T10:49:12Z</time>
      </trkpt>
      <trkpt lat="47.69649" lon="3.64453">
        <ele>107</ele>
        <time>2014-04-16T10:49:18Z</time>
      </trkpt>
      <trkpt lat="47.69647" lon="3.6446">
        <ele>107</ele>
        <time>2014-04-16T10:49:22Z</time>
      </trkpt>
      <trkpt lat="47.69646" lon="3.64468">
        <ele>107</ele>
        <time>2014-04-16T10:49:27Z</time>
      </trkpt>
      <trkpt lat="47.69644" lon="3.64476">
        <ele>107</ele>
        <time>2014-04-16T10:49:32Z</time>
      </trkpt>
      <trkpt lat="47.69642" lon="3.64482">
        <ele>107</ele>
        <time>2014-04-16T10:49:34Z</time>
      </trkpt>
      <trkpt lat="47.69638" lon="3.64488">
        <ele>107</ele>
        <time>2014-04-16T10:49:38Z</time>
      </trkpt>
      <trkpt lat="47.69635" lon="3.64492">
        <ele>107</ele>
        <time>2014-04-16T10:49:42Z</time>
      </trkpt>
      <trkpt lat="47.69633" lon="3.645">
        <ele>107</ele>
        <time>2014-04-16T10:49:46Z</time>
      </trkpt>
      <trkpt lat="47.69638" lon="3.64512">
        <ele>107</ele>
        <time>2014-04-16T10:49:52Z</time>
      </trkpt>
      <trkpt lat="47.69639" lon="3.64526">
        <ele>107</ele>
        <time>2014-04-16T10:50:02Z</time>
      </trkpt>
      <trkpt lat="47.69639" lon="3.64538">
        <ele>107</ele>
        <time>2014-04-16T10:50:09Z</time>
      </trkpt>
      <trkpt lat="47.69638" lon="3.64545">
        <ele>107</ele>
        <time>2014-04-16T10:50:13Z</time>
      </trkpt>
      <trkpt lat="47.69638" lon="3.64553">
        <ele>107</ele>
        <time>2014-04-16T10:50:17Z</time>
      </trkpt>
      <trkpt lat="47.69638" lon="3.64561">
        <ele>107</ele>
        <time>2014-04-16T10:50:22Z</time>
      </trkpt>
      <trkpt lat="47.69636" lon="3.64568">
        <ele>107</ele>
        <time>2014-04-16T10:50:26Z</time>
      </trkpt>
      <trkpt lat="47.69633" lon="3.64574">
        <ele>107</ele>
        <time>2014-04-16T10:50:30Z</time>
      </trkpt>
      <trkpt lat="47.69631" lon="3.6458">
        <ele>107</ele>
        <time>2014-04-16T10:50:32Z</time>
      </trkpt>
      <trkpt lat="47.6963" lon="3.64588">
        <ele>107</ele>
        <time>2014-04-16T10:50:37Z</time>
      </trkpt>
      <trkpt lat="47.69629" lon="3.64595">
        <ele>107</ele>
        <time>2014-04-16T10:50:41Z</time>
      </trkpt>
      <trkpt lat="47.69629" lon="3.64603">
        <ele>108</ele>
        <time>2014-04-16T10:50:46Z</time>
      </trkpt>
      <trkpt lat="47.69628" lon="3.6461">
        <ele>108</ele>
        <time>2014-04-16T10:50:49Z</time>
      </trkpt>
      <trkpt lat="47.69627" lon="3.64617">
        <ele>108</ele>
        <time>2014-04-16T10:50:54Z</time>
      </trkpt>
      <trkpt lat="47.69626" lon="3.64624">
        <ele>108</ele>
        <time>2014-04-16T10:50:59Z</time>
      </trkpt>
      <trkpt lat="47.69625" lon="3.64631">
        <ele>108</ele>
        <time>2014-04-16T10:51:04Z</time>
      </trkpt>
      <trkpt lat="47.69626" lon="3.64638">
        <ele>108</ele>
        <time>2014-04-16T10:51:12Z</time>
      </trkpt>
      <trkpt lat="47.69626" lon="3.64646">
        <ele>108</ele>
        <time>2014-04-16T10:51:16Z</time>
      </trkpt>
      <trkpt lat="47.69625" lon="3.64654">
        <ele>108</ele>
        <time>2014-04-16T10:51:20Z</time>
      </trkpt>
      <trkpt lat="47.69625" lon="3.64662">
        <ele>108</ele>
        <time>2014-04-16T10:51:22Z</time>
      </trkpt>
      <trkpt lat="47.69624" lon="3.6467">
        <ele>108</ele>
        <time>2014-04-16T10:51:25Z</time>
      </trkpt>
      <trkpt lat="47.69623" lon="3.64678">
        <ele>108</ele>
        <time>2014-04-16T10:51:28Z</time>
      </trkpt>
      <trkpt lat="47.69624" lon="3.64685">
        <ele>108</ele>
        <time>2014-04-16T10:51:31Z</time>
      </trkpt>
      <trkpt lat="47.69626" lon="3.64694">
        <ele>108</ele>
        <time>2014-04-16T10:51:34Z</time>
      </trkpt>
      <trkpt lat="47.69627" lon="3.64702">
        <ele>108</ele>
        <time>2014-04-16T10:51:37Z</time>
      </trkpt>
      <trkpt lat="47.69626" lon="3.6471">
        <ele>108</ele>
        <time>2014-04-16T10:51:42Z</time>
      </trkpt>
      <trkpt lat="47.69625" lon="3.64717">
        <ele>108</ele>
        <time>2014-04-16T10:51:45Z</time>
      </trkpt>
      <trkpt lat="47.69623" lon="3.64725">
        <ele>108</ele>
        <time>2014-04-16T10:51:50Z</time>
      </trkpt>
      <trkpt lat="47.69622" lon="3.64733">
        <ele>108</ele>
        <time>2014-04-16T10:51:54Z</time>
      </trkpt>
      <trkpt lat="47.69622" lon="3.64741">
        <ele>108</ele>
        <time>2014-04-16T10:51:58Z</time>
      </trkpt>
      <trkpt lat="47.69622" lon="3.64749">
        <ele>108</ele>
        <time>2014-04-16T10:52:02Z</time>
      </trkpt>
      <trkpt lat="47.69622" lon="3.64756">
        <ele>107</ele>
        <time>2014-04-16T10:52:07Z</time>
      </trkpt>
      <trkpt lat="47.69623" lon="3.64763">
        <ele>107</ele>
        <time>2014-04-16T10:52:11Z</time>
      </trkpt>
      <trkpt lat="47.69624" lon="3.64771">
        <ele>107</ele>
        <time>2014-04-16T10:52:18Z</time>
      </trkpt>
      <trkpt lat="47.69622" lon="3.64778">
        <ele>107</ele>
        <time>2014-04-16T10:52:22Z</time>
      </trkpt>
      <trkpt lat="47.6962" lon="3.64786">
        <ele>107</ele>
        <time>2014-04-16T10:52:27Z</time>
      </trkpt>
      <trkpt lat="47.69621" lon="3.64793">
        <ele>107</ele>
        <time>2014-04-16T10:52:30Z</time>
      </trkpt>
      <trkpt lat="47.69621" lon="3.64802">
        <ele>107</ele>
        <time>2014-04-16T10:52:34Z</time>
      </trkpt>
      <trkpt lat="47.69621" lon="3.64809">
        <ele>107</ele>
        <time>2014-04-16T10:52:38Z</time>
      </trkpt>
      <trkpt lat="47.69622" lon="3.64816">
        <ele>107</ele>
        <time>2014-04-16T10:52:44Z</time>
      </trkpt>
      <trkpt lat="47.6962" lon="3.64823">
        <ele>107</ele>
        <time>2014-04-16T10:52:48Z</time>
      </trkpt>
      <trkpt lat="47.69618" lon="3.6483">
        <ele>107</ele>
        <time>2014-04-16T10:52:53Z</time>
      </trkpt>
      <trkpt lat="47.69617" lon="3.64838">
        <ele>106</ele>
        <time>2014-04-16T10:52:58Z</time>
      </trkpt>
      <trkpt lat="47.69618" lon="3.64845">
        <ele>106</ele>
        <time>2014-04-16T10:53:01Z</time>
      </trkpt>
      <trkpt lat="47.69618" lon="3.64853">
        <ele>106</ele>
        <time>2014-04-16T10:53:05Z</time>
      </trkpt>
      <trkpt lat="47.69618" lon="3.6486">
        <ele>106</ele>
        <time>2014-04-16T10:53:09Z</time>
      </trkpt>
      <trkpt lat="47.69617" lon="3.64867">
        <ele>106</ele>
        <time>2014-04-16T10:53:14Z</time>
      </trkpt>
      <trkpt lat="47.69616" lon="3.64875">
        <ele>106</ele>
        <time>2014-04-16T10:53:20Z</time>
      </trkpt>
      <trkpt lat="47.69616" lon="3.64883">
        <ele>106</ele>
        <time>2014-04-16T10:53:23Z</time>
      </trkpt>
      <trkpt lat="47.69615" lon="3.64891">
        <ele>106</ele>
        <time>2014-04-16T10:53:27Z</time>
      </trkpt>
      <trkpt lat="47.69614" lon="3.64898">
        <ele>106</ele>
        <time>2014-04-16T10:53:32Z</time>
      </trkpt>
      <trkpt lat="47.69614" lon="3.64905">
        <ele>106</ele>
        <time>2014-04-16T10:53:35Z</time>
      </trkpt>
      <trkpt lat="47.69613" lon="3.64911">
        <ele>106</ele>
        <time>2014-04-16T10:53:40Z</time>
      </trkpt>
      <trkpt lat="47.69612" lon="3.64918">
        <ele>105</ele>
        <time>2014-04-16T10:53:46Z</time>
      </trkpt>
      <trkpt lat="47.69613" lon="3.64925">
        <ele>105</ele>
        <time>2014-04-16T10:53:50Z</time>
      </trkpt>
      <trkpt lat="47.69614" lon="3.64934">
        <ele>105</ele>
        <time>2014-04-16T10:53:54Z</time>
      </trkpt>
      <trkpt lat="47.69614" lon="3.64941">
        <ele>105</ele>
        <time>2014-04-16T10:53:58Z</time>
      </trkpt>
      <trkpt lat="47.69614" lon="3.64949">
        <ele>105</ele>
        <time>2014-04-16T10:54:01Z</time>
      </trkpt>
      <trkpt lat="47.69614" lon="3.64956">
        <ele>105</ele>
        <time>2014-04-16T10:54:04Z</time>
      </trkpt>
      <trkpt lat="47.69615" lon="3.64964">
        <ele>105</ele>
        <time>2014-04-16T10:54:08Z</time>
      </trkpt>
      <trkpt lat="47.69614" lon="3.64972">
        <ele>105</ele>
        <time>2014-04-16T10:54:13Z</time>
      </trkpt>
      <trkpt lat="47.69613" lon="3.6498">
        <ele>105</ele>
        <time>2014-04-16T10:54:20Z</time>
      </trkpt>
      <trkpt lat="47.69612" lon="3.64988">
        <ele>105</ele>
        <time>2014-04-16T10:54:24Z</time>
      </trkpt>
      <trkpt lat="47.69611" lon="3.64995">
        <ele>105</ele>
        <time>2014-04-16T10:54:28Z</time>
      </trkpt>
      <trkpt lat="47.6961" lon="3.65002">
        <ele>104</ele>
        <time>2014-04-16T10:54:33Z</time>
      </trkpt>
      <trkpt lat="47.6961" lon="3.65009">
        <ele>104</ele>
        <time>2014-04-16T10:54:36Z</time>
      </trkpt>
      <trkpt lat="47.6961" lon="3.65018">
        <ele>104</ele>
        <time>2014-04-16T10:54:40Z</time>
      </trkpt>
      <trkpt lat="47.69609" lon="3.65026">
        <ele>104</ele>
        <time>2014-04-16T10:54:43Z</time>
      </trkpt>
      <trkpt lat="47.69608" lon="3.65033">
        <ele>104</ele>
        <time>2014-04-16T10:54:47Z</time>
      </trkpt>
      <trkpt lat="47.69607" lon="3.65041">
        <ele>104</ele>
        <time>2014-04-16T10:54:50Z</time>
      </trkpt>
      <trkpt lat="47.69605" lon="3.65049">
        <ele>104</ele>
        <time>2014-04-16T10:54:54Z</time>
      </trkpt>
      <trkpt lat="47.69605" lon="3.65058">
        <ele>104</ele>
        <time>2014-04-16T10:54:58Z</time>
      </trkpt>
      <trkpt lat="47.69604" lon="3.65066">
        <ele>105</ele>
        <time>2014-04-16T10:55:02Z</time>
      </trkpt>
      <trkpt lat="47.69604" lon="3.65073">
        <ele>105</ele>
        <time>2014-04-16T10:55:08Z</time>
      </trkpt>
      <trkpt lat="47.69604" lon="3.65082">
        <ele>105</ele>
        <time>2014-04-16T10:55:13Z</time>
      </trkpt>
      <trkpt lat="47.69601" lon="3.65088">
        <ele>105</ele>
        <time>2014-04-16T10:55:19Z</time>
      </trkpt>
      <trkpt lat="47.69602" lon="3.65096">
        <ele>105</ele>
        <time>2014-04-16T10:55:24Z</time>
      </trkpt>
      <trkpt lat="47.69603" lon="3.65104">
        <ele>105</ele>
        <time>2014-04-16T10:55:27Z</time>
      </trkpt>
      <trkpt lat="47.69604" lon="3.65111">
        <ele>105</ele>
        <time>2014-04-16T10:55:30Z</time>
      </trkpt>
      <trkpt lat="47.69606" lon="3.65117">
        <ele>105</ele>
        <time>2014-04-16T10:55:35Z</time>
      </trkpt>
      <trkpt lat="47.69606" lon="3.65125">
        <ele>105</ele>
        <time>2014-04-16T10:55:40Z</time>
      </trkpt>
      <trkpt lat="47.69605" lon="3.65132">
        <ele>105</ele>
        <time>2014-04-16T10:55:47Z</time>
      </trkpt>
      <trkpt lat="47.69603" lon="3.6514">
        <ele>105</ele>
        <time>2014-04-16T10:55:52Z</time>
      </trkpt>
      <trkpt lat="47.69603" lon="3.65148">
        <ele>105</ele>
        <time>2014-04-16T10:55:57Z</time>
      </trkpt>
      <trkpt lat="47.696" lon="3.65155">
        <ele>105</ele>
        <time>2014-04-16T10:56:01Z</time>
      </trkpt>
      <trkpt lat="47.69599" lon="3.65163">
        <ele>105</ele>
        <time>2014-04-16T10:56:05Z</time>
      </trkpt>
      <trkpt lat="47.69598" lon="3.65171">
        <ele>105</ele>
        <time>2014-04-16T10:56:08Z</time>
      </trkpt>
      <trkpt lat="47.69597" lon="3.6518">
        <ele>105</ele>
        <time>2014-04-16T10:56:11Z</time>
      </trkpt>
      <trkpt lat="47.69595" lon="3.65188">
        <ele>105</ele>
        <time>2014-04-16T10:56:14Z</time>
      </trkpt>
      <trkpt lat="47.69597" lon="3.65197">
        <ele>105</ele>
        <time>2014-04-16T10:56:20Z</time>
      </trkpt>
      <trkpt lat="47.69598" lon="3.65205">
        <ele>105</ele>
        <time>2014-04-16T10:56:21Z</time>
      </trkpt>
      <trkpt lat="47.69596" lon="3.65212">
        <ele>105</ele>
        <time>2014-04-16T10:56:25Z</time>
      </trkpt>
      <trkpt lat="47.69594" lon="3.65218">
        <ele>105</ele>
        <time>2014-04-16T10:56:31Z</time>
      </trkpt>
      <trkpt lat="47.69596" lon="3.65225">
        <ele>105</ele>
        <time>2014-04-16T10:56:35Z</time>
      </trkpt>
      <trkpt lat="47.69597" lon="3.65228">
        <ele>105</ele>
        <time>2014-04-16T10:56:41Z</time>
      </trkpt>
      <trkpt lat="47.69597" lon="3.65235">
        <ele>105</ele>
        <time>2014-04-16T10:56:45Z</time>
      </trkpt>
      <trkpt lat="47.69597" lon="3.65244">
        <ele>105</ele>
        <time>2014-04-16T10:56:49Z</time>
      </trkpt>
      <trkpt lat="47.69595" lon="3.6525">
        <ele>105</ele>
        <time>2014-04-16T10:56:53Z</time>
      </trkpt>
      <trkpt lat="47.69595" lon="3.65257">
        <ele>105</ele>
        <time>2014-04-16T10:56:58Z</time>
      </trkpt>
      <trkpt lat="47.69596" lon="3.65265">
        <ele>106</ele>
        <time>2014-04-16T10:57:02Z</time>
      </trkpt>
      <trkpt lat="47.69597" lon="3.6527">
        <ele>106</ele>
        <time>2014-04-16T10:57:23Z</time>
      </trkpt>
      <trkpt lat="47.69598" lon="3.65278">
        <ele>106</ele>
        <time>2014-04-16T10:57:26Z</time>
      </trkpt>
      <trkpt lat="47.69598" lon="3.65285">
        <ele>106</ele>
        <time>2014-04-16T10:57:29Z</time>
      </trkpt>
      <trkpt lat="47.69598" lon="3.65293">
        <ele>106</ele>
        <time>2014-04-16T10:57:32Z</time>
      </trkpt>
      <trkpt lat="47.69597" lon="3.653">
        <ele>106</ele>
        <time>2014-04-16T10:57:37Z</time>
      </trkpt>
      <trkpt lat="47.69596" lon="3.65308">
        <ele>106</ele>
        <time>2014-04-16T10:57:41Z</time>
      </trkpt>
      <trkpt lat="47.69595" lon="3.65317">
        <ele>106</ele>
        <time>2014-04-16T10:57:45Z</time>
      </trkpt>
      <trkpt lat="47.69595" lon="3.65324">
        <ele>106</ele>
        <time>2014-04-16T10:57:48Z</time>
      </trkpt>
      <trkpt lat="47.69595" lon="3.65332">
        <ele>106</ele>
        <time>2014-04-16T10:57:53Z</time>
      </trkpt>
      <trkpt lat="47.69594" lon="3.65339">
        <ele>106</ele>
        <time>2014-04-16T10:57:57Z</time>
      </trkpt>
      <trkpt lat="47.69594" lon="3.65346">
        <ele>107</ele>
        <time>2014-04-16T10:58:02Z</time>
      </trkpt>
      <trkpt lat="47.69594" lon="3.65353">
        <ele>107</ele>
        <time>2014-04-16T10:58:07Z</time>
      </trkpt>
      <trkpt lat="47.69594" lon="3.65361">
        <ele>107</ele>
        <time>2014-04-16T10:58:12Z</time>
      </trkpt>
      <trkpt lat="47.69595" lon="3.65368">
        <ele>107</ele>
        <time>2014-04-16T10:58:17Z</time>
      </trkpt>
      <trkpt lat="47.69593" lon="3.65376">
        <ele>107</ele>
        <time>2014-04-16T10:58:22Z</time>
      </trkpt>
      <trkpt lat="47.69591" lon="3.65384">
        <ele>107</ele>
        <time>2014-04-16T10:58:26Z</time>
      </trkpt>
      <trkpt lat="47.6959" lon="3.65391">
        <ele>107</ele>
        <time>2014-04-16T10:58:28Z</time>
      </trkpt>
      <trkpt lat="47.69588" lon="3.65399">
        <ele>107</ele>
        <time>2014-04-16T10:58:31Z</time>
      </trkpt>
      <trkpt lat="47.69584" lon="3.65404">
        <ele>108</ele>
        <time>2014-04-16T10:58:38Z</time>
      </trkpt>
      <trkpt lat="47.69586" lon="3.65408">
        <ele>108</ele>
        <time>2014-04-16T10:58:54Z</time>
      </trkpt>
      <trkpt lat="47.69585" lon="3.65403">
        <ele>108</ele>
        <time>2014-04-16T11:01:22Z</time>
      </trkpt>
      <trkpt lat="47.69585" lon="3.65403">
        <ele>108</ele>
        <time>2014-04-16T11:01:37Z</time>
      </trkpt>
      <trkpt lat="47.69591" lon="3.65405">
        <ele>108</ele>
        <time>2014-04-16T11:01:40Z</time>
      </trkpt>
      <trkpt lat="47.69592" lon="3.65405">
        <ele>108</ele>
        <time>2014-04-16T11:02:17Z</time>
      </trkpt>
      <trkpt lat="47.69588" lon="3.6541">
        <ele>108</ele>
        <time>2014-04-16T11:02:18Z</time>
      </trkpt>
      <trkpt lat="47.69588" lon="3.65417">
        <ele>108</ele>
        <time>2014-04-16T11:03:41Z</time>
      </trkpt>
      <trkpt lat="47.69589" lon="3.65423">
        <ele>108</ele>
        <time>2014-04-16T11:03:46Z</time>
      </trkpt>
      <trkpt lat="47.69586" lon="3.6543">
        <ele>108</ele>
        <time>2014-04-16T11:03:52Z</time>
      </trkpt>
      <trkpt lat="47.69585" lon="3.65437">
        <ele>107</ele>
        <time>2014-04-16T11:03:56Z</time>
      </trkpt>
      <trkpt lat="47.69584" lon="3.65444">
        <ele>107</ele>
        <time>2014-04-16T11:04:00Z</time>
      </trkpt>
      <trkpt lat="47.69583" lon="3.65452">
        <ele>107</ele>
        <time>2014-04-16T11:04:03Z</time>
      </trkpt>
      <trkpt lat="47.69582" lon="3.65459">
        <ele>107</ele>
        <time>2014-04-16T11:04:08Z</time>
      </trkpt>
      <trkpt lat="47.69581" lon="3.65467">
        <ele>107</ele>
        <time>2014-04-16T11:04:11Z</time>
      </trkpt>
      <trkpt lat="47.69579" lon="3.65474">
        <ele>107</ele>
        <time>2014-04-16T11:04:16Z</time>
      </trkpt>
      <trkpt lat="47.69578" lon="3.65481">
        <ele>107</ele>
        <time>2014-04-16T11:04:22Z</time>
      </trkpt>
      <trkpt lat="47.69578" lon="3.65489">
        <ele>107</ele>
        <time>2014-04-16T11:04:26Z</time>
      </trkpt>
      <trkpt lat="47.69577" lon="3.655">
        <ele>107</ele>
        <time>2014-04-16T11:04:36Z</time>
      </trkpt>
      <trkpt lat="47.69576" lon="3.65508">
        <ele>107</ele>
        <time>2014-04-16T11:04:42Z</time>
      </trkpt>
      <trkpt lat="47.69575" lon="3.65515">
        <ele>107</ele>
        <time>2014-04-16T11:04:46Z</time>
      </trkpt>
      <trkpt lat="47.69574" lon="3.65521">
        <ele>107</ele>
        <time>2014-04-16T11:04:48Z</time>
      </trkpt>
      <trkpt lat="47.69573" lon="3.65529">
        <ele>107</ele>
        <time>2014-04-16T11:04:53Z</time>
      </trkpt>
      <trkpt lat="47.69572" lon="3.65535">
        <ele>107</ele>
        <time>2014-04-16T11:04:57Z</time>
      </trkpt>
      <trkpt lat="47.69569" lon="3.65543">
        <ele>107</ele>
        <time>2014-04-16T11:05:02Z</time>
      </trkpt>
      <trkpt lat="47.69567" lon="3.65551">
        <ele>107</ele>
        <time>2014-04-16T11:05:06Z</time>
      </trkpt>
      <trkpt lat="47.69566" lon="3.65557">
        <ele>107</ele>
        <time>2014-04-16T11:05:09Z</time>
      </trkpt>
      <trkpt lat="47.69564" lon="3.65564">
        <ele>107</ele>
        <time>2014-04-16T11:05:14Z</time>
      </trkpt>
      <trkpt lat="47.69561" lon="3.6557">
        <ele>107</ele>
        <time>2014-04-16T11:05:17Z</time>
      </trkpt>
      <trkpt lat="47.69559" lon="3.65577">
        <ele>108</ele>
        <time>2014-04-16T11:05:20Z</time>
      </trkpt>
      <trkpt lat="47.69558" lon="3.65584">
        <ele>108</ele>
        <time>2014-04-16T11:05:24Z</time>
      </trkpt>
      <trkpt lat="47.69555" lon="3.65592">
        <ele>108</ele>
        <time>2014-04-16T11:05:28Z</time>
      </trkpt>
      <trkpt lat="47.69552" lon="3.65597">
        <ele>108</ele>
        <time>2014-04-16T11:05:34Z</time>
      </trkpt>
      <trkpt lat="47.6955" lon="3.65604">
        <ele>108</ele>
        <time>2014-04-16T11:05:40Z</time>
      </trkpt>
      <trkpt lat="47.69548" lon="3.65611">
        <ele>108</ele>
        <time>2014-04-16T11:05:46Z</time>
      </trkpt>
      <trkpt lat="47.69546" lon="3.65618">
        <ele>108</ele>
        <time>2014-04-16T11:05:49Z</time>
      </trkpt>
      <trkpt lat="47.69543" lon="3.65626">
        <ele>109</ele>
        <time>2014-04-16T11:05:53Z</time>
      </trkpt>
      <trkpt lat="47.69541" lon="3.65632">
        <ele>109</ele>
        <time>2014-04-16T11:05:58Z</time>
      </trkpt>
      <trkpt lat="47.69538" lon="3.65638">
        <ele>109</ele>
        <time>2014-04-16T11:06:03Z</time>
      </trkpt>
      <trkpt lat="47.69536" lon="3.65644">
        <ele>109</ele>
        <time>2014-04-16T11:06:09Z</time>
      </trkpt>
      <trkpt lat="47.69534" lon="3.6565">
        <ele>109</ele>
        <time>2014-04-16T11:06:12Z</time>
      </trkpt>
      <trkpt lat="47.69531" lon="3.65657">
        <ele>108</ele>
        <time>2014-04-16T11:06:14Z</time>
      </trkpt>
      <trkpt lat="47.69529" lon="3.65663">
        <ele>108</ele>
        <time>2014-04-16T11:06:18Z</time>
      </trkpt>
      <trkpt lat="47.69527" lon="3.6567">
        <ele>109</ele>
        <time>2014-04-16T11:06:25Z</time>
      </trkpt>
      <trkpt lat="47.69524" lon="3.65677">
        <ele>108</ele>
        <time>2014-04-16T11:06:29Z</time>
      </trkpt>
      <trkpt lat="47.69521" lon="3.65683">
        <ele>108</ele>
        <time>2014-04-16T11:06:34Z</time>
      </trkpt>
      <trkpt lat="47.69517" lon="3.65689">
        <ele>108</ele>
        <time>2014-04-16T11:06:38Z</time>
      </trkpt>
      <trkpt lat="47.69513" lon="3.65694">
        <ele>108</ele>
        <time>2014-04-16T11:06:42Z</time>
      </trkpt>
      <trkpt lat="47.6951" lon="3.65702">
        <ele>108</ele>
        <time>2014-04-16T11:06:46Z</time>
      </trkpt>
      <trkpt lat="47.69508" lon="3.65708">
        <ele>108</ele>
        <time>2014-04-16T11:06:49Z</time>
      </trkpt>
      <trkpt lat="47.69506" lon="3.65714">
        <ele>108</ele>
        <time>2014-04-16T11:06:52Z</time>
      </trkpt>
      <trkpt lat="47.69503" lon="3.65721">
        <ele>108</ele>
        <time>2014-04-16T11:06:57Z</time>
      </trkpt>
      <trkpt lat="47.695" lon="3.65729">
        <ele>108</ele>
        <time>2014-04-16T11:07:02Z</time>
      </trkpt>
      <trkpt lat="47.69497" lon="3.65735">
        <ele>107</ele>
        <time>2014-04-16T11:07:04Z</time>
      </trkpt>
      <trkpt lat="47.69495" lon="3.65741">
        <ele>107</ele>
        <time>2014-04-16T11:07:09Z</time>
      </trkpt>
      <trkpt lat="47.69491" lon="3.65747">
        <ele>107</ele>
        <time>2014-04-16T11:07:13Z</time>
      </trkpt>
      <trkpt lat="47.69489" lon="3.65755">
        <ele>107</ele>
        <time>2014-04-16T11:07:18Z</time>
      </trkpt>
      <trkpt lat="47.69486" lon="3.65761">
        <ele>107</ele>
        <time>2014-04-16T11:07:22Z</time>
      </trkpt>
      <trkpt lat="47.69482" lon="3.65765">
        <ele>107</ele>
        <time>2014-04-16T11:07:27Z</time>
      </trkpt>
      <trkpt lat="47.69478" lon="3.65769">
        <ele>107</ele>
        <time>2014-04-16T11:07:31Z</time>
      </trkpt>
      <trkpt lat="47.69473" lon="3.65773">
        <ele>107</ele>
        <time>2014-04-16T11:07:35Z</time>
      </trkpt>
      <trkpt lat="47.6947" lon="3.65778">
        <ele>107</ele>
        <time>2014-04-16T11:07:38Z</time>
      </trkpt>
      <trkpt lat="47.69469" lon="3.65786">
        <ele>107</ele>
        <time>2014-04-16T11:07:45Z</time>
      </trkpt>
      <trkpt lat="47.69469" lon="3.65793">
        <ele>107</ele>
        <time>2014-04-16T11:07:49Z</time>
      </trkpt>
      <trkpt lat="47.69467" lon="3.658">
        <ele>107</ele>
        <time>2014-04-16T11:07:51Z</time>
      </trkpt>
      <trkpt lat="47.69464" lon="3.65806">
        <ele>107</ele>
        <time>2014-04-16T11:07:55Z</time>
      </trkpt>
      <trkpt lat="47.69461" lon="3.65811">
        <ele>107</ele>
        <time>2014-04-16T11:08:00Z</time>
      </trkpt>
      <trkpt lat="47.69459" lon="3.65818">
        <ele>107</ele>
        <time>2014-04-16T11:08:04Z</time>
      </trkpt>
      <trkpt lat="47.69456" lon="3.65824">
        <ele>107</ele>
        <time>2014-04-16T11:08:07Z</time>
      </trkpt>
      <trkpt lat="47.69454" lon="3.65831">
        <ele>107</ele>
        <time>2014-04-16T11:08:13Z</time>
      </trkpt>
      <trkpt lat="47.69453" lon="3.65837">
        <ele>107</ele>
        <time>2014-04-16T11:08:17Z</time>
      </trkpt>
      <trkpt lat="47.69451" lon="3.65845">
        <ele>107</ele>
        <time>2014-04-16T11:08:21Z</time>
      </trkpt>
      <trkpt lat="47.69449" lon="3.65852">
        <ele>106</ele>
        <time>2014-04-16T11:08:25Z</time>
      </trkpt>
      <trkpt lat="47.69447" lon="3.65858">
        <ele>106</ele>
        <time>2014-04-16T11:08:29Z</time>
      </trkpt>
      <trkpt lat="47.69444" lon="3.65864">
        <ele>106</ele>
        <time>2014-04-16T11:08:34Z</time>
      </trkpt>
      <trkpt lat="47.6944" lon="3.65868">
        <ele>106</ele>
        <time>2014-04-16T11:08:39Z</time>
      </trkpt>
      <trkpt lat="47.69437" lon="3.65875">
        <ele>106</ele>
        <time>2014-04-16T11:08:43Z</time>
      </trkpt>
      <trkpt lat="47.69434" lon="3.65882">
        <ele>106</ele>
        <time>2014-04-16T11:08:47Z</time>
      </trkpt>
      <trkpt lat="47.69432" lon="3.65886">
        <ele>106</ele>
        <time>2014-04-16T11:08:55Z</time>
      </trkpt>
      <trkpt lat="47.6943" lon="3.65885">
        <ele>106</ele>
        <time>2014-04-16T11:09:01Z</time>
      </trkpt>
      <trkpt lat="47.69428" lon="3.65891">
        <ele>106</ele>
        <time>2014-04-16T11:09:07Z</time>
      </trkpt>
      <trkpt lat="47.69426" lon="3.65898">
        <ele>106</ele>
        <time>2014-04-16T11:09:12Z</time>
      </trkpt>
      <trkpt lat="47.69423" lon="3.65904">
        <ele>106</ele>
        <time>2014-04-16T11:09:16Z</time>
      </trkpt>
      <trkpt lat="47.6942" lon="3.65909">
        <ele>106</ele>
        <time>2014-04-16T11:09:20Z</time>
      </trkpt>
      <trkpt lat="47.69417" lon="3.65915">
        <ele>106</ele>
        <time>2014-04-16T11:09:25Z</time>
      </trkpt>
      <trkpt lat="47.69414" lon="3.65921">
        <ele>106</ele>
        <time>2014-04-16T11:09:28Z</time>
      </trkpt>
      <trkpt lat="47.69412" lon="3.65928">
        <ele>106</ele>
        <time>2014-04-16T11:09:32Z</time>
      </trkpt>
      <trkpt lat="47.69409" lon="3.65935">
        <ele>106</ele>
        <time>2014-04-16T11:09:38Z</time>
      </trkpt>
      <trkpt lat="47.69406" lon="3.65941">
        <ele>106</ele>
        <time>2014-04-16T11:09:43Z</time>
      </trkpt>
      <trkpt lat="47.69402" lon="3.65947">
        <ele>106</ele>
        <time>2014-04-16T11:09:48Z</time>
      </trkpt>
      <trkpt lat="47.69399" lon="3.65954">
        <ele>106</ele>
        <time>2014-04-16T11:09:52Z</time>
      </trkpt>
      <trkpt lat="47.69396" lon="3.6596">
        <ele>106</ele>
        <time>2014-04-16T11:09:56Z</time>
      </trkpt>
      <trkpt lat="47.69394" lon="3.65966">
        <ele>106</ele>
        <time>2014-04-16T11:09:58Z</time>
      </trkpt>
      <trkpt lat="47.69391" lon="3.65973">
        <ele>106</ele>
        <time>2014-04-16T11:10:02Z</time>
      </trkpt>
      <trkpt lat="47.69388" lon="3.65982">
        <ele>106</ele>
        <time>2014-04-16T11:10:06Z</time>
      </trkpt>
      <trkpt lat="47.69385" lon="3.65989">
        <ele>107</ele>
        <time>2014-04-16T11:10:09Z</time>
      </trkpt>
      <trkpt lat="47.69382" lon="3.65995">
        <ele>107</ele>
        <time>2014-04-16T11:10:13Z</time>
      </trkpt>
      <trkpt lat="47.69379" lon="3.66">
        <ele>107</ele>
        <time>2014-04-16T11:10:18Z</time>
      </trkpt>
      <trkpt lat="47.69376" lon="3.66006">
        <ele>107</ele>
        <time>2014-04-16T11:10:22Z</time>
      </trkpt>
      <trkpt lat="47.69374" lon="3.66014">
        <ele>107</ele>
        <time>2014-04-16T11:10:26Z</time>
      </trkpt>
      <trkpt lat="47.69371" lon="3.66021">
        <ele>107</ele>
        <time>2014-04-16T11:10:30Z</time>
      </trkpt>
      <trkpt lat="47.69368" lon="3.66028">
        <ele>107</ele>
        <time>2014-04-16T11:10:34Z</time>
      </trkpt>
      <trkpt lat="47.69366" lon="3.66035">
        <ele>107</ele>
        <time>2014-04-16T11:10:38Z</time>
      </trkpt>
      <trkpt lat="47.69362" lon="3.66041">
        <ele>107</ele>
        <time>2014-04-16T11:10:46Z</time>
      </trkpt>
      <trkpt lat="47.6936" lon="3.66048">
        <ele>107</ele>
        <time>2014-04-16T11:10:49Z</time>
      </trkpt>
      <trkpt lat="47.69358" lon="3.66054">
        <ele>107</ele>
        <time>2014-04-16T11:10:53Z</time>
      </trkpt>
      <trkpt lat="47.69355" lon="3.6606">
        <ele>107</ele>
        <time>2014-04-16T11:10:56Z</time>
      </trkpt>
      <trkpt lat="47.69353" lon="3.66067">
        <ele>107</ele>
        <time>2014-04-16T11:10:59Z</time>
      </trkpt>
      <trkpt lat="47.69351" lon="3.66075">
        <ele>107</ele>
        <time>2014-04-16T11:11:03Z</time>
      </trkpt>
      <trkpt lat="47.69349" lon="3.66081">
        <ele>107</ele>
        <time>2014-04-16T11:11:06Z</time>
      </trkpt>
      <trkpt lat="47.69346" lon="3.66086">
        <ele>107</ele>
        <time>2014-04-16T11:11:11Z</time>
      </trkpt>
      <trkpt lat="47.69342" lon="3.66093">
        <ele>107</ele>
        <time>2014-04-16T11:11:16Z</time>
      </trkpt>
      <trkpt lat="47.6934" lon="3.66099">
        <ele>107</ele>
        <time>2014-04-16T11:11:20Z</time>
      </trkpt>
      <trkpt lat="47.69337" lon="3.66106">
        <ele>106</ele>
        <time>2014-04-16T11:11:24Z</time>
      </trkpt>
      <trkpt lat="47.69335" lon="3.66112">
        <ele>106</ele>
        <time>2014-04-16T11:11:28Z</time>
      </trkpt>
      <trkpt lat="47.69331" lon="3.66119">
        <ele>106</ele>
        <time>2014-04-16T11:11:33Z</time>
      </trkpt>
      <trkpt lat="47.69329" lon="3.66125">
        <ele>106</ele>
        <time>2014-04-16T11:11:37Z</time>
      </trkpt>
      <trkpt lat="47.69325" lon="3.66131">
        <ele>106</ele>
        <time>2014-04-16T11:11:42Z</time>
      </trkpt>
      <trkpt lat="47.69323" lon="3.66137">
        <ele>106</ele>
        <time>2014-04-16T11:11:47Z</time>
      </trkpt>
      <trkpt lat="47.69319" lon="3.66141">
        <ele>106</ele>
        <time>2014-04-16T11:11:52Z</time>
      </trkpt>
      <trkpt lat="47.69315" lon="3.66146">
        <ele>106</ele>
        <time>2014-04-16T11:11:58Z</time>
      </trkpt>
      <trkpt lat="47.69314" lon="3.66154">
        <ele>106</ele>
        <time>2014-04-16T11:12:01Z</time>
      </trkpt>
      <trkpt lat="47.69312" lon="3.6616">
        <ele>106</ele>
        <time>2014-04-16T11:12:04Z</time>
      </trkpt>
      <trkpt lat="47.69309" lon="3.66166">
        <ele>106</ele>
        <time>2014-04-16T11:12:10Z</time>
      </trkpt>
      <trkpt lat="47.69306" lon="3.66172">
        <ele>105</ele>
        <time>2014-04-16T11:12:15Z</time>
      </trkpt>
      <trkpt lat="47.69303" lon="3.66177">
        <ele>105</ele>
        <time>2014-04-16T11:12:20Z</time>
      </trkpt>
      <trkpt lat="47.693" lon="3.66184">
        <ele>105</ele>
        <time>2014-04-16T11:12:25Z</time>
      </trkpt>
      <trkpt lat="47.69297" lon="3.66191">
        <ele>105</ele>
        <time>2014-04-16T11:12:30Z</time>
      </trkpt>
      <trkpt lat="47.69294" lon="3.66198">
        <ele>105</ele>
        <time>2014-04-16T11:12:34Z</time>
      </trkpt>
      <trkpt lat="47.69291" lon="3.66205">
        <ele>106</ele>
        <time>2014-04-16T11:12:38Z</time>
      </trkpt>
      <trkpt lat="47.69288" lon="3.66211">
        <ele>106</ele>
        <time>2014-04-16T11:12:42Z</time>
      </trkpt>
      <trkpt lat="47.69285" lon="3.66217">
        <ele>106</ele>
        <time>2014-04-16T11:12:45Z</time>
      </trkpt>
      <trkpt lat="47.69283" lon="3.66223">
        <ele>106</ele>
        <time>2014-04-16T11:12:49Z</time>
      </trkpt>
      <trkpt lat="47.6928" lon="3.6623">
        <ele>106</ele>
        <time>2014-04-16T11:12:53Z</time>
      </trkpt>
      <trkpt lat="47.69277" lon="3.66236">
        <ele>106</ele>
        <time>2014-04-16T11:12:57Z</time>
      </trkpt>
      <trkpt lat="47.69275" lon="3.66244">
        <ele>106</ele>
        <time>2014-04-16T11:13:01Z</time>
      </trkpt>
      <trkpt lat="47.69272" lon="3.66253">
        <ele>106</ele>
        <time>2014-04-16T11:13:04Z</time>
      </trkpt>
      <trkpt lat="47.69271" lon="3.66259">
        <ele>106</ele>
        <time>2014-04-16T11:13:07Z</time>
      </trkpt>
      <trkpt lat="47.69267" lon="3.66266">
        <ele>106</ele>
        <time>2014-04-16T11:13:12Z</time>
      </trkpt>
      <trkpt lat="47.69265" lon="3.66271">
        <ele>106</ele>
        <time>2014-04-16T11:13:17Z</time>
      </trkpt>
      <trkpt lat="47.69262" lon="3.66278">
        <ele>106</ele>
        <time>2014-04-16T11:13:21Z</time>
      </trkpt>
      <trkpt lat="47.69259" lon="3.66285">
        <ele>106</ele>
        <time>2014-04-16T11:13:26Z</time>
      </trkpt>
      <trkpt lat="47.69256" lon="3.66291">
        <ele>106</ele>
        <time>2014-04-16T11:13:29Z</time>
      </trkpt>
      <trkpt lat="47.69251" lon="3.66294">
        <ele>106</ele>
        <time>2014-04-16T11:13:36Z</time>
      </trkpt>
      <trkpt lat="47.69249" lon="3.663">
        <ele>106</ele>
        <time>2014-04-16T11:13:40Z</time>
      </trkpt>
      <trkpt lat="47.69246" lon="3.66306">
        <ele>106</ele>
        <time>2014-04-16T11:13:43Z</time>
      </trkpt>
      <trkpt lat="47.69243" lon="3.66313">
        <ele>106</ele>
        <time>2014-04-16T11:13:47Z</time>
      </trkpt>
      <trkpt lat="47.69241" lon="3.6632">
        <ele>106</ele>
        <time>2014-04-16T11:13:51Z</time>
      </trkpt>
      <trkpt lat="47.69238" lon="3.66327">
        <ele>106</ele>
        <time>2014-04-16T11:13:56Z</time>
      </trkpt>
      <trkpt lat="47.69235" lon="3.66333">
        <ele>106</ele>
        <time>2014-04-16T11:13:59Z</time>
      </trkpt>
      <trkpt lat="47.69233" lon="3.66339">
        <ele>106</ele>
        <time>2014-04-16T11:14:05Z</time>
      </trkpt>
      <trkpt lat="47.6923" lon="3.66346">
        <ele>106</ele>
        <time>2014-04-16T11:14:08Z</time>
      </trkpt>
      <trkpt lat="47.69228" lon="3.66352">
        <ele>106</ele>
        <time>2014-04-16T11:14:13Z</time>
      </trkpt>
      <trkpt lat="47.69224" lon="3.66358">
        <ele>106</ele>
        <time>2014-04-16T11:14:18Z</time>
      </trkpt>
      <trkpt lat="47.69221" lon="3.66363">
        <ele>106</ele>
        <time>2014-04-16T11:14:22Z</time>
      </trkpt>
      <trkpt lat="47.69218" lon="3.6637">
        <ele>106</ele>
        <time>2014-04-16T11:14:28Z</time>
      </trkpt>
      <trkpt lat="47.69216" lon="3.66376">
        <ele>106</ele>
        <time>2014-04-16T11:14:32Z</time>
      </trkpt>
      <trkpt lat="47.69213" lon="3.66382">
        <ele>106</ele>
        <time>2014-04-16T11:14:36Z</time>
      </trkpt>
      <trkpt lat="47.6921" lon="3.66387">
        <ele>106</ele>
        <time>2014-04-16T11:14:39Z</time>
      </trkpt>
      <trkpt lat="47.69207" lon="3.66392">
        <ele>106</ele>
        <time>2014-04-16T11:14:44Z</time>
      </trkpt>
      <trkpt lat="47.69204" lon="3.66397">
        <ele>106</ele>
        <time>2014-04-16T11:14:47Z</time>
      </trkpt>
      <trkpt lat="47.69201" lon="3.66404">
        <ele>106</ele>
        <time>2014-04-16T11:14:52Z</time>
      </trkpt>
      <trkpt lat="47.69198" lon="3.66411">
        <ele>106</ele>
        <time>2014-04-16T11:14:55Z</time>
      </trkpt>
      <trkpt lat="47.69195" lon="3.66418">
        <ele>106</ele>
        <time>2014-04-16T11:15:00Z</time>
      </trkpt>
      <trkpt lat="47.69192" lon="3.66425">
        <ele>106</ele>
        <time>2014-04-16T11:15:04Z</time>
      </trkpt>
      <trkpt lat="47.6919" lon="3.66432">
        <ele>106</ele>
        <time>2014-04-16T11:15:06Z</time>
      </trkpt>
      <trkpt lat="47.69188" lon="3.66438">
        <ele>106</ele>
        <time>2014-04-16T11:15:09Z</time>
      </trkpt>
      <trkpt lat="47.69186" lon="3.66444">
        <ele>106</ele>
        <time>2014-04-16T11:15:14Z</time>
      </trkpt>
      <trkpt lat="47.69182" lon="3.66451">
        <ele>106</ele>
        <time>2014-04-16T11:15:18Z</time>
      </trkpt>
      <trkpt lat="47.6918" lon="3.66457">
        <ele>106</ele>
        <time>2014-04-16T11:15:23Z</time>
      </trkpt>
      <trkpt lat="47.69177" lon="3.66463">
        <ele>106</ele>
        <time>2014-04-16T11:15:26Z</time>
      </trkpt>
      <trkpt lat="47.69173" lon="3.66468">
        <ele>106</ele>
        <time>2014-04-16T11:15:29Z</time>
      </trkpt>
      <trkpt lat="47.6917" lon="3.66475">
        <ele>106</ele>
        <time>2014-04-16T11:15:32Z</time>
      </trkpt>
      <trkpt lat="47.69168" lon="3.66482">
        <ele>106</ele>
        <time>2014-04-16T11:15:37Z</time>
      </trkpt>
      <trkpt lat="47.69167" lon="3.66487">
        <ele>106</ele>
        <time>2014-04-16T11:15:45Z</time>
      </trkpt>
      <trkpt lat="47.69163" lon="3.66492">
        <ele>106</ele>
        <time>2014-04-16T11:16:36Z</time>
      </trkpt>
      <trkpt lat="47.69159" lon="3.66499">
        <ele>106</ele>
        <time>2014-04-16T11:16:41Z</time>
      </trkpt>
      <trkpt lat="47.69156" lon="3.66506">
        <ele>106</ele>
        <time>2014-04-16T11:16:44Z</time>
      </trkpt>
      <trkpt lat="47.69153" lon="3.66512">
        <ele>106</ele>
        <time>2014-04-16T11:16:48Z</time>
      </trkpt>
      <trkpt lat="47.6915" lon="3.66518">
        <ele>106</ele>
        <time>2014-04-16T11:16:52Z</time>
      </trkpt>
      <trkpt lat="47.69146" lon="3.66523">
        <ele>106</ele>
        <time>2014-04-16T11:16:56Z</time>
      </trkpt>
      <trkpt lat="47.69144" lon="3.66529">
        <ele>106</ele>
        <time>2014-04-16T11:16:59Z</time>
      </trkpt>
      <trkpt lat="47.69142" lon="3.66535">
        <ele>106</ele>
        <time>2014-04-16T11:17:02Z</time>
      </trkpt>
      <trkpt lat="47.69139" lon="3.66541">
        <ele>106</ele>
        <time>2014-04-16T11:17:06Z</time>
      </trkpt>
      <trkpt lat="47.69137" lon="3.66548">
        <ele>106</ele>
        <time>2014-04-16T11:17:11Z</time>
      </trkpt>
      <trkpt lat="47.69134" lon="3.66553">
        <ele>106</ele>
        <time>2014-04-16T11:17:14Z</time>
      </trkpt>
      <trkpt lat="47.69131" lon="3.66559">
        <ele>106</ele>
        <time>2014-04-16T11:17:19Z</time>
      </trkpt>
      <trkpt lat="47.69128" lon="3.66565">
        <ele>106</ele>
        <time>2014-04-16T11:17:25Z</time>
      </trkpt>
      <trkpt lat="47.69125" lon="3.66572">
        <ele>106</ele>
        <time>2014-04-16T11:17:29Z</time>
      </trkpt>
      <trkpt lat="47.69123" lon="3.66579">
        <ele>106</ele>
        <time>2014-04-16T11:17:34Z</time>
      </trkpt>
      <trkpt lat="47.69121" lon="3.66587">
        <ele>106</ele>
        <time>2014-04-16T11:17:38Z</time>
      </trkpt>
      <trkpt lat="47.69119" lon="3.66594">
        <ele>106</ele>
        <time>2014-04-16T11:17:41Z</time>
      </trkpt>
      <trkpt lat="47.69117" lon="3.666">
        <ele>106</ele>
        <time>2014-04-16T11:17:47Z</time>
      </trkpt>
      <trkpt lat="47.69114" lon="3.66608">
        <ele>106</ele>
        <time>2014-04-16T11:17:52Z</time>
      </trkpt>
      <trkpt lat="47.6911" lon="3.66614">
        <ele>106</ele>
        <time>2014-04-16T11:17:57Z</time>
      </trkpt>
      <trkpt lat="47.69107" lon="3.6662">
        <ele>106</ele>
        <time>2014-04-16T11:18:01Z</time>
      </trkpt>
      <trkpt lat="47.69104" lon="3.66626">
        <ele>106</ele>
        <time>2014-04-16T11:18:05Z</time>
      </trkpt>
      <trkpt lat="47.69102" lon="3.66633">
        <ele>106</ele>
        <time>2014-04-16T11:18:09Z</time>
      </trkpt>
      <trkpt lat="47.69098" lon="3.66639">
        <ele>106</ele>
        <time>2014-04-16T11:18:12Z</time>
      </trkpt>
      <trkpt lat="47.69093" lon="3.66645">
        <ele>106</ele>
        <time>2014-04-16T11:18:14Z</time>
      </trkpt>
      <trkpt lat="47.69089" lon="3.6665">
        <ele>106</ele>
        <time>2014-04-16T11:18:16Z</time>
      </trkpt>
      <trkpt lat="47.69085" lon="3.66658">
        <ele>106</ele>
        <time>2014-04-16T11:18:29Z</time>
      </trkpt>
      <trkpt lat="47.69083" lon="3.66665">
        <ele>106</ele>
        <time>2014-04-16T11:18:34Z</time>
      </trkpt>
      <trkpt lat="47.69081" lon="3.66672">
        <ele>106</ele>
        <time>2014-04-16T11:18:39Z</time>
      </trkpt>
      <trkpt lat="47.69078" lon="3.6668">
        <ele>106</ele>
        <time>2014-04-16T11:18:43Z</time>
      </trkpt>
      <trkpt lat="47.69074" lon="3.66686">
        <ele>106</ele>
        <time>2014-04-16T11:18:47Z</time>
      </trkpt>
      <trkpt lat="47.6907" lon="3.66691">
        <ele>106</ele>
        <time>2014-04-16T11:18:50Z</time>
      </trkpt>
      <trkpt lat="47.69068" lon="3.66698">
        <ele>106</ele>
        <time>2014-04-16T11:18:57Z</time>
      </trkpt>
      <trkpt lat="47.69068" lon="3.66705">
        <ele>106</ele>
        <time>2014-04-16T11:19:01Z</time>
      </trkpt>
      <trkpt lat="47.69064" lon="3.66711">
        <ele>106</ele>
        <time>2014-04-16T11:19:05Z</time>
      </trkpt>
      <trkpt lat="47.6906" lon="3.66718">
        <ele>106</ele>
        <time>2014-04-16T11:19:09Z</time>
      </trkpt>
      <trkpt lat="47.6906" lon="3.66725">
        <ele>106</ele>
        <time>2014-04-16T11:19:14Z</time>
      </trkpt>
      <trkpt lat="47.69057" lon="3.66732">
        <ele>106</ele>
        <time>2014-04-16T11:19:20Z</time>
      </trkpt>
      <trkpt lat="47.69054" lon="3.66738">
        <ele>106</ele>
        <time>2014-04-16T11:19:22Z</time>
      </trkpt>
      <trkpt lat="47.69052" lon="3.66743">
        <ele>106</ele>
        <time>2014-04-16T11:19:26Z</time>
      </trkpt>
      <trkpt lat="47.69049" lon="3.66751">
        <ele>106</ele>
        <time>2014-04-16T11:19:31Z</time>
      </trkpt>
      <trkpt lat="47.69047" lon="3.66759">
        <ele>106</ele>
        <time>2014-04-16T11:19:35Z</time>
      </trkpt>
      <trkpt lat="47.69044" lon="3.66765">
        <ele>106</ele>
        <time>2014-04-16T11:19:37Z</time>
      </trkpt>
      <trkpt lat="47.6904" lon="3.66769">
        <ele>106</ele>
        <time>2014-04-16T11:19:40Z</time>
      </trkpt>
      <trkpt lat="47.69037" lon="3.66775">
        <ele>106</ele>
        <time>2014-04-16T11:19:45Z</time>
      </trkpt>
      <trkpt lat="47.69035" lon="3.66782">
        <ele>106</ele>
        <time>2014-04-16T11:19:51Z</time>
      </trkpt>
      <trkpt lat="47.69034" lon="3.6679">
        <ele>106</ele>
        <time>2014-04-16T11:19:54Z</time>
      </trkpt>
      <trkpt lat="47.69032" lon="3.66795">
        <ele>106</ele>
        <time>2014-04-16T11:19:59Z</time>
      </trkpt>
      <trkpt lat="47.69027" lon="3.66798">
        <ele>106</ele>
        <time>2014-04-16T11:20:02Z</time>
      </trkpt>
      <trkpt lat="47.69023" lon="3.66803">
        <ele>106</ele>
        <time>2014-04-16T11:20:06Z</time>
      </trkpt>
      <trkpt lat="47.69021" lon="3.66809">
        <ele>106</ele>
        <time>2014-04-16T11:20:10Z</time>
      </trkpt>
      <trkpt lat="47.69018" lon="3.66816">
        <ele>106</ele>
        <time>2014-04-16T11:20:14Z</time>
      </trkpt>
      <trkpt lat="47.69017" lon="3.66823">
        <ele>107</ele>
        <time>2014-04-16T11:20:18Z</time>
      </trkpt>
      <trkpt lat="47.69015" lon="3.66829">
        <ele>107</ele>
        <time>2014-04-16T11:20:22Z</time>
      </trkpt>
      <trkpt lat="47.69012" lon="3.66835">
        <ele>107</ele>
        <time>2014-04-16T11:20:27Z</time>
      </trkpt>
      <trkpt lat="47.69009" lon="3.66842">
        <ele>107</ele>
        <time>2014-04-16T11:20:30Z</time>
      </trkpt>
      <trkpt lat="47.69008" lon="3.6685">
        <ele>106</ele>
        <time>2014-04-16T11:20:36Z</time>
      </trkpt>
      <trkpt lat="47.69006" lon="3.66856">
        <ele>106</ele>
        <time>2014-04-16T11:20:40Z</time>
      </trkpt>
      <trkpt lat="47.69004" lon="3.66865">
        <ele>106</ele>
        <time>2014-04-16T11:20:44Z</time>
      </trkpt>
      <trkpt lat="47.69001" lon="3.66871">
        <ele>106</ele>
        <time>2014-04-16T11:20:47Z</time>
      </trkpt>
      <trkpt lat="47.68999" lon="3.66877">
        <ele>106</ele>
        <time>2014-04-16T11:20:50Z</time>
      </trkpt>
      <trkpt lat="47.68995" lon="3.66883">
        <ele>106</ele>
        <time>2014-04-16T11:20:54Z</time>
      </trkpt>
      <trkpt lat="47.68991" lon="3.66887">
        <ele>106</ele>
        <time>2014-04-16T11:21:00Z</time>
      </trkpt>
      <trkpt lat="47.68988" lon="3.66894">
        <ele>106</ele>
        <time>2014-04-16T11:21:04Z</time>
      </trkpt>
      <trkpt lat="47.68985" lon="3.66899">
        <ele>106</ele>
        <time>2014-04-16T11:21:08Z</time>
      </trkpt>
      <trkpt lat="47.68981" lon="3.66906">
        <ele>106</ele>
        <time>2014-04-16T11:21:12Z</time>
      </trkpt>
      <trkpt lat="47.68977" lon="3.66908">
        <ele>106</ele>
        <time>2014-04-16T11:21:17Z</time>
      </trkpt>
      <trkpt lat="47.68974" lon="3.66914">
        <ele>106</ele>
        <time>2014-04-16T11:21:24Z</time>
      </trkpt>
      <trkpt lat="47.68971" lon="3.6692">
        <ele>107</ele>
        <time>2014-04-16T11:21:26Z</time>
      </trkpt>
      <trkpt lat="47.68969" lon="3.66928">
        <ele>107</ele>
        <time>2014-04-16T11:21:29Z</time>
      </trkpt>
      <trkpt lat="47.68967" lon="3.66935">
        <ele>107</ele>
        <time>2014-04-16T11:21:34Z</time>
      </trkpt>
      <trkpt lat="47.68966" lon="3.66943">
        <ele>107</ele>
        <time>2014-04-16T11:21:38Z</time>
      </trkpt>
      <trkpt lat="47.68965" lon="3.6695">
        <ele>107</ele>
        <time>2014-04-16T11:21:42Z</time>
      </trkpt>
      <trkpt lat="47.68961" lon="3.66956">
        <ele>107</ele>
        <time>2014-04-16T11:21:44Z</time>
      </trkpt>
      <trkpt lat="47.68958" lon="3.6696">
        <ele>107</ele>
        <time>2014-04-16T11:21:47Z</time>
      </trkpt>
      <trkpt lat="47.68954" lon="3.66965">
        <ele>107</ele>
        <time>2014-04-16T11:21:52Z</time>
      </trkpt>
      <trkpt lat="47.68954" lon="3.66973">
        <ele>107</ele>
        <time>2014-04-16T11:21:56Z</time>
      </trkpt>
      <trkpt lat="47.68951" lon="3.66978">
        <ele>107</ele>
        <time>2014-04-16T11:22:00Z</time>
      </trkpt>
      <trkpt lat="47.68946" lon="3.66982">
        <ele>107</ele>
        <time>2014-04-16T11:22:05Z</time>
      </trkpt>
      <trkpt lat="47.68944" lon="3.66989">
        <ele>107</ele>
        <time>2014-04-16T11:22:10Z</time>
      </trkpt>
      <trkpt lat="47.68942" lon="3.66996">
        <ele>107</ele>
        <time>2014-04-16T11:22:16Z</time>
      </trkpt>
      <trkpt lat="47.68942" lon="3.66996">
        <ele>107</ele>
        <time>2014-04-16T11:22:29Z</time>
      </trkpt>
      <trkpt lat="47.68939" lon="3.67003">
        <ele>107</ele>
        <time>2014-04-16T11:22:34Z</time>
      </trkpt>
      <trkpt lat="47.68936" lon="3.67007">
        <ele>107</ele>
        <time>2014-04-16T11:22:38Z</time>
      </trkpt>
      <trkpt lat="47.68933" lon="3.67014">
        <ele>107</ele>
        <time>2014-04-16T11:22:41Z</time>
      </trkpt>
      <trkpt lat="47.68929" lon="3.67018">
        <ele>107</ele>
        <time>2014-04-16T11:22:44Z</time>
      </trkpt>
      <trkpt lat="47.68926" lon="3.67025">
        <ele>107</ele>
        <time>2014-04-16T11:22:48Z</time>
      </trkpt>
      <trkpt lat="47.68923" lon="3.67031">
        <ele>107</ele>
        <time>2014-04-16T11:22:53Z</time>
      </trkpt>
      <trkpt lat="47.68921" lon="3.67036">
        <ele>107</ele>
        <time>2014-04-16T11:23:02Z</time>
      </trkpt>
      <trkpt lat="47.6892" lon="3.67043">
        <ele>107</ele>
        <time>2014-04-16T11:23:07Z</time>
      </trkpt>
      <trkpt lat="47.68918" lon="3.67051">
        <ele>107</ele>
        <time>2014-04-16T11:23:12Z</time>
      </trkpt>
      <trkpt lat="47.68916" lon="3.67058">
        <ele>107</ele>
        <time>2014-04-16T11:23:15Z</time>
      </trkpt>
      <trkpt lat="47.68914" lon="3.67065">
        <ele>107</ele>
        <time>2014-04-16T11:23:20Z</time>
      </trkpt>
      <trkpt lat="47.68913" lon="3.6707">
        <ele>107</ele>
        <time>2014-04-16T11:23:43Z</time>
      </trkpt>
      <trkpt lat="47.68911" lon="3.67076">
        <ele>107</ele>
        <time>2014-04-16T11:23:48Z</time>
      </trkpt>
      <trkpt lat="47.68908" lon="3.67083">
        <ele>107</ele>
        <time>2014-04-16T11:23:51Z</time>
      </trkpt>
      <trkpt lat="47.68905" lon="3.67089">
        <ele>107</ele>
        <time>2014-04-16T11:23:56Z</time>
      </trkpt>
      <trkpt lat="47.68903" lon="3.67096">
        <ele>107</ele>
        <time>2014-04-16T11:23:59Z</time>
      </trkpt>
      <trkpt lat="47.68899" lon="3.67102">
        <ele>107</ele>
        <time>2014-04-16T11:24:06Z</time>
      </trkpt>
      <trkpt lat="47.68897" lon="3.67108">
        <ele>107</ele>
        <time>2014-04-16T11:24:09Z</time>
      </trkpt>
      <trkpt lat="47.68895" lon="3.67115">
        <ele>107</ele>
        <time>2014-04-16T11:24:15Z</time>
      </trkpt>
      <trkpt lat="47.68892" lon="3.67121">
        <ele>107</ele>
        <time>2014-04-16T11:24:18Z</time>
      </trkpt>
      <trkpt lat="47.68889" lon="3.67127">
        <ele>107</ele>
        <time>2014-04-16T11:24:22Z</time>
      </trkpt>
      <trkpt lat="47.68886" lon="3.67134">
        <ele>107</ele>
        <time>2014-04-16T11:24:25Z</time>
      </trkpt>
      <trkpt lat="47.68883" lon="3.67141">
        <ele>106</ele>
        <time>2014-04-16T11:24:31Z</time>
      </trkpt>
      <trkpt lat="47.68879" lon="3.67148">
        <ele>106</ele>
        <time>2014-04-16T11:24:41Z</time>
      </trkpt>
      <trkpt lat="47.68876" lon="3.67154">
        <ele>106</ele>
        <time>2014-04-16T11:24:47Z</time>
      </trkpt>
      <trkpt lat="47.68875" lon="3.67161">
        <ele>106</ele>
        <time>2014-04-16T11:24:52Z</time>
      </trkpt>
      <trkpt lat="47.68872" lon="3.67169">
        <ele>106</ele>
        <time>2014-04-16T11:25:18Z</time>
      </trkpt>
      <trkpt lat="47.68871" lon="3.67177">
        <ele>106</ele>
        <time>2014-04-16T11:25:21Z</time>
      </trkpt>
      <trkpt lat="47.68871" lon="3.67184">
        <ele>106</ele>
        <time>2014-04-16T11:25:25Z</time>
      </trkpt>
      <trkpt lat="47.68871" lon="3.67191">
        <ele>106</ele>
        <time>2014-04-16T11:25:30Z</time>
      </trkpt>
      <trkpt lat="47.68867" lon="3.67194">
        <ele>106</ele>
        <time>2014-04-16T11:25:36Z</time>
      </trkpt>
      <trkpt lat="47.68864" lon="3.67199">
        <ele>106</ele>
        <time>2014-04-16T11:25:41Z</time>
      </trkpt>
      <trkpt lat="47.68864" lon="3.67206">
        <ele>106</ele>
        <time>2014-04-16T11:25:46Z</time>
      </trkpt>
      <trkpt lat="47.68863" lon="3.67213">
        <ele>106</ele>
        <time>2014-04-16T11:25:49Z</time>
      </trkpt>
      <trkpt lat="47.6886" lon="3.6722">
        <ele>106</ele>
        <time>2014-04-16T11:25:52Z</time>
      </trkpt>
      <trkpt lat="47.68857" lon="3.67226">
        <ele>106</ele>
        <time>2014-04-16T11:25:56Z</time>
      </trkpt>
      <trkpt lat="47.68855" lon="3.67233">
        <ele>106</ele>
        <time>2014-04-16T11:26:01Z</time>
      </trkpt>
      <trkpt lat="47.68853" lon="3.6724">
        <ele>106</ele>
        <time>2014-04-16T11:26:07Z</time>
      </trkpt>
      <trkpt lat="47.68851" lon="3.67248">
        <ele>106</ele>
        <time>2014-04-16T11:26:10Z</time>
      </trkpt>
      <trkpt lat="47.6885" lon="3.67255">
        <ele>106</ele>
        <time>2014-04-16T11:26:14Z</time>
      </trkpt>
      <trkpt lat="47.68848" lon="3.67263">
        <ele>106</ele>
        <time>2014-04-16T11:26:17Z</time>
      </trkpt>
      <trkpt lat="47.68843" lon="3.67268">
        <ele>106</ele>
        <time>2014-04-16T11:26:24Z</time>
      </trkpt>
      <trkpt lat="47.68838" lon="3.67274">
        <ele>107</ele>
        <time>2014-04-16T11:26:28Z</time>
      </trkpt>
      <trkpt lat="47.68836" lon="3.67279">
        <ele>107</ele>
        <time>2014-04-16T11:26:30Z</time>
      </trkpt>
      <trkpt lat="47.68834" lon="3.67286">
        <ele>107</ele>
        <time>2014-04-16T11:26:35Z</time>
      </trkpt>
      <trkpt lat="47.68831" lon="3.67292">
        <ele>107</ele>
        <time>2014-04-16T11:26:39Z</time>
      </trkpt>
      <trkpt lat="47.6883" lon="3.67298">
        <ele>107</ele>
        <time>2014-04-16T11:26:42Z</time>
      </trkpt>
      <trkpt lat="47.68829" lon="3.67305">
        <ele>107</ele>
        <time>2014-04-16T11:26:46Z</time>
      </trkpt>
      <trkpt lat="47.68827" lon="3.67313">
        <ele>107</ele>
        <time>2014-04-16T11:26:50Z</time>
      </trkpt>
      <trkpt lat="47.68825" lon="3.6732">
        <ele>107</ele>
        <time>2014-04-16T11:26:55Z</time>
      </trkpt>
      <trkpt lat="47.68824" lon="3.67329">
        <ele>108</ele>
        <time>2014-04-16T11:27:00Z</time>
      </trkpt>
      <trkpt lat="47.68822" lon="3.67336">
        <ele>108</ele>
        <time>2014-04-16T11:27:03Z</time>
      </trkpt>
      <trkpt lat="47.6882" lon="3.67344">
        <ele>108</ele>
        <time>2014-04-16T11:27:08Z</time>
      </trkpt>
      <trkpt lat="47.68819" lon="3.6735">
        <ele>108</ele>
        <time>2014-04-16T11:27:11Z</time>
      </trkpt>
      <trkpt lat="47.68818" lon="3.67358">
        <ele>108</ele>
        <time>2014-04-16T11:27:17Z</time>
      </trkpt>
      <trkpt lat="47.68814" lon="3.67363">
        <ele>108</ele>
        <time>2014-04-16T11:27:20Z</time>
      </trkpt>
      <trkpt lat="47.6881" lon="3.6737">
        <ele>108</ele>
        <time>2014-04-16T11:27:24Z</time>
      </trkpt>
      <trkpt lat="47.68809" lon="3.67377">
        <ele>107</ele>
        <time>2014-04-16T11:27:28Z</time>
      </trkpt>
      <trkpt lat="47.68808" lon="3.67383">
        <ele>107</ele>
        <time>2014-04-16T11:27:32Z</time>
      </trkpt>
      <trkpt lat="47.68807" lon="3.67391">
        <ele>107</ele>
        <time>2014-04-16T11:27:37Z</time>
      </trkpt>
      <trkpt lat="47.68804" lon="3.67398">
        <ele>107</ele>
        <time>2014-04-16T11:27:43Z</time>
      </trkpt>
      <trkpt lat="47.68801" lon="3.67404">
        <ele>107</ele>
        <time>2014-04-16T11:27:48Z</time>
      </trkpt>
      <trkpt lat="47.68799" lon="3.67411">
        <ele>107</ele>
        <time>2014-04-16T11:27:52Z</time>
      </trkpt>
      <trkpt lat="47.68798" lon="3.6742">
        <ele>107</ele>
        <time>2014-04-16T11:27:56Z</time>
      </trkpt>
      <trkpt lat="47.68796" lon="3.67427">
        <ele>107</ele>
        <time>2014-04-16T11:28:02Z</time>
      </trkpt>
      <trkpt lat="47.68793" lon="3.67433">
        <ele>107</ele>
        <time>2014-04-16T11:28:06Z</time>
      </trkpt>
      <trkpt lat="47.6879" lon="3.67439">
        <ele>107</ele>
        <time>2014-04-16T11:28:11Z</time>
      </trkpt>
      <trkpt lat="47.68788" lon="3.67447">
        <ele>107</ele>
        <time>2014-04-16T11:28:15Z</time>
      </trkpt>
      <trkpt lat="47.68785" lon="3.67453">
        <ele>107</ele>
        <time>2014-04-16T11:28:18Z</time>
      </trkpt>
      <trkpt lat="47.68781" lon="3.6746">
        <ele>107</ele>
        <time>2014-04-16T11:28:23Z</time>
      </trkpt>
      <trkpt lat="47.6878" lon="3.67467">
        <ele>107</ele>
        <time>2014-04-16T11:28:27Z</time>
      </trkpt>
      <trkpt lat="47.68777" lon="3.67474">
        <ele>107</ele>
        <time>2014-04-16T11:28:34Z</time>
      </trkpt>
      <trkpt lat="47.68776" lon="3.67481">
        <ele>107</ele>
        <time>2014-04-16T11:28:37Z</time>
      </trkpt>
      <trkpt lat="47.68774" lon="3.67488">
        <ele>107</ele>
        <time>2014-04-16T11:28:42Z</time>
      </trkpt>
      <trkpt lat="47.68771" lon="3.67494">
        <ele>107</ele>
        <time>2014-04-16T11:28:46Z</time>
      </trkpt>
      <trkpt lat="47.68773" lon="3.67501">
        <ele>107</ele>
        <time>2014-04-16T11:29:05Z</time>
      </trkpt>
      <trkpt lat="47.68772" lon="3.67508">
        <ele>107</ele>
        <time>2014-04-16T11:29:24Z</time>
      </trkpt>
      <trkpt lat="47.6877" lon="3.67515">
        <ele>107</ele>
        <time>2014-04-16T11:29:29Z</time>
      </trkpt>
      <trkpt lat="47.68767" lon="3.67522">
        <ele>107</ele>
        <time>2014-04-16T11:29:34Z</time>
      </trkpt>
      <trkpt lat="47.68766" lon="3.67529">
        <ele>107</ele>
        <time>2014-04-16T11:29:38Z</time>
      </trkpt>
      <trkpt lat="47.68764" lon="3.67535">
        <ele>107</ele>
        <time>2014-04-16T11:29:43Z</time>
      </trkpt>
      <trkpt lat="47.68762" lon="3.67541">
        <ele>107</ele>
        <time>2014-04-16T11:29:46Z</time>
      </trkpt>
      <trkpt lat="47.6876" lon="3.67549">
        <ele>107</ele>
        <time>2014-04-16T11:29:52Z</time>
      </trkpt>
      <trkpt lat="47.68758" lon="3.67555">
        <ele>108</ele>
        <time>2014-04-16T11:29:56Z</time>
      </trkpt>
      <trkpt lat="47.68756" lon="3.67562">
        <ele>108</ele>
        <time>2014-04-16T11:29:59Z</time>
      </trkpt>
      <trkpt lat="47.68753" lon="3.67567">
        <ele>108</ele>
        <time>2014-04-16T11:30:08Z</time>
      </trkpt>
      <trkpt lat="47.68751" lon="3.67575">
        <ele>108</ele>
        <time>2014-04-16T11:30:12Z</time>
      </trkpt>
      <trkpt lat="47.68749" lon="3.67582">
        <ele>109</ele>
        <time>2014-04-16T11:30:17Z</time>
      </trkpt>
      <trkpt lat="47.68747" lon="3.6759">
        <ele>109</ele>
        <time>2014-04-16T11:30:22Z</time>
      </trkpt>
      <trkpt lat="47.68745" lon="3.67597">
        <ele>109</ele>
        <time>2014-04-16T11:30:27Z</time>
      </trkpt>
      <trkpt lat="47.68744" lon="3.67604">
        <ele>109</ele>
        <time>2014-04-16T11:30:31Z</time>
      </trkpt>
      <trkpt lat="47.68744" lon="3.67611">
        <ele>109</ele>
        <time>2014-04-16T11:30:36Z</time>
      </trkpt>
      <trkpt lat="47.68741" lon="3.67618">
        <ele>109</ele>
        <time>2014-04-16T11:30:41Z</time>
      </trkpt>
      <trkpt lat="47.68736" lon="3.67618">
        <ele>109</ele>
        <time>2014-04-16T11:30:43Z</time>
      </trkpt>
      <trkpt lat="47.68732" lon="3.67624">
        <ele>109</ele>
        <time>2014-04-16T11:30:48Z</time>
      </trkpt>
      <trkpt lat="47.68731" lon="3.67632">
        <ele>109</ele>
        <time>2014-04-16T11:30:52Z</time>
      </trkpt>
      <trkpt lat="47.68729" lon="3.67639">
        <ele>109</ele>
        <time>2014-04-16T11:30:56Z</time>
      </trkpt>
      <trkpt lat="47.68726" lon="3.67646">
        <ele>109</ele>
        <time>2014-04-16T11:30:59Z</time>
      </trkpt>
      <trkpt lat="47.68725" lon="3.67652">
        <ele>109</ele>
        <time>2014-04-16T11:31:03Z</time>
      </trkpt>
      <trkpt lat="47.68724" lon="3.6766">
        <ele>109</ele>
        <time>2014-04-16T11:31:07Z</time>
      </trkpt>
      <trkpt lat="47.68722" lon="3.67666">
        <ele>109</ele>
        <time>2014-04-16T11:31:09Z</time>
      </trkpt>
      <trkpt lat="47.68719" lon="3.67673">
        <ele>108</ele>
        <time>2014-04-16T11:31:13Z</time>
      </trkpt>
      <trkpt lat="47.68717" lon="3.6768">
        <ele>108</ele>
        <time>2014-04-16T11:31:18Z</time>
      </trkpt>
      <trkpt lat="47.68714" lon="3.67686">
        <ele>108</ele>
        <time>2014-04-16T11:31:21Z</time>
      </trkpt>
      <trkpt lat="47.68712" lon="3.67692">
        <ele>108</ele>
        <time>2014-04-16T11:31:26Z</time>
      </trkpt>
      <trkpt lat="47.6871" lon="3.67699">
        <ele>108</ele>
        <time>2014-04-16T11:31:31Z</time>
      </trkpt>
      <trkpt lat="47.68708" lon="3.67706">
        <ele>108</ele>
        <time>2014-04-16T11:31:34Z</time>
      </trkpt>
      <trkpt lat="47.68708" lon="3.67713">
        <ele>108</ele>
        <time>2014-04-16T11:31:39Z</time>
      </trkpt>
      <trkpt lat="47.68706" lon="3.67721">
        <ele>108</ele>
        <time>2014-04-16T11:31:44Z</time>
      </trkpt>
      <trkpt lat="47.68703" lon="3.67728">
        <ele>108</ele>
        <time>2014-04-16T11:31:48Z</time>
      </trkpt>
      <trkpt lat="47.68702" lon="3.67735">
        <ele>108</ele>
        <time>2014-04-16T11:31:51Z</time>
      </trkpt>
      <trkpt lat="47.687" lon="3.67743">
        <ele>108</ele>
        <time>2014-04-16T11:31:55Z</time>
      </trkpt>
      <trkpt lat="47.68698" lon="3.6775">
        <ele>108</ele>
        <time>2014-04-16T11:31:58Z</time>
      </trkpt>
      <trkpt lat="47.68695" lon="3.67756">
        <ele>108</ele>
        <time>2014-04-16T11:32:04Z</time>
      </trkpt>
      <trkpt lat="47.68692" lon="3.67763">
        <ele>108</ele>
        <time>2014-04-16T11:32:09Z</time>
      </trkpt>
      <trkpt lat="47.6869" lon="3.6777">
        <ele>108</ele>
        <time>2014-04-16T11:32:13Z</time>
      </trkpt>
      <trkpt lat="47.68687" lon="3.67778">
        <ele>108</ele>
        <time>2014-04-16T11:32:19Z</time>
      </trkpt>
      <trkpt lat="47.68685" lon="3.67786">
        <ele>108</ele>
        <time>2014-04-16T11:32:23Z</time>
      </trkpt>
      <trkpt lat="47.68682" lon="3.67793">
        <ele>108</ele>
        <time>2014-04-16T11:32:27Z</time>
      </trkpt>
      <trkpt lat="47.6868" lon="3.678">
        <ele>108</ele>
        <time>2014-04-16T11:32:30Z</time>
      </trkpt>
      <trkpt lat="47.68678" lon="3.67808">
        <ele>108</ele>
        <time>2014-04-16T11:32:36Z</time>
      </trkpt>
      <trkpt lat="47.68676" lon="3.67814">
        <ele>107</ele>
        <time>2014-04-16T11:32:41Z</time>
      </trkpt>
      <trkpt lat="47.68674" lon="3.67821">
        <ele>107</ele>
        <time>2014-04-16T11:32:44Z</time>
      </trkpt>
      <trkpt lat="47.68672" lon="3.67829">
        <ele>107</ele>
        <time>2014-04-16T11:32:49Z</time>
      </trkpt>
      <trkpt lat="47.6867" lon="3.67836">
        <ele>107</ele>
        <time>2014-04-16T11:32:53Z</time>
      </trkpt>
      <trkpt lat="47.68668" lon="3.67843">
        <ele>107</ele>
        <time>2014-04-16T11:32:58Z</time>
      </trkpt>
      <trkpt lat="47.68667" lon="3.6785">
        <ele>107</ele>
        <time>2014-04-16T11:33:03Z</time>
      </trkpt>
      <trkpt lat="47.68665" lon="3.67856">
        <ele>107</ele>
        <time>2014-04-16T11:33:07Z</time>
      </trkpt>
      <trkpt lat="47.68663" lon="3.67863">
        <ele>107</ele>
        <time>2014-04-16T11:33:11Z</time>
      </trkpt>
      <trkpt lat="47.68661" lon="3.67869">
        <ele>107</ele>
        <time>2014-04-16T11:33:14Z</time>
      </trkpt>
      <trkpt lat="47.68662" lon="3.67874">
        <ele>107</ele>
        <time>2014-04-16T11:33:38Z</time>
      </trkpt>
      <trkpt lat="47.68662" lon="3.67877">
        <ele>107</ele>
        <time>2014-04-16T11:33:40Z</time>
      </trkpt>
      <trkpt lat="47.6866" lon="3.67885">
        <ele>107</ele>
        <time>2014-04-16T11:33:43Z</time>
      </trkpt>
      <trkpt lat="47.68658" lon="3.67891">
        <ele>107</ele>
        <time>2014-04-16T11:33:49Z</time>
      </trkpt>
      <trkpt lat="47.68654" lon="3.67897">
        <ele>106</ele>
        <time>2014-04-16T11:33:55Z</time>
      </trkpt>
      <trkpt lat="47.68654" lon="3.67905">
        <ele>106</ele>
        <time>2014-04-16T11:34:01Z</time>
      </trkpt>
      <trkpt lat="47.68652" lon="3.67912">
        <ele>106</ele>
        <time>2014-04-16T11:34:06Z</time>
      </trkpt>
      <trkpt lat="47.68648" lon="3.67918">
        <ele>106</ele>
        <time>2014-04-16T11:34:10Z</time>
      </trkpt>
      <trkpt lat="47.68644" lon="3.67923">
        <ele>106</ele>
        <time>2014-04-16T11:34:14Z</time>
      </trkpt>
      <trkpt lat="47.6864" lon="3.6793">
        <ele>106</ele>
        <time>2014-04-16T11:34:18Z</time>
      </trkpt>
      <trkpt lat="47.68638" lon="3.67937">
        <ele>106</ele>
        <time>2014-04-16T11:34:22Z</time>
      </trkpt>
      <trkpt lat="47.68636" lon="3.67944">
        <ele>106</ele>
        <time>2014-04-16T11:34:26Z</time>
      </trkpt>
      <trkpt lat="47.68635" lon="3.67951">
        <ele>106</ele>
        <time>2014-04-16T11:34:31Z</time>
      </trkpt>
      <trkpt lat="47.68632" lon="3.67957">
        <ele>106</ele>
        <time>2014-04-16T11:34:34Z</time>
      </trkpt>
      <trkpt lat="47.68628" lon="3.67962">
        <ele>106</ele>
        <time>2014-04-16T11:34:38Z</time>
      </trkpt>
      <trkpt lat="47.68624" lon="3.67966">
        <ele>107</ele>
        <time>2014-04-16T11:34:46Z</time>
      </trkpt>
      <trkpt lat="47.6862" lon="3.67973">
        <ele>107</ele>
        <time>2014-04-16T11:34:50Z</time>
      </trkpt>
      <trkpt lat="47.68618" lon="3.67979">
        <ele>107</ele>
        <time>2014-04-16T11:34:54Z</time>
      </trkpt>
      <trkpt lat="47.68613" lon="3.67984">
        <ele>107</ele>
        <time>2014-04-16T11:34:58Z</time>
      </trkpt>
      <trkpt lat="47.68609" lon="3.67989">
        <ele>107</ele>
        <time>2014-04-16T11:35:03Z</time>
      </trkpt>
      <trkpt lat="47.68604" lon="3.67994">
        <ele>107</ele>
        <time>2014-04-16T11:35:08Z</time>
      </trkpt>
      <trkpt lat="47.68601" lon="3.67998">
        <ele>107</ele>
        <time>2014-04-16T11:35:11Z</time>
      </trkpt>
      <trkpt lat="47.68597" lon="3.68003">
        <ele>107</ele>
        <time>2014-04-16T11:35:14Z</time>
      </trkpt>
      <trkpt lat="47.68593" lon="3.68005">
        <ele>107</ele>
        <time>2014-04-16T11:35:16Z</time>
      </trkpt>
      <trkpt lat="47.68586" lon="3.68006">
        <ele>107</ele>
        <time>2014-04-16T11:35:26Z</time>
      </trkpt>
      <trkpt lat="47.68582" lon="3.68007">
        <ele>107</ele>
        <time>2014-04-16T11:35:31Z</time>
      </trkpt>
      <trkpt lat="47.68577" lon="3.6801">
        <ele>107</ele>
        <time>2014-04-16T11:35:35Z</time>
      </trkpt>
      <trkpt lat="47.68573" lon="3.68014">
        <ele>107</ele>
        <time>2014-04-16T11:35:40Z</time>
      </trkpt>
      <trkpt lat="47.68568" lon="3.68018">
        <ele>107</ele>
        <time>2014-04-16T11:35:44Z</time>
      </trkpt>
      <trkpt lat="47.68563" lon="3.68021">
        <ele>107</ele>
        <time>2014-04-16T11:35:50Z</time>
      </trkpt>
      <trkpt lat="47.68558" lon="3.68024">
        <ele>107</ele>
        <time>2014-04-16T11:35:55Z</time>
      </trkpt>
      <trkpt lat="47.68554" lon="3.68028">
        <ele>107</ele>
        <time>2014-04-16T11:36:00Z</time>
      </trkpt>
      <trkpt lat="47.6855" lon="3.68033">
        <ele>107</ele>
        <time>2014-04-16T11:36:02Z</time>
      </trkpt>
      <trkpt lat="47.68547" lon="3.68038">
        <ele>107</ele>
        <time>2014-04-16T11:36:05Z</time>
      </trkpt>
      <trkpt lat="47.68543" lon="3.68043">
        <ele>107</ele>
        <time>2014-04-16T11:36:08Z</time>
      </trkpt>
      <trkpt lat="47.68538" lon="3.68046">
        <ele>107</ele>
        <time>2014-04-16T11:36:11Z</time>
      </trkpt>
      <trkpt lat="47.68533" lon="3.68048">
        <ele>107</ele>
        <time>2014-04-16T11:36:13Z</time>
      </trkpt>
      <trkpt lat="47.68529" lon="3.68052">
        <ele>107</ele>
        <time>2014-04-16T11:36:17Z</time>
      </trkpt>
      <trkpt lat="47.68525" lon="3.68057">
        <ele>107</ele>
        <time>2014-04-16T11:36:24Z</time>
      </trkpt>
      <trkpt lat="47.68521" lon="3.68058">
        <ele>107</ele>
        <time>2014-04-16T11:36:28Z</time>
      </trkpt>
      <trkpt lat="47.68515" lon="3.68061">
        <ele>107</ele>
        <time>2014-04-16T11:36:32Z</time>
      </trkpt>
      <trkpt lat="47.68509" lon="3.6806">
        <ele>107</ele>
        <time>2014-04-16T11:36:37Z</time>
      </trkpt>
      <trkpt lat="47.68505" lon="3.68065">
        <ele>107</ele>
        <time>2014-04-16T11:36:42Z</time>
      </trkpt>
      <trkpt lat="47.68502" lon="3.6807">
        <ele>107</ele>
        <time>2014-04-16T11:36:45Z</time>
      </trkpt>
      <trkpt lat="47.68498" lon="3.68074">
        <ele>108</ele>
        <time>2014-04-16T11:36:48Z</time>
      </trkpt>
      <trkpt lat="47.68495" lon="3.68079">
        <ele>107</ele>
        <time>2014-04-16T11:36:50Z</time>
      </trkpt>
      <trkpt lat="47.6849" lon="3.68084">
        <ele>107</ele>
        <time>2014-04-16T11:36:55Z</time>
      </trkpt>
      <trkpt lat="47.68486" lon="3.68088">
        <ele>107</ele>
        <time>2014-04-16T11:37:00Z</time>
      </trkpt>
      <trkpt lat="47.68482" lon="3.68093">
        <ele>107</ele>
        <time>2014-04-16T11:37:04Z</time>
      </trkpt>
      <trkpt lat="47.68478" lon="3.68098">
        <ele>107</ele>
        <time>2014-04-16T11:37:06Z</time>
      </trkpt>
      <trkpt lat="47.68474" lon="3.68101">
        <ele>107</ele>
        <time>2014-04-16T11:37:12Z</time>
      </trkpt>
      <trkpt lat="47.68469" lon="3.68104">
        <ele>107</ele>
        <time>2014-04-16T11:37:15Z</time>
      </trkpt>
      <trkpt lat="47.68464" lon="3.68106">
        <ele>107</ele>
        <time>2014-04-16T11:37:20Z</time>
      </trkpt>
      <trkpt lat="47.6846" lon="3.6811">
        <ele>107</ele>
        <time>2014-04-16T11:37:24Z</time>
      </trkpt>
      <trkpt lat="47.68457" lon="3.68115">
        <ele>107</ele>
        <time>2014-04-16T11:37:28Z</time>
      </trkpt>
      <trkpt lat="47.68452" lon="3.68116">
        <ele>107</ele>
        <time>2014-04-16T11:37:35Z</time>
      </trkpt>
      <trkpt lat="47.68447" lon="3.68119">
        <ele>107</ele>
        <time>2014-04-16T11:37:37Z</time>
      </trkpt>
      <trkpt lat="47.68443" lon="3.68123">
        <ele>107</ele>
        <time>2014-04-16T11:37:43Z</time>
      </trkpt>
      <trkpt lat="47.68439" lon="3.68124">
        <ele>107</ele>
        <time>2014-04-16T11:37:49Z</time>
      </trkpt>
      <trkpt lat="47.68434" lon="3.68127">
        <ele>107</ele>
        <time>2014-04-16T11:37:55Z</time>
      </trkpt>
      <trkpt lat="47.6843" lon="3.68132">
        <ele>107</ele>
        <time>2014-04-16T11:37:58Z</time>
      </trkpt>
      <trkpt lat="47.68426" lon="3.68137">
        <ele>107</ele>
        <time>2014-04-16T11:38:01Z</time>
      </trkpt>
      <trkpt lat="47.68422" lon="3.6814">
        <ele>107</ele>
        <time>2014-04-16T11:38:05Z</time>
      </trkpt>
      <trkpt lat="47.68418" lon="3.68145">
        <ele>107</ele>
        <time>2014-04-16T11:38:10Z</time>
      </trkpt>
      <trkpt lat="47.68414" lon="3.6815">
        <ele>108</ele>
        <time>2014-04-16T11:38:13Z</time>
      </trkpt>
      <trkpt lat="47.6841" lon="3.68155">
        <ele>108</ele>
        <time>2014-04-16T11:38:16Z</time>
      </trkpt>
      <trkpt lat="47.68405" lon="3.68159">
        <ele>108</ele>
        <time>2014-04-16T11:38:20Z</time>
      </trkpt>
      <trkpt lat="47.68401" lon="3.68162">
        <ele>108</ele>
        <time>2014-04-16T11:38:22Z</time>
      </trkpt>
      <trkpt lat="47.68396" lon="3.68164">
        <ele>108</ele>
        <time>2014-04-16T11:38:27Z</time>
      </trkpt>
      <trkpt lat="47.68392" lon="3.68168">
        <ele>108</ele>
        <time>2014-04-16T11:38:31Z</time>
      </trkpt>
      <trkpt lat="47.68393" lon="3.6817">
        <ele>108</ele>
        <time>2014-04-16T11:39:28Z</time>
      </trkpt>
      <trkpt lat="47.68388" lon="3.68173">
        <ele>108</ele>
        <time>2014-04-16T11:39:42Z</time>
      </trkpt>
      <trkpt lat="47.68388" lon="3.68168">
        <ele>108</ele>
        <time>2014-04-16T11:40:19Z</time>
      </trkpt>
      <trkpt lat="47.68383" lon="3.6817">
        <ele>108</ele>
        <time>2014-04-16T11:40:46Z</time>
      </trkpt>
      <trkpt lat="47.6838" lon="3.68177">
        <ele>108</ele>
        <time>2014-04-16T11:40:50Z</time>
      </trkpt>
      <trkpt lat="47.68376" lon="3.68183">
        <ele>108</ele>
        <time>2014-04-16T11:40:55Z</time>
      </trkpt>
      <trkpt lat="47.68372" lon="3.68186">
        <ele>109</ele>
        <time>2014-04-16T11:40:59Z</time>
      </trkpt>
      <trkpt lat="47.68367" lon="3.68187">
        <ele>109</ele>
        <time>2014-04-16T11:41:05Z</time>
      </trkpt>
      <trkpt lat="47.68362" lon="3.6819">
        <ele>109</ele>
        <time>2014-04-16T11:41:11Z</time>
      </trkpt>
      <trkpt lat="47.68357" lon="3.68194">
        <ele>109</ele>
        <time>2014-04-16T11:41:14Z</time>
      </trkpt>
      <trkpt lat="47.68352" lon="3.68195">
        <ele>109</ele>
        <time>2014-04-16T11:41:18Z</time>
      </trkpt>
      <trkpt lat="47.68347" lon="3.68198">
        <ele>109</ele>
        <time>2014-04-16T11:41:22Z</time>
      </trkpt>
      <trkpt lat="47.68343" lon="3.68201">
        <ele>109</ele>
        <time>2014-04-16T11:41:25Z</time>
      </trkpt>
      <trkpt lat="47.68339" lon="3.68205">
        <ele>109</ele>
        <time>2014-04-16T11:41:30Z</time>
      </trkpt>
      <trkpt lat="47.68334" lon="3.68209">
        <ele>109</ele>
        <time>2014-04-16T11:41:33Z</time>
      </trkpt>
      <trkpt lat="47.6833" lon="3.68212">
        <ele>110</ele>
        <time>2014-04-16T11:41:36Z</time>
      </trkpt>
      <trkpt lat="47.68325" lon="3.68215">
        <ele>110</ele>
        <time>2014-04-16T11:41:39Z</time>
      </trkpt>
      <trkpt lat="47.6832" lon="3.68216">
        <ele>110</ele>
        <time>2014-04-16T11:41:44Z</time>
      </trkpt>
      <trkpt lat="47.68315" lon="3.68219">
        <ele>110</ele>
        <time>2014-04-16T11:41:48Z</time>
      </trkpt>
      <trkpt lat="47.68311" lon="3.68221">
        <ele>110</ele>
        <time>2014-04-16T11:41:52Z</time>
      </trkpt>
      <trkpt lat="47.68306" lon="3.68224">
        <ele>110</ele>
        <time>2014-04-16T11:41:56Z</time>
      </trkpt>
      <trkpt lat="47.68301" lon="3.68226">
        <ele>110</ele>
        <time>2014-04-16T11:42:01Z</time>
      </trkpt>
      <trkpt lat="47.68298" lon="3.68229">
        <ele>110</ele>
        <time>2014-04-16T11:42:10Z</time>
      </trkpt>
      <trkpt lat="47.68295" lon="3.68232">
        <ele>110</ele>
        <time>2014-04-16T11:42:25Z</time>
      </trkpt>
      <trkpt lat="47.6829" lon="3.68235">
        <ele>110</ele>
        <time>2014-04-16T11:42:29Z</time>
      </trkpt>
      <trkpt lat="47.68285" lon="3.68238">
        <ele>110</ele>
        <time>2014-04-16T11:42:34Z</time>
      </trkpt>
      <trkpt lat="47.6828" lon="3.6824">
        <ele>109</ele>
        <time>2014-04-16T11:42:39Z</time>
      </trkpt>
      <trkpt lat="47.68275" lon="3.68243">
        <ele>109</ele>
        <time>2014-04-16T11:42:44Z</time>
      </trkpt>
      <trkpt lat="47.6827" lon="3.68245">
        <ele>109</ele>
        <time>2014-04-16T11:42:48Z</time>
      </trkpt>
      <trkpt lat="47.68265" lon="3.68248">
        <ele>109</ele>
        <time>2014-04-16T11:42:52Z</time>
      </trkpt>
      <trkpt lat="47.6826" lon="3.68252">
        <ele>109</ele>
        <time>2014-04-16T11:42:56Z</time>
      </trkpt>
      <trkpt lat="47.68256" lon="3.68253">
        <ele>109</ele>
        <time>2014-04-16T11:43:01Z</time>
      </trkpt>
      <trkpt lat="47.68251" lon="3.68255">
        <ele>109</ele>
        <time>2014-04-16T11:43:05Z</time>
      </trkpt>
      <trkpt lat="47.68247" lon="3.68257">
        <ele>109</ele>
        <time>2014-04-16T11:43:09Z</time>
      </trkpt>
      <trkpt lat="47.68242" lon="3.68257">
        <ele>109</ele>
        <time>2014-04-16T11:43:12Z</time>
      </trkpt>
      <trkpt lat="47.6824" lon="3.68256">
        <ele>109</ele>
        <time>2014-04-16T11:43:18Z</time>
      </trkpt>
      <trkpt lat="47.68237" lon="3.68249">
        <ele>109</ele>
        <time>2014-04-16T11:43:25Z</time>
      </trkpt>
      <trkpt lat="47.68234" lon="3.68243">
        <ele>110</ele>
        <time>2014-04-16T11:43:30Z</time>
      </trkpt>
      <trkpt lat="47.68234" lon="3.68236">
        <ele>110</ele>
        <time>2014-04-16T11:43:34Z</time>
      </trkpt>
      <trkpt lat="47.68233" lon="3.68229">
        <ele>110</ele>
        <time>2014-04-16T11:43:40Z</time>
      </trkpt>
      <trkpt lat="47.6823" lon="3.68223">
        <ele>110</ele>
        <time>2014-04-16T11:43:44Z</time>
      </trkpt>
      <trkpt lat="47.68225" lon="3.68225">
        <ele>110</ele>
        <time>2014-04-16T11:43:48Z</time>
      </trkpt>
      <trkpt lat="47.68225" lon="3.68233">
        <ele>110</ele>
        <time>2014-04-16T11:43:53Z</time>
      </trkpt>
      <trkpt lat="47.68226" lon="3.6824">
        <ele>110</ele>
        <time>2014-04-16T11:43:56Z</time>
      </trkpt>
      <trkpt lat="47.68225" lon="3.68247">
        <ele>110</ele>
        <time>2014-04-16T11:44:00Z</time>
      </trkpt>
      <trkpt lat="47.68225" lon="3.68254">
        <ele>109</ele>
        <time>2014-04-16T11:44:08Z</time>
      </trkpt>
      <trkpt lat="47.68226" lon="3.68262">
        <ele>109</ele>
        <time>2014-04-16T11:44:10Z</time>
      </trkpt>
      <trkpt lat="47.68226" lon="3.68268">
        <ele>109</ele>
        <time>2014-04-16T11:44:14Z</time>
      </trkpt>
      <trkpt lat="47.68229" lon="3.68276">
        <ele>109</ele>
        <time>2014-04-16T11:44:20Z</time>
      </trkpt>
      <trkpt lat="47.6823" lon="3.68282">
        <ele>109</ele>
        <time>2014-04-16T11:44:23Z</time>
      </trkpt>
      <trkpt lat="47.68233" lon="3.6829">
        <ele>109</ele>
        <time>2014-04-16T11:44:29Z</time>
      </trkpt>
      <trkpt lat="47.68234" lon="3.68297">
        <ele>109</ele>
        <time>2014-04-16T11:44:32Z</time>
      </trkpt>
      <trkpt lat="47.68237" lon="3.68305">
        <ele>109</ele>
        <time>2014-04-16T11:44:35Z</time>
      </trkpt>
      <trkpt lat="47.68242" lon="3.68311">
        <ele>109</ele>
        <time>2014-04-16T11:44:38Z</time>
      </trkpt>
      <trkpt lat="47.68241" lon="3.68319">
        <ele>109</ele>
        <time>2014-04-16T11:44:45Z</time>
      </trkpt>
      <trkpt lat="47.68244" lon="3.68326">
        <ele>110</ele>
        <time>2014-04-16T11:44:48Z</time>
      </trkpt>
      <trkpt lat="47.6824" lon="3.68336">
        <ele>110</ele>
        <time>2014-04-16T11:44:59Z</time>
      </trkpt>
      <trkpt lat="47.68241" lon="3.68345">
        <ele>110</ele>
        <time>2014-04-16T11:45:01Z</time>
      </trkpt>
      <trkpt lat="47.68245" lon="3.68352">
        <ele>109</ele>
        <time>2014-04-16T11:45:05Z</time>
      </trkpt>
      <trkpt lat="47.68242" lon="3.68359">
        <ele>109</ele>
        <time>2014-04-16T11:45:12Z</time>
      </trkpt>
      <trkpt lat="47.68242" lon="3.68366">
        <ele>109</ele>
        <time>2014-04-16T11:45:16Z</time>
      </trkpt>
      <trkpt lat="47.68241" lon="3.68374">
        <ele>109</ele>
        <time>2014-04-16T11:45:18Z</time>
      </trkpt>
      <trkpt lat="47.6824" lon="3.68378">
        <ele>109</ele>
        <time>2014-04-16T11:45:26Z</time>
      </trkpt>
      <trkpt lat="47.6824" lon="3.68386">
        <ele>109</ele>
        <time>2014-04-16T11:45:29Z</time>
      </trkpt>
      <trkpt lat="47.68239" lon="3.68394">
        <ele>109</ele>
        <time>2014-04-16T11:45:32Z</time>
      </trkpt>
      <trkpt lat="47.6824" lon="3.684">
        <ele>109</ele>
        <time>2014-04-16T11:45:34Z</time>
      </trkpt>
      <trkpt lat="47.68242" lon="3.68406">
        <ele>110</ele>
        <time>2014-04-16T11:45:38Z</time>
      </trkpt>
      <trkpt lat="47.68237" lon="3.68407">
        <ele>110</ele>
        <time>2014-04-16T11:45:43Z</time>
      </trkpt>
      <trkpt lat="47.68234" lon="3.68407">
        <ele>109</ele>
        <time>2014-04-16T11:45:49Z</time>
      </trkpt>
      <trkpt lat="47.68228" lon="3.6842">
        <ele>109</ele>
        <time>2014-04-16T11:46:01Z</time>
      </trkpt>
      <trkpt lat="47.68227" lon="3.68427">
        <ele>109</ele>
        <time>2014-04-16T11:46:05Z</time>
      </trkpt>
      <trkpt lat="47.68232" lon="3.68428">
        <ele>109</ele>
        <time>2014-04-16T11:46:11Z</time>
      </trkpt>
      <trkpt lat="47.68235" lon="3.68433">
        <ele>109</ele>
        <time>2014-04-16T11:46:37Z</time>
      </trkpt>
      <trkpt lat="47.68235" lon="3.6844">
        <ele>109</ele>
        <time>2014-04-16T11:46:41Z</time>
      </trkpt>
      <trkpt lat="47.68237" lon="3.68447">
        <ele>109</ele>
        <time>2014-04-16T11:46:45Z</time>
      </trkpt>
      <trkpt lat="47.68236" lon="3.68453">
        <ele>109</ele>
        <time>2014-04-16T11:46:49Z</time>
      </trkpt>
      <trkpt lat="47.68235" lon="3.6846">
        <ele>109</ele>
        <time>2014-04-16T11:46:53Z</time>
      </trkpt>
      <trkpt lat="47.68236" lon="3.68468">
        <ele>109</ele>
        <time>2014-04-16T11:46:59Z</time>
      </trkpt>
      <trkpt lat="47.68233" lon="3.68474">
        <ele>109</ele>
        <time>2014-04-16T11:47:04Z</time>
      </trkpt>
      <trkpt lat="47.68233" lon="3.68482">
        <ele>109</ele>
        <time>2014-04-16T11:47:09Z</time>
      </trkpt>
      <trkpt lat="47.68235" lon="3.68489">
        <ele>109</ele>
        <time>2014-04-16T11:47:15Z</time>
      </trkpt>
      <trkpt lat="47.68236" lon="3.68495">
        <ele>109</ele>
        <time>2014-04-16T11:47:18Z</time>
      </trkpt>
      <trkpt lat="47.68238" lon="3.68502">
        <ele>109</ele>
        <time>2014-04-16T11:47:21Z</time>
      </trkpt>
      <trkpt lat="47.68238" lon="3.6851">
        <ele>109</ele>
        <time>2014-04-16T11:47:25Z</time>
      </trkpt>
      <trkpt lat="47.68239" lon="3.68517">
        <ele>109</ele>
        <time>2014-04-16T11:47:30Z</time>
      </trkpt>
      <trkpt lat="47.68238" lon="3.68525">
        <ele>109</ele>
        <time>2014-04-16T11:47:36Z</time>
      </trkpt>
      <trkpt lat="47.68239" lon="3.68532">
        <ele>109</ele>
        <time>2014-04-16T11:47:40Z</time>
      </trkpt>
      <trkpt lat="47.68238" lon="3.68539">
        <ele>109</ele>
        <time>2014-04-16T11:47:44Z</time>
      </trkpt>
      <trkpt lat="47.68238" lon="3.68547">
        <ele>109</ele>
        <time>2014-04-16T11:47:50Z</time>
      </trkpt>
      <trkpt lat="47.68239" lon="3.68554">
        <ele>109</ele>
        <time>2014-04-16T11:47:53Z</time>
      </trkpt>
      <trkpt lat="47.6824" lon="3.6856">
        <ele>109</ele>
        <time>2014-04-16T11:47:59Z</time>
      </trkpt>
      <trkpt lat="47.6824" lon="3.68568">
        <ele>109</ele>
        <time>2014-04-16T11:48:05Z</time>
      </trkpt>
      <trkpt lat="47.68241" lon="3.68576">
        <ele>109</ele>
        <time>2014-04-16T11:48:09Z</time>
      </trkpt>
      <trkpt lat="47.68241" lon="3.68583">
        <ele>109</ele>
        <time>2014-04-16T11:48:13Z</time>
      </trkpt>
      <trkpt lat="47.68243" lon="3.68591">
        <ele>109</ele>
        <time>2014-04-16T11:48:17Z</time>
      </trkpt>
      <trkpt lat="47.68244" lon="3.68599">
        <ele>109</ele>
        <time>2014-04-16T11:48:23Z</time>
      </trkpt>
      <trkpt lat="47.68245" lon="3.68607">
        <ele>110</ele>
        <time>2014-04-16T11:48:26Z</time>
      </trkpt>
      <trkpt lat="47.68247" lon="3.68614">
        <ele>110</ele>
        <time>2014-04-16T11:48:30Z</time>
      </trkpt>
      <trkpt lat="47.68248" lon="3.68621">
        <ele>110</ele>
        <time>2014-04-16T11:48:34Z</time>
      </trkpt>
      <trkpt lat="47.68248" lon="3.68629">
        <ele>110</ele>
        <time>2014-04-16T11:48:38Z</time>
      </trkpt>
      <trkpt lat="47.68247" lon="3.68636">
        <ele>110</ele>
        <time>2014-04-16T11:48:41Z</time>
      </trkpt>
      <trkpt lat="47.68249" lon="3.68644">
        <ele>110</ele>
        <time>2014-04-16T11:48:48Z</time>
      </trkpt>
      <trkpt lat="47.6825" lon="3.68652">
        <ele>110</ele>
        <time>2014-04-16T11:48:52Z</time>
      </trkpt>
      <trkpt lat="47.6825" lon="3.6866">
        <ele>110</ele>
        <time>2014-04-16T11:48:57Z</time>
      </trkpt>
      <trkpt lat="47.68249" lon="3.68667">
        <ele>110</ele>
        <time>2014-04-16T11:49:00Z</time>
      </trkpt>
      <trkpt lat="47.6825" lon="3.68675">
        <ele>110</ele>
        <time>2014-04-16T11:49:06Z</time>
      </trkpt>
      <trkpt lat="47.6825" lon="3.68683">
        <ele>110</ele>
        <time>2014-04-16T11:49:13Z</time>
      </trkpt>
      <trkpt lat="47.68251" lon="3.6869">
        <ele>110</ele>
        <time>2014-04-16T11:49:17Z</time>
      </trkpt>
      <trkpt lat="47.68253" lon="3.68697">
        <ele>110</ele>
        <time>2014-04-16T11:49:21Z</time>
      </trkpt>
      <trkpt lat="47.68251" lon="3.68705">
        <ele>110</ele>
        <time>2014-04-16T11:49:27Z</time>
      </trkpt>
      <trkpt lat="47.68251" lon="3.68713">
        <ele>110</ele>
        <time>2014-04-16T11:49:31Z</time>
      </trkpt>
      <trkpt lat="47.68251" lon="3.6872">
        <ele>110</ele>
        <time>2014-04-16T11:49:36Z</time>
      </trkpt>
      <trkpt lat="47.6825" lon="3.68727">
        <ele>110</ele>
        <time>2014-04-16T11:49:41Z</time>
      </trkpt>
      <trkpt lat="47.68251" lon="3.68735">
        <ele>110</ele>
        <time>2014-04-16T11:49:47Z</time>
      </trkpt>
      <trkpt lat="47.68252" lon="3.68742">
        <ele>111</ele>
        <time>2014-04-16T11:49:51Z</time>
      </trkpt>
      <trkpt lat="47.68252" lon="3.6875">
        <ele>111</ele>
        <time>2014-04-16T11:49:55Z</time>
      </trkpt>
      <trkpt lat="47.6825" lon="3.68756">
        <ele>111</ele>
        <time>2014-04-16T11:49:58Z</time>
      </trkpt>
      <trkpt lat="47.6825" lon="3.68763">
        <ele>111</ele>
        <time>2014-04-16T11:50:02Z</time>
      </trkpt>
      <trkpt lat="47.68252" lon="3.68769">
        <ele>111</ele>
        <time>2014-04-16T11:50:06Z</time>
      </trkpt>
      <trkpt lat="47.6825" lon="3.68775">
        <ele>112</ele>
        <time>2014-04-16T11:50:12Z</time>
      </trkpt>
      <trkpt lat="47.68252" lon="3.6878">
        <ele>111</ele>
        <time>2014-04-16T11:50:21Z</time>
      </trkpt>
      <trkpt lat="47.68256" lon="3.68786">
        <ele>111</ele>
        <time>2014-04-16T11:50:33Z</time>
      </trkpt>
      <trkpt lat="47.68258" lon="3.68792">
        <ele>111</ele>
        <time>2014-04-16T11:50:36Z</time>
      </trkpt>
      <trkpt lat="47.68258" lon="3.688">
        <ele>111</ele>
        <time>2014-04-16T11:50:40Z</time>
      </trkpt>
      <trkpt lat="47.6826" lon="3.68807">
        <ele>111</ele>
        <time>2014-04-16T11:50:43Z</time>
      </trkpt>
      <trkpt lat="47.68267" lon="3.6881">
        <ele>111</ele>
        <time>2014-04-16T11:50:44Z</time>
      </trkpt>
      <trkpt lat="47.68266" lon="3.68818">
        <ele>111</ele>
        <time>2014-04-16T11:50:50Z</time>
      </trkpt>
      <trkpt lat="47.68263" lon="3.68825">
        <ele>111</ele>
        <time>2014-04-16T11:50:54Z</time>
      </trkpt>
      <trkpt lat="47.68262" lon="3.68825">
        <ele>111</ele>
        <time>2014-04-16T11:51:19Z</time>
      </trkpt>
      <trkpt lat="47.68265" lon="3.68831">
        <ele>111</ele>
        <time>2014-04-16T11:51:22Z</time>
      </trkpt>
      <trkpt lat="47.68266" lon="3.68838">
        <ele>112</ele>
        <time>2014-04-16T11:51:25Z</time>
      </trkpt>
      <trkpt lat="47.68271" lon="3.68846">
        <ele>112</ele>
        <time>2014-04-16T11:51:27Z</time>
      </trkpt>
      <trkpt lat="47.68273" lon="3.68851">
        <ele>112</ele>
        <time>2014-04-16T11:51:27Z</time>
      </trkpt>
      <trkpt lat="47.68275" lon="3.68853">
        <ele>112</ele>
        <time>2014-04-16T11:51:28Z</time>
      </trkpt>
      <trkpt lat="47.68278" lon="3.68855">
        <ele>112</ele>
        <time>2014-04-16T11:51:31Z</time>
      </trkpt>
      <trkpt lat="47.68273" lon="3.68861">
        <ele>112</ele>
        <time>2014-04-16T11:51:39Z</time>
      </trkpt>
      <trkpt lat="47.68268" lon="3.68865">
        <ele>112</ele>
        <time>2014-04-16T11:51:43Z</time>
      </trkpt>
      <trkpt lat="47.68266" lon="3.68871">
        <ele>112</ele>
        <time>2014-04-16T11:51:47Z</time>
      </trkpt>
      <trkpt lat="47.68261" lon="3.68873">
        <ele>112</ele>
        <time>2014-04-16T11:51:52Z</time>
      </trkpt>
      <trkpt lat="47.68259" lon="3.68865">
        <ele>112</ele>
        <time>2014-04-16T11:51:55Z</time>
      </trkpt>
      <trkpt lat="47.6826" lon="3.6887">
        <ele>112</ele>
        <time>2014-04-16T11:52:16Z</time>
      </trkpt>
      <trkpt lat="47.68262" lon="3.68877">
        <ele>112</ele>
        <time>2014-04-16T11:52:19Z</time>
      </trkpt>
      <trkpt lat="47.68263" lon="3.68884">
        <ele>112</ele>
        <time>2014-04-16T11:52:22Z</time>
      </trkpt>
      <trkpt lat="47.68266" lon="3.68891">
        <ele>113</ele>
        <time>2014-04-16T11:52:25Z</time>
      </trkpt>
      <trkpt lat="47.68268" lon="3.68898">
        <ele>113</ele>
        <time>2014-04-16T11:52:28Z</time>
      </trkpt>
      <trkpt lat="47.68267" lon="3.68905">
        <ele>113</ele>
        <time>2014-04-16T11:52:35Z</time>
      </trkpt>
      <trkpt lat="47.68266" lon="3.68913">
        <ele>113</ele>
        <time>2014-04-16T11:52:39Z</time>
      </trkpt>
      <trkpt lat="47.68266" lon="3.6892">
        <ele>114</ele>
        <time>2014-04-16T11:52:43Z</time>
      </trkpt>
      <trkpt lat="47.68267" lon="3.68928">
        <ele>114</ele>
        <time>2014-04-16T11:52:47Z</time>
      </trkpt>
      <trkpt lat="47.68266" lon="3.68935">
        <ele>114</ele>
        <time>2014-04-16T11:52:52Z</time>
      </trkpt>
      <trkpt lat="47.68266" lon="3.68942">
        <ele>114</ele>
        <time>2014-04-16T11:52:56Z</time>
      </trkpt>
      <trkpt lat="47.68267" lon="3.68949">
        <ele>115</ele>
        <time>2014-04-16T11:53:03Z</time>
      </trkpt>
      <trkpt lat="47.68267" lon="3.68957">
        <ele>115</ele>
        <time>2014-04-16T11:53:09Z</time>
      </trkpt>
      <trkpt lat="47.68267" lon="3.68964">
        <ele>115</ele>
        <time>2014-04-16T11:53:14Z</time>
      </trkpt>
      <trkpt lat="47.68263" lon="3.68969">
        <ele>115</ele>
        <time>2014-04-16T11:53:19Z</time>
      </trkpt>
      <trkpt lat="47.68258" lon="3.68969">
        <ele>115</ele>
        <time>2014-04-16T11:53:24Z</time>
      </trkpt>
      <trkpt lat="47.68254" lon="3.68964">
        <ele>115</ele>
        <time>2014-04-16T11:53:29Z</time>
      </trkpt>
      <trkpt lat="47.6825" lon="3.68959">
        <ele>114</ele>
        <time>2014-04-16T11:53:34Z</time>
      </trkpt>
      <trkpt lat="47.68244" lon="3.68958">
        <ele>114</ele>
        <time>2014-04-16T11:53:39Z</time>
      </trkpt>
      <trkpt lat="47.68234" lon="3.68956">
        <ele>114</ele>
        <time>2014-04-16T11:53:47Z</time>
      </trkpt>
      <trkpt lat="47.68227" lon="3.68958">
        <ele>114</ele>
        <time>2014-04-16T11:53:54Z</time>
      </trkpt>
      <trkpt lat="47.68221" lon="3.68959">
        <ele>114</ele>
        <time>2014-04-16T11:53:57Z</time>
      </trkpt>
      <trkpt lat="47.68217" lon="3.68955">
        <ele>114</ele>
        <time>2014-04-16T11:54:01Z</time>
      </trkpt>
      <trkpt lat="47.68212" lon="3.68957">
        <ele>114</ele>
        <time>2014-04-16T11:54:07Z</time>
      </trkpt>
      <trkpt lat="47.68207" lon="3.6896">
        <ele>114</ele>
        <time>2014-04-16T11:54:12Z</time>
      </trkpt>
      <trkpt lat="47.68202" lon="3.68957">
        <ele>114</ele>
        <time>2014-04-16T11:54:18Z</time>
      </trkpt>
      <trkpt lat="47.68198" lon="3.6896">
        <ele>114</ele>
        <time>2014-04-16T11:54:24Z</time>
      </trkpt>
      <trkpt lat="47.68194" lon="3.68962">
        <ele>114</ele>
        <time>2014-04-16T11:54:28Z</time>
      </trkpt>
      <trkpt lat="47.68189" lon="3.68964">
        <ele>114</ele>
        <time>2014-04-16T11:54:31Z</time>
      </trkpt>
      <trkpt lat="47.68179" lon="3.68965">
        <ele>114</ele>
        <time>2014-04-16T11:54:38Z</time>
      </trkpt>
      <trkpt lat="47.68172" lon="3.68966">
        <ele>113</ele>
        <time>2014-04-16T11:54:42Z</time>
      </trkpt>
      <trkpt lat="47.68167" lon="3.68966">
        <ele>113</ele>
        <time>2014-04-16T11:54:45Z</time>
      </trkpt>
      <trkpt lat="47.68162" lon="3.68962">
        <ele>113</ele>
        <time>2014-04-16T11:54:48Z</time>
      </trkpt>
      <trkpt lat="47.68164" lon="3.68953">
        <ele>113</ele>
        <time>2014-04-16T11:54:52Z</time>
      </trkpt>
      <trkpt lat="47.68165" lon="3.68945">
        <ele>113</ele>
        <time>2014-04-16T11:54:56Z</time>
      </trkpt>
      <trkpt lat="47.68167" lon="3.68939">
        <ele>113</ele>
        <time>2014-04-16T11:54:59Z</time>
      </trkpt>
      <trkpt lat="47.6817" lon="3.68932">
        <ele>113</ele>
        <time>2014-04-16T11:55:02Z</time>
      </trkpt>
      <trkpt lat="47.6817" lon="3.68924">
        <ele>113</ele>
        <time>2014-04-16T11:55:06Z</time>
      </trkpt>
      <trkpt lat="47.68169" lon="3.68916">
        <ele>113</ele>
        <time>2014-04-16T11:55:12Z</time>
      </trkpt>
      <trkpt lat="47.68168" lon="3.68909">
        <ele>113</ele>
        <time>2014-04-16T11:55:16Z</time>
      </trkpt>
      <trkpt lat="47.6817" lon="3.68903">
        <ele>113</ele>
        <time>2014-04-16T11:55:20Z</time>
      </trkpt>
      <trkpt lat="47.68172" lon="3.68894">
        <ele>113</ele>
        <time>2014-04-16T11:55:23Z</time>
      </trkpt>
      <trkpt lat="47.68177" lon="3.68892">
        <ele>113</ele>
        <time>2014-04-16T11:55:29Z</time>
      </trkpt>
      <trkpt lat="47.68183" lon="3.68891">
        <ele>113</ele>
        <time>2014-04-16T11:55:34Z</time>
      </trkpt>
      <trkpt lat="47.68187" lon="3.68894">
        <ele>113</ele>
        <time>2014-04-16T11:55:37Z</time>
      </trkpt>
      <trkpt lat="47.68185" lon="3.68891">
        <ele>113</ele>
        <time>2014-04-16T11:56:20Z</time>
      </trkpt>
      <trkpt lat="47.68183" lon="3.68885">
        <ele>113</ele>
        <time>2014-04-16T11:56:26Z</time>
      </trkpt>
      <trkpt lat="47.68184" lon="3.68886">
        <ele>113</ele>
        <time>2014-04-16T11:56:50Z</time>
      </trkpt>
      <trkpt lat="47.6818" lon="3.68891">
        <ele>113</ele>
        <time>2014-04-16T11:56:54Z</time>
      </trkpt>
      <trkpt lat="47.68175" lon="3.68895">
        <ele>113</ele>
        <time>2014-04-16T11:56:55Z</time>
      </trkpt>
      <trkpt lat="47.6817" lon="3.68907">
        <ele>113</ele>
        <time>2014-04-16T11:57:00Z</time>
      </trkpt>
      <trkpt lat="47.6817" lon="3.68921">
        <ele>113</ele>
        <time>2014-04-16T11:57:04Z</time>
      </trkpt>
      <trkpt lat="47.6817" lon="3.68927">
        <ele>113</ele>
        <time>2014-04-16T11:57:22Z</time>
      </trkpt>
      <trkpt lat="47.68173" lon="3.68934">
        <ele>113</ele>
        <time>2014-04-16T11:57:28Z</time>
      </trkpt>
      <trkpt lat="47.68174" lon="3.68941">
        <ele>113</ele>
        <time>2014-04-16T11:57:33Z</time>
      </trkpt>
      <trkpt lat="47.68172" lon="3.6895">
        <ele>113</ele>
        <time>2014-04-16T11:57:49Z</time>
      </trkpt>
      <trkpt lat="47.68175" lon="3.68957">
        <ele>113</ele>
        <time>2014-04-16T11:57:56Z</time>
      </trkpt>
      <trkpt lat="47.68179" lon="3.68962">
        <ele>114</ele>
        <time>2014-04-16T11:58:02Z</time>
      </trkpt>
      <trkpt lat="47.68183" lon="3.68966">
        <ele>114</ele>
        <time>2014-04-16T11:58:10Z</time>
      </trkpt>
      <trkpt lat="47.68188" lon="3.68969">
        <ele>114</ele>
        <time>2014-04-16T11:58:13Z</time>
      </trkpt>
      <trkpt lat="47.68193" lon="3.6897">
        <ele>114</ele>
        <time>2014-04-16T11:58:16Z</time>
      </trkpt>
      <trkpt lat="47.68197" lon="3.68967">
        <ele>114</ele>
        <time>2014-04-16T11:58:20Z</time>
      </trkpt>
      <trkpt lat="47.68198" lon="3.6896">
        <ele>114</ele>
        <time>2014-04-16T11:58:23Z</time>
      </trkpt>
      <trkpt lat="47.68201" lon="3.68953">
        <ele>114</ele>
        <time>2014-04-16T11:58:27Z</time>
      </trkpt>
      <trkpt lat="47.68205" lon="3.68948">
        <ele>114</ele>
        <time>2014-04-16T11:58:31Z</time>
      </trkpt>
      <trkpt lat="47.68209" lon="3.68935">
        <ele>114</ele>
        <time>2014-04-16T11:58:46Z</time>
      </trkpt>
      <trkpt lat="47.68214" lon="3.68933">
        <ele>114</ele>
        <time>2014-04-16T11:58:51Z</time>
      </trkpt>
      <trkpt lat="47.68218" lon="3.68937">
        <ele>114</ele>
        <time>2014-04-16T11:58:56Z</time>
      </trkpt>
      <trkpt lat="47.6822" lon="3.68944">
        <ele>114</ele>
        <time>2014-04-16T11:58:58Z</time>
      </trkpt>
      <trkpt lat="47.68227" lon="3.6895">
        <ele>114</ele>
        <time>2014-04-16T11:59:08Z</time>
      </trkpt>
      <trkpt lat="47.6823" lon="3.68955">
        <ele>114</ele>
        <time>2014-04-16T11:59:12Z</time>
      </trkpt>
      <trkpt lat="47.68235" lon="3.68958">
        <ele>114</ele>
        <time>2014-04-16T11:59:15Z</time>
      </trkpt>
      <trkpt lat="47.68242" lon="3.68955">
        <ele>114</ele>
        <time>2014-04-16T11:59:17Z</time>
      </trkpt>
      <trkpt lat="47.68247" lon="3.68956">
        <ele>114</ele>
        <time>2014-04-16T11:59:20Z</time>
      </trkpt>
      <trkpt lat="47.68253" lon="3.68958">
        <ele>115</ele>
        <time>2014-04-16T11:59:24Z</time>
      </trkpt>
      <trkpt lat="47.68258" lon="3.68963">
        <ele>115</ele>
        <time>2014-04-16T11:59:28Z</time>
      </trkpt>
      <trkpt lat="47.68261" lon="3.68964">
        <ele>115</ele>
        <time>2014-04-16T11:59:36Z</time>
      </trkpt>
      <trkpt lat="47.68263" lon="3.68961">
        <ele>115</ele>
        <time>2014-04-16T11:59:42Z</time>
      </trkpt>
      <trkpt lat="47.68266" lon="3.6897">
        <ele>115</ele>
        <time>2014-04-16T11:59:47Z</time>
      </trkpt>
      <trkpt lat="47.6827" lon="3.68976">
        <ele>115</ele>
        <time>2014-04-16T11:59:50Z</time>
      </trkpt>
      <trkpt lat="47.68272" lon="3.68982">
        <ele>115</ele>
        <time>2014-04-16T11:59:54Z</time>
      </trkpt>
      <trkpt lat="47.68276" lon="3.68987">
        <ele>115</ele>
        <time>2014-04-16T11:59:58Z</time>
      </trkpt>
      <trkpt lat="47.68277" lon="3.68991">
        <ele>115</ele>
        <time>2014-04-16T12:00:03Z</time>
      </trkpt>
      <trkpt lat="47.68276" lon="3.68998">
        <ele>115</ele>
        <time>2014-04-16T12:00:11Z</time>
      </trkpt>
      <trkpt lat="47.68274" lon="3.69004">
        <ele>116</ele>
        <time>2014-04-16T12:00:40Z</time>
      </trkpt>
      <trkpt lat="47.68277" lon="3.69011">
        <ele>116</ele>
        <time>2014-04-16T12:00:44Z</time>
      </trkpt>
      <trkpt lat="47.68277" lon="3.69019">
        <ele>116</ele>
        <time>2014-04-16T12:00:48Z</time>
      </trkpt>
      <trkpt lat="47.68276" lon="3.69026">
        <ele>116</ele>
        <time>2014-04-16T12:00:54Z</time>
      </trkpt>
      <trkpt lat="47.68276" lon="3.69033">
        <ele>116</ele>
        <time>2014-04-16T12:00:57Z</time>
      </trkpt>
      <trkpt lat="47.68276" lon="3.69041">
        <ele>117</ele>
        <time>2014-04-16T12:01:00Z</time>
      </trkpt>
      <trkpt lat="47.68275" lon="3.69048">
        <ele>117</ele>
        <time>2014-04-16T12:01:03Z</time>
      </trkpt>
      <trkpt lat="47.68278" lon="3.69054">
        <ele>117</ele>
        <time>2014-04-16T12:01:10Z</time>
      </trkpt>
      <trkpt lat="47.68282" lon="3.69059">
        <ele>117</ele>
        <time>2014-04-16T12:01:13Z</time>
      </trkpt>
      <trkpt lat="47.68285" lon="3.69063">
        <ele>117</ele>
        <time>2014-04-16T12:01:18Z</time>
      </trkpt>
      <trkpt lat="47.68281" lon="3.69061">
        <ele>117</ele>
        <time>2014-04-16T12:01:53Z</time>
      </trkpt>
      <trkpt lat="47.68281" lon="3.69057">
        <ele>117</ele>
        <time>2014-04-16T12:01:59Z</time>
      </trkpt>
      <trkpt lat="47.6827" lon="3.69061">
        <ele>117</ele>
        <time>2014-04-16T12:02:18Z</time>
      </trkpt>
      <trkpt lat="47.68275" lon="3.69057">
        <ele>117</ele>
        <time>2014-04-16T12:02:48Z</time>
      </trkpt>
      <trkpt lat="47.68284" lon="3.69057">
        <ele>117</ele>
        <time>2014-04-16T12:02:52Z</time>
      </trkpt>
      <trkpt lat="47.68291" lon="3.69058">
        <ele>117</ele>
        <time>2014-04-16T12:02:56Z</time>
      </trkpt>
      <trkpt lat="47.68302" lon="3.69058">
        <ele>117</ele>
        <time>2014-04-16T12:03:06Z</time>
      </trkpt>
      <trkpt lat="47.68306" lon="3.69062">
        <ele>117</ele>
        <time>2014-04-16T12:03:12Z</time>
      </trkpt>
      <trkpt lat="47.68304" lon="3.69066">
        <ele>117</ele>
        <time>2014-04-16T12:03:18Z</time>
      </trkpt>
      <trkpt lat="47.683" lon="3.69068">
        <ele>117</ele>
        <time>2014-04-16T12:03:21Z</time>
      </trkpt>
      <trkpt lat="47.68299" lon="3.6907">
        <ele>117</ele>
        <time>2014-04-16T12:04:06Z</time>
      </trkpt>
      <trkpt lat="47.68297" lon="3.69065">
        <ele>117</ele>
        <time>2014-04-16T12:07:07Z</time>
      </trkpt>
      <trkpt lat="47.6829" lon="3.69065">
        <ele>117</ele>
        <time>2014-04-16T12:15:40Z</time>
      </trkpt>
      <trkpt lat="47.68284" lon="3.69063">
        <ele>117</ele>
        <time>2014-04-16T12:15:54Z</time>
      </trkpt>
      <trkpt lat="47.68281" lon="3.69063">
        <ele>117</ele>
        <time>2014-04-16T12:21:39Z</time>
      </trkpt>
      <trkpt lat="47.6828" lon="3.69063">
        <ele>117</ele>
        <time>2014-04-16T12:22:54Z</time>
      </trkpt>
      <trkpt lat="47.68315" lon="3.6906">
        <ele>117</ele>
        <time>2014-04-16T12:31:22Z</time>
      </trkpt>
      <trkpt lat="47.68308" lon="3.69068">
        <ele>117</ele>
        <time>2014-04-16T12:34:55Z</time>
      </trkpt>
      <trkpt lat="47.68302" lon="3.69069">
        <ele>117</ele>
        <time>2014-04-16T12:37:07Z</time>
      </trkpt>
      <trkpt lat="47.68263" lon="3.69069">
        <ele>116</ele>
        <time>2014-04-16T13:05:46Z</time>
      </trkpt>
      <trkpt lat="47.68274" lon="3.69062">
        <ele>117</ele>
        <time>2014-04-16T13:05:56Z</time>
      </trkpt>
      <trkpt lat="47.68302" lon="3.69075">
        <ele>117</ele>
        <time>2014-04-16T13:06:05Z</time>
      </trkpt>
      <trkpt lat="47.68306" lon="3.69078">
        <ele>117</ele>
        <time>2014-04-16T13:06:08Z</time>
      </trkpt>
      <trkpt lat="47.68307" lon="3.69086">
        <ele>118</ele>
        <time>2014-04-16T13:06:13Z</time>
      </trkpt>
      <trkpt lat="47.68315" lon="3.69094">
        <ele>118</ele>
        <time>2014-04-16T13:06:21Z</time>
      </trkpt>
      <trkpt lat="47.68322" lon="3.69085">
        <ele>119</ele>
        <time>2014-04-16T13:06:28Z</time>
      </trkpt>
      <trkpt lat="47.68328" lon="3.69085">
        <ele>119</ele>
        <time>2014-04-16T13:06:34Z</time>
      </trkpt>
      <trkpt lat="47.68332" lon="3.69087">
        <ele>119</ele>
        <time>2014-04-16T13:06:41Z</time>
      </trkpt>
      <trkpt lat="47.68337" lon="3.69088">
        <ele>120</ele>
        <time>2014-04-16T13:06:46Z</time>
      </trkpt>
      <trkpt lat="47.68342" lon="3.69088">
        <ele>120</ele>
        <time>2014-04-16T13:06:52Z</time>
      </trkpt>
      <trkpt lat="47.68346" lon="3.69091">
        <ele>121</ele>
        <time>2014-04-16T13:06:58Z</time>
      </trkpt>
      <trkpt lat="47.68355" lon="3.69089">
        <ele>122</ele>
        <time>2014-04-16T13:07:21Z</time>
      </trkpt>
      <trkpt lat="47.68358" lon="3.69104">
        <ele>122</ele>
        <time>2014-04-16T13:07:32Z</time>
      </trkpt>
      <trkpt lat="47.68354" lon="3.69118">
        <ele>123</ele>
        <time>2014-04-16T13:07:38Z</time>
      </trkpt>
      <trkpt lat="47.68354" lon="3.69117">
        <ele>123</ele>
        <time>2014-04-16T13:07:44Z</time>
      </trkpt>
      <trkpt lat="47.68356" lon="3.69111">
        <ele>122</ele>
        <time>2014-04-16T13:07:46Z</time>
      </trkpt>
      <trkpt lat="47.68359" lon="3.69105">
        <ele>122</ele>
        <time>2014-04-16T13:07:50Z</time>
      </trkpt>
      <trkpt lat="47.68365" lon="3.691">
        <ele>123</ele>
        <time>2014-04-16T13:08:01Z</time>
      </trkpt>
      <trkpt lat="47.6837" lon="3.69097">
        <ele>123</ele>
        <time>2014-04-16T13:08:09Z</time>
      </trkpt>
      <trkpt lat="47.68379" lon="3.69098">
        <ele>123</ele>
        <time>2014-04-16T13:08:23Z</time>
      </trkpt>
      <trkpt lat="47.68385" lon="3.69096">
        <ele>124</ele>
        <time>2014-04-16T13:08:35Z</time>
      </trkpt>
      <trkpt lat="47.68392" lon="3.69096">
        <ele>124</ele>
        <time>2014-04-16T13:08:48Z</time>
      </trkpt>
      <trkpt lat="47.68397" lon="3.69095">
        <ele>124</ele>
        <time>2014-04-16T13:08:52Z</time>
      </trkpt>
      <trkpt lat="47.684" lon="3.69094">
        <ele>125</ele>
        <time>2014-04-16T13:08:59Z</time>
      </trkpt>
      <trkpt lat="47.68402" lon="3.69101">
        <ele>125</ele>
        <time>2014-04-16T13:09:18Z</time>
      </trkpt>
      <trkpt lat="47.68401" lon="3.69106">
        <ele>124</ele>
        <time>2014-04-16T13:09:56Z</time>
      </trkpt>
      <trkpt lat="47.68402" lon="3.69108">
        <ele>124</ele>
        <time>2014-04-16T13:10:45Z</time>
      </trkpt>
      <trkpt lat="47.68399" lon="3.69113">
        <ele>124</ele>
        <time>2014-04-16T13:10:53Z</time>
      </trkpt>
      <trkpt lat="47.68394" lon="3.69116">
        <ele>124</ele>
        <time>2014-04-16T13:10:57Z</time>
      </trkpt>
      <trkpt lat="47.6839" lon="3.69119">
        <ele>124</ele>
        <time>2014-04-16T13:11:01Z</time>
      </trkpt>
      <trkpt lat="47.6839" lon="3.69111">
        <ele>124</ele>
        <time>2014-04-16T13:11:10Z</time>
      </trkpt>
      <trkpt lat="47.68394" lon="3.69111">
        <ele>124</ele>
        <time>2014-04-16T13:11:47Z</time>
      </trkpt>
      <trkpt lat="47.68399" lon="3.69111">
        <ele>124</ele>
        <time>2014-04-16T13:11:54Z</time>
      </trkpt>
      <trkpt lat="47.68404" lon="3.69112">
        <ele>124</ele>
        <time>2014-04-16T13:11:59Z</time>
      </trkpt>
      <trkpt lat="47.68407" lon="3.69111">
        <ele>125</ele>
        <time>2014-04-16T13:12:05Z</time>
      </trkpt>
      <trkpt lat="47.68394" lon="3.6914">
        <ele>125</ele>
        <time>2014-04-16T13:14:32Z</time>
      </trkpt>
      <trkpt lat="47.6839" lon="3.69136">
        <ele>124</ele>
        <time>2014-04-16T13:14:38Z</time>
      </trkpt>
      <trkpt lat="47.6839" lon="3.69128">
        <ele>124</ele>
        <time>2014-04-16T13:14:42Z</time>
      </trkpt>
      <trkpt lat="47.68388" lon="3.69122">
        <ele>124</ele>
        <time>2014-04-16T13:14:46Z</time>
      </trkpt>
      <trkpt lat="47.68384" lon="3.69117">
        <ele>124</ele>
        <time>2014-04-16T13:14:54Z</time>
      </trkpt>
      <trkpt lat="47.68379" lon="3.69115">
        <ele>124</ele>
        <time>2014-04-16T13:15:00Z</time>
      </trkpt>
      <trkpt lat="47.68374" lon="3.69115">
        <ele>123</ele>
        <time>2014-04-16T13:15:05Z</time>
      </trkpt>
      <trkpt lat="47.6837" lon="3.69117">
        <ele>123</ele>
        <time>2014-04-16T13:15:10Z</time>
      </trkpt>
      <trkpt lat="47.68364" lon="3.69118">
        <ele>123</ele>
        <time>2014-04-16T13:15:14Z</time>
      </trkpt>
      <trkpt lat="47.6836" lon="3.69117">
        <ele>123</ele>
        <time>2014-04-16T13:15:19Z</time>
      </trkpt>
      <trkpt lat="47.68355" lon="3.69115">
        <ele>122</ele>
        <time>2014-04-16T13:15:24Z</time>
      </trkpt>
      <trkpt lat="47.6835" lon="3.69113">
        <ele>122</ele>
        <time>2014-04-16T13:15:28Z</time>
      </trkpt>
      <trkpt lat="47.68346" lon="3.69108">
        <ele>122</ele>
        <time>2014-04-16T13:15:34Z</time>
      </trkpt>
      <trkpt lat="47.6834" lon="3.69107">
        <ele>122</ele>
        <time>2014-04-16T13:15:41Z</time>
      </trkpt>
      <trkpt lat="47.68338" lon="3.69101">
        <ele>121</ele>
        <time>2014-04-16T13:15:45Z</time>
      </trkpt>
      <trkpt lat="47.68342" lon="3.69097">
        <ele>121</ele>
        <time>2014-04-16T13:15:51Z</time>
      </trkpt>
      <trkpt lat="47.68347" lon="3.69096">
        <ele>121</ele>
        <time>2014-04-16T13:15:57Z</time>
      </trkpt>
      <trkpt lat="47.68345" lon="3.69097">
        <ele>121</ele>
        <time>2014-04-16T13:16:09Z</time>
      </trkpt>
      <trkpt lat="47.68341" lon="3.69093">
        <ele>121</ele>
        <time>2014-04-16T13:16:20Z</time>
      </trkpt>
      <trkpt lat="47.68337" lon="3.69089">
        <ele>120</ele>
        <time>2014-04-16T13:16:24Z</time>
      </trkpt>
      <trkpt lat="47.68333" lon="3.69086">
        <ele>119</ele>
        <time>2014-04-16T13:16:28Z</time>
      </trkpt>
      <trkpt lat="47.68328" lon="3.69083">
        <ele>119</ele>
        <time>2014-04-16T13:16:32Z</time>
      </trkpt>
      <trkpt lat="47.68324" lon="3.6908">
        <ele>118</ele>
        <time>2014-04-16T13:16:37Z</time>
      </trkpt>
      <trkpt lat="47.68319" lon="3.69077">
        <ele>118</ele>
        <time>2014-04-16T13:16:41Z</time>
      </trkpt>
      <trkpt lat="47.68314" lon="3.69075">
        <ele>118</ele>
        <time>2014-04-16T13:16:45Z</time>
      </trkpt>
      <trkpt lat="47.68308" lon="3.69074">
        <ele>117</ele>
        <time>2014-04-16T13:16:48Z</time>
      </trkpt>
      <trkpt lat="47.683" lon="3.6908">
        <ele>117</ele>
        <time>2014-04-16T13:16:53Z</time>
      </trkpt>
      <trkpt lat="47.68295" lon="3.6908">
        <ele>117</ele>
        <time>2014-04-16T13:17:02Z</time>
      </trkpt>
      <trkpt lat="47.68291" lon="3.69076">
        <ele>117</ele>
        <time>2014-04-16T13:17:08Z</time>
      </trkpt>
      <trkpt lat="47.68282" lon="3.69079">
        <ele>117</ele>
        <time>2014-04-16T13:17:17Z</time>
      </trkpt>
      <trkpt lat="47.68282" lon="3.69074">
        <ele>117</ele>
        <time>2014-04-16T13:17:28Z</time>
      </trkpt>
      <trkpt lat="47.68282" lon="3.69065">
        <ele>117</ele>
        <time>2014-04-16T13:17:30Z</time>
      </trkpt>
      <trkpt lat="47.68283" lon="3.69058">
        <ele>117</ele>
        <time>2014-04-16T13:17:34Z</time>
      </trkpt>
      <trkpt lat="47.68282" lon="3.6905">
        <ele>117</ele>
        <time>2014-04-16T13:17:37Z</time>
      </trkpt>
      <trkpt lat="47.68282" lon="3.69043">
        <ele>117</ele>
        <time>2014-04-16T13:17:42Z</time>
      </trkpt>
      <trkpt lat="47.68282" lon="3.69035">
        <ele>117</ele>
        <time>2014-04-16T13:17:46Z</time>
      </trkpt>
      <trkpt lat="47.68281" lon="3.69029">
        <ele>116</ele>
        <time>2014-04-16T13:17:51Z</time>
      </trkpt>
      <trkpt lat="47.68279" lon="3.69022">
        <ele>116</ele>
        <time>2014-04-16T13:17:55Z</time>
      </trkpt>
      <trkpt lat="47.68279" lon="3.69015">
        <ele>116</ele>
        <time>2014-04-16T13:18:00Z</time>
      </trkpt>
      <trkpt lat="47.68277" lon="3.69009">
        <ele>116</ele>
        <time>2014-04-16T13:18:05Z</time>
      </trkpt>
      <trkpt lat="47.6828" lon="3.69008">
        <ele>116</ele>
        <time>2014-04-16T13:19:09Z</time>
      </trkpt>
      <trkpt lat="47.68274" lon="3.68995">
        <ele>115</ele>
        <time>2014-04-16T13:19:16Z</time>
      </trkpt>
      <trkpt lat="47.68274" lon="3.68986">
        <ele>115</ele>
        <time>2014-04-16T13:19:20Z</time>
      </trkpt>
      <trkpt lat="47.68273" lon="3.68979">
        <ele>115</ele>
        <time>2014-04-16T13:19:22Z</time>
      </trkpt>
      <trkpt lat="47.6827" lon="3.68968">
        <ele>115</ele>
        <time>2014-04-16T13:19:30Z</time>
      </trkpt>
      <trkpt lat="47.68265" lon="3.68966">
        <ele>115</ele>
        <time>2014-04-16T13:19:33Z</time>
      </trkpt>
      <trkpt lat="47.6826" lon="3.68968">
        <ele>115</ele>
        <time>2014-04-16T13:19:38Z</time>
      </trkpt>
      <trkpt lat="47.68255" lon="3.68968">
        <ele>115</ele>
        <time>2014-04-16T13:19:43Z</time>
      </trkpt>
      <trkpt lat="47.68253" lon="3.68962">
        <ele>115</ele>
        <time>2014-04-16T13:19:50Z</time>
      </trkpt>
      <trkpt lat="47.68252" lon="3.68959">
        <ele>115</ele>
        <time>2014-04-16T13:19:57Z</time>
      </trkpt>
      <trkpt lat="47.68245" lon="3.6896">
        <ele>114</ele>
        <time>2014-04-16T13:20:06Z</time>
      </trkpt>
      <trkpt lat="47.6824" lon="3.6896">
        <ele>114</ele>
        <time>2014-04-16T13:20:14Z</time>
      </trkpt>
      <trkpt lat="47.68235" lon="3.6896">
        <ele>114</ele>
        <time>2014-04-16T13:20:18Z</time>
      </trkpt>
      <trkpt lat="47.68229" lon="3.68962">
        <ele>114</ele>
        <time>2014-04-16T13:20:24Z</time>
      </trkpt>
      <trkpt lat="47.68225" lon="3.68961">
        <ele>114</ele>
        <time>2014-04-16T13:20:27Z</time>
      </trkpt>
      <trkpt lat="47.6822" lon="3.68959">
        <ele>114</ele>
        <time>2014-04-16T13:20:31Z</time>
      </trkpt>
      <trkpt lat="47.68213" lon="3.68956">
        <ele>114</ele>
        <time>2014-04-16T13:20:49Z</time>
      </trkpt>
      <trkpt lat="47.68208" lon="3.68955">
        <ele>114</ele>
        <time>2014-04-16T13:20:53Z</time>
      </trkpt>
      <trkpt lat="47.68203" lon="3.68954">
        <ele>114</ele>
        <time>2014-04-16T13:20:59Z</time>
      </trkpt>
      <trkpt lat="47.68198" lon="3.68957">
        <ele>114</ele>
        <time>2014-04-16T13:21:05Z</time>
      </trkpt>
      <trkpt lat="47.68193" lon="3.68957">
        <ele>114</ele>
        <time>2014-04-16T13:21:09Z</time>
      </trkpt>
      <trkpt lat="47.68188" lon="3.68957">
        <ele>114</ele>
        <time>2014-04-16T13:21:14Z</time>
      </trkpt>
      <trkpt lat="47.68183" lon="3.68958">
        <ele>114</ele>
        <time>2014-04-16T13:21:18Z</time>
      </trkpt>
      <trkpt lat="47.68177" lon="3.68957">
        <ele>114</ele>
        <time>2014-04-16T13:21:22Z</time>
      </trkpt>
      <trkpt lat="47.68173" lon="3.68956">
        <ele>113</ele>
        <time>2014-04-16T13:21:25Z</time>
      </trkpt>
      <trkpt lat="47.68168" lon="3.68954">
        <ele>113</ele>
        <time>2014-04-16T13:21:30Z</time>
      </trkpt>
      <trkpt lat="47.68163" lon="3.68955">
        <ele>113</ele>
        <time>2014-04-16T13:21:49Z</time>
      </trkpt>
      <trkpt lat="47.68158" lon="3.68957">
        <ele>113</ele>
        <time>2014-04-16T13:22:00Z</time>
      </trkpt>
      <trkpt lat="47.68153" lon="3.68955">
        <ele>112</ele>
        <time>2014-04-16T13:22:04Z</time>
      </trkpt>
      <trkpt lat="47.68148" lon="3.68952">
        <ele>112</ele>
        <time>2014-04-16T13:22:08Z</time>
      </trkpt>
      <trkpt lat="47.68144" lon="3.68949">
        <ele>112</ele>
        <time>2014-04-16T13:22:13Z</time>
      </trkpt>
      <trkpt lat="47.68142" lon="3.68955">
        <ele>112</ele>
        <time>2014-04-16T13:22:22Z</time>
      </trkpt>
      <trkpt lat="47.68148" lon="3.68955">
        <ele>112</ele>
        <time>2014-04-16T13:22:33Z</time>
      </trkpt>
      <trkpt lat="47.68146" lon="3.68953">
        <ele>112</ele>
        <time>2014-04-16T13:24:58Z</time>
      </trkpt>
      <trkpt lat="47.68141" lon="3.68956">
        <ele>112</ele>
        <time>2014-04-16T13:25:11Z</time>
      </trkpt>
      <trkpt lat="47.68137" lon="3.6896">
        <ele>112</ele>
        <time>2014-04-16T13:25:16Z</time>
      </trkpt>
      <trkpt lat="47.68133" lon="3.68964">
        <ele>112</ele>
        <time>2014-04-16T13:25:22Z</time>
      </trkpt>
      <trkpt lat="47.68131" lon="3.68971">
        <ele>112</ele>
        <time>2014-04-16T13:25:26Z</time>
      </trkpt>
      <trkpt lat="47.68129" lon="3.68977">
        <ele>112</ele>
        <time>2014-04-16T13:25:32Z</time>
      </trkpt>
      <trkpt lat="47.68128" lon="3.68984">
        <ele>112</ele>
        <time>2014-04-16T13:25:36Z</time>
      </trkpt>
      <trkpt lat="47.68125" lon="3.6899">
        <ele>112</ele>
        <time>2014-04-16T13:25:40Z</time>
      </trkpt>
      <trkpt lat="47.68123" lon="3.68997">
        <ele>112</ele>
        <time>2014-04-16T13:25:45Z</time>
      </trkpt>
      <trkpt lat="47.68123" lon="3.69005">
        <ele>113</ele>
        <time>2014-04-16T13:25:49Z</time>
      </trkpt>
      <trkpt lat="47.68118" lon="3.69007">
        <ele>113</ele>
        <time>2014-04-16T13:25:53Z</time>
      </trkpt>
      <trkpt lat="47.68112" lon="3.69005">
        <ele>113</ele>
        <time>2014-04-16T13:25:57Z</time>
      </trkpt>
      <trkpt lat="47.68108" lon="3.69008">
        <ele>113</ele>
        <time>2014-04-16T13:26:00Z</time>
      </trkpt>
      <trkpt lat="47.68109" lon="3.69013">
        <ele>113</ele>
        <time>2014-04-16T13:26:22Z</time>
      </trkpt>
      <trkpt lat="47.68111" lon="3.69014">
        <ele>113</ele>
        <time>2014-04-16T13:26:46Z</time>
      </trkpt>
      <trkpt lat="47.68114" lon="3.69015">
        <ele>113</ele>
        <time>2014-04-16T13:26:58Z</time>
      </trkpt>
      <trkpt lat="47.68126" lon="3.69027">
        <ele>113</ele>
        <time>2014-04-16T13:27:11Z</time>
      </trkpt>
      <trkpt lat="47.68127" lon="3.69036">
        <ele>113</ele>
        <time>2014-04-16T13:27:19Z</time>
      </trkpt>
      <trkpt lat="47.68126" lon="3.69043">
        <ele>113</ele>
        <time>2014-04-16T13:27:26Z</time>
      </trkpt>
      <trkpt lat="47.68126" lon="3.6905">
        <ele>113</ele>
        <time>2014-04-16T13:27:29Z</time>
      </trkpt>
      <trkpt lat="47.6813" lon="3.69049">
        <ele>113</ele>
        <time>2014-04-16T13:27:53Z</time>
      </trkpt>
      <trkpt lat="47.68135" lon="3.69053">
        <ele>113</ele>
        <time>2014-04-16T13:27:59Z</time>
      </trkpt>
      <trkpt lat="47.6814" lon="3.69057">
        <ele>113</ele>
        <time>2014-04-16T13:28:03Z</time>
      </trkpt>
      <trkpt lat="47.68144" lon="3.69061">
        <ele>113</ele>
        <time>2014-04-16T13:28:07Z</time>
      </trkpt>
      <trkpt lat="47.68148" lon="3.69066">
        <ele>113</ele>
        <time>2014-04-16T13:28:12Z</time>
      </trkpt>
      <trkpt lat="47.68151" lon="3.69072">
        <ele>113</ele>
        <time>2014-04-16T13:28:16Z</time>
      </trkpt>
      <trkpt lat="47.68156" lon="3.69077">
        <ele>114</ele>
        <time>2014-04-16T13:28:20Z</time>
      </trkpt>
      <trkpt lat="47.6816" lon="3.69081">
        <ele>114</ele>
        <time>2014-04-16T13:28:24Z</time>
      </trkpt>
      <trkpt lat="47.68157" lon="3.69081">
        <ele>114</ele>
        <time>2014-04-16T13:28:43Z</time>
      </trkpt>
      <trkpt lat="47.68152" lon="3.69079">
        <ele>114</ele>
        <time>2014-04-16T13:28:47Z</time>
      </trkpt>
      <trkpt lat="47.68147" lon="3.69077">
        <ele>113</ele>
        <time>2014-04-16T13:28:52Z</time>
      </trkpt>
      <trkpt lat="47.68143" lon="3.69076">
        <ele>113</ele>
        <time>2014-04-16T13:28:56Z</time>
      </trkpt>
      <trkpt lat="47.68138" lon="3.69079">
        <ele>113</ele>
        <time>2014-04-16T13:29:00Z</time>
      </trkpt>
      <trkpt lat="47.68134" lon="3.69076">
        <ele>113</ele>
        <time>2014-04-16T13:29:04Z</time>
      </trkpt>
      <trkpt lat="47.68131" lon="3.69071">
        <ele>113</ele>
        <time>2014-04-16T13:29:07Z</time>
      </trkpt>
      <trkpt lat="47.68128" lon="3.69065">
        <ele>113</ele>
        <time>2014-04-16T13:29:10Z</time>
      </trkpt>
      <trkpt lat="47.68122" lon="3.69065">
        <ele>113</ele>
        <time>2014-04-16T13:29:15Z</time>
      </trkpt>
      <trkpt lat="47.68118" lon="3.69062">
        <ele>113</ele>
        <time>2014-04-16T13:29:19Z</time>
      </trkpt>
      <trkpt lat="47.68114" lon="3.69058">
        <ele>113</ele>
        <time>2014-04-16T13:29:23Z</time>
      </trkpt>
      <trkpt lat="47.68109" lon="3.69054">
        <ele>113</ele>
        <time>2014-04-16T13:29:27Z</time>
      </trkpt>
      <trkpt lat="47.68105" lon="3.69051">
        <ele>113</ele>
        <time>2014-04-16T13:29:32Z</time>
      </trkpt>
      <trkpt lat="47.681" lon="3.69051">
        <ele>113</ele>
        <time>2014-04-16T13:29:39Z</time>
      </trkpt>
      <trkpt lat="47.68096" lon="3.69058">
        <ele>113</ele>
        <time>2014-04-16T13:29:44Z</time>
      </trkpt>
      <trkpt lat="47.68095" lon="3.69064">
        <ele>113</ele>
        <time>2014-04-16T13:29:47Z</time>
      </trkpt>
      <trkpt lat="47.68094" lon="3.69073">
        <ele>113</ele>
        <time>2014-04-16T13:29:50Z</time>
      </trkpt>
      <trkpt lat="47.68092" lon="3.69079">
        <ele>113</ele>
        <time>2014-04-16T13:29:54Z</time>
      </trkpt>
      <trkpt lat="47.68087" lon="3.69084">
        <ele>113</ele>
        <time>2014-04-16T13:29:58Z</time>
      </trkpt>
      <trkpt lat="47.68084" lon="3.6909">
        <ele>113</ele>
        <time>2014-04-16T13:30:03Z</time>
      </trkpt>
      <trkpt lat="47.68083" lon="3.69098">
        <ele>114</ele>
        <time>2014-04-16T13:30:08Z</time>
      </trkpt>
      <trkpt lat="47.68085" lon="3.69104">
        <ele>114</ele>
        <time>2014-04-16T13:30:13Z</time>
      </trkpt>
      <trkpt lat="47.68083" lon="3.69111">
        <ele>114</ele>
        <time>2014-04-16T13:30:19Z</time>
      </trkpt>
      <trkpt lat="47.68079" lon="3.69118">
        <ele>114</ele>
        <time>2014-04-16T13:30:24Z</time>
      </trkpt>
      <trkpt lat="47.68075" lon="3.69131">
        <ele>114</ele>
        <time>2014-04-16T13:30:32Z</time>
      </trkpt>
      <trkpt lat="47.68071" lon="3.69136">
        <ele>114</ele>
        <time>2014-04-16T13:30:35Z</time>
      </trkpt>
      <trkpt lat="47.68066" lon="3.69139">
        <ele>114</ele>
        <time>2014-04-16T13:30:38Z</time>
      </trkpt>
      <trkpt lat="47.68061" lon="3.69142">
        <ele>114</ele>
        <time>2014-04-16T13:30:42Z</time>
      </trkpt>
      <trkpt lat="47.68056" lon="3.69145">
        <ele>114</ele>
        <time>2014-04-16T13:30:46Z</time>
      </trkpt>
      <trkpt lat="47.68052" lon="3.69148">
        <ele>114</ele>
        <time>2014-04-16T13:30:51Z</time>
      </trkpt>
      <trkpt lat="47.6805" lon="3.69154">
        <ele>114</ele>
        <time>2014-04-16T13:30:57Z</time>
      </trkpt>
      <trkpt lat="47.68045" lon="3.69157">
        <ele>114</ele>
        <time>2014-04-16T13:31:00Z</time>
      </trkpt>
      <trkpt lat="47.68041" lon="3.6916">
        <ele>114</ele>
        <time>2014-04-16T13:31:03Z</time>
      </trkpt>
      <trkpt lat="47.68037" lon="3.69163">
        <ele>114</ele>
        <time>2014-04-16T13:31:05Z</time>
      </trkpt>
      <trkpt lat="47.68034" lon="3.69169">
        <ele>117</ele>
        <time>2014-04-16T13:31:09Z</time>
      </trkpt>
      <trkpt lat="47.68034" lon="3.69176">
        <ele>117</ele>
        <time>2014-04-16T13:31:13Z</time>
      </trkpt>
      <trkpt lat="47.68031" lon="3.69182">
        <ele>117</ele>
        <time>2014-04-16T13:31:19Z</time>
      </trkpt>
      <trkpt lat="47.68026" lon="3.69186">
        <ele>117</ele>
        <time>2014-04-16T13:31:23Z</time>
      </trkpt>
      <trkpt lat="47.68022" lon="3.69188">
        <ele>117</ele>
        <time>2014-04-16T13:31:27Z</time>
      </trkpt>
      <trkpt lat="47.68018" lon="3.69194">
        <ele>117</ele>
        <time>2014-04-16T13:31:31Z</time>
      </trkpt>
      <trkpt lat="47.68015" lon="3.69199">
        <ele>118</ele>
        <time>2014-04-16T13:31:35Z</time>
      </trkpt>
      <trkpt lat="47.68012" lon="3.69205">
        <ele>118</ele>
        <time>2014-04-16T13:31:40Z</time>
      </trkpt>
      <trkpt lat="47.6801" lon="3.69212">
        <ele>118</ele>
        <time>2014-04-16T13:31:44Z</time>
      </trkpt>
      <trkpt lat="47.68009" lon="3.69218">
        <ele>119</ele>
        <time>2014-04-16T13:31:48Z</time>
      </trkpt>
      <trkpt lat="47.68008" lon="3.69226">
        <ele>119</ele>
        <time>2014-04-16T13:31:53Z</time>
      </trkpt>
      <trkpt lat="47.68006" lon="3.69232">
        <ele>120</ele>
        <time>2014-04-16T13:31:57Z</time>
      </trkpt>
      <trkpt lat="47.68004" lon="3.69238">
        <ele>120</ele>
        <time>2014-04-16T13:32:01Z</time>
      </trkpt>
      <trkpt lat="47.68001" lon="3.69244">
        <ele>121</ele>
        <time>2014-04-16T13:32:07Z</time>
      </trkpt>
      <trkpt lat="47.68" lon="3.69251">
        <ele>122</ele>
        <time>2014-04-16T13:32:12Z</time>
      </trkpt>
      <trkpt lat="47.67998" lon="3.69258">
        <ele>124</ele>
        <time>2014-04-16T13:32:19Z</time>
      </trkpt>
      <trkpt lat="47.67993" lon="3.69263">
        <ele>125</ele>
        <time>2014-04-16T13:32:23Z</time>
      </trkpt>
      <trkpt lat="47.67991" lon="3.69268">
        <ele>126</ele>
        <time>2014-04-16T13:32:28Z</time>
      </trkpt>
      <trkpt lat="47.67986" lon="3.69273">
        <ele>127</ele>
        <time>2014-04-16T13:32:36Z</time>
      </trkpt>
      <trkpt lat="47.67981" lon="3.69276">
        <ele>128</ele>
        <time>2014-04-16T13:32:40Z</time>
      </trkpt>
      <trkpt lat="47.67983" lon="3.69282">
        <ele>128</ele>
        <time>2014-04-16T13:32:57Z</time>
      </trkpt>
      <trkpt lat="47.67982" lon="3.69288">
        <ele>129</ele>
        <time>2014-04-16T13:33:29Z</time>
      </trkpt>
      <trkpt lat="47.67978" lon="3.69291">
        <ele>129</ele>
        <time>2014-04-16T13:33:34Z</time>
      </trkpt>
      <trkpt lat="47.67973" lon="3.69291">
        <ele>129</ele>
        <time>2014-04-16T13:33:38Z</time>
      </trkpt>
      <trkpt lat="47.67968" lon="3.69291">
        <ele>129</ele>
        <time>2014-04-16T13:33:42Z</time>
      </trkpt>
      <trkpt lat="47.67963" lon="3.69293">
        <ele>129</ele>
        <time>2014-04-16T13:33:48Z</time>
      </trkpt>
      <trkpt lat="47.67959" lon="3.69294">
        <ele>129</ele>
        <time>2014-04-16T13:33:53Z</time>
      </trkpt>
      <trkpt lat="47.67954" lon="3.69297">
        <ele>130</ele>
        <time>2014-04-16T13:33:57Z</time>
      </trkpt>
      <trkpt lat="47.6795" lon="3.693">
        <ele>130</ele>
        <time>2014-04-16T13:34:01Z</time>
      </trkpt>
      <trkpt lat="47.67945" lon="3.69303">
        <ele>130</ele>
        <time>2014-04-16T13:34:05Z</time>
      </trkpt>
      <trkpt lat="47.67941" lon="3.69305">
        <ele>131</ele>
        <time>2014-04-16T13:34:09Z</time>
      </trkpt>
      <trkpt lat="47.67936" lon="3.69308">
        <ele>131</ele>
        <time>2014-04-16T13:34:13Z</time>
      </trkpt>
      <trkpt lat="47.67932" lon="3.69311">
        <ele>131</ele>
        <time>2014-04-16T13:34:17Z</time>
      </trkpt>
      <trkpt lat="47.67927" lon="3.69313">
        <ele>132</ele>
        <time>2014-04-16T13:34:21Z</time>
      </trkpt>
      <trkpt lat="47.67922" lon="3.69315">
        <ele>132</ele>
        <time>2014-04-16T13:34:26Z</time>
      </trkpt>
      <trkpt lat="47.67917" lon="3.69316">
        <ele>130</ele>
        <time>2014-04-16T13:34:31Z</time>
      </trkpt>
      <trkpt lat="47.67912" lon="3.69318">
        <ele>131</ele>
        <time>2014-04-16T13:34:36Z</time>
      </trkpt>
      <trkpt lat="47.67907" lon="3.69318">
        <ele>130</ele>
        <time>2014-04-16T13:34:47Z</time>
      </trkpt>
      <trkpt lat="47.67902" lon="3.6932">
        <ele>130</ele>
        <time>2014-04-16T13:34:51Z</time>
      </trkpt>
      <trkpt lat="47.67898" lon="3.69326">
        <ele>130</ele>
        <time>2014-04-16T13:34:55Z</time>
      </trkpt>
      <trkpt lat="47.67896" lon="3.69333">
        <ele>130</ele>
        <time>2014-04-16T13:35:00Z</time>
      </trkpt>
      <trkpt lat="47.67891" lon="3.69334">
        <ele>137</ele>
        <time>2014-04-16T13:35:06Z</time>
      </trkpt>
      <trkpt lat="47.67889" lon="3.6934">
        <ele>137</ele>
        <time>2014-04-16T13:35:11Z</time>
      </trkpt>
      <trkpt lat="47.67888" lon="3.69347">
        <ele>138</ele>
        <time>2014-04-16T13:35:16Z</time>
      </trkpt>
      <trkpt lat="47.67886" lon="3.69354">
        <ele>138</ele>
        <time>2014-04-16T13:35:22Z</time>
      </trkpt>
      <trkpt lat="47.67883" lon="3.69359">
        <ele>138</ele>
        <time>2014-04-16T13:35:27Z</time>
      </trkpt>
      <trkpt lat="47.6788" lon="3.69365">
        <ele>139</ele>
        <time>2014-04-16T13:35:33Z</time>
      </trkpt>
      <trkpt lat="47.67878" lon="3.69372">
        <ele>139</ele>
        <time>2014-04-16T13:35:39Z</time>
      </trkpt>
      <trkpt lat="47.67876" lon="3.69379">
        <ele>140</ele>
        <time>2014-04-16T13:35:43Z</time>
      </trkpt>
      <trkpt lat="47.67873" lon="3.69386">
        <ele>140</ele>
        <time>2014-04-16T13:35:48Z</time>
      </trkpt>
      <trkpt lat="47.6787" lon="3.69391">
        <ele>140</ele>
        <time>2014-04-16T13:35:53Z</time>
      </trkpt>
      <trkpt lat="47.67866" lon="3.69394">
        <ele>140</ele>
        <time>2014-04-16T13:35:57Z</time>
      </trkpt>
      <trkpt lat="47.67861" lon="3.69397">
        <ele>140</ele>
        <time>2014-04-16T13:36:02Z</time>
      </trkpt>
      <trkpt lat="47.67858" lon="3.69403">
        <ele>140</ele>
        <time>2014-04-16T13:36:08Z</time>
      </trkpt>
      <trkpt lat="47.67857" lon="3.69411">
        <ele>141</ele>
        <time>2014-04-16T13:36:13Z</time>
      </trkpt>
      <trkpt lat="47.67857" lon="3.69419">
        <ele>150</ele>
        <time>2014-04-16T13:36:17Z</time>
      </trkpt>
      <trkpt lat="47.67854" lon="3.69424">
        <ele>150</ele>
        <time>2014-04-16T13:36:22Z</time>
      </trkpt>
      <trkpt lat="47.67851" lon="3.69431">
        <ele>150</ele>
        <time>2014-04-16T13:36:27Z</time>
      </trkpt>
      <trkpt lat="47.67848" lon="3.69437">
        <ele>151</ele>
        <time>2014-04-16T13:36:32Z</time>
      </trkpt>
      <trkpt lat="47.67843" lon="3.69439">
        <ele>151</ele>
        <time>2014-04-16T13:36:36Z</time>
      </trkpt>
      <trkpt lat="47.67841" lon="3.69446">
        <ele>152</ele>
        <time>2014-04-16T13:36:41Z</time>
      </trkpt>
      <trkpt lat="47.67842" lon="3.69454">
        <ele>153</ele>
        <time>2014-04-16T13:36:47Z</time>
      </trkpt>
      <trkpt lat="47.67838" lon="3.69459">
        <ele>154</ele>
        <time>2014-04-16T13:36:51Z</time>
      </trkpt>
      <trkpt lat="47.67833" lon="3.69471">
        <ele>150</ele>
        <time>2014-04-16T13:37:03Z</time>
      </trkpt>
      <trkpt lat="47.67827" lon="3.69481">
        <ele>151</ele>
        <time>2014-04-16T13:37:13Z</time>
      </trkpt>
      <trkpt lat="47.67833" lon="3.69486">
        <ele>153</ele>
        <time>2014-04-16T13:37:21Z</time>
      </trkpt>
      <trkpt lat="47.67834" lon="3.69492">
        <ele>158</ele>
        <time>2014-04-16T13:37:27Z</time>
      </trkpt>
      <trkpt lat="47.67836" lon="3.69506">
        <ele>162</ele>
        <time>2014-04-16T13:37:37Z</time>
      </trkpt>
      <trkpt lat="47.6783" lon="3.69517">
        <ele>161</ele>
        <time>2014-04-16T13:37:46Z</time>
      </trkpt>
      <trkpt lat="47.67826" lon="3.69531">
        <ele>162</ele>
        <time>2014-04-16T13:37:56Z</time>
      </trkpt>
      <trkpt lat="47.67824" lon="3.69545">
        <ele>164</ele>
        <time>2014-04-16T13:38:04Z</time>
      </trkpt>
      <trkpt lat="47.6782" lon="3.69549">
        <ele>165</ele>
        <time>2014-04-16T13:38:09Z</time>
      </trkpt>
      <trkpt lat="47.67815" lon="3.69548">
        <ele>164</ele>
        <time>2014-04-16T13:38:13Z</time>
      </trkpt>
      <trkpt lat="47.67815" lon="3.69554">
        <ele>165</ele>
        <time>2014-04-16T13:38:30Z</time>
      </trkpt>
      <trkpt lat="47.67811" lon="3.69568">
        <ele>167</ele>
        <time>2014-04-16T13:39:00Z</time>
      </trkpt>
      <trkpt lat="47.67808" lon="3.69581">
        <ele>167</ele>
        <time>2014-04-16T13:39:07Z</time>
      </trkpt>
      <trkpt lat="47.67802" lon="3.69592">
        <ele>177</ele>
        <time>2014-04-16T13:39:18Z</time>
      </trkpt>
      <trkpt lat="47.67805" lon="3.69598">
        <ele>177</ele>
        <time>2014-04-16T13:39:24Z</time>
      </trkpt>
      <trkpt lat="47.67805" lon="3.69606">
        <ele>178</ele>
        <time>2014-04-16T13:39:33Z</time>
      </trkpt>
      <trkpt lat="47.67808" lon="3.69612">
        <ele>178</ele>
        <time>2014-04-16T13:39:38Z</time>
      </trkpt>
      <trkpt lat="47.67802" lon="3.69624">
        <ele>179</ele>
        <time>2014-04-16T13:39:51Z</time>
      </trkpt>
      <trkpt lat="47.67795" lon="3.69632">
        <ele>180</ele>
        <time>2014-04-16T13:39:58Z</time>
      </trkpt>
      <trkpt lat="47.67796" lon="3.69642">
        <ele>181</ele>
        <time>2014-04-16T13:40:08Z</time>
      </trkpt>
      <trkpt lat="47.67791" lon="3.69647">
        <ele>181</ele>
        <time>2014-04-16T13:40:12Z</time>
      </trkpt>
      <trkpt lat="47.67786" lon="3.6965">
        <ele>181</ele>
        <time>2014-04-16T13:40:16Z</time>
      </trkpt>
      <trkpt lat="47.67782" lon="3.69653">
        <ele>181</ele>
        <time>2014-04-16T13:40:22Z</time>
      </trkpt>
      <trkpt lat="47.67778" lon="3.69658">
        <ele>182</ele>
        <time>2014-04-16T13:40:27Z</time>
      </trkpt>
      <trkpt lat="47.67778" lon="3.69662">
        <ele>182</ele>
        <time>2014-04-16T13:40:38Z</time>
      </trkpt>
      <trkpt lat="47.67773" lon="3.69665">
        <ele>183</ele>
        <time>2014-04-16T13:40:44Z</time>
      </trkpt>
      <trkpt lat="47.67768" lon="3.69662">
        <ele>183</ele>
        <time>2014-04-16T13:40:49Z</time>
      </trkpt>
      <trkpt lat="47.67765" lon="3.69666">
        <ele>184</ele>
        <time>2014-04-16T13:41:25Z</time>
      </trkpt>
      <trkpt lat="47.67761" lon="3.69662">
        <ele>184</ele>
        <time>2014-04-16T13:41:33Z</time>
      </trkpt>
      <trkpt lat="47.67756" lon="3.69663">
        <ele>185</ele>
        <time>2014-04-16T13:41:38Z</time>
      </trkpt>
      <trkpt lat="47.67751" lon="3.69665">
        <ele>186</ele>
        <time>2014-04-16T13:41:42Z</time>
      </trkpt>
      <trkpt lat="47.67745" lon="3.69666">
        <ele>186</ele>
        <time>2014-04-16T13:41:46Z</time>
      </trkpt>
      <trkpt lat="47.6774" lon="3.69668">
        <ele>189</ele>
        <time>2014-04-16T13:41:50Z</time>
      </trkpt>
      <trkpt lat="47.67734" lon="3.6967">
        <ele>190</ele>
        <time>2014-04-16T13:41:57Z</time>
      </trkpt>
      <trkpt lat="47.6773" lon="3.69673">
        <ele>191</ele>
        <time>2014-04-16T13:42:03Z</time>
      </trkpt>
      <trkpt lat="47.67724" lon="3.69673">
        <ele>191</ele>
        <time>2014-04-16T13:42:09Z</time>
      </trkpt>
      <trkpt lat="47.67719" lon="3.69676">
        <ele>192</ele>
        <time>2014-04-16T13:42:13Z</time>
      </trkpt>
      <trkpt lat="47.67715" lon="3.69679">
        <ele>192</ele>
        <time>2014-04-16T13:42:17Z</time>
      </trkpt>
      <trkpt lat="47.67711" lon="3.69677">
        <ele>192</ele>
        <time>2014-04-16T13:42:21Z</time>
      </trkpt>
      <trkpt lat="47.67706" lon="3.69676">
        <ele>193</ele>
        <time>2014-04-16T13:42:28Z</time>
      </trkpt>
      <trkpt lat="47.67701" lon="3.69679">
        <ele>193</ele>
        <time>2014-04-16T13:42:32Z</time>
      </trkpt>
      <trkpt lat="47.67697" lon="3.69683">
        <ele>193</ele>
        <time>2014-04-16T13:42:37Z</time>
      </trkpt>
      <trkpt lat="47.67693" lon="3.69687">
        <ele>194</ele>
        <time>2014-04-16T13:42:42Z</time>
      </trkpt>
      <trkpt lat="47.67688" lon="3.6969">
        <ele>194</ele>
        <time>2014-04-16T13:42:48Z</time>
      </trkpt>
      <trkpt lat="47.67685" lon="3.69696">
        <ele>194</ele>
        <time>2014-04-16T13:42:52Z</time>
      </trkpt>
      <trkpt lat="47.67682" lon="3.69702">
        <ele>194</ele>
        <time>2014-04-16T13:43:00Z</time>
      </trkpt>
      <trkpt lat="47.67677" lon="3.69705">
        <ele>194</ele>
        <time>2014-04-16T13:43:04Z</time>
      </trkpt>
      <trkpt lat="47.67672" lon="3.69708">
        <ele>194</ele>
        <time>2014-04-16T13:43:08Z</time>
      </trkpt>
      <trkpt lat="47.67667" lon="3.69709">
        <ele>194</ele>
        <time>2014-04-16T13:43:13Z</time>
      </trkpt>
      <trkpt lat="47.67662" lon="3.6971">
        <ele>197</ele>
        <time>2014-04-16T13:43:17Z</time>
      </trkpt>
      <trkpt lat="47.67658" lon="3.69711">
        <ele>197</ele>
        <time>2014-04-16T13:43:21Z</time>
      </trkpt>
      <trkpt lat="47.67653" lon="3.69711">
        <ele>197</ele>
        <time>2014-04-16T13:43:25Z</time>
      </trkpt>
      <trkpt lat="47.67648" lon="3.69709">
        <ele>197</ele>
        <time>2014-04-16T13:43:29Z</time>
      </trkpt>
      <trkpt lat="47.67644" lon="3.6971">
        <ele>197</ele>
        <time>2014-04-16T13:43:33Z</time>
      </trkpt>
      <trkpt lat="47.67638" lon="3.69711">
        <ele>197</ele>
        <time>2014-04-16T13:43:40Z</time>
      </trkpt>
      <trkpt lat="47.67633" lon="3.69713">
        <ele>197</ele>
        <time>2014-04-16T13:43:50Z</time>
      </trkpt>
      <trkpt lat="47.67628" lon="3.69712">
        <ele>197</ele>
        <time>2014-04-16T13:43:57Z</time>
      </trkpt>
      <trkpt lat="47.67623" lon="3.69711">
        <ele>197</ele>
        <time>2014-04-16T13:44:02Z</time>
      </trkpt>
      <trkpt lat="47.67617" lon="3.69711">
        <ele>197</ele>
        <time>2014-04-16T13:44:06Z</time>
      </trkpt>
      <trkpt lat="47.67614" lon="3.69717">
        <ele>197</ele>
        <time>2014-04-16T13:44:12Z</time>
      </trkpt>
      <trkpt lat="47.67612" lon="3.69723">
        <ele>197</ele>
        <time>2014-04-16T13:44:17Z</time>
      </trkpt>
      <trkpt lat="47.67609" lon="3.69728">
        <ele>197</ele>
        <time>2014-04-16T13:44:22Z</time>
      </trkpt>
      <trkpt lat="47.67606" lon="3.69733">
        <ele>197</ele>
        <time>2014-04-16T13:44:27Z</time>
      </trkpt>
      <trkpt lat="47.67607" lon="3.69739">
        <ele>197</ele>
        <time>2014-04-16T13:44:32Z</time>
      </trkpt>
      <trkpt lat="47.67613" lon="3.69741">
        <ele>197</ele>
        <time>2014-04-16T13:44:40Z</time>
      </trkpt>
      <trkpt lat="47.67615" lon="3.6975">
        <ele>197</ele>
        <time>2014-04-16T13:44:43Z</time>
      </trkpt>
      <trkpt lat="47.67617" lon="3.69756">
        <ele>197</ele>
        <time>2014-04-16T13:44:48Z</time>
      </trkpt>
      <trkpt lat="47.67619" lon="3.69763">
        <ele>197</ele>
        <time>2014-04-16T13:44:53Z</time>
      </trkpt>
      <trkpt lat="47.67621" lon="3.6977">
        <ele>197</ele>
        <time>2014-04-16T13:44:58Z</time>
      </trkpt>
      <trkpt lat="47.6762" lon="3.69776">
        <ele>197</ele>
        <time>2014-04-16T13:45:03Z</time>
      </trkpt>
      <trkpt lat="47.67624" lon="3.69782">
        <ele>197</ele>
        <time>2014-04-16T13:45:07Z</time>
      </trkpt>
      <trkpt lat="47.67627" lon="3.69788">
        <ele>197</ele>
        <time>2014-04-16T13:45:11Z</time>
      </trkpt>
      <trkpt lat="47.67628" lon="3.69794">
        <ele>197</ele>
        <time>2014-04-16T13:45:15Z</time>
      </trkpt>
      <trkpt lat="47.67626" lon="3.69801">
        <ele>197</ele>
        <time>2014-04-16T13:45:20Z</time>
      </trkpt>
      <trkpt lat="47.67623" lon="3.69807">
        <ele>197</ele>
        <time>2014-04-16T13:45:24Z</time>
      </trkpt>
      <trkpt lat="47.67618" lon="3.69811">
        <ele>197</ele>
        <time>2014-04-16T13:45:28Z</time>
      </trkpt>
      <trkpt lat="47.67613" lon="3.69815">
        <ele>197</ele>
        <time>2014-04-16T13:45:32Z</time>
      </trkpt>
      <trkpt lat="47.67611" lon="3.69823">
        <ele>197</ele>
        <time>2014-04-16T13:45:36Z</time>
      </trkpt>
      <trkpt lat="47.67609" lon="3.6983">
        <ele>197</ele>
        <time>2014-04-16T13:45:40Z</time>
      </trkpt>
      <trkpt lat="47.67604" lon="3.69835">
        <ele>197</ele>
        <time>2014-04-16T13:45:45Z</time>
      </trkpt>
      <trkpt lat="47.67601" lon="3.69841">
        <ele>197</ele>
        <time>2014-04-16T13:45:49Z</time>
      </trkpt>
      <trkpt lat="47.67599" lon="3.69847">
        <ele>197</ele>
        <time>2014-04-16T13:45:53Z</time>
      </trkpt>
      <trkpt lat="47.67596" lon="3.69853">
        <ele>197</ele>
        <time>2014-04-16T13:45:58Z</time>
      </trkpt>
      <trkpt lat="47.6759" lon="3.69859">
        <ele>197</ele>
        <time>2014-04-16T13:46:03Z</time>
      </trkpt>
      <trkpt lat="47.67586" lon="3.69865">
        <ele>197</ele>
        <time>2014-04-16T13:46:07Z</time>
      </trkpt>
      <trkpt lat="47.67582" lon="3.69868">
        <ele>195</ele>
        <time>2014-04-16T13:46:12Z</time>
      </trkpt>
      <trkpt lat="47.67579" lon="3.69875">
        <ele>195</ele>
        <time>2014-04-16T13:46:17Z</time>
      </trkpt>
      <trkpt lat="47.67576" lon="3.69881">
        <ele>195</ele>
        <time>2014-04-16T13:46:22Z</time>
      </trkpt>
      <trkpt lat="47.67573" lon="3.69887">
        <ele>195</ele>
        <time>2014-04-16T13:46:27Z</time>
      </trkpt>
      <trkpt lat="47.6757" lon="3.69893">
        <ele>195</ele>
        <time>2014-04-16T13:46:32Z</time>
      </trkpt>
      <trkpt lat="47.67566" lon="3.69898">
        <ele>195</ele>
        <time>2014-04-16T13:46:37Z</time>
      </trkpt>
      <trkpt lat="47.67561" lon="3.69901">
        <ele>195</ele>
        <time>2014-04-16T13:46:42Z</time>
      </trkpt>
      <trkpt lat="47.67557" lon="3.69901">
        <ele>195</ele>
        <time>2014-04-16T13:46:59Z</time>
      </trkpt>
      <trkpt lat="47.67553" lon="3.69907">
        <ele>195</ele>
        <time>2014-04-16T13:47:02Z</time>
      </trkpt>
      <trkpt lat="47.67549" lon="3.6991">
        <ele>195</ele>
        <time>2014-04-16T13:47:07Z</time>
      </trkpt>
      <trkpt lat="47.67545" lon="3.69912">
        <ele>195</ele>
        <time>2014-04-16T13:47:11Z</time>
      </trkpt>
      <trkpt lat="47.67541" lon="3.69916">
        <ele>195</ele>
        <time>2014-04-16T13:47:14Z</time>
      </trkpt>
      <trkpt lat="47.67538" lon="3.69921">
        <ele>195</ele>
        <time>2014-04-16T13:47:18Z</time>
      </trkpt>
      <trkpt lat="47.67535" lon="3.69928">
        <ele>195</ele>
        <time>2014-04-16T13:47:22Z</time>
      </trkpt>
      <trkpt lat="47.67533" lon="3.69935">
        <ele>195</ele>
        <time>2014-04-16T13:47:26Z</time>
      </trkpt>
      <trkpt lat="47.67529" lon="3.69939">
        <ele>195</ele>
        <time>2014-04-16T13:47:30Z</time>
      </trkpt>
      <trkpt lat="47.67525" lon="3.69943">
        <ele>195</ele>
        <time>2014-04-16T13:47:34Z</time>
      </trkpt>
      <trkpt lat="47.6752" lon="3.69947">
        <ele>195</ele>
        <time>2014-04-16T13:47:38Z</time>
      </trkpt>
      <trkpt lat="47.67517" lon="3.69952">
        <ele>195</ele>
        <time>2014-04-16T13:47:44Z</time>
      </trkpt>
      <trkpt lat="47.67515" lon="3.69959">
        <ele>195</ele>
        <time>2014-04-16T13:47:49Z</time>
      </trkpt>
      <trkpt lat="47.67511" lon="3.69964">
        <ele>195</ele>
        <time>2014-04-16T13:47:54Z</time>
      </trkpt>
      <trkpt lat="47.67506" lon="3.69967">
        <ele>195</ele>
        <time>2014-04-16T13:48:00Z</time>
      </trkpt>
      <trkpt lat="47.67503" lon="3.69974">
        <ele>195</ele>
        <time>2014-04-16T13:48:04Z</time>
      </trkpt>
      <trkpt lat="47.67502" lon="3.69981">
        <ele>195</ele>
        <time>2014-04-16T13:48:07Z</time>
      </trkpt>
      <trkpt lat="47.67499" lon="3.69986">
        <ele>194</ele>
        <time>2014-04-16T13:48:11Z</time>
      </trkpt>
      <trkpt lat="47.67494" lon="3.69989">
        <ele>194</ele>
        <time>2014-04-16T13:48:15Z</time>
      </trkpt>
      <trkpt lat="47.67489" lon="3.69992">
        <ele>194</ele>
        <time>2014-04-16T13:48:20Z</time>
      </trkpt>
      <trkpt lat="47.67485" lon="3.69998">
        <ele>194</ele>
        <time>2014-04-16T13:48:25Z</time>
      </trkpt>
      <trkpt lat="47.6748" lon="3.70002">
        <ele>196</ele>
        <time>2014-04-16T13:48:30Z</time>
      </trkpt>
      <trkpt lat="47.67476" lon="3.70004">
        <ele>196</ele>
        <time>2014-04-16T13:48:34Z</time>
      </trkpt>
      <trkpt lat="47.67472" lon="3.70009">
        <ele>196</ele>
        <time>2014-04-16T13:48:38Z</time>
      </trkpt>
      <trkpt lat="47.67469" lon="3.70014">
        <ele>196</ele>
        <time>2014-04-16T13:48:42Z</time>
      </trkpt>
      <trkpt lat="47.67465" lon="3.7002">
        <ele>196</ele>
        <time>2014-04-16T13:48:47Z</time>
      </trkpt>
      <trkpt lat="47.67461" lon="3.70025">
        <ele>196</ele>
        <time>2014-04-16T13:48:52Z</time>
      </trkpt>
      <trkpt lat="47.67457" lon="3.7003">
        <ele>196</ele>
        <time>2014-04-16T13:48:57Z</time>
      </trkpt>
      <trkpt lat="47.67454" lon="3.70035">
        <ele>196</ele>
        <time>2014-04-16T13:49:01Z</time>
      </trkpt>
      <trkpt lat="47.6745" lon="3.7004">
        <ele>197</ele>
        <time>2014-04-16T13:49:05Z</time>
      </trkpt>
      <trkpt lat="47.67446" lon="3.70042">
        <ele>197</ele>
        <time>2014-04-16T13:49:09Z</time>
      </trkpt>
      <trkpt lat="47.67441" lon="3.70045">
        <ele>197</ele>
        <time>2014-04-16T13:49:13Z</time>
      </trkpt>
      <trkpt lat="47.67437" lon="3.7005">
        <ele>197</ele>
        <time>2014-04-16T13:49:17Z</time>
      </trkpt>
      <trkpt lat="47.67434" lon="3.70054">
        <ele>197</ele>
        <time>2014-04-16T13:49:21Z</time>
      </trkpt>
      <trkpt lat="47.67429" lon="3.70057">
        <ele>197</ele>
        <time>2014-04-16T13:49:25Z</time>
      </trkpt>
      <trkpt lat="47.67425" lon="3.70061">
        <ele>197</ele>
        <time>2014-04-16T13:49:29Z</time>
      </trkpt>
      <trkpt lat="47.6742" lon="3.70066">
        <ele>197</ele>
        <time>2014-04-16T13:49:34Z</time>
      </trkpt>
      <trkpt lat="47.67417" lon="3.70066">
        <ele>197</ele>
        <time>2014-04-16T13:49:42Z</time>
      </trkpt>
      <trkpt lat="47.67412" lon="3.70072">
        <ele>197</ele>
        <time>2014-04-16T13:52:29Z</time>
      </trkpt>
      <trkpt lat="47.67408" lon="3.70076">
        <ele>197</ele>
        <time>2014-04-16T13:52:35Z</time>
      </trkpt>
      <trkpt lat="47.67408" lon="3.70083">
        <ele>198</ele>
        <time>2014-04-16T13:52:41Z</time>
      </trkpt>
      <trkpt lat="47.67404" lon="3.70087">
        <ele>199</ele>
        <time>2014-04-16T13:52:56Z</time>
      </trkpt>
      <trkpt lat="47.67399" lon="3.70091">
        <ele>199</ele>
        <time>2014-04-16T13:53:01Z</time>
      </trkpt>
      <trkpt lat="47.67394" lon="3.70093">
        <ele>199</ele>
        <time>2014-04-16T13:53:07Z</time>
      </trkpt>
      <trkpt lat="47.67389" lon="3.70095">
        <ele>199</ele>
        <time>2014-04-16T13:53:13Z</time>
      </trkpt>
      <trkpt lat="47.67385" lon="3.70099">
        <ele>199</ele>
        <time>2014-04-16T13:53:17Z</time>
      </trkpt>
      <trkpt lat="47.6738" lon="3.70101">
        <ele>199</ele>
        <time>2014-04-16T13:53:23Z</time>
      </trkpt>
      <trkpt lat="47.67375" lon="3.70103">
        <ele>199</ele>
        <time>2014-04-16T13:53:28Z</time>
      </trkpt>
      <trkpt lat="47.67374" lon="3.70109">
        <ele>199</ele>
        <time>2014-04-16T13:54:18Z</time>
      </trkpt>
      <trkpt lat="47.67371" lon="3.70115">
        <ele>199</ele>
        <time>2014-04-16T13:54:23Z</time>
      </trkpt>
      <trkpt lat="47.67366" lon="3.70118">
        <ele>199</ele>
        <time>2014-04-16T13:54:26Z</time>
      </trkpt>
      <trkpt lat="47.67361" lon="3.70122">
        <ele>199</ele>
        <time>2014-04-16T13:54:30Z</time>
      </trkpt>
      <trkpt lat="47.67357" lon="3.70128">
        <ele>199</ele>
        <time>2014-04-16T13:54:35Z</time>
      </trkpt>
      <trkpt lat="47.67353" lon="3.70133">
        <ele>200</ele>
        <time>2014-04-16T13:54:39Z</time>
      </trkpt>
      <trkpt lat="47.6735" lon="3.70138">
        <ele>200</ele>
        <time>2014-04-16T13:54:45Z</time>
      </trkpt>
      <trkpt lat="47.67346" lon="3.70143">
        <ele>200</ele>
        <time>2014-04-16T13:54:50Z</time>
      </trkpt>
      <trkpt lat="47.67342" lon="3.70148">
        <ele>200</ele>
        <time>2014-04-16T13:54:54Z</time>
      </trkpt>
      <trkpt lat="47.67338" lon="3.70154">
        <ele>200</ele>
        <time>2014-04-16T13:54:59Z</time>
      </trkpt>
      <trkpt lat="47.67335" lon="3.70159">
        <ele>201</ele>
        <time>2014-04-16T13:55:03Z</time>
      </trkpt>
      <trkpt lat="47.67331" lon="3.70163">
        <ele>200</ele>
        <time>2014-04-16T13:55:07Z</time>
      </trkpt>
      <trkpt lat="47.67327" lon="3.70168">
        <ele>201</ele>
        <time>2014-04-16T13:55:13Z</time>
      </trkpt>
      <trkpt lat="47.67325" lon="3.70175">
        <ele>200</ele>
        <time>2014-04-16T13:55:20Z</time>
      </trkpt>
      <trkpt lat="47.67321" lon="3.7018">
        <ele>200</ele>
        <time>2014-04-16T13:55:25Z</time>
      </trkpt>
      <trkpt lat="47.67317" lon="3.70185">
        <ele>200</ele>
        <time>2014-04-16T13:55:28Z</time>
      </trkpt>
      <trkpt lat="47.67314" lon="3.70192">
        <ele>200</ele>
        <time>2014-04-16T13:55:31Z</time>
      </trkpt>
      <trkpt lat="47.67314" lon="3.702">
        <ele>200</ele>
        <time>2014-04-16T13:55:35Z</time>
      </trkpt>
      <trkpt lat="47.67316" lon="3.70207">
        <ele>200</ele>
        <time>2014-04-16T13:55:38Z</time>
      </trkpt>
      <trkpt lat="47.67315" lon="3.70213">
        <ele>200</ele>
        <time>2014-04-16T13:55:41Z</time>
      </trkpt>
      <trkpt lat="47.67311" lon="3.70218">
        <ele>200</ele>
        <time>2014-04-16T13:55:43Z</time>
      </trkpt>
      <trkpt lat="47.67307" lon="3.70222">
        <ele>200</ele>
        <time>2014-04-16T13:55:45Z</time>
      </trkpt>
      <trkpt lat="47.67303" lon="3.70225">
        <ele>200</ele>
        <time>2014-04-16T13:55:48Z</time>
      </trkpt>
      <trkpt lat="47.67299" lon="3.70228">
        <ele>200</ele>
        <time>2014-04-16T13:55:51Z</time>
      </trkpt>
      <trkpt lat="47.67295" lon="3.70233">
        <ele>199</ele>
        <time>2014-04-16T13:55:55Z</time>
      </trkpt>
      <trkpt lat="47.67292" lon="3.70238">
        <ele>199</ele>
        <time>2014-04-16T13:56:00Z</time>
      </trkpt>
      <trkpt lat="47.67287" lon="3.70242">
        <ele>199</ele>
        <time>2014-04-16T13:56:04Z</time>
      </trkpt>
      <trkpt lat="47.67284" lon="3.70247">
        <ele>199</ele>
        <time>2014-04-16T13:56:09Z</time>
      </trkpt>
      <trkpt lat="47.67281" lon="3.70253">
        <ele>200</ele>
        <time>2014-04-16T13:56:14Z</time>
      </trkpt>
      <trkpt lat="47.67278" lon="3.70258">
        <ele>200</ele>
        <time>2014-04-16T13:56:19Z</time>
      </trkpt>
      <trkpt lat="47.67274" lon="3.70263">
        <ele>200</ele>
        <time>2014-04-16T13:56:24Z</time>
      </trkpt>
      <trkpt lat="47.67272" lon="3.7027">
        <ele>200</ele>
        <time>2014-04-16T13:56:29Z</time>
      </trkpt>
      <trkpt lat="47.67269" lon="3.70276">
        <ele>200</ele>
        <time>2014-04-16T13:56:34Z</time>
      </trkpt>
      <trkpt lat="47.67265" lon="3.70281">
        <ele>200</ele>
        <time>2014-04-16T13:56:38Z</time>
      </trkpt>
      <trkpt lat="47.67262" lon="3.70287">
        <ele>200</ele>
        <time>2014-04-16T13:56:42Z</time>
      </trkpt>
      <trkpt lat="47.67259" lon="3.70293">
        <ele>201</ele>
        <time>2014-04-16T13:56:46Z</time>
      </trkpt>
      <trkpt lat="47.67256" lon="3.70299">
        <ele>201</ele>
        <time>2014-04-16T13:56:50Z</time>
      </trkpt>
      <trkpt lat="47.67253" lon="3.70304">
        <ele>201</ele>
        <time>2014-04-16T13:56:55Z</time>
      </trkpt>
      <trkpt lat="47.6725" lon="3.70308">
        <ele>196</ele>
        <time>2014-04-16T13:57:02Z</time>
      </trkpt>
      <trkpt lat="47.67245" lon="3.70306">
        <ele>196</ele>
        <time>2014-04-16T13:57:05Z</time>
      </trkpt>
      <trkpt lat="47.67241" lon="3.70308">
        <ele>196</ele>
        <time>2014-04-16T13:57:30Z</time>
      </trkpt>
      <trkpt lat="47.67238" lon="3.70315">
        <ele>197</ele>
        <time>2014-04-16T13:57:36Z</time>
      </trkpt>
      <trkpt lat="47.67235" lon="3.70322">
        <ele>197</ele>
        <time>2014-04-16T13:57:41Z</time>
      </trkpt>
      <trkpt lat="47.67231" lon="3.70327">
        <ele>197</ele>
        <time>2014-04-16T13:57:45Z</time>
      </trkpt>
      <trkpt lat="47.67227" lon="3.70331">
        <ele>196</ele>
        <time>2014-04-16T13:57:49Z</time>
      </trkpt>
      <trkpt lat="47.67223" lon="3.70335">
        <ele>196</ele>
        <time>2014-04-16T13:57:53Z</time>
      </trkpt>
      <trkpt lat="47.6722" lon="3.70339">
        <ele>196</ele>
        <time>2014-04-16T13:57:58Z</time>
      </trkpt>
      <trkpt lat="47.67216" lon="3.70345">
        <ele>196</ele>
        <time>2014-04-16T13:58:03Z</time>
      </trkpt>
      <trkpt lat="47.67213" lon="3.7035">
        <ele>195</ele>
        <time>2014-04-16T13:58:08Z</time>
      </trkpt>
      <trkpt lat="47.6721" lon="3.70355">
        <ele>195</ele>
        <time>2014-04-16T13:58:13Z</time>
      </trkpt>
      <trkpt lat="47.67206" lon="3.70359">
        <ele>195</ele>
        <time>2014-04-16T13:58:18Z</time>
      </trkpt>
      <trkpt lat="47.67203" lon="3.70365">
        <ele>194</ele>
        <time>2014-04-16T13:58:23Z</time>
      </trkpt>
      <trkpt lat="47.67199" lon="3.70369">
        <ele>194</ele>
        <time>2014-04-16T13:58:28Z</time>
      </trkpt>
      <trkpt lat="47.67194" lon="3.70373">
        <ele>194</ele>
        <time>2014-04-16T13:58:32Z</time>
      </trkpt>
      <trkpt lat="47.67189" lon="3.70376">
        <ele>193</ele>
        <time>2014-04-16T13:58:36Z</time>
      </trkpt>
      <trkpt lat="47.67185" lon="3.70381">
        <ele>193</ele>
        <time>2014-04-16T13:58:41Z</time>
      </trkpt>
      <trkpt lat="47.67181" lon="3.70385">
        <ele>193</ele>
        <time>2014-04-16T13:58:46Z</time>
      </trkpt>
      <trkpt lat="47.67177" lon="3.70391">
        <ele>193</ele>
        <time>2014-04-16T13:58:52Z</time>
      </trkpt>
      <trkpt lat="47.67175" lon="3.70398">
        <ele>192</ele>
        <time>2014-04-16T13:58:56Z</time>
      </trkpt>
      <trkpt lat="47.67173" lon="3.70405">
        <ele>191</ele>
        <time>2014-04-16T13:59:00Z</time>
      </trkpt>
      <trkpt lat="47.6717" lon="3.7041">
        <ele>190</ele>
        <time>2014-04-16T13:59:04Z</time>
      </trkpt>
      <trkpt lat="47.67166" lon="3.70415">
        <ele>189</ele>
        <time>2014-04-16T13:59:09Z</time>
      </trkpt>
      <trkpt lat="47.67162" lon="3.70419">
        <ele>188</ele>
        <time>2014-04-16T13:59:13Z</time>
      </trkpt>
      <trkpt lat="47.67157" lon="3.70423">
        <ele>186</ele>
        <time>2014-04-16T13:59:17Z</time>
      </trkpt>
      <trkpt lat="47.67154" lon="3.7043">
        <ele>185</ele>
        <time>2014-04-16T13:59:22Z</time>
      </trkpt>
      <trkpt lat="47.67152" lon="3.70437">
        <ele>184</ele>
        <time>2014-04-16T13:59:27Z</time>
      </trkpt>
      <trkpt lat="47.67151" lon="3.70441">
        <ele>184</ele>
        <time>2014-04-16T13:59:48Z</time>
      </trkpt>
      <trkpt lat="47.67148" lon="3.70446">
        <ele>184</ele>
        <time>2014-04-16T13:59:53Z</time>
      </trkpt>
      <trkpt lat="47.67147" lon="3.70453">
        <ele>183</ele>
        <time>2014-04-16T13:59:57Z</time>
      </trkpt>
      <trkpt lat="47.67143" lon="3.7046">
        <ele>183</ele>
        <time>2014-04-16T14:00:02Z</time>
      </trkpt>
      <trkpt lat="47.67141" lon="3.70466">
        <ele>182</ele>
        <time>2014-04-16T14:00:06Z</time>
      </trkpt>
      <trkpt lat="47.6714" lon="3.70473">
        <ele>182</ele>
        <time>2014-04-16T14:00:10Z</time>
      </trkpt>
      <trkpt lat="47.67139" lon="3.70481">
        <ele>182</ele>
        <time>2014-04-16T14:00:14Z</time>
      </trkpt>
      <trkpt lat="47.67138" lon="3.70487">
        <ele>182</ele>
        <time>2014-04-16T14:00:19Z</time>
      </trkpt>
      <trkpt lat="47.67137" lon="3.70494">
        <ele>182</ele>
        <time>2014-04-16T14:00:26Z</time>
      </trkpt>
      <trkpt lat="47.67134" lon="3.70501">
        <ele>178</ele>
        <time>2014-04-16T14:00:31Z</time>
      </trkpt>
      <trkpt lat="47.67133" lon="3.70508">
        <ele>177</ele>
        <time>2014-04-16T14:00:35Z</time>
      </trkpt>
      <trkpt lat="47.67132" lon="3.70515">
        <ele>177</ele>
        <time>2014-04-16T14:00:39Z</time>
      </trkpt>
      <trkpt lat="47.67128" lon="3.70519">
        <ele>177</ele>
        <time>2014-04-16T14:00:46Z</time>
      </trkpt>
      <trkpt lat="47.67129" lon="3.70525">
        <ele>176</ele>
        <time>2014-04-16T14:01:04Z</time>
      </trkpt>
      <trkpt lat="47.67127" lon="3.70531">
        <ele>176</ele>
        <time>2014-04-16T14:01:07Z</time>
      </trkpt>
      <trkpt lat="47.67124" lon="3.70537">
        <ele>176</ele>
        <time>2014-04-16T14:01:10Z</time>
      </trkpt>
      <trkpt lat="47.67121" lon="3.70538">
        <ele>175</ele>
        <time>2014-04-16T14:01:16Z</time>
      </trkpt>
      <trkpt lat="47.67121" lon="3.70546">
        <ele>175</ele>
        <time>2014-04-16T14:01:43Z</time>
      </trkpt>
      <trkpt lat="47.6712" lon="3.70552">
        <ele>175</ele>
        <time>2014-04-16T14:01:47Z</time>
      </trkpt>
      <trkpt lat="47.67117" lon="3.7056">
        <ele>174</ele>
        <time>2014-04-16T14:02:08Z</time>
      </trkpt>
      <trkpt lat="47.67114" lon="3.70567">
        <ele>173</ele>
        <time>2014-04-16T14:02:12Z</time>
      </trkpt>
      <trkpt lat="47.67111" lon="3.70574">
        <ele>173</ele>
        <time>2014-04-16T14:02:15Z</time>
      </trkpt>
      <trkpt lat="47.67108" lon="3.7058">
        <ele>172</ele>
        <time>2014-04-16T14:02:19Z</time>
      </trkpt>
      <trkpt lat="47.67108" lon="3.70587">
        <ele>169</ele>
        <time>2014-04-16T14:02:23Z</time>
      </trkpt>
      <trkpt lat="47.67106" lon="3.70594">
        <ele>168</ele>
        <time>2014-04-16T14:02:28Z</time>
      </trkpt>
      <trkpt lat="47.67104" lon="3.706">
        <ele>168</ele>
        <time>2014-04-16T14:02:33Z</time>
      </trkpt>
      <trkpt lat="47.671" lon="3.70605">
        <ele>168</ele>
        <time>2014-04-16T14:02:39Z</time>
      </trkpt>
      <trkpt lat="47.67097" lon="3.70611">
        <ele>168</ele>
        <time>2014-04-16T14:02:44Z</time>
      </trkpt>
      <trkpt lat="47.67098" lon="3.70619">
        <ele>168</ele>
        <time>2014-04-16T14:02:49Z</time>
      </trkpt>
      <trkpt lat="47.67098" lon="3.70627">
        <ele>167</ele>
        <time>2014-04-16T14:02:53Z</time>
      </trkpt>
      <trkpt lat="47.6709" lon="3.70643">
        <ele>166</ele>
        <time>2014-04-16T14:03:13Z</time>
      </trkpt>
      <trkpt lat="47.67088" lon="3.7065">
        <ele>165</ele>
        <time>2014-04-16T14:03:17Z</time>
      </trkpt>
      <trkpt lat="47.67085" lon="3.70656">
        <ele>163</ele>
        <time>2014-04-16T14:03:21Z</time>
      </trkpt>
      <trkpt lat="47.67085" lon="3.70663">
        <ele>161</ele>
        <time>2014-04-16T14:03:47Z</time>
      </trkpt>
      <trkpt lat="47.67081" lon="3.70669">
        <ele>159</ele>
        <time>2014-04-16T14:03:51Z</time>
      </trkpt>
      <trkpt lat="47.67078" lon="3.70676">
        <ele>157</ele>
        <time>2014-04-16T14:03:55Z</time>
      </trkpt>
      <trkpt lat="47.67079" lon="3.7068">
        <ele>157</ele>
        <time>2014-04-16T14:04:01Z</time>
      </trkpt>
      <trkpt lat="47.67077" lon="3.70685">
        <ele>156</ele>
        <time>2014-04-16T14:04:22Z</time>
      </trkpt>
      <trkpt lat="47.67072" lon="3.7069">
        <ele>155</ele>
        <time>2014-04-16T14:04:27Z</time>
      </trkpt>
      <trkpt lat="47.67069" lon="3.70695">
        <ele>155</ele>
        <time>2014-04-16T14:04:32Z</time>
      </trkpt>
      <trkpt lat="47.67065" lon="3.70699">
        <ele>154</ele>
        <time>2014-04-16T14:04:37Z</time>
      </trkpt>
      <trkpt lat="47.67061" lon="3.70704">
        <ele>154</ele>
        <time>2014-04-16T14:04:41Z</time>
      </trkpt>
      <trkpt lat="47.67058" lon="3.70711">
        <ele>153</ele>
        <time>2014-04-16T14:04:45Z</time>
      </trkpt>
      <trkpt lat="47.67057" lon="3.70718">
        <ele>153</ele>
        <time>2014-04-16T14:04:49Z</time>
      </trkpt>
      <trkpt lat="47.67054" lon="3.70724">
        <ele>153</ele>
        <time>2014-04-16T14:04:54Z</time>
      </trkpt>
      <trkpt lat="47.6705" lon="3.70727">
        <ele>152</ele>
        <time>2014-04-16T14:04:59Z</time>
      </trkpt>
      <trkpt lat="47.67046" lon="3.70732">
        <ele>152</ele>
        <time>2014-04-16T14:05:03Z</time>
      </trkpt>
      <trkpt lat="47.67042" lon="3.70734">
        <ele>152</ele>
        <time>2014-04-16T14:05:07Z</time>
      </trkpt>
      <trkpt lat="47.67037" lon="3.70733">
        <ele>152</ele>
        <time>2014-04-16T14:05:11Z</time>
      </trkpt>
      <trkpt lat="47.67033" lon="3.70737">
        <ele>151</ele>
        <time>2014-04-16T14:05:17Z</time>
      </trkpt>
      <trkpt lat="47.67028" lon="3.7074">
        <ele>151</ele>
        <time>2014-04-16T14:05:21Z</time>
      </trkpt>
      <trkpt lat="47.67024" lon="3.70742">
        <ele>150</ele>
        <time>2014-04-16T14:05:24Z</time>
      </trkpt>
      <trkpt lat="47.67019" lon="3.70743">
        <ele>150</ele>
        <time>2014-04-16T14:05:29Z</time>
      </trkpt>
      <trkpt lat="47.67014" lon="3.70745">
        <ele>149</ele>
        <time>2014-04-16T14:05:33Z</time>
      </trkpt>
      <trkpt lat="47.67011" lon="3.70752">
        <ele>147</ele>
        <time>2014-04-16T14:05:40Z</time>
      </trkpt>
      <trkpt lat="47.67007" lon="3.70754">
        <ele>147</ele>
        <time>2014-04-16T14:05:43Z</time>
      </trkpt>
      <trkpt lat="47.67002" lon="3.70757">
        <ele>147</ele>
        <time>2014-04-16T14:05:47Z</time>
      </trkpt>
      <trkpt lat="47.66997" lon="3.70759">
        <ele>145</ele>
        <time>2014-04-16T14:05:51Z</time>
      </trkpt>
      <trkpt lat="47.66992" lon="3.70761">
        <ele>144</ele>
        <time>2014-04-16T14:05:55Z</time>
      </trkpt>
      <trkpt lat="47.66987" lon="3.70762">
        <ele>144</ele>
        <time>2014-04-16T14:06:00Z</time>
      </trkpt>
      <trkpt lat="47.66982" lon="3.70765">
        <ele>143</ele>
        <time>2014-04-16T14:06:03Z</time>
      </trkpt>
      <trkpt lat="47.6698" lon="3.70767">
        <ele>143</ele>
        <time>2014-04-16T14:06:26Z</time>
      </trkpt>
      <trkpt lat="47.66975" lon="3.70768">
        <ele>143</ele>
        <time>2014-04-16T14:06:30Z</time>
      </trkpt>
      <trkpt lat="47.66971" lon="3.70772">
        <ele>142</ele>
        <time>2014-04-16T14:06:33Z</time>
      </trkpt>
      <trkpt lat="47.66967" lon="3.70779">
        <ele>142</ele>
        <time>2014-04-16T14:06:36Z</time>
      </trkpt>
      <trkpt lat="47.66962" lon="3.70781">
        <ele>142</ele>
        <time>2014-04-16T14:06:41Z</time>
      </trkpt>
      <trkpt lat="47.66958" lon="3.70782">
        <ele>142</ele>
        <time>2014-04-16T14:06:46Z</time>
      </trkpt>
      <trkpt lat="47.66953" lon="3.70785">
        <ele>141</ele>
        <time>2014-04-16T14:06:50Z</time>
      </trkpt>
      <trkpt lat="47.66949" lon="3.70788">
        <ele>141</ele>
        <time>2014-04-16T14:06:53Z</time>
      </trkpt>
      <trkpt lat="47.66945" lon="3.70791">
        <ele>141</ele>
        <time>2014-04-16T14:06:57Z</time>
      </trkpt>
      <trkpt lat="47.66939" lon="3.70794">
        <ele>141</ele>
        <time>2014-04-16T14:07:01Z</time>
      </trkpt>
      <trkpt lat="47.66935" lon="3.70796">
        <ele>141</ele>
        <time>2014-04-16T14:07:04Z</time>
      </trkpt>
      <trkpt lat="47.6693" lon="3.70798">
        <ele>140</ele>
        <time>2014-04-16T14:07:09Z</time>
      </trkpt>
      <trkpt lat="47.66923" lon="3.708">
        <ele>140</ele>
        <time>2014-04-16T14:07:19Z</time>
      </trkpt>
      <trkpt lat="47.66918" lon="3.70804">
        <ele>140</ele>
        <time>2014-04-16T14:07:24Z</time>
      </trkpt>
      <trkpt lat="47.66913" lon="3.70806">
        <ele>137</ele>
        <time>2014-04-16T14:07:29Z</time>
      </trkpt>
      <trkpt lat="47.66909" lon="3.70808">
        <ele>137</ele>
        <time>2014-04-16T14:07:34Z</time>
      </trkpt>
      <trkpt lat="47.66904" lon="3.7081">
        <ele>137</ele>
        <time>2014-04-16T14:07:38Z</time>
      </trkpt>
      <trkpt lat="47.66899" lon="3.70812">
        <ele>137</ele>
        <time>2014-04-16T14:07:43Z</time>
      </trkpt>
      <trkpt lat="47.66894" lon="3.70813">
        <ele>136</ele>
        <time>2014-04-16T14:07:48Z</time>
      </trkpt>
      <trkpt lat="47.66889" lon="3.70815">
        <ele>136</ele>
        <time>2014-04-16T14:07:56Z</time>
      </trkpt>
      <trkpt lat="47.66885" lon="3.7082">
        <ele>136</ele>
        <time>2014-04-16T14:08:00Z</time>
      </trkpt>
      <trkpt lat="47.66881" lon="3.70825">
        <ele>136</ele>
        <time>2014-04-16T14:08:04Z</time>
      </trkpt>
      <trkpt lat="47.66877" lon="3.70828">
        <ele>136</ele>
        <time>2014-04-16T14:08:08Z</time>
      </trkpt>
      <trkpt lat="47.66873" lon="3.70831">
        <ele>136</ele>
        <time>2014-04-16T14:08:14Z</time>
      </trkpt>
      <trkpt lat="47.66868" lon="3.70833">
        <ele>135</ele>
        <time>2014-04-16T14:08:19Z</time>
      </trkpt>
      <trkpt lat="47.66863" lon="3.70837">
        <ele>135</ele>
        <time>2014-04-16T14:08:24Z</time>
      </trkpt>
      <trkpt lat="47.66858" lon="3.7084">
        <ele>134</ele>
        <time>2014-04-16T14:08:29Z</time>
      </trkpt>
      <trkpt lat="47.66853" lon="3.70843">
        <ele>134</ele>
        <time>2014-04-16T14:08:34Z</time>
      </trkpt>
      <trkpt lat="47.66848" lon="3.70846">
        <ele>134</ele>
        <time>2014-04-16T14:08:39Z</time>
      </trkpt>
      <trkpt lat="47.66844" lon="3.70849">
        <ele>134</ele>
        <time>2014-04-16T14:08:43Z</time>
      </trkpt>
      <trkpt lat="47.66838" lon="3.7085">
        <ele>134</ele>
        <time>2014-04-16T14:08:48Z</time>
      </trkpt>
      <trkpt lat="47.66833" lon="3.70852">
        <ele>132</ele>
        <time>2014-04-16T14:08:52Z</time>
      </trkpt>
      <trkpt lat="47.66828" lon="3.70857">
        <ele>132</ele>
        <time>2014-04-16T14:08:57Z</time>
      </trkpt>
      <trkpt lat="47.66824" lon="3.70859">
        <ele>131</ele>
        <time>2014-04-16T14:09:03Z</time>
      </trkpt>
      <trkpt lat="47.66819" lon="3.70862">
        <ele>131</ele>
        <time>2014-04-16T14:09:06Z</time>
      </trkpt>
      <trkpt lat="47.66814" lon="3.70865">
        <ele>131</ele>
        <time>2014-04-16T14:09:11Z</time>
      </trkpt>
      <trkpt lat="47.6681" lon="3.70868">
        <ele>131</ele>
        <time>2014-04-16T14:09:15Z</time>
      </trkpt>
      <trkpt lat="47.66806" lon="3.7087">
        <ele>131</ele>
        <time>2014-04-16T14:09:19Z</time>
      </trkpt>
      <trkpt lat="47.66801" lon="3.70873">
        <ele>131</ele>
        <time>2014-04-16T14:09:23Z</time>
      </trkpt>
      <trkpt lat="47.66797" lon="3.70876">
        <ele>131</ele>
        <time>2014-04-16T14:09:27Z</time>
      </trkpt>
      <trkpt lat="47.66792" lon="3.70881">
        <ele>130</ele>
        <time>2014-04-16T14:09:32Z</time>
      </trkpt>
      <trkpt lat="47.66788" lon="3.70884">
        <ele>130</ele>
        <time>2014-04-16T14:09:36Z</time>
      </trkpt>
      <trkpt lat="47.66784" lon="3.70887">
        <ele>130</ele>
        <time>2014-04-16T14:09:40Z</time>
      </trkpt>
      <trkpt lat="47.66779" lon="3.70891">
        <ele>130</ele>
        <time>2014-04-16T14:09:44Z</time>
      </trkpt>
      <trkpt lat="47.66774" lon="3.70893">
        <ele>130</ele>
        <time>2014-04-16T14:09:49Z</time>
      </trkpt>
      <trkpt lat="47.66769" lon="3.70895">
        <ele>130</ele>
        <time>2014-04-16T14:09:53Z</time>
      </trkpt>
      <trkpt lat="47.66764" lon="3.70898">
        <ele>130</ele>
        <time>2014-04-16T14:09:58Z</time>
      </trkpt>
      <trkpt lat="47.66759" lon="3.70897">
        <ele>129</ele>
        <time>2014-04-16T14:10:05Z</time>
      </trkpt>
      <trkpt lat="47.66754" lon="3.70898">
        <ele>129</ele>
        <time>2014-04-16T14:10:09Z</time>
      </trkpt>
      <trkpt lat="47.6675" lon="3.70899">
        <ele>127</ele>
        <time>2014-04-16T14:10:13Z</time>
      </trkpt>
      <trkpt lat="47.66745" lon="3.70899">
        <ele>127</ele>
        <time>2014-04-16T14:10:19Z</time>
      </trkpt>
      <trkpt lat="47.66739" lon="3.709">
        <ele>127</ele>
        <time>2014-04-16T14:10:24Z</time>
      </trkpt>
      <trkpt lat="47.66735" lon="3.70901">
        <ele>127</ele>
        <time>2014-04-16T14:10:29Z</time>
      </trkpt>
      <trkpt lat="47.6673" lon="3.70901">
        <ele>127</ele>
        <time>2014-04-16T14:10:34Z</time>
      </trkpt>
      <trkpt lat="47.66724" lon="3.70902">
        <ele>127</ele>
        <time>2014-04-16T14:10:39Z</time>
      </trkpt>
      <trkpt lat="47.66719" lon="3.70904">
        <ele>127</ele>
        <time>2014-04-16T14:10:44Z</time>
      </trkpt>
      <trkpt lat="47.66716" lon="3.70905">
        <ele>127</ele>
        <time>2014-04-16T14:10:51Z</time>
      </trkpt>
      <trkpt lat="47.66711" lon="3.70908">
        <ele>127</ele>
        <time>2014-04-16T14:11:07Z</time>
      </trkpt>
      <trkpt lat="47.66705" lon="3.7091">
        <ele>126</ele>
        <time>2014-04-16T14:11:12Z</time>
      </trkpt>
      <trkpt lat="47.667" lon="3.70912">
        <ele>126</ele>
        <time>2014-04-16T14:11:16Z</time>
      </trkpt>
      <trkpt lat="47.66695" lon="3.70913">
        <ele>126</ele>
        <time>2014-04-16T14:11:21Z</time>
      </trkpt>
      <trkpt lat="47.6669" lon="3.70912">
        <ele>126</ele>
        <time>2014-04-16T14:11:26Z</time>
      </trkpt>
      <trkpt lat="47.66685" lon="3.7091">
        <ele>126</ele>
        <time>2014-04-16T14:11:30Z</time>
      </trkpt>
      <trkpt lat="47.6668" lon="3.70911">
        <ele>125</ele>
        <time>2014-04-16T14:11:35Z</time>
      </trkpt>
      <trkpt lat="47.66674" lon="3.70912">
        <ele>125</ele>
        <time>2014-04-16T14:11:38Z</time>
      </trkpt>
      <trkpt lat="47.66669" lon="3.70912">
        <ele>124</ele>
        <time>2014-04-16T14:11:43Z</time>
      </trkpt>
      <trkpt lat="47.66663" lon="3.70913">
        <ele>124</ele>
        <time>2014-04-16T14:11:48Z</time>
      </trkpt>
      <trkpt lat="47.66658" lon="3.70913">
        <ele>124</ele>
        <time>2014-04-16T14:11:52Z</time>
      </trkpt>
      <trkpt lat="47.66653" lon="3.70914">
        <ele>124</ele>
        <time>2014-04-16T14:11:56Z</time>
      </trkpt>
      <trkpt lat="47.66648" lon="3.70917">
        <ele>123</ele>
        <time>2014-04-16T14:12:00Z</time>
      </trkpt>
      <trkpt lat="47.66643" lon="3.70919">
        <ele>123</ele>
        <time>2014-04-16T14:12:04Z</time>
      </trkpt>
      <trkpt lat="47.66638" lon="3.7092">
        <ele>122</ele>
        <time>2014-04-16T14:12:10Z</time>
      </trkpt>
      <trkpt lat="47.66633" lon="3.70921">
        <ele>122</ele>
        <time>2014-04-16T14:12:15Z</time>
      </trkpt>
      <trkpt lat="47.66628" lon="3.70921">
        <ele>122</ele>
        <time>2014-04-16T14:12:21Z</time>
      </trkpt>
      <trkpt lat="47.66623" lon="3.70923">
        <ele>122</ele>
        <time>2014-04-16T14:12:24Z</time>
      </trkpt>
      <trkpt lat="47.66618" lon="3.70922">
        <ele>122</ele>
        <time>2014-04-16T14:12:28Z</time>
      </trkpt>
      <trkpt lat="47.66613" lon="3.70921">
        <ele>122</ele>
        <time>2014-04-16T14:12:33Z</time>
      </trkpt>
      <trkpt lat="47.66609" lon="3.70918">
        <ele>121</ele>
        <time>2014-04-16T14:12:37Z</time>
      </trkpt>
      <trkpt lat="47.66604" lon="3.70913">
        <ele>123</ele>
        <time>2014-04-16T14:12:41Z</time>
      </trkpt>
      <trkpt lat="47.66598" lon="3.70914">
        <ele>122</ele>
        <time>2014-04-16T14:12:47Z</time>
      </trkpt>
      <trkpt lat="47.66594" lon="3.70915">
        <ele>122</ele>
        <time>2014-04-16T14:12:51Z</time>
      </trkpt>
      <trkpt lat="47.66591" lon="3.70923">
        <ele>121</ele>
        <time>2014-04-16T14:12:55Z</time>
      </trkpt>
      <trkpt lat="47.6659" lon="3.70929">
        <ele>121</ele>
        <time>2014-04-16T14:12:58Z</time>
      </trkpt>
      <trkpt lat="47.66589" lon="3.70937">
        <ele>121</ele>
        <time>2014-04-16T14:13:02Z</time>
      </trkpt>
      <trkpt lat="47.66585" lon="3.70945">
        <ele>121</ele>
        <time>2014-04-16T14:13:06Z</time>
      </trkpt>
      <trkpt lat="47.66583" lon="3.70952">
        <ele>118</ele>
        <time>2014-04-16T14:13:10Z</time>
      </trkpt>
      <trkpt lat="47.66582" lon="3.7096">
        <ele>118</ele>
        <time>2014-04-16T14:13:15Z</time>
      </trkpt>
      <trkpt lat="47.66581" lon="3.70968">
        <ele>117</ele>
        <time>2014-04-16T14:13:19Z</time>
      </trkpt>
      <trkpt lat="47.66584" lon="3.70974">
        <ele>120</ele>
        <time>2014-04-16T14:13:23Z</time>
      </trkpt>
      <trkpt lat="47.66586" lon="3.70986">
        <ele>120</ele>
        <time>2014-04-16T14:13:29Z</time>
      </trkpt>
      <trkpt lat="47.66581" lon="3.7099">
        <ele>118</ele>
        <time>2014-04-16T14:13:35Z</time>
      </trkpt>
      <trkpt lat="47.66576" lon="3.70991">
        <ele>117</ele>
        <time>2014-04-16T14:13:39Z</time>
      </trkpt>
      <trkpt lat="47.6657" lon="3.70985">
        <ele>117</ele>
        <time>2014-04-16T14:13:44Z</time>
      </trkpt>
      <trkpt lat="47.66565" lon="3.70983">
        <ele>117</ele>
        <time>2014-04-16T14:13:48Z</time>
      </trkpt>
      <trkpt lat="47.6656" lon="3.70981">
        <ele>117</ele>
        <time>2014-04-16T14:13:53Z</time>
      </trkpt>
      <trkpt lat="47.66555" lon="3.70983">
        <ele>117</ele>
        <time>2014-04-16T14:13:59Z</time>
      </trkpt>
      <trkpt lat="47.66553" lon="3.70986">
        <ele>117</ele>
        <time>2014-04-16T14:14:09Z</time>
      </trkpt>
      <trkpt lat="47.66549" lon="3.70985">
        <ele>116</ele>
        <time>2014-04-16T14:14:13Z</time>
      </trkpt>
      <trkpt lat="47.66543" lon="3.70982">
        <ele>116</ele>
        <time>2014-04-16T14:14:18Z</time>
      </trkpt>
      <trkpt lat="47.66538" lon="3.70982">
        <ele>116</ele>
        <time>2014-04-16T14:14:22Z</time>
      </trkpt>
      <trkpt lat="47.66534" lon="3.70979">
        <ele>116</ele>
        <time>2014-04-16T14:14:26Z</time>
      </trkpt>
      <trkpt lat="47.66529" lon="3.70978">
        <ele>116</ele>
        <time>2014-04-16T14:14:32Z</time>
      </trkpt>
      <trkpt lat="47.66525" lon="3.7098">
        <ele>116</ele>
        <time>2014-04-16T14:14:39Z</time>
      </trkpt>
      <trkpt lat="47.66521" lon="3.70978">
        <ele>115</ele>
        <time>2014-04-16T14:14:48Z</time>
      </trkpt>
      <trkpt lat="47.66516" lon="3.70976">
        <ele>115</ele>
        <time>2014-04-16T14:15:10Z</time>
      </trkpt>
      <trkpt lat="47.6651" lon="3.70972">
        <ele>115</ele>
        <time>2014-04-16T14:15:14Z</time>
      </trkpt>
      <trkpt lat="47.66504" lon="3.7097">
        <ele>115</ele>
        <time>2014-04-16T14:15:18Z</time>
      </trkpt>
      <trkpt lat="47.66499" lon="3.70972">
        <ele>112</ele>
        <time>2014-04-16T14:15:21Z</time>
      </trkpt>
      <trkpt lat="47.66495" lon="3.70974">
        <ele>112</ele>
        <time>2014-04-16T14:15:24Z</time>
      </trkpt>
      <trkpt lat="47.6649" lon="3.70973">
        <ele>112</ele>
        <time>2014-04-16T14:15:28Z</time>
      </trkpt>
      <trkpt lat="47.66485" lon="3.70973">
        <ele>112</ele>
        <time>2014-04-16T14:15:32Z</time>
      </trkpt>
      <trkpt lat="47.6648" lon="3.70972">
        <ele>112</ele>
        <time>2014-04-16T14:15:36Z</time>
      </trkpt>
      <trkpt lat="47.66475" lon="3.7097">
        <ele>112</ele>
        <time>2014-04-16T14:15:39Z</time>
      </trkpt>
      <trkpt lat="47.6647" lon="3.70968">
        <ele>112</ele>
        <time>2014-04-16T14:15:44Z</time>
      </trkpt>
      <trkpt lat="47.66465" lon="3.70968">
        <ele>112</ele>
        <time>2014-04-16T14:15:49Z</time>
      </trkpt>
      <trkpt lat="47.6646" lon="3.70965">
        <ele>112</ele>
        <time>2014-04-16T14:15:55Z</time>
      </trkpt>
      <trkpt lat="47.66455" lon="3.70964">
        <ele>111</ele>
        <time>2014-04-16T14:15:59Z</time>
      </trkpt>
      <trkpt lat="47.66449" lon="3.70965">
        <ele>111</ele>
        <time>2014-04-16T14:16:02Z</time>
      </trkpt>
      <trkpt lat="47.66444" lon="3.70963">
        <ele>111</ele>
        <time>2014-04-16T14:16:06Z</time>
      </trkpt>
      <trkpt lat="47.66439" lon="3.70962">
        <ele>111</ele>
        <time>2014-04-16T14:16:11Z</time>
      </trkpt>
      <trkpt lat="47.66435" lon="3.70959">
        <ele>111</ele>
        <time>2014-04-16T14:16:16Z</time>
      </trkpt>
      <trkpt lat="47.66429" lon="3.70957">
        <ele>111</ele>
        <time>2014-04-16T14:16:21Z</time>
      </trkpt>
      <trkpt lat="47.66424" lon="3.70958">
        <ele>111</ele>
        <time>2014-04-16T14:16:25Z</time>
      </trkpt>
      <trkpt lat="47.66421" lon="3.70954">
        <ele>111</ele>
        <time>2014-04-16T14:16:30Z</time>
      </trkpt>
      <trkpt lat="47.66416" lon="3.70952">
        <ele>109</ele>
        <time>2014-04-16T14:16:35Z</time>
      </trkpt>
      <trkpt lat="47.66411" lon="3.7095">
        <ele>109</ele>
        <time>2014-04-16T14:16:38Z</time>
      </trkpt>
      <trkpt lat="47.66406" lon="3.70948">
        <ele>109</ele>
        <time>2014-04-16T14:16:43Z</time>
      </trkpt>
      <trkpt lat="47.66401" lon="3.70948">
        <ele>109</ele>
        <time>2014-04-16T14:16:48Z</time>
      </trkpt>
      <trkpt lat="47.66396" lon="3.70947">
        <ele>109</ele>
        <time>2014-04-16T14:16:52Z</time>
      </trkpt>
      <trkpt lat="47.66391" lon="3.70946">
        <ele>109</ele>
        <time>2014-04-16T14:16:59Z</time>
      </trkpt>
      <trkpt lat="47.66386" lon="3.70945">
        <ele>109</ele>
        <time>2014-04-16T14:17:04Z</time>
      </trkpt>
      <trkpt lat="47.66381" lon="3.70944">
        <ele>109</ele>
        <time>2014-04-16T14:17:08Z</time>
      </trkpt>
      <trkpt lat="47.66376" lon="3.70941">
        <ele>109</ele>
        <time>2014-04-16T14:17:11Z</time>
      </trkpt>
      <trkpt lat="47.66372" lon="3.70939">
        <ele>109</ele>
        <time>2014-04-16T14:17:16Z</time>
      </trkpt>
      <trkpt lat="47.66368" lon="3.70937">
        <ele>109</ele>
        <time>2014-04-16T14:17:27Z</time>
      </trkpt>
      <trkpt lat="47.66365" lon="3.7094">
        <ele>109</ele>
        <time>2014-04-16T14:17:37Z</time>
      </trkpt>
      <trkpt lat="47.66361" lon="3.70943">
        <ele>109</ele>
        <time>2014-04-16T14:17:45Z</time>
      </trkpt>
      <trkpt lat="47.66356" lon="3.7094">
        <ele>109</ele>
        <time>2014-04-16T14:17:49Z</time>
      </trkpt>
      <trkpt lat="47.66351" lon="3.70938">
        <ele>109</ele>
        <time>2014-04-16T14:17:52Z</time>
      </trkpt>
      <trkpt lat="47.66347" lon="3.70937">
        <ele>109</ele>
        <time>2014-04-16T14:17:58Z</time>
      </trkpt>
      <trkpt lat="47.66342" lon="3.70936">
        <ele>109</ele>
        <time>2014-04-16T14:18:02Z</time>
      </trkpt>
      <trkpt lat="47.66337" lon="3.70935">
        <ele>109</ele>
        <time>2014-04-16T14:18:06Z</time>
      </trkpt>
      <trkpt lat="47.66332" lon="3.70931">
        <ele>109</ele>
        <time>2014-04-16T14:18:11Z</time>
      </trkpt>
      <trkpt lat="47.66328" lon="3.70929">
        <ele>109</ele>
        <time>2014-04-16T14:18:16Z</time>
      </trkpt>
      <trkpt lat="47.66323" lon="3.7093">
        <ele>109</ele>
        <time>2014-04-16T14:18:20Z</time>
      </trkpt>
      <trkpt lat="47.66318" lon="3.70929">
        <ele>109</ele>
        <time>2014-04-16T14:18:25Z</time>
      </trkpt>
      <trkpt lat="47.66313" lon="3.70928">
        <ele>109</ele>
        <time>2014-04-16T14:18:32Z</time>
      </trkpt>
      <trkpt lat="47.66308" lon="3.70926">
        <ele>109</ele>
        <time>2014-04-16T14:18:36Z</time>
      </trkpt>
      <trkpt lat="47.66303" lon="3.70926">
        <ele>109</ele>
        <time>2014-04-16T14:18:41Z</time>
      </trkpt>
      <trkpt lat="47.66298" lon="3.70924">
        <ele>109</ele>
        <time>2014-04-16T14:18:45Z</time>
      </trkpt>
      <trkpt lat="47.66294" lon="3.70922">
        <ele>109</ele>
        <time>2014-04-16T14:18:49Z</time>
      </trkpt>
      <trkpt lat="47.66288" lon="3.7092">
        <ele>109</ele>
        <time>2014-04-16T14:18:55Z</time>
      </trkpt>
      <trkpt lat="47.66284" lon="3.7092">
        <ele>109</ele>
        <time>2014-04-16T14:19:00Z</time>
      </trkpt>
      <trkpt lat="47.66278" lon="3.70921">
        <ele>109</ele>
        <time>2014-04-16T14:19:05Z</time>
      </trkpt>
      <trkpt lat="47.66273" lon="3.70921">
        <ele>110</ele>
        <time>2014-04-16T14:19:09Z</time>
      </trkpt>
      <trkpt lat="47.66268" lon="3.70919">
        <ele>110</ele>
        <time>2014-04-16T14:19:14Z</time>
      </trkpt>
      <trkpt lat="47.66263" lon="3.70918">
        <ele>110</ele>
        <time>2014-04-16T14:19:18Z</time>
      </trkpt>
      <trkpt lat="47.66258" lon="3.70916">
        <ele>110</ele>
        <time>2014-04-16T14:19:23Z</time>
      </trkpt>
      <trkpt lat="47.66253" lon="3.70916">
        <ele>110</ele>
        <time>2014-04-16T14:19:27Z</time>
      </trkpt>
      <trkpt lat="47.66247" lon="3.70916">
        <ele>110</ele>
        <time>2014-04-16T14:19:31Z</time>
      </trkpt>
      <trkpt lat="47.66242" lon="3.70917">
        <ele>111</ele>
        <time>2014-04-16T14:19:37Z</time>
      </trkpt>
      <trkpt lat="47.66237" lon="3.70916">
        <ele>111</ele>
        <time>2014-04-16T14:19:41Z</time>
      </trkpt>
      <trkpt lat="47.66232" lon="3.70913">
        <ele>111</ele>
        <time>2014-04-16T14:19:46Z</time>
      </trkpt>
      <trkpt lat="47.66229" lon="3.70915">
        <ele>111</ele>
        <time>2014-04-16T14:20:04Z</time>
      </trkpt>
      <trkpt lat="47.66224" lon="3.70911">
        <ele>111</ele>
        <time>2014-04-16T14:20:08Z</time>
      </trkpt>
      <trkpt lat="47.66221" lon="3.70906">
        <ele>112</ele>
        <time>2014-04-16T14:20:27Z</time>
      </trkpt>
      <trkpt lat="47.66216" lon="3.70906">
        <ele>112</ele>
        <time>2014-04-16T14:20:35Z</time>
      </trkpt>
      <trkpt lat="47.66211" lon="3.70904">
        <ele>112</ele>
        <time>2014-04-16T14:20:39Z</time>
      </trkpt>
      <trkpt lat="47.66205" lon="3.70902">
        <ele>112</ele>
        <time>2014-04-16T14:20:43Z</time>
      </trkpt>
      <trkpt lat="47.662" lon="3.709">
        <ele>112</ele>
        <time>2014-04-16T14:20:47Z</time>
      </trkpt>
      <trkpt lat="47.66194" lon="3.70898">
        <ele>112</ele>
        <time>2014-04-16T14:20:52Z</time>
      </trkpt>
      <trkpt lat="47.66189" lon="3.70897">
        <ele>112</ele>
        <time>2014-04-16T14:20:56Z</time>
      </trkpt>
      <trkpt lat="47.66184" lon="3.70896">
        <ele>112</ele>
        <time>2014-04-16T14:20:59Z</time>
      </trkpt>
      <trkpt lat="47.6618" lon="3.70895">
        <ele>112</ele>
        <time>2014-04-16T14:21:04Z</time>
      </trkpt>
      <trkpt lat="47.66176" lon="3.70893">
        <ele>112</ele>
        <time>2014-04-16T14:21:11Z</time>
      </trkpt>
      <trkpt lat="47.66172" lon="3.70898">
        <ele>112</ele>
        <time>2014-04-16T14:21:17Z</time>
      </trkpt>
      <trkpt lat="47.66172" lon="3.70906">
        <ele>113</ele>
        <time>2014-04-16T14:21:21Z</time>
      </trkpt>
      <trkpt lat="47.66171" lon="3.70912">
        <ele>113</ele>
        <time>2014-04-16T14:21:35Z</time>
      </trkpt>
      <trkpt lat="47.6617" lon="3.7092">
        <ele>113</ele>
        <time>2014-04-16T14:21:49Z</time>
      </trkpt>
      <trkpt lat="47.66165" lon="3.70922">
        <ele>113</ele>
        <time>2014-04-16T14:21:57Z</time>
      </trkpt>
      <trkpt lat="47.66159" lon="3.70923">
        <ele>113</ele>
        <time>2014-04-16T14:22:00Z</time>
      </trkpt>
      <trkpt lat="47.66155" lon="3.70927">
        <ele>113</ele>
        <time>2014-04-16T14:22:04Z</time>
      </trkpt>
      <trkpt lat="47.66151" lon="3.7093">
        <ele>113</ele>
        <time>2014-04-16T14:22:08Z</time>
      </trkpt>
      <trkpt lat="47.66147" lon="3.70934">
        <ele>113</ele>
        <time>2014-04-16T14:22:14Z</time>
      </trkpt>
      <trkpt lat="47.66139" lon="3.7094">
        <ele>113</ele>
        <time>2014-04-16T14:22:27Z</time>
      </trkpt>
      <trkpt lat="47.6613" lon="3.70942">
        <ele>113</ele>
        <time>2014-04-16T14:22:34Z</time>
      </trkpt>
      <trkpt lat="47.66121" lon="3.70947">
        <ele>113</ele>
        <time>2014-04-16T14:22:40Z</time>
      </trkpt>
      <trkpt lat="47.66111" lon="3.70948">
        <ele>113</ele>
        <time>2014-04-16T14:22:45Z</time>
      </trkpt>
      <trkpt lat="47.66106" lon="3.70953">
        <ele>113</ele>
        <time>2014-04-16T14:22:49Z</time>
      </trkpt>
      <trkpt lat="47.66104" lon="3.70959">
        <ele>113</ele>
        <time>2014-04-16T14:22:53Z</time>
      </trkpt>
      <trkpt lat="47.661" lon="3.70965">
        <ele>113</ele>
        <time>2014-04-16T14:22:57Z</time>
      </trkpt>
      <trkpt lat="47.66096" lon="3.70971">
        <ele>113</ele>
        <time>2014-04-16T14:23:01Z</time>
      </trkpt>
      <trkpt lat="47.66091" lon="3.70973">
        <ele>114</ele>
        <time>2014-04-16T14:23:04Z</time>
      </trkpt>
      <trkpt lat="47.66084" lon="3.70974">
        <ele>114</ele>
        <time>2014-04-16T14:23:09Z</time>
      </trkpt>
      <trkpt lat="47.66081" lon="3.70979">
        <ele>115</ele>
        <time>2014-04-16T14:23:14Z</time>
      </trkpt>
      <trkpt lat="47.66083" lon="3.70986">
        <ele>115</ele>
        <time>2014-04-16T14:23:19Z</time>
      </trkpt>
      <trkpt lat="47.66083" lon="3.70993">
        <ele>114</ele>
        <time>2014-04-16T14:23:34Z</time>
      </trkpt>
      <trkpt lat="47.66078" lon="3.70996">
        <ele>114</ele>
        <time>2014-04-16T14:23:39Z</time>
      </trkpt>
      <trkpt lat="47.66074" lon="3.71001">
        <ele>114</ele>
        <time>2014-04-16T14:23:46Z</time>
      </trkpt>
      <trkpt lat="47.66071" lon="3.71006">
        <ele>115</ele>
        <time>2014-04-16T14:23:49Z</time>
      </trkpt>
      <trkpt lat="47.66069" lon="3.71013">
        <ele>115</ele>
        <time>2014-04-16T14:23:52Z</time>
      </trkpt>
      <trkpt lat="47.66064" lon="3.71017">
        <ele>115</ele>
        <time>2014-04-16T14:23:56Z</time>
      </trkpt>
      <trkpt lat="47.6606" lon="3.7102">
        <ele>115</ele>
        <time>2014-04-16T14:24:00Z</time>
      </trkpt>
      <trkpt lat="47.66055" lon="3.71024">
        <ele>115</ele>
        <time>2014-04-16T14:24:05Z</time>
      </trkpt>
      <trkpt lat="47.66051" lon="3.71025">
        <ele>115</ele>
        <time>2014-04-16T14:24:09Z</time>
      </trkpt>
      <trkpt lat="47.66047" lon="3.71028">
        <ele>115</ele>
        <time>2014-04-16T14:24:12Z</time>
      </trkpt>
      <trkpt lat="47.66043" lon="3.71033">
        <ele>116</ele>
        <time>2014-04-16T14:24:15Z</time>
      </trkpt>
      <trkpt lat="47.6604" lon="3.71039">
        <ele>116</ele>
        <time>2014-04-16T14:24:20Z</time>
      </trkpt>
      <trkpt lat="47.66038" lon="3.71045">
        <ele>116</ele>
        <time>2014-04-16T14:24:28Z</time>
      </trkpt>
      <trkpt lat="47.66034" lon="3.71049">
        <ele>116</ele>
        <time>2014-04-16T14:24:33Z</time>
      </trkpt>
      <trkpt lat="47.66031" lon="3.71054">
        <ele>116</ele>
        <time>2014-04-16T14:24:40Z</time>
      </trkpt>
      <trkpt lat="47.66027" lon="3.71057">
        <ele>116</ele>
        <time>2014-04-16T14:24:43Z</time>
      </trkpt>
      <trkpt lat="47.66022" lon="3.71063">
        <ele>116</ele>
        <time>2014-04-16T14:24:47Z</time>
      </trkpt>
      <trkpt lat="47.66018" lon="3.71065">
        <ele>116</ele>
        <time>2014-04-16T14:24:51Z</time>
      </trkpt>
      <trkpt lat="47.6601" lon="3.71073">
        <ele>117</ele>
        <time>2014-04-16T14:24:58Z</time>
      </trkpt>
      <trkpt lat="47.66001" lon="3.71078">
        <ele>118</ele>
        <time>2014-04-16T14:25:05Z</time>
      </trkpt>
      <trkpt lat="47.65997" lon="3.71083">
        <ele>118</ele>
        <time>2014-04-16T14:25:11Z</time>
      </trkpt>
      <trkpt lat="47.65994" lon="3.71088">
        <ele>119</ele>
        <time>2014-04-16T14:25:15Z</time>
      </trkpt>
      <trkpt lat="47.6599" lon="3.71093">
        <ele>119</ele>
        <time>2014-04-16T14:25:20Z</time>
      </trkpt>
      <trkpt lat="47.65987" lon="3.71093">
        <ele>119</ele>
        <time>2014-04-16T14:25:33Z</time>
      </trkpt>
      <trkpt lat="47.65991" lon="3.71101">
        <ele>119</ele>
        <time>2014-04-16T14:25:37Z</time>
      </trkpt>
      <trkpt lat="47.65992" lon="3.71108">
        <ele>119</ele>
        <time>2014-04-16T14:25:40Z</time>
      </trkpt>
      <trkpt lat="47.65991" lon="3.71116">
        <ele>120</ele>
        <time>2014-04-16T14:25:44Z</time>
      </trkpt>
      <trkpt lat="47.6599" lon="3.71122">
        <ele>120</ele>
        <time>2014-04-16T14:25:49Z</time>
      </trkpt>
      <trkpt lat="47.65986" lon="3.71127">
        <ele>120</ele>
        <time>2014-04-16T14:25:54Z</time>
      </trkpt>
      <trkpt lat="47.65985" lon="3.71136">
        <ele>120</ele>
        <time>2014-04-16T14:25:57Z</time>
      </trkpt>
      <trkpt lat="47.65984" lon="3.71142">
        <ele>120</ele>
        <time>2014-04-16T14:26:00Z</time>
      </trkpt>
      <trkpt lat="47.65981" lon="3.7115">
        <ele>120</ele>
        <time>2014-04-16T14:26:04Z</time>
      </trkpt>
      <trkpt lat="47.6598" lon="3.71157">
        <ele>120</ele>
        <time>2014-04-16T14:26:08Z</time>
      </trkpt>
      <trkpt lat="47.65979" lon="3.71166">
        <ele>120</ele>
        <time>2014-04-16T14:26:11Z</time>
      </trkpt>
      <trkpt lat="47.65977" lon="3.71174">
        <ele>120</ele>
        <time>2014-04-16T14:26:15Z</time>
      </trkpt>
      <trkpt lat="47.65975" lon="3.71181">
        <ele>120</ele>
        <time>2014-04-16T14:26:19Z</time>
      </trkpt>
      <trkpt lat="47.65975" lon="3.71189">
        <ele>120</ele>
        <time>2014-04-16T14:26:23Z</time>
      </trkpt>
      <trkpt lat="47.65976" lon="3.71198">
        <ele>120</ele>
        <time>2014-04-16T14:26:28Z</time>
      </trkpt>
      <trkpt lat="47.65976" lon="3.71205">
        <ele>120</ele>
        <time>2014-04-16T14:26:32Z</time>
      </trkpt>
      <trkpt lat="47.65976" lon="3.71212">
        <ele>120</ele>
        <time>2014-04-16T14:26:37Z</time>
      </trkpt>
      <trkpt lat="47.65977" lon="3.7122">
        <ele>120</ele>
        <time>2014-04-16T14:26:41Z</time>
      </trkpt>
      <trkpt lat="47.65978" lon="3.71226">
        <ele>120</ele>
        <time>2014-04-16T14:26:46Z</time>
      </trkpt>
      <trkpt lat="47.65979" lon="3.71234">
        <ele>120</ele>
        <time>2014-04-16T14:26:52Z</time>
      </trkpt>
      <trkpt lat="47.65979" lon="3.71241">
        <ele>119</ele>
        <time>2014-04-16T14:26:56Z</time>
      </trkpt>
      <trkpt lat="47.6598" lon="3.71248">
        <ele>119</ele>
        <time>2014-04-16T14:27:01Z</time>
      </trkpt>
      <trkpt lat="47.6598" lon="3.71256">
        <ele>119</ele>
        <time>2014-04-16T14:27:06Z</time>
      </trkpt>
      <trkpt lat="47.65979" lon="3.71262">
        <ele>119</ele>
        <time>2014-04-16T14:27:12Z</time>
      </trkpt>
      <trkpt lat="47.65979" lon="3.7127">
        <ele>119</ele>
        <time>2014-04-16T14:27:16Z</time>
      </trkpt>
      <trkpt lat="47.6598" lon="3.71277">
        <ele>119</ele>
        <time>2014-04-16T14:27:21Z</time>
      </trkpt>
      <trkpt lat="47.6598" lon="3.71285">
        <ele>119</ele>
        <time>2014-04-16T14:27:26Z</time>
      </trkpt>
      <trkpt lat="47.6598" lon="3.71292">
        <ele>119</ele>
        <time>2014-04-16T14:27:29Z</time>
      </trkpt>
      <trkpt lat="47.65978" lon="3.713">
        <ele>119</ele>
        <time>2014-04-16T14:27:32Z</time>
      </trkpt>
      <trkpt lat="47.65977" lon="3.71308">
        <ele>119</ele>
        <time>2014-04-16T14:27:34Z</time>
      </trkpt>
      <trkpt lat="47.65974" lon="3.71314">
        <ele>119</ele>
        <time>2014-04-16T14:27:39Z</time>
      </trkpt>
      <trkpt lat="47.65972" lon="3.71321">
        <ele>119</ele>
        <time>2014-04-16T14:27:46Z</time>
      </trkpt>
      <trkpt lat="47.6597" lon="3.71327">
        <ele>119</ele>
        <time>2014-04-16T14:27:50Z</time>
      </trkpt>
      <trkpt lat="47.65967" lon="3.71334">
        <ele>119</ele>
        <time>2014-04-16T14:27:54Z</time>
      </trkpt>
      <trkpt lat="47.65964" lon="3.71342">
        <ele>119</ele>
        <time>2014-04-16T14:27:57Z</time>
      </trkpt>
      <trkpt lat="47.65963" lon="3.71349">
        <ele>119</ele>
        <time>2014-04-16T14:28:02Z</time>
      </trkpt>
      <trkpt lat="47.65962" lon="3.71358">
        <ele>119</ele>
        <time>2014-04-16T14:28:07Z</time>
      </trkpt>
      <trkpt lat="47.6596" lon="3.71365">
        <ele>119</ele>
        <time>2014-04-16T14:28:10Z</time>
      </trkpt>
      <trkpt lat="47.65958" lon="3.71372">
        <ele>119</ele>
        <time>2014-04-16T14:28:13Z</time>
      </trkpt>
      <trkpt lat="47.65955" lon="3.71377">
        <ele>119</ele>
        <time>2014-04-16T14:28:21Z</time>
      </trkpt>
      <trkpt lat="47.65951" lon="3.71384">
        <ele>119</ele>
        <time>2014-04-16T14:28:26Z</time>
      </trkpt>
      <trkpt lat="47.65949" lon="3.71393">
        <ele>119</ele>
        <time>2014-04-16T14:28:30Z</time>
      </trkpt>
      <trkpt lat="47.65948" lon="3.714">
        <ele>120</ele>
        <time>2014-04-16T14:28:35Z</time>
      </trkpt>
      <trkpt lat="47.65944" lon="3.71406">
        <ele>120</ele>
        <time>2014-04-16T14:28:41Z</time>
      </trkpt>
      <trkpt lat="47.6594" lon="3.71412">
        <ele>120</ele>
        <time>2014-04-16T14:28:47Z</time>
      </trkpt>
      <trkpt lat="47.65938" lon="3.71426">
        <ele>120</ele>
        <time>2014-04-16T14:28:54Z</time>
      </trkpt>
      <trkpt lat="47.65935" lon="3.71433">
        <ele>120</ele>
        <time>2014-04-16T14:28:59Z</time>
      </trkpt>
      <trkpt lat="47.65932" lon="3.7144">
        <ele>120</ele>
        <time>2014-04-16T14:29:06Z</time>
      </trkpt>
      <trkpt lat="47.6593" lon="3.71446">
        <ele>120</ele>
        <time>2014-04-16T14:29:11Z</time>
      </trkpt>
      <trkpt lat="47.65928" lon="3.71453">
        <ele>120</ele>
        <time>2014-04-16T14:29:15Z</time>
      </trkpt>
      <trkpt lat="47.65926" lon="3.7146">
        <ele>120</ele>
        <time>2014-04-16T14:29:17Z</time>
      </trkpt>
      <trkpt lat="47.65924" lon="3.71467">
        <ele>120</ele>
        <time>2014-04-16T14:29:21Z</time>
      </trkpt>
      <trkpt lat="47.65921" lon="3.71474">
        <ele>120</ele>
        <time>2014-04-16T14:29:25Z</time>
      </trkpt>
      <trkpt lat="47.65921" lon="3.71481">
        <ele>120</ele>
        <time>2014-04-16T14:29:30Z</time>
      </trkpt>
      <trkpt lat="47.65919" lon="3.71488">
        <ele>120</ele>
        <time>2014-04-16T14:29:34Z</time>
      </trkpt>
      <trkpt lat="47.65917" lon="3.71495">
        <ele>120</ele>
        <time>2014-04-16T14:29:37Z</time>
      </trkpt>
      <trkpt lat="47.65914" lon="3.715">
        <ele>120</ele>
        <time>2014-04-16T14:29:41Z</time>
      </trkpt>
      <trkpt lat="47.65912" lon="3.71506">
        <ele>120</ele>
        <time>2014-04-16T14:29:45Z</time>
      </trkpt>
      <trkpt lat="47.65909" lon="3.71512">
        <ele>120</ele>
        <time>2014-04-16T14:29:49Z</time>
      </trkpt>
      <trkpt lat="47.65906" lon="3.71517">
        <ele>121</ele>
        <time>2014-04-16T14:29:53Z</time>
      </trkpt>
      <trkpt lat="47.65902" lon="3.71522">
        <ele>121</ele>
        <time>2014-04-16T14:29:57Z</time>
      </trkpt>
      <trkpt lat="47.65898" lon="3.71527">
        <ele>121</ele>
        <time>2014-04-16T14:30:02Z</time>
      </trkpt>
      <trkpt lat="47.65895" lon="3.71532">
        <ele>121</ele>
        <time>2014-04-16T14:30:08Z</time>
      </trkpt>
      <trkpt lat="47.65893" lon="3.71538">
        <ele>121</ele>
        <time>2014-04-16T14:30:13Z</time>
      </trkpt>
      <trkpt lat="47.65888" lon="3.71541">
        <ele>121</ele>
        <time>2014-04-16T14:30:17Z</time>
      </trkpt>
      <trkpt lat="47.65886" lon="3.71547">
        <ele>121</ele>
        <time>2014-04-16T14:30:20Z</time>
      </trkpt>
      <trkpt lat="47.65884" lon="3.71555">
        <ele>121</ele>
        <time>2014-04-16T14:30:23Z</time>
      </trkpt>
      <trkpt lat="47.6588" lon="3.7156">
        <ele>121</ele>
        <time>2014-04-16T14:30:27Z</time>
      </trkpt>
      <trkpt lat="47.65876" lon="3.71564">
        <ele>121</ele>
        <time>2014-04-16T14:30:31Z</time>
      </trkpt>
      <trkpt lat="47.65872" lon="3.71569">
        <ele>121</ele>
        <time>2014-04-16T14:30:37Z</time>
      </trkpt>
      <trkpt lat="47.65871" lon="3.71576">
        <ele>121</ele>
        <time>2014-04-16T14:30:41Z</time>
      </trkpt>
      <trkpt lat="47.6587" lon="3.71583">
        <ele>121</ele>
        <time>2014-04-16T14:30:46Z</time>
      </trkpt>
      <trkpt lat="47.65866" lon="3.7159">
        <ele>121</ele>
        <time>2014-04-16T14:30:50Z</time>
      </trkpt>
      <trkpt lat="47.65862" lon="3.71595">
        <ele>121</ele>
        <time>2014-04-16T14:31:15Z</time>
      </trkpt>
      <trkpt lat="47.65859" lon="3.71601">
        <ele>121</ele>
        <time>2014-04-16T14:31:20Z</time>
      </trkpt>
      <trkpt lat="47.65856" lon="3.71606">
        <ele>121</ele>
        <time>2014-04-16T14:31:24Z</time>
      </trkpt>
      <trkpt lat="47.65852" lon="3.71612">
        <ele>121</ele>
        <time>2014-04-16T14:31:28Z</time>
      </trkpt>
      <trkpt lat="47.65848" lon="3.71618">
        <ele>121</ele>
        <time>2014-04-16T14:31:32Z</time>
      </trkpt>
      <trkpt lat="47.65845" lon="3.71624">
        <ele>121</ele>
        <time>2014-04-16T14:31:37Z</time>
      </trkpt>
      <trkpt lat="47.65842" lon="3.7163">
        <ele>121</ele>
        <time>2014-04-16T14:31:41Z</time>
      </trkpt>
      <trkpt lat="47.65839" lon="3.71636">
        <ele>121</ele>
        <time>2014-04-16T14:31:45Z</time>
      </trkpt>
      <trkpt lat="47.65837" lon="3.71641">
        <ele>121</ele>
        <time>2014-04-16T14:31:49Z</time>
      </trkpt>
      <trkpt lat="47.65834" lon="3.71646">
        <ele>121</ele>
        <time>2014-04-16T14:31:53Z</time>
      </trkpt>
      <trkpt lat="47.6583" lon="3.71651">
        <ele>121</ele>
        <time>2014-04-16T14:31:58Z</time>
      </trkpt>
      <trkpt lat="47.65828" lon="3.71659">
        <ele>121</ele>
        <time>2014-04-16T14:32:03Z</time>
      </trkpt>
      <trkpt lat="47.65825" lon="3.71665">
        <ele>121</ele>
        <time>2014-04-16T14:32:07Z</time>
      </trkpt>
      <trkpt lat="47.65821" lon="3.71672">
        <ele>122</ele>
        <time>2014-04-16T14:32:12Z</time>
      </trkpt>
      <trkpt lat="47.65818" lon="3.71677">
        <ele>122</ele>
        <time>2014-04-16T14:32:15Z</time>
      </trkpt>
      <trkpt lat="47.65815" lon="3.71683">
        <ele>122</ele>
        <time>2014-04-16T14:32:18Z</time>
      </trkpt>
      <trkpt lat="47.65812" lon="3.71688">
        <ele>122</ele>
        <time>2014-04-16T14:32:22Z</time>
      </trkpt>
      <trkpt lat="47.6581" lon="3.71696">
        <ele>122</ele>
        <time>2014-04-16T14:32:26Z</time>
      </trkpt>
      <trkpt lat="47.65808" lon="3.71702">
        <ele>122</ele>
        <time>2014-04-16T14:32:30Z</time>
      </trkpt>
      <trkpt lat="47.65806" lon="3.71702">
        <ele>122</ele>
        <time>2014-04-16T14:32:40Z</time>
      </trkpt>
      <trkpt lat="47.65803" lon="3.71707">
        <ele>123</ele>
        <time>2014-04-16T14:32:52Z</time>
      </trkpt>
      <trkpt lat="47.65801" lon="3.71713">
        <ele>123</ele>
        <time>2014-04-16T14:32:56Z</time>
      </trkpt>
      <trkpt lat="47.65799" lon="3.71721">
        <ele>123</ele>
        <time>2014-04-16T14:33:02Z</time>
      </trkpt>
      <trkpt lat="47.65797" lon="3.71727">
        <ele>123</ele>
        <time>2014-04-16T14:33:05Z</time>
      </trkpt>
      <trkpt lat="47.65796" lon="3.71734">
        <ele>123</ele>
        <time>2014-04-16T14:33:11Z</time>
      </trkpt>
      <trkpt lat="47.65793" lon="3.7174">
        <ele>123</ele>
        <time>2014-04-16T14:33:17Z</time>
      </trkpt>
      <trkpt lat="47.6579" lon="3.71746">
        <ele>123</ele>
        <time>2014-04-16T14:33:21Z</time>
      </trkpt>
      <trkpt lat="47.65789" lon="3.71752">
        <ele>124</ele>
        <time>2014-04-16T14:33:25Z</time>
      </trkpt>
      <trkpt lat="47.65787" lon="3.71758">
        <ele>124</ele>
        <time>2014-04-16T14:33:29Z</time>
      </trkpt>
      <trkpt lat="47.65784" lon="3.71765">
        <ele>124</ele>
        <time>2014-04-16T14:33:33Z</time>
      </trkpt>
      <trkpt lat="47.65784" lon="3.71772">
        <ele>124</ele>
        <time>2014-04-16T14:33:38Z</time>
      </trkpt>
      <trkpt lat="47.65783" lon="3.71779">
        <ele>124</ele>
        <time>2014-04-16T14:33:42Z</time>
      </trkpt>
      <trkpt lat="47.65782" lon="3.71787">
        <ele>124</ele>
        <time>2014-04-16T14:33:47Z</time>
      </trkpt>
      <trkpt lat="47.6578" lon="3.71794">
        <ele>124</ele>
        <time>2014-04-16T14:33:51Z</time>
      </trkpt>
      <trkpt lat="47.65778" lon="3.718">
        <ele>124</ele>
        <time>2014-04-16T14:33:54Z</time>
      </trkpt>
      <trkpt lat="47.65775" lon="3.71807">
        <ele>124</ele>
        <time>2014-04-16T14:33:58Z</time>
      </trkpt>
      <trkpt lat="47.65772" lon="3.71813">
        <ele>124</ele>
        <time>2014-04-16T14:34:02Z</time>
      </trkpt>
      <trkpt lat="47.6577" lon="3.7182">
        <ele>124</ele>
        <time>2014-04-16T14:34:08Z</time>
      </trkpt>
      <trkpt lat="47.65769" lon="3.71826">
        <ele>124</ele>
        <time>2014-04-16T14:34:13Z</time>
      </trkpt>
      <trkpt lat="47.65767" lon="3.71833">
        <ele>124</ele>
        <time>2014-04-16T14:34:18Z</time>
      </trkpt>
      <trkpt lat="47.65764" lon="3.7184">
        <ele>125</ele>
        <time>2014-04-16T14:34:21Z</time>
      </trkpt>
      <trkpt lat="47.65761" lon="3.71847">
        <ele>125</ele>
        <time>2014-04-16T14:34:24Z</time>
      </trkpt>
      <trkpt lat="47.65759" lon="3.71853">
        <ele>124</ele>
        <time>2014-04-16T14:34:28Z</time>
      </trkpt>
      <trkpt lat="47.65759" lon="3.7186">
        <ele>124</ele>
        <time>2014-04-16T14:34:33Z</time>
      </trkpt>
      <trkpt lat="47.65761" lon="3.71868">
        <ele>124</ele>
        <time>2014-04-16T14:34:38Z</time>
      </trkpt>
      <trkpt lat="47.65758" lon="3.71875">
        <ele>125</ele>
        <time>2014-04-16T14:34:42Z</time>
      </trkpt>
      <trkpt lat="47.65756" lon="3.71883">
        <ele>125</ele>
        <time>2014-04-16T14:34:46Z</time>
      </trkpt>
      <trkpt lat="47.65753" lon="3.71889">
        <ele>125</ele>
        <time>2014-04-16T14:34:51Z</time>
      </trkpt>
      <trkpt lat="47.65752" lon="3.71895">
        <ele>125</ele>
        <time>2014-04-16T14:34:57Z</time>
      </trkpt>
      <trkpt lat="47.65747" lon="3.71897">
        <ele>127</ele>
        <time>2014-04-16T14:35:03Z</time>
      </trkpt>
      <trkpt lat="47.65749" lon="3.71894">
        <ele>127</ele>
        <time>2014-04-16T14:35:20Z</time>
      </trkpt>
      <trkpt lat="47.65745" lon="3.7189">
        <ele>127</ele>
        <time>2014-04-16T14:35:56Z</time>
      </trkpt>
      <trkpt lat="47.65744" lon="3.71897">
        <ele>127</ele>
        <time>2014-04-16T14:36:03Z</time>
      </trkpt>
      <trkpt lat="47.65743" lon="3.71901">
        <ele>127</ele>
        <time>2014-04-16T14:36:34Z</time>
      </trkpt>
      <trkpt lat="47.65743" lon="3.71915">
        <ele>126</ele>
        <time>2014-04-16T14:36:43Z</time>
      </trkpt>
      <trkpt lat="47.65738" lon="3.71927">
        <ele>127</ele>
        <time>2014-04-16T14:36:48Z</time>
      </trkpt>
      <trkpt lat="47.65735" lon="3.7194">
        <ele>127</ele>
        <time>2014-04-16T14:36:55Z</time>
      </trkpt>
      <trkpt lat="47.65727" lon="3.71948">
        <ele>128</ele>
        <time>2014-04-16T14:37:00Z</time>
      </trkpt>
      <trkpt lat="47.65723" lon="3.71963">
        <ele>128</ele>
        <time>2014-04-16T14:37:06Z</time>
      </trkpt>
      <trkpt lat="47.65721" lon="3.71976">
        <ele>128</ele>
        <time>2014-04-16T14:37:12Z</time>
      </trkpt>
      <trkpt lat="47.65717" lon="3.71983">
        <ele>128</ele>
        <time>2014-04-16T14:37:16Z</time>
      </trkpt>
      <trkpt lat="47.65721" lon="3.71995">
        <ele>128</ele>
        <time>2014-04-16T14:37:26Z</time>
      </trkpt>
      <trkpt lat="47.65715" lon="3.72008">
        <ele>128</ele>
        <time>2014-04-16T14:37:35Z</time>
      </trkpt>
      <trkpt lat="47.65709" lon="3.72022">
        <ele>128</ele>
        <time>2014-04-16T14:37:41Z</time>
      </trkpt>
      <trkpt lat="47.65707" lon="3.72032">
        <ele>128</ele>
        <time>2014-04-16T14:37:45Z</time>
      </trkpt>
      <trkpt lat="47.65704" lon="3.72045">
        <ele>128</ele>
        <time>2014-04-16T14:37:54Z</time>
      </trkpt>
      <trkpt lat="47.65706" lon="3.72059">
        <ele>128</ele>
        <time>2014-04-16T14:38:03Z</time>
      </trkpt>
      <trkpt lat="47.65706" lon="3.72073">
        <ele>128</ele>
        <time>2014-04-16T14:38:10Z</time>
      </trkpt>
      <trkpt lat="47.65703" lon="3.72086">
        <ele>129</ele>
        <time>2014-04-16T14:38:20Z</time>
      </trkpt>
      <trkpt lat="47.65702" lon="3.72099">
        <ele>129</ele>
        <time>2014-04-16T14:38:30Z</time>
      </trkpt>
      <trkpt lat="47.65697" lon="3.72112">
        <ele>129</ele>
        <time>2014-04-16T14:38:38Z</time>
      </trkpt>
      <trkpt lat="47.65696" lon="3.72125">
        <ele>129</ele>
        <time>2014-04-16T14:38:46Z</time>
      </trkpt>
      <trkpt lat="47.65694" lon="3.72139">
        <ele>129</ele>
        <time>2014-04-16T14:38:53Z</time>
      </trkpt>
      <trkpt lat="47.65692" lon="3.72145">
        <ele>129</ele>
        <time>2014-04-16T14:38:57Z</time>
      </trkpt>
      <trkpt lat="47.6569" lon="3.72152">
        <ele>129</ele>
        <time>2014-04-16T14:39:01Z</time>
      </trkpt>
      <trkpt lat="47.65684" lon="3.72163">
        <ele>129</ele>
        <time>2014-04-16T14:39:09Z</time>
      </trkpt>
      <trkpt lat="47.65681" lon="3.72169">
        <ele>129</ele>
        <time>2014-04-16T14:39:15Z</time>
      </trkpt>
      <trkpt lat="47.65678" lon="3.72177">
        <ele>129</ele>
        <time>2014-04-16T14:39:25Z</time>
      </trkpt>
      <trkpt lat="47.65676" lon="3.72184">
        <ele>129</ele>
        <time>2014-04-16T14:39:32Z</time>
      </trkpt>
      <trkpt lat="47.65673" lon="3.72189">
        <ele>129</ele>
        <time>2014-04-16T14:39:36Z</time>
      </trkpt>
      <trkpt lat="47.6567" lon="3.72197">
        <ele>129</ele>
        <time>2014-04-16T14:39:40Z</time>
      </trkpt>
      <trkpt lat="47.65668" lon="3.72203">
        <ele>129</ele>
        <time>2014-04-16T14:39:43Z</time>
      </trkpt>
      <trkpt lat="47.65665" lon="3.7221">
        <ele>133</ele>
        <time>2014-04-16T14:39:47Z</time>
      </trkpt>
      <trkpt lat="47.65666" lon="3.72217">
        <ele>133</ele>
        <time>2014-04-16T14:39:51Z</time>
      </trkpt>
      <trkpt lat="47.65661" lon="3.72224">
        <ele>133</ele>
        <time>2014-04-16T14:39:58Z</time>
      </trkpt>
      <trkpt lat="47.65657" lon="3.72229">
        <ele>133</ele>
        <time>2014-04-16T14:40:03Z</time>
      </trkpt>
      <trkpt lat="47.65657" lon="3.72235">
        <ele>132</ele>
        <time>2014-04-16T14:40:07Z</time>
      </trkpt>
      <trkpt lat="47.65654" lon="3.72242">
        <ele>132</ele>
        <time>2014-04-16T14:40:11Z</time>
      </trkpt>
      <trkpt lat="47.65652" lon="3.72248">
        <ele>132</ele>
        <time>2014-04-16T14:40:15Z</time>
      </trkpt>
      <trkpt lat="47.65651" lon="3.72255">
        <ele>133</ele>
        <time>2014-04-16T14:40:19Z</time>
      </trkpt>
      <trkpt lat="47.65649" lon="3.72262">
        <ele>133</ele>
        <time>2014-04-16T14:40:23Z</time>
      </trkpt>
      <trkpt lat="47.65648" lon="3.72269">
        <ele>134</ele>
        <time>2014-04-16T14:40:28Z</time>
      </trkpt>
      <trkpt lat="47.65645" lon="3.72275">
        <ele>134</ele>
        <time>2014-04-16T14:40:33Z</time>
      </trkpt>
      <trkpt lat="47.65643" lon="3.72281">
        <ele>134</ele>
        <time>2014-04-16T14:40:37Z</time>
      </trkpt>
      <trkpt lat="47.65637" lon="3.72292">
        <ele>135</ele>
        <time>2014-04-16T14:40:45Z</time>
      </trkpt>
      <trkpt lat="47.65639" lon="3.72305">
        <ele>135</ele>
        <time>2014-04-16T14:40:56Z</time>
      </trkpt>
      <trkpt lat="47.65633" lon="3.72315">
        <ele>135</ele>
        <time>2014-04-16T14:41:05Z</time>
      </trkpt>
      <trkpt lat="47.65624" lon="3.72325">
        <ele>135</ele>
        <time>2014-04-16T14:41:10Z</time>
      </trkpt>
      <trkpt lat="47.65622" lon="3.72338">
        <ele>135</ele>
        <time>2014-04-16T14:41:18Z</time>
      </trkpt>
      <trkpt lat="47.65618" lon="3.72352">
        <ele>135</ele>
        <time>2014-04-16T14:41:26Z</time>
      </trkpt>
      <trkpt lat="47.65611" lon="3.72361">
        <ele>135</ele>
        <time>2014-04-16T14:41:32Z</time>
      </trkpt>
      <trkpt lat="47.65607" lon="3.72373">
        <ele>135</ele>
        <time>2014-04-16T14:41:39Z</time>
      </trkpt>
      <trkpt lat="47.65605" lon="3.72382">
        <ele>135</ele>
        <time>2014-04-16T14:41:46Z</time>
      </trkpt>
      <trkpt lat="47.656" lon="3.72387">
        <ele>135</ele>
        <time>2014-04-16T14:42:04Z</time>
      </trkpt>
      <trkpt lat="47.65596" lon="3.72391">
        <ele>135</ele>
        <time>2014-04-16T14:42:08Z</time>
      </trkpt>
      <trkpt lat="47.65592" lon="3.72401">
        <ele>135</ele>
        <time>2014-04-16T14:42:13Z</time>
      </trkpt>
      <trkpt lat="47.65589" lon="3.72407">
        <ele>135</ele>
        <time>2014-04-16T14:42:17Z</time>
      </trkpt>
      <trkpt lat="47.65585" lon="3.7241">
        <ele>136</ele>
        <time>2014-04-16T14:42:21Z</time>
      </trkpt>
      <trkpt lat="47.65582" lon="3.72416">
        <ele>136</ele>
        <time>2014-04-16T14:42:27Z</time>
      </trkpt>
      <trkpt lat="47.65583" lon="3.72425">
        <ele>136</ele>
        <time>2014-04-16T14:42:32Z</time>
      </trkpt>
      <trkpt lat="47.65583" lon="3.72432">
        <ele>136</ele>
        <time>2014-04-16T14:42:36Z</time>
      </trkpt>
      <trkpt lat="47.65578" lon="3.72444">
        <ele>135</ele>
        <time>2014-04-16T14:42:42Z</time>
      </trkpt>
      <trkpt lat="47.65573" lon="3.72455">
        <ele>135</ele>
        <time>2014-04-16T14:42:52Z</time>
      </trkpt>
      <trkpt lat="47.65566" lon="3.72465">
        <ele>135</ele>
        <time>2014-04-16T14:43:00Z</time>
      </trkpt>
      <trkpt lat="47.65562" lon="3.72469">
        <ele>134</ele>
        <time>2014-04-16T14:43:04Z</time>
      </trkpt>
      <trkpt lat="47.6556" lon="3.72467">
        <ele>135</ele>
        <time>2014-04-16T14:43:10Z</time>
      </trkpt>
      <trkpt lat="47.6556" lon="3.72467">
        <ele>135</ele>
        <time>2014-04-16T14:43:25Z</time>
      </trkpt>
      <trkpt lat="47.65556" lon="3.72471">
        <ele>134</ele>
        <time>2014-04-16T14:43:30Z</time>
      </trkpt>
      <trkpt lat="47.65553" lon="3.72477">
        <ele>134</ele>
        <time>2014-04-16T14:43:35Z</time>
      </trkpt>
      <trkpt lat="47.6555" lon="3.72481">
        <ele>134</ele>
        <time>2014-04-16T14:43:40Z</time>
      </trkpt>
      <trkpt lat="47.65546" lon="3.72485">
        <ele>134</ele>
        <time>2014-04-16T14:43:46Z</time>
      </trkpt>
      <trkpt lat="47.65542" lon="3.72488">
        <ele>134</ele>
        <time>2014-04-16T14:43:53Z</time>
      </trkpt>
      <trkpt lat="47.65538" lon="3.72495">
        <ele>134</ele>
        <time>2014-04-16T14:43:57Z</time>
      </trkpt>
      <trkpt lat="47.65534" lon="3.725">
        <ele>134</ele>
        <time>2014-04-16T14:44:00Z</time>
      </trkpt>
      <trkpt lat="47.6553" lon="3.72506">
        <ele>131</ele>
        <time>2014-04-16T14:44:04Z</time>
      </trkpt>
      <trkpt lat="47.65527" lon="3.72511">
        <ele>132</ele>
        <time>2014-04-16T14:44:08Z</time>
      </trkpt>
      <trkpt lat="47.65523" lon="3.72516">
        <ele>132</ele>
        <time>2014-04-16T14:44:12Z</time>
      </trkpt>
      <trkpt lat="47.6552" lon="3.72523">
        <ele>131</ele>
        <time>2014-04-16T14:44:17Z</time>
      </trkpt>
      <trkpt lat="47.65516" lon="3.72526">
        <ele>131</ele>
        <time>2014-04-16T14:44:21Z</time>
      </trkpt>
      <trkpt lat="47.65511" lon="3.72527">
        <ele>131</ele>
        <time>2014-04-16T14:44:26Z</time>
      </trkpt>
      <trkpt lat="47.65512" lon="3.72532">
        <ele>131</ele>
        <time>2014-04-16T14:44:44Z</time>
      </trkpt>
      <trkpt lat="47.65509" lon="3.72534">
        <ele>131</ele>
        <time>2014-04-16T14:44:51Z</time>
      </trkpt>
      <trkpt lat="47.65506" lon="3.72539">
        <ele>131</ele>
        <time>2014-04-16T14:44:55Z</time>
      </trkpt>
      <trkpt lat="47.65501" lon="3.7254">
        <ele>131</ele>
        <time>2014-04-16T14:44:59Z</time>
      </trkpt>
      <trkpt lat="47.65496" lon="3.72544">
        <ele>134</ele>
        <time>2014-04-16T14:45:04Z</time>
      </trkpt>
      <trkpt lat="47.65492" lon="3.72547">
        <ele>133</ele>
        <time>2014-04-16T14:45:08Z</time>
      </trkpt>
      <trkpt lat="47.65486" lon="3.72552">
        <ele>133</ele>
        <time>2014-04-16T14:45:12Z</time>
      </trkpt>
      <trkpt lat="47.65482" lon="3.72557">
        <ele>133</ele>
        <time>2014-04-16T14:45:15Z</time>
      </trkpt>
      <trkpt lat="47.65477" lon="3.72555">
        <ele>133</ele>
        <time>2014-04-16T14:45:21Z</time>
      </trkpt>
      <trkpt lat="47.65473" lon="3.72557">
        <ele>133</ele>
        <time>2014-04-16T14:45:26Z</time>
      </trkpt>
      <trkpt lat="47.65469" lon="3.7256">
        <ele>133</ele>
        <time>2014-04-16T14:45:29Z</time>
      </trkpt>
      <trkpt lat="47.65465" lon="3.72567">
        <ele>133</ele>
        <time>2014-04-16T14:45:33Z</time>
      </trkpt>
      <trkpt lat="47.65457" lon="3.72574">
        <ele>133</ele>
        <time>2014-04-16T14:45:45Z</time>
      </trkpt>
      <trkpt lat="47.65448" lon="3.72581">
        <ele>132</ele>
        <time>2014-04-16T14:45:51Z</time>
      </trkpt>
      <trkpt lat="47.65438" lon="3.72579">
        <ele>132</ele>
        <time>2014-04-16T14:45:59Z</time>
      </trkpt>
      <trkpt lat="47.65429" lon="3.72582">
        <ele>131</ele>
        <time>2014-04-16T14:46:07Z</time>
      </trkpt>
      <trkpt lat="47.65421" lon="3.72589">
        <ele>128</ele>
        <time>2014-04-16T14:46:14Z</time>
      </trkpt>
      <trkpt lat="47.65412" lon="3.72597">
        <ele>126</ele>
        <time>2014-04-16T14:46:21Z</time>
      </trkpt>
      <trkpt lat="47.65404" lon="3.72606">
        <ele>125</ele>
        <time>2014-04-16T14:46:28Z</time>
      </trkpt>
      <trkpt lat="47.65397" lon="3.72617">
        <ele>124</ele>
        <time>2014-04-16T14:46:37Z</time>
      </trkpt>
      <trkpt lat="47.65387" lon="3.72619">
        <ele>123</ele>
        <time>2014-04-16T14:46:45Z</time>
      </trkpt>
      <trkpt lat="47.65378" lon="3.72617">
        <ele>124</ele>
        <time>2014-04-16T14:46:56Z</time>
      </trkpt>
      <trkpt lat="47.65369" lon="3.72618">
        <ele>124</ele>
        <time>2014-04-16T14:47:03Z</time>
      </trkpt>
      <trkpt lat="47.6536" lon="3.72624">
        <ele>123</ele>
        <time>2014-04-16T14:47:12Z</time>
      </trkpt>
      <trkpt lat="47.6535" lon="3.72627">
        <ele>123</ele>
        <time>2014-04-16T14:47:19Z</time>
      </trkpt>
      <trkpt lat="47.65341" lon="3.72623">
        <ele>123</ele>
        <time>2014-04-16T14:47:28Z</time>
      </trkpt>
      <trkpt lat="47.65332" lon="3.72625">
        <ele>125</ele>
        <time>2014-04-16T14:47:35Z</time>
      </trkpt>
      <trkpt lat="47.65323" lon="3.7263">
        <ele>125</ele>
        <time>2014-04-16T14:47:44Z</time>
      </trkpt>
      <trkpt lat="47.65314" lon="3.72631">
        <ele>125</ele>
        <time>2014-04-16T14:47:55Z</time>
      </trkpt>
      <trkpt lat="47.65294" lon="3.7264">
        <ele>125</ele>
        <time>2014-04-16T14:48:09Z</time>
      </trkpt>
      <trkpt lat="47.65286" lon="3.72643">
        <ele>125</ele>
        <time>2014-04-16T14:48:39Z</time>
      </trkpt>
      <trkpt lat="47.65278" lon="3.72647">
        <ele>125</ele>
        <time>2014-04-16T14:48:46Z</time>
      </trkpt>
      <trkpt lat="47.65269" lon="3.72652">
        <ele>125</ele>
        <time>2014-04-16T14:48:53Z</time>
      </trkpt>
      <trkpt lat="47.65263" lon="3.72653">
        <ele>125</ele>
        <time>2014-04-16T14:48:57Z</time>
      </trkpt>
      <trkpt lat="47.65258" lon="3.7265">
        <ele>125</ele>
        <time>2014-04-16T14:49:03Z</time>
      </trkpt>
      <trkpt lat="47.65254" lon="3.72645">
        <ele>125</ele>
        <time>2014-04-16T14:49:08Z</time>
      </trkpt>
      <trkpt lat="47.65247" lon="3.72645">
        <ele>128</ele>
        <time>2014-04-16T14:49:12Z</time>
      </trkpt>
      <trkpt lat="47.65242" lon="3.72644">
        <ele>128</ele>
        <time>2014-04-16T14:49:15Z</time>
      </trkpt>
      <trkpt lat="47.65236" lon="3.72645">
        <ele>128</ele>
        <time>2014-04-16T14:49:18Z</time>
      </trkpt>
      <trkpt lat="47.65231" lon="3.72646">
        <ele>128</ele>
        <time>2014-04-16T14:49:22Z</time>
      </trkpt>
      <trkpt lat="47.65229" lon="3.72634">
        <ele>130</ele>
        <time>2014-04-16T14:49:40Z</time>
      </trkpt>
      <trkpt lat="47.65216" lon="3.72636">
        <ele>130</ele>
        <time>2014-04-16T14:50:13Z</time>
      </trkpt>
      <trkpt lat="47.65183" lon="3.72631">
        <ele>130</ele>
        <time>2014-04-16T14:50:44Z</time>
      </trkpt>
      <trkpt lat="47.65156" lon="3.72624">
        <ele>131</ele>
        <time>2014-04-16T14:51:02Z</time>
      </trkpt>
      <trkpt lat="47.65126" lon="3.7263">
        <ele>130</ele>
        <time>2014-04-16T14:51:32Z</time>
      </trkpt>
      <trkpt lat="47.65099" lon="3.72612">
        <ele>132</ele>
        <time>2014-04-16T14:52:01Z</time>
      </trkpt>
      <trkpt lat="47.65088" lon="3.72608">
        <ele>132</ele>
        <time>2014-04-16T14:52:25Z</time>
      </trkpt>
      <trkpt lat="47.65079" lon="3.72608">
        <ele>130</ele>
        <time>2014-04-16T14:52:32Z</time>
      </trkpt>
      <trkpt lat="47.6507" lon="3.72604">
        <ele>130</ele>
        <time>2014-04-16T14:52:41Z</time>
      </trkpt>
      <trkpt lat="47.65059" lon="3.726">
        <ele>130</ele>
        <time>2014-04-16T14:53:03Z</time>
      </trkpt>
      <trkpt lat="47.6505" lon="3.72597">
        <ele>129</ele>
        <time>2014-04-16T14:53:12Z</time>
      </trkpt>
      <trkpt lat="47.6504" lon="3.72598">
        <ele>129</ele>
        <time>2014-04-16T14:53:26Z</time>
      </trkpt>
      <trkpt lat="47.65031" lon="3.72594">
        <ele>129</ele>
        <time>2014-04-16T14:53:35Z</time>
      </trkpt>
      <trkpt lat="47.65023" lon="3.72589">
        <ele>129</ele>
        <time>2014-04-16T14:53:45Z</time>
      </trkpt>
      <trkpt lat="47.65022" lon="3.72575">
        <ele>139</ele>
        <time>2014-04-16T14:53:53Z</time>
      </trkpt>
      <trkpt lat="47.65013" lon="3.72581">
        <ele>137</ele>
        <time>2014-04-16T14:54:07Z</time>
      </trkpt>
      <trkpt lat="47.65004" lon="3.7258">
        <ele>134</ele>
        <time>2014-04-16T14:54:20Z</time>
      </trkpt>
      <trkpt lat="47.64996" lon="3.72573">
        <ele>135</ele>
        <time>2014-04-16T14:54:29Z</time>
      </trkpt>
      <trkpt lat="47.64986" lon="3.72572">
        <ele>137</ele>
        <time>2014-04-16T14:54:41Z</time>
      </trkpt>
      <trkpt lat="47.64982" lon="3.72558">
        <ele>139</ele>
        <time>2014-04-16T14:54:46Z</time>
      </trkpt>
      <trkpt lat="47.64974" lon="3.72552">
        <ele>140</ele>
        <time>2014-04-16T14:54:53Z</time>
      </trkpt>
      <trkpt lat="47.64965" lon="3.72552">
        <ele>140</ele>
        <time>2014-04-16T14:55:07Z</time>
      </trkpt>
      <trkpt lat="47.64957" lon="3.72545">
        <ele>141</ele>
        <time>2014-04-16T14:55:19Z</time>
      </trkpt>
      <trkpt lat="47.64948" lon="3.7254">
        <ele>142</ele>
        <time>2014-04-16T14:55:28Z</time>
      </trkpt>
      <trkpt lat="47.64938" lon="3.72536">
        <ele>142</ele>
        <time>2014-04-16T14:55:41Z</time>
      </trkpt>
      <trkpt lat="47.64931" lon="3.72528">
        <ele>144</ele>
        <time>2014-04-16T14:55:53Z</time>
      </trkpt>
      <trkpt lat="47.64914" lon="3.72536">
        <ele>142</ele>
        <time>2014-04-16T14:56:08Z</time>
      </trkpt>
      <trkpt lat="47.64908" lon="3.72524">
        <ele>145</ele>
        <time>2014-04-16T14:56:20Z</time>
      </trkpt>
      <trkpt lat="47.64889" lon="3.72512">
        <ele>146</ele>
        <time>2014-04-16T14:56:51Z</time>
      </trkpt>
      <trkpt lat="47.64882" lon="3.72502">
        <ele>146</ele>
        <time>2014-04-16T14:56:59Z</time>
      </trkpt>
      <trkpt lat="47.64854" lon="3.72498">
        <ele>162</ele>
        <time>2014-04-16T14:57:27Z</time>
      </trkpt>
      <trkpt lat="47.64836" lon="3.72496">
        <ele>156</ele>
        <time>2014-04-16T14:57:44Z</time>
      </trkpt>
      <trkpt lat="47.64836" lon="3.72488">
        <ele>160</ele>
        <time>2014-04-16T14:58:11Z</time>
      </trkpt>
      <trkpt lat="47.64826" lon="3.72489">
        <ele>160</ele>
        <time>2014-04-16T14:58:21Z</time>
      </trkpt>
      <trkpt lat="47.64817" lon="3.7249">
        <ele>162</ele>
        <time>2014-04-16T14:58:28Z</time>
      </trkpt>
      <trkpt lat="47.64806" lon="3.72487">
        <ele>165</ele>
        <time>2014-04-16T14:59:01Z</time>
      </trkpt>
      <trkpt lat="47.64796" lon="3.72487">
        <ele>165</ele>
        <time>2014-04-16T14:59:08Z</time>
      </trkpt>
      <trkpt lat="47.6477" lon="3.72495">
        <ele>163</ele>
        <time>2014-04-16T14:59:40Z</time>
      </trkpt>
      <trkpt lat="47.64746" lon="3.72467">
        <ele>170</ele>
        <time>2014-04-16T15:00:11Z</time>
      </trkpt>
      <trkpt lat="47.64719" lon="3.7247">
        <ele>171</ele>
        <time>2014-04-16T15:00:40Z</time>
      </trkpt>
      <trkpt lat="47.64692" lon="3.72477">
        <ele>170</ele>
        <time>2014-04-16T15:01:03Z</time>
      </trkpt>
      <trkpt lat="47.64666" lon="3.72494">
        <ele>162</ele>
        <time>2014-04-16T15:01:33Z</time>
      </trkpt>
      <trkpt lat="47.64639" lon="3.725">
        <ele>162</ele>
        <time>2014-04-16T15:02:00Z</time>
      </trkpt>
      <trkpt lat="47.64613" lon="3.72512">
        <ele>155</ele>
        <time>2014-04-16T15:02:19Z</time>
      </trkpt>
      <trkpt lat="47.64571" lon="3.72541">
        <ele>160</ele>
        <time>2014-04-16T15:03:30Z</time>
      </trkpt>
      <trkpt lat="47.64411" lon="3.7265">
        <ele>155</ele>
        <time>2014-04-16T15:07:14Z</time>
      </trkpt>
      <trkpt lat="47.64345" lon="3.72755">
        <ele>142</ele>
        <time>2014-04-16T15:08:56Z</time>
      </trkpt>
      <trkpt lat="47.64261" lon="3.72859">
        <ele>130</ele>
        <time>2014-04-16T15:10:28Z</time>
      </trkpt>
      <trkpt lat="47.64196" lon="3.72855">
        <ele>136</ele>
        <time>2014-04-16T15:11:29Z</time>
      </trkpt>
      <trkpt lat="47.6418" lon="3.7298">
        <ele>128</ele>
        <time>2014-04-16T15:13:18Z</time>
      </trkpt>
      <trkpt lat="47.64108" lon="3.73126">
        <ele>132</ele>
        <time>2014-04-16T15:15:20Z</time>
      </trkpt>
      <trkpt lat="47.64075" lon="3.73169">
        <ele>134</ele>
        <time>2014-04-16T15:16:32Z</time>
      </trkpt>
      <trkpt lat="47.64056" lon="3.73193">
        <ele>136</ele>
        <time>2014-04-16T15:17:02Z</time>
      </trkpt>
      <trkpt lat="47.64036" lon="3.7322">
        <ele>136</ele>
        <time>2014-04-16T15:17:27Z</time>
      </trkpt>
      <trkpt lat="47.64014" lon="3.73246">
        <ele>136</ele>
        <time>2014-04-16T15:17:47Z</time>
      </trkpt>
      <trkpt lat="47.6401" lon="3.73258">
        <ele>131</ele>
        <time>2014-04-16T15:17:57Z</time>
      </trkpt>
      <trkpt lat="47.64007" lon="3.73272">
        <ele>128</ele>
        <time>2014-04-16T15:18:02Z</time>
      </trkpt>
      <trkpt lat="47.63988" lon="3.73287">
        <ele>137</ele>
        <time>2014-04-16T15:18:16Z</time>
      </trkpt>
      <trkpt lat="47.63966" lon="3.73307">
        <ele>137</ele>
        <time>2014-04-16T15:18:44Z</time>
      </trkpt>
      <trkpt lat="47.63956" lon="3.73309">
        <ele>139</ele>
        <time>2014-04-16T15:18:53Z</time>
      </trkpt>
      <trkpt lat="47.63947" lon="3.73315">
        <ele>139</ele>
        <time>2014-04-16T15:18:59Z</time>
      </trkpt>
      <trkpt lat="47.63939" lon="3.73322">
        <ele>140</ele>
        <time>2014-04-16T15:19:07Z</time>
      </trkpt>
      <trkpt lat="47.63931" lon="3.73333">
        <ele>140</ele>
        <time>2014-04-16T15:19:22Z</time>
      </trkpt>
      <trkpt lat="47.63923" lon="3.73337">
        <ele>136</ele>
        <time>2014-04-16T15:19:28Z</time>
      </trkpt>
      <trkpt lat="47.63914" lon="3.73345">
        <ele>140</ele>
        <time>2014-04-16T15:19:35Z</time>
      </trkpt>
      <trkpt lat="47.63905" lon="3.73352">
        <ele>140</ele>
        <time>2014-04-16T15:19:42Z</time>
      </trkpt>
      <trkpt lat="47.63897" lon="3.73359">
        <ele>140</ele>
        <time>2014-04-16T15:19:49Z</time>
      </trkpt>
      <trkpt lat="47.63892" lon="3.73361">
        <ele>140</ele>
        <time>2014-04-16T15:19:54Z</time>
      </trkpt>
      <trkpt lat="47.63884" lon="3.73366">
        <ele>140</ele>
        <time>2014-04-16T15:20:04Z</time>
      </trkpt>
      <trkpt lat="47.63876" lon="3.73376">
        <ele>140</ele>
        <time>2014-04-16T15:20:12Z</time>
      </trkpt>
      <trkpt lat="47.63872" lon="3.7338">
        <ele>140</ele>
        <time>2014-04-16T15:20:16Z</time>
      </trkpt>
      <trkpt lat="47.63865" lon="3.73388">
        <ele>139</ele>
        <time>2014-04-16T15:20:24Z</time>
      </trkpt>
      <trkpt lat="47.63856" lon="3.73395">
        <ele>139</ele>
        <time>2014-04-16T15:20:35Z</time>
      </trkpt>
      <trkpt lat="47.63848" lon="3.73403">
        <ele>138</ele>
        <time>2014-04-16T15:20:44Z</time>
      </trkpt>
      <trkpt lat="47.6384" lon="3.73411">
        <ele>137</ele>
        <time>2014-04-16T15:20:53Z</time>
      </trkpt>
      <trkpt lat="47.63831" lon="3.7342">
        <ele>136</ele>
        <time>2014-04-16T15:21:01Z</time>
      </trkpt>
      <trkpt lat="47.63823" lon="3.73427">
        <ele>136</ele>
        <time>2014-04-16T15:21:06Z</time>
      </trkpt>
      <trkpt lat="47.63815" lon="3.73434">
        <ele>135</ele>
        <time>2014-04-16T15:21:14Z</time>
      </trkpt>
      <trkpt lat="47.63807" lon="3.73442">
        <ele>135</ele>
        <time>2014-04-16T15:21:25Z</time>
      </trkpt>
      <trkpt lat="47.63801" lon="3.73452">
        <ele>135</ele>
        <time>2014-04-16T15:21:36Z</time>
      </trkpt>
      <trkpt lat="47.63795" lon="3.73462">
        <ele>134</ele>
        <time>2014-04-16T15:21:48Z</time>
      </trkpt>
      <trkpt lat="47.63792" lon="3.73475">
        <ele>133</ele>
        <time>2014-04-16T15:22:02Z</time>
      </trkpt>
      <trkpt lat="47.63787" lon="3.73486">
        <ele>133</ele>
        <time>2014-04-16T15:22:12Z</time>
      </trkpt>
      <trkpt lat="47.63775" lon="3.73519">
        <ele>127</ele>
        <time>2014-04-16T15:22:43Z</time>
      </trkpt>
      <trkpt lat="47.6377" lon="3.73532">
        <ele>126</ele>
        <time>2014-04-16T15:22:49Z</time>
      </trkpt>
      <trkpt lat="47.63764" lon="3.73544">
        <ele>126</ele>
        <time>2014-04-16T15:22:56Z</time>
      </trkpt>
      <trkpt lat="47.63748" lon="3.73595">
        <ele>128</ele>
        <time>2014-04-16T15:23:27Z</time>
      </trkpt>
      <trkpt lat="47.63732" lon="3.73629">
        <ele>130</ele>
        <time>2014-04-16T15:23:52Z</time>
      </trkpt>
      <trkpt lat="47.63718" lon="3.73672">
        <ele>124</ele>
        <time>2014-04-16T15:24:23Z</time>
      </trkpt>
      <trkpt lat="47.63699" lon="3.73701">
        <ele>125</ele>
        <time>2014-04-16T15:24:41Z</time>
      </trkpt>
      <trkpt lat="47.63677" lon="3.73718">
        <ele>125</ele>
        <time>2014-04-16T15:25:51Z</time>
      </trkpt>
      <trkpt lat="47.63577" lon="3.73775">
        <ele>125</ele>
        <time>2014-04-16T15:26:52Z</time>
      </trkpt>
      <trkpt lat="47.63547" lon="3.73801">
        <ele>124</ele>
        <time>2014-04-16T15:27:23Z</time>
      </trkpt>
      <trkpt lat="47.63523" lon="3.73799">
        <ele>124</ele>
        <time>2014-04-16T15:27:53Z</time>
      </trkpt>
      <trkpt lat="47.63522" lon="3.73814">
        <ele>123</ele>
        <time>2014-04-16T15:28:06Z</time>
      </trkpt>
      <trkpt lat="47.63513" lon="3.73817">
        <ele>123</ele>
        <time>2014-04-16T15:28:14Z</time>
      </trkpt>
      <trkpt lat="47.63482" lon="3.7382">
        <ele>126</ele>
        <time>2014-04-16T15:28:52Z</time>
      </trkpt>
      <trkpt lat="47.63455" lon="3.73807">
        <ele>128</ele>
        <time>2014-04-16T15:29:12Z</time>
      </trkpt>
      <trkpt lat="47.63425" lon="3.73833">
        <ele>124</ele>
        <time>2014-04-16T15:29:43Z</time>
      </trkpt>
      <trkpt lat="47.63372" lon="3.73851">
        <ele>124</ele>
        <time>2014-04-16T15:30:42Z</time>
      </trkpt>
      <trkpt lat="47.63298" lon="3.73882">
        <ele>127</ele>
        <time>2014-04-16T15:31:44Z</time>
      </trkpt>
      <trkpt lat="47.63286" lon="3.73893">
        <ele>127</ele>
        <time>2014-04-16T15:32:04Z</time>
      </trkpt>
      <trkpt lat="47.63278" lon="3.739">
        <ele>127</ele>
        <time>2014-04-16T15:32:08Z</time>
      </trkpt>
      <trkpt lat="47.6327" lon="3.73907">
        <ele>126</ele>
        <time>2014-04-16T15:32:13Z</time>
      </trkpt>
      <trkpt lat="47.63261" lon="3.73911">
        <ele>126</ele>
        <time>2014-04-16T15:32:19Z</time>
      </trkpt>
      <trkpt lat="47.63251" lon="3.73913">
        <ele>125</ele>
        <time>2014-04-16T15:32:29Z</time>
      </trkpt>
      <trkpt lat="47.63242" lon="3.73917">
        <ele>127</ele>
        <time>2014-04-16T15:32:34Z</time>
      </trkpt>
      <trkpt lat="47.63237" lon="3.73915">
        <ele>128</ele>
        <time>2014-04-16T15:32:41Z</time>
      </trkpt>
      <trkpt lat="47.63229" lon="3.73918">
        <ele>123</ele>
        <time>2014-04-16T15:32:48Z</time>
      </trkpt>
      <trkpt lat="47.6322" lon="3.73917">
        <ele>123</ele>
        <time>2014-04-16T15:32:57Z</time>
      </trkpt>
      <trkpt lat="47.63215" lon="3.73918">
        <ele>123</ele>
        <time>2014-04-16T15:33:02Z</time>
      </trkpt>
      <trkpt lat="47.63204" lon="3.73918">
        <ele>123</ele>
        <time>2014-04-16T15:33:10Z</time>
      </trkpt>
      <trkpt lat="47.63096" lon="3.73934">
        <ele>123</ele>
        <time>2014-04-16T15:34:45Z</time>
      </trkpt>
      <trkpt lat="47.63094" lon="3.73916">
        <ele>127</ele>
        <time>2014-04-16T15:34:55Z</time>
      </trkpt>
      <trkpt lat="47.63096" lon="3.73903">
        <ele>128</ele>
        <time>2014-04-16T15:35:00Z</time>
      </trkpt>
      <trkpt lat="47.63087" lon="3.739">
        <ele>128</ele>
        <time>2014-04-16T15:35:14Z</time>
      </trkpt>
      <trkpt lat="47.63078" lon="3.73903">
        <ele>126</ele>
        <time>2014-04-16T15:35:23Z</time>
      </trkpt>
      <trkpt lat="47.63069" lon="3.73904">
        <ele>126</ele>
        <time>2014-04-16T15:35:32Z</time>
      </trkpt>
      <trkpt lat="47.63063" lon="3.73893">
        <ele>127</ele>
        <time>2014-04-16T15:35:41Z</time>
      </trkpt>
      <trkpt lat="47.63054" lon="3.73888">
        <ele>127</ele>
        <time>2014-04-16T15:35:51Z</time>
      </trkpt>
      <trkpt lat="47.63045" lon="3.73885">
        <ele>127</ele>
        <time>2014-04-16T15:36:01Z</time>
      </trkpt>
      <trkpt lat="47.63037" lon="3.73876">
        <ele>128</ele>
        <time>2014-04-16T15:36:11Z</time>
      </trkpt>
      <trkpt lat="47.63026" lon="3.73877">
        <ele>127</ele>
        <time>2014-04-16T15:36:16Z</time>
      </trkpt>
      <trkpt lat="47.63017" lon="3.73881">
        <ele>127</ele>
        <time>2014-04-16T15:36:23Z</time>
      </trkpt>
      <trkpt lat="47.63009" lon="3.73874">
        <ele>127</ele>
        <time>2014-04-16T15:36:31Z</time>
      </trkpt>
      <trkpt lat="47.63002" lon="3.73865">
        <ele>128</ele>
        <time>2014-04-16T15:36:44Z</time>
      </trkpt>
      <trkpt lat="47.62995" lon="3.73856">
        <ele>126</ele>
        <time>2014-04-16T15:36:49Z</time>
      </trkpt>
      <trkpt lat="47.62986" lon="3.73852">
        <ele>126</ele>
        <time>2014-04-16T15:36:58Z</time>
      </trkpt>
      <trkpt lat="47.62976" lon="3.7385">
        <ele>125</ele>
        <time>2014-04-16T15:37:03Z</time>
      </trkpt>
      <trkpt lat="47.62967" lon="3.73847">
        <ele>125</ele>
        <time>2014-04-16T15:37:08Z</time>
      </trkpt>
      <trkpt lat="47.62959" lon="3.7384">
        <ele>125</ele>
        <time>2014-04-16T15:37:15Z</time>
      </trkpt>
      <trkpt lat="47.62959" lon="3.7383">
        <ele>133</ele>
        <time>2014-04-16T15:37:16Z</time>
      </trkpt>
      <trkpt lat="47.62952" lon="3.7383">
        <ele>132</ele>
        <time>2014-04-16T15:37:26Z</time>
      </trkpt>
      <trkpt lat="47.62947" lon="3.73826">
        <ele>132</ele>
        <time>2014-04-16T15:37:30Z</time>
      </trkpt>
      <trkpt lat="47.62942" lon="3.73826">
        <ele>131</ele>
        <time>2014-04-16T15:37:34Z</time>
      </trkpt>
      <trkpt lat="47.62937" lon="3.73829">
        <ele>130</ele>
        <time>2014-04-16T15:37:37Z</time>
      </trkpt>
      <trkpt lat="47.62932" lon="3.73831">
        <ele>129</ele>
        <time>2014-04-16T15:37:40Z</time>
      </trkpt>
      <trkpt lat="47.62928" lon="3.73828">
        <ele>129</ele>
        <time>2014-04-16T15:37:43Z</time>
      </trkpt>
      <trkpt lat="47.62926" lon="3.73821">
        <ele>130</ele>
        <time>2014-04-16T15:37:46Z</time>
      </trkpt>
      <trkpt lat="47.62923" lon="3.73816">
        <ele>130</ele>
        <time>2014-04-16T15:37:50Z</time>
      </trkpt>
      <trkpt lat="47.62918" lon="3.73812">
        <ele>131</ele>
        <time>2014-04-16T15:37:54Z</time>
      </trkpt>
      <trkpt lat="47.62915" lon="3.73807">
        <ele>127</ele>
        <time>2014-04-16T15:37:58Z</time>
      </trkpt>
      <trkpt lat="47.62911" lon="3.73803">
        <ele>127</ele>
        <time>2014-04-16T15:38:02Z</time>
      </trkpt>
      <trkpt lat="47.62908" lon="3.73801">
        <ele>127</ele>
        <time>2014-04-16T15:38:09Z</time>
      </trkpt>
      <trkpt lat="47.62901" lon="3.73797">
        <ele>127</ele>
        <time>2014-04-16T15:38:31Z</time>
      </trkpt>
      <trkpt lat="47.62897" lon="3.73795">
        <ele>127</ele>
        <time>2014-04-16T15:38:34Z</time>
      </trkpt>
      <trkpt lat="47.62892" lon="3.73793">
        <ele>127</ele>
        <time>2014-04-16T15:38:38Z</time>
      </trkpt>
      <trkpt lat="47.62887" lon="3.73792">
        <ele>127</ele>
        <time>2014-04-16T15:38:42Z</time>
      </trkpt>
      <trkpt lat="47.62883" lon="3.73787">
        <ele>127</ele>
        <time>2014-04-16T15:38:46Z</time>
      </trkpt>
      <trkpt lat="47.62878" lon="3.7379">
        <ele>127</ele>
        <time>2014-04-16T15:38:55Z</time>
      </trkpt>
      <trkpt lat="47.62873" lon="3.7379">
        <ele>127</ele>
        <time>2014-04-16T15:38:59Z</time>
      </trkpt>
      <trkpt lat="47.62868" lon="3.7379">
        <ele>126</ele>
        <time>2014-04-16T15:39:03Z</time>
      </trkpt>
      <trkpt lat="47.62863" lon="3.73787">
        <ele>126</ele>
        <time>2014-04-16T15:39:07Z</time>
      </trkpt>
      <trkpt lat="47.62858" lon="3.73783">
        <ele>126</ele>
        <time>2014-04-16T15:39:12Z</time>
      </trkpt>
      <trkpt lat="47.62854" lon="3.73778">
        <ele>127</ele>
        <time>2014-04-16T15:39:16Z</time>
      </trkpt>
      <trkpt lat="47.62845" lon="3.73772">
        <ele>127</ele>
        <time>2014-04-16T15:39:38Z</time>
      </trkpt>
      <trkpt lat="47.62835" lon="3.73768">
        <ele>127</ele>
        <time>2014-04-16T15:39:46Z</time>
      </trkpt>
      <trkpt lat="47.62826" lon="3.73764">
        <ele>124</ele>
        <time>2014-04-16T15:39:54Z</time>
      </trkpt>
      <trkpt lat="47.62822" lon="3.73757">
        <ele>125</ele>
        <time>2014-04-16T15:39:58Z</time>
      </trkpt>
      <trkpt lat="47.62817" lon="3.73753">
        <ele>124</ele>
        <time>2014-04-16T15:40:02Z</time>
      </trkpt>
      <trkpt lat="47.62812" lon="3.73754">
        <ele>124</ele>
        <time>2014-04-16T15:40:06Z</time>
      </trkpt>
      <trkpt lat="47.62807" lon="3.73756">
        <ele>123</ele>
        <time>2014-04-16T15:40:10Z</time>
      </trkpt>
      <trkpt lat="47.62803" lon="3.73758">
        <ele>123</ele>
        <time>2014-04-16T15:40:13Z</time>
      </trkpt>
      <trkpt lat="47.62797" lon="3.7376">
        <ele>122</ele>
        <time>2014-04-16T15:40:17Z</time>
      </trkpt>
      <trkpt lat="47.62791" lon="3.73762">
        <ele>122</ele>
        <time>2014-04-16T15:40:21Z</time>
      </trkpt>
      <trkpt lat="47.62786" lon="3.73761">
        <ele>122</ele>
        <time>2014-04-16T15:40:25Z</time>
      </trkpt>
      <trkpt lat="47.62781" lon="3.73759">
        <ele>121</ele>
        <time>2014-04-16T15:40:30Z</time>
      </trkpt>
      <trkpt lat="47.62777" lon="3.73758">
        <ele>121</ele>
        <time>2014-04-16T15:40:34Z</time>
      </trkpt>
      <trkpt lat="47.62774" lon="3.73757">
        <ele>121</ele>
        <time>2014-04-16T15:40:42Z</time>
      </trkpt>
      <trkpt lat="47.62769" lon="3.73756">
        <ele>121</ele>
        <time>2014-04-16T15:40:53Z</time>
      </trkpt>
      <trkpt lat="47.62764" lon="3.73758">
        <ele>121</ele>
        <time>2014-04-16T15:40:57Z</time>
      </trkpt>
      <trkpt lat="47.62759" lon="3.7376">
        <ele>121</ele>
        <time>2014-04-16T15:41:01Z</time>
      </trkpt>
      <trkpt lat="47.62753" lon="3.7376">
        <ele>121</ele>
        <time>2014-04-16T15:41:05Z</time>
      </trkpt>
      <trkpt lat="47.62748" lon="3.73758">
        <ele>120</ele>
        <time>2014-04-16T15:41:09Z</time>
      </trkpt>
      <trkpt lat="47.62743" lon="3.73758">
        <ele>120</ele>
        <time>2014-04-16T15:41:13Z</time>
      </trkpt>
      <trkpt lat="47.62738" lon="3.73757">
        <ele>120</ele>
        <time>2014-04-16T15:41:17Z</time>
      </trkpt>
      <trkpt lat="47.62733" lon="3.73756">
        <ele>119</ele>
        <time>2014-04-16T15:41:21Z</time>
      </trkpt>
      <trkpt lat="47.62727" lon="3.73755">
        <ele>119</ele>
        <time>2014-04-16T15:41:26Z</time>
      </trkpt>
      <trkpt lat="47.62722" lon="3.73754">
        <ele>119</ele>
        <time>2014-04-16T15:41:30Z</time>
      </trkpt>
      <trkpt lat="47.62717" lon="3.73757">
        <ele>119</ele>
        <time>2014-04-16T15:41:34Z</time>
      </trkpt>
      <trkpt lat="47.62713" lon="3.73759">
        <ele>119</ele>
        <time>2014-04-16T15:41:37Z</time>
      </trkpt>
      <trkpt lat="47.62708" lon="3.73759">
        <ele>118</ele>
        <time>2014-04-16T15:41:42Z</time>
      </trkpt>
      <trkpt lat="47.62703" lon="3.73759">
        <ele>118</ele>
        <time>2014-04-16T15:41:47Z</time>
      </trkpt>
      <trkpt lat="47.62698" lon="3.73759">
        <ele>118</ele>
        <time>2014-04-16T15:41:52Z</time>
      </trkpt>
      <trkpt lat="47.62693" lon="3.73758">
        <ele>118</ele>
        <time>2014-04-16T15:41:57Z</time>
      </trkpt>
      <trkpt lat="47.62688" lon="3.73759">
        <ele>118</ele>
        <time>2014-04-16T15:42:01Z</time>
      </trkpt>
      <trkpt lat="47.62683" lon="3.73759">
        <ele>118</ele>
        <time>2014-04-16T15:42:04Z</time>
      </trkpt>
      <trkpt lat="47.62678" lon="3.73759">
        <ele>118</ele>
        <time>2014-04-16T15:42:07Z</time>
      </trkpt>
      <trkpt lat="47.62673" lon="3.73759">
        <ele>118</ele>
        <time>2014-04-16T15:42:11Z</time>
      </trkpt>
      <trkpt lat="47.62668" lon="3.7376">
        <ele>118</ele>
        <time>2014-04-16T15:42:14Z</time>
      </trkpt>
      <trkpt lat="47.62663" lon="3.7376">
        <ele>118</ele>
        <time>2014-04-16T15:42:19Z</time>
      </trkpt>
      <trkpt lat="47.62659" lon="3.73761">
        <ele>118</ele>
        <time>2014-04-16T15:42:23Z</time>
      </trkpt>
      <trkpt lat="47.62654" lon="3.73761">
        <ele>118</ele>
        <time>2014-04-16T15:42:26Z</time>
      </trkpt>
      <trkpt lat="47.62633" lon="3.73767">
        <ele>118</ele>
        <time>2014-04-16T15:42:43Z</time>
      </trkpt>
      <trkpt lat="47.62629" lon="3.73767">
        <ele>118</ele>
        <time>2014-04-16T15:42:47Z</time>
      </trkpt>
      <trkpt lat="47.62624" lon="3.73766">
        <ele>118</ele>
        <time>2014-04-16T15:42:51Z</time>
      </trkpt>
      <trkpt lat="47.62619" lon="3.73766">
        <ele>118</ele>
        <time>2014-04-16T15:42:55Z</time>
      </trkpt>
      <trkpt lat="47.62614" lon="3.73765">
        <ele>118</ele>
        <time>2014-04-16T15:42:59Z</time>
      </trkpt>
      <trkpt lat="47.62609" lon="3.73762">
        <ele>118</ele>
        <time>2014-04-16T15:43:03Z</time>
      </trkpt>
      <trkpt lat="47.62605" lon="3.7376">
        <ele>119</ele>
        <time>2014-04-16T15:43:07Z</time>
      </trkpt>
      <trkpt lat="47.626" lon="3.73759">
        <ele>119</ele>
        <time>2014-04-16T15:43:12Z</time>
      </trkpt>
      <trkpt lat="47.62595" lon="3.73756">
        <ele>119</ele>
        <time>2014-04-16T15:43:16Z</time>
      </trkpt>
      <trkpt lat="47.6259" lon="3.73752">
        <ele>119</ele>
        <time>2014-04-16T15:43:20Z</time>
      </trkpt>
      <trkpt lat="47.62586" lon="3.73749">
        <ele>121</ele>
        <time>2014-04-16T15:43:24Z</time>
      </trkpt>
      <trkpt lat="47.62581" lon="3.73748">
        <ele>122</ele>
        <time>2014-04-16T15:43:29Z</time>
      </trkpt>
      <trkpt lat="47.62575" lon="3.73748">
        <ele>124</ele>
        <time>2014-04-16T15:43:34Z</time>
      </trkpt>
      <trkpt lat="47.6257" lon="3.73748">
        <ele>126</ele>
        <time>2014-04-16T15:43:38Z</time>
      </trkpt>
      <trkpt lat="47.62565" lon="3.73747">
        <ele>127</ele>
        <time>2014-04-16T15:43:42Z</time>
      </trkpt>
      <trkpt lat="47.6256" lon="3.73747">
        <ele>128</ele>
        <time>2014-04-16T15:43:46Z</time>
      </trkpt>
      <trkpt lat="47.62555" lon="3.73749">
        <ele>128</ele>
        <time>2014-04-16T15:43:50Z</time>
      </trkpt>
      <trkpt lat="47.6255" lon="3.7375">
        <ele>120</ele>
        <time>2014-04-16T15:43:54Z</time>
      </trkpt>
      <trkpt lat="47.62546" lon="3.73753">
        <ele>120</ele>
        <time>2014-04-16T15:43:58Z</time>
      </trkpt>
      <trkpt lat="47.62541" lon="3.73754">
        <ele>120</ele>
        <time>2014-04-16T15:44:02Z</time>
      </trkpt>
      <trkpt lat="47.62537" lon="3.73756">
        <ele>120</ele>
        <time>2014-04-16T15:44:06Z</time>
      </trkpt>
      <trkpt lat="47.62532" lon="3.73757">
        <ele>121</ele>
        <time>2014-04-16T15:44:11Z</time>
      </trkpt>
      <trkpt lat="47.62526" lon="3.73756">
        <ele>121</ele>
        <time>2014-04-16T15:44:16Z</time>
      </trkpt>
      <trkpt lat="47.62521" lon="3.73756">
        <ele>121</ele>
        <time>2014-04-16T15:44:20Z</time>
      </trkpt>
      <trkpt lat="47.62516" lon="3.73757">
        <ele>122</ele>
        <time>2014-04-16T15:44:24Z</time>
      </trkpt>
      <trkpt lat="47.62512" lon="3.73759">
        <ele>122</ele>
        <time>2014-04-16T15:44:28Z</time>
      </trkpt>
      <trkpt lat="47.62506" lon="3.73762">
        <ele>122</ele>
        <time>2014-04-16T15:44:33Z</time>
      </trkpt>
      <trkpt lat="47.62502" lon="3.73765">
        <ele>122</ele>
        <time>2014-04-16T15:44:37Z</time>
      </trkpt>
      <trkpt lat="47.62497" lon="3.73767">
        <ele>123</ele>
        <time>2014-04-16T15:44:41Z</time>
      </trkpt>
      <trkpt lat="47.62492" lon="3.73768">
        <ele>123</ele>
        <time>2014-04-16T15:44:45Z</time>
      </trkpt>
      <trkpt lat="47.62487" lon="3.7377">
        <ele>123</ele>
        <time>2014-04-16T15:44:50Z</time>
      </trkpt>
      <trkpt lat="47.62482" lon="3.73772">
        <ele>123</ele>
        <time>2014-04-16T15:44:54Z</time>
      </trkpt>
      <trkpt lat="47.62478" lon="3.73774">
        <ele>123</ele>
        <time>2014-04-16T15:44:58Z</time>
      </trkpt>
      <trkpt lat="47.62473" lon="3.73777">
        <ele>122</ele>
        <time>2014-04-16T15:45:02Z</time>
      </trkpt>
      <trkpt lat="47.62469" lon="3.7378">
        <ele>122</ele>
        <time>2014-04-16T15:45:06Z</time>
      </trkpt>
      <trkpt lat="47.62465" lon="3.73783">
        <ele>122</ele>
        <time>2014-04-16T15:45:10Z</time>
      </trkpt>
      <trkpt lat="47.6246" lon="3.73786">
        <ele>122</ele>
        <time>2014-04-16T15:45:14Z</time>
      </trkpt>
      <trkpt lat="47.62455" lon="3.73788">
        <ele>122</ele>
        <time>2014-04-16T15:45:18Z</time>
      </trkpt>
      <trkpt lat="47.6245" lon="3.73791">
        <ele>122</ele>
        <time>2014-04-16T15:45:23Z</time>
      </trkpt>
      <trkpt lat="47.62446" lon="3.73793">
        <ele>122</ele>
        <time>2014-04-16T15:45:28Z</time>
      </trkpt>
      <trkpt lat="47.62441" lon="3.73797">
        <ele>122</ele>
        <time>2014-04-16T15:45:32Z</time>
      </trkpt>
      <trkpt lat="47.62441" lon="3.73792">
        <ele>122</ele>
        <time>2014-04-16T15:45:44Z</time>
      </trkpt>
      <trkpt lat="47.62437" lon="3.73793">
        <ele>122</ele>
        <time>2014-04-16T15:45:57Z</time>
      </trkpt>
      <trkpt lat="47.62433" lon="3.73796">
        <ele>122</ele>
        <time>2014-04-16T15:46:03Z</time>
      </trkpt>
      <trkpt lat="47.62428" lon="3.73797">
        <ele>122</ele>
        <time>2014-04-16T15:46:08Z</time>
      </trkpt>
      <trkpt lat="47.62424" lon="3.738">
        <ele>122</ele>
        <time>2014-04-16T15:46:12Z</time>
      </trkpt>
      <trkpt lat="47.62419" lon="3.73803">
        <ele>122</ele>
        <time>2014-04-16T15:46:16Z</time>
      </trkpt>
      <trkpt lat="47.62415" lon="3.73805">
        <ele>122</ele>
        <time>2014-04-16T15:46:19Z</time>
      </trkpt>
      <trkpt lat="47.6241" lon="3.73808">
        <ele>122</ele>
        <time>2014-04-16T15:46:22Z</time>
      </trkpt>
      <trkpt lat="47.62406" lon="3.73808">
        <ele>122</ele>
        <time>2014-04-16T15:46:26Z</time>
      </trkpt>
      <trkpt lat="47.62401" lon="3.73807">
        <ele>123</ele>
        <time>2014-04-16T15:46:32Z</time>
      </trkpt>
      <trkpt lat="47.62398" lon="3.73811">
        <ele>122</ele>
        <time>2014-04-16T15:46:38Z</time>
      </trkpt>
      <trkpt lat="47.62393" lon="3.73815">
        <ele>122</ele>
        <time>2014-04-16T15:46:41Z</time>
      </trkpt>
      <trkpt lat="47.62388" lon="3.73816">
        <ele>123</ele>
        <time>2014-04-16T15:46:44Z</time>
      </trkpt>
      <trkpt lat="47.62381" lon="3.73818">
        <ele>123</ele>
        <time>2014-04-16T15:46:47Z</time>
      </trkpt>
      <trkpt lat="47.62376" lon="3.73823">
        <ele>123</ele>
        <time>2014-04-16T15:46:50Z</time>
      </trkpt>
      <trkpt lat="47.62371" lon="3.73826">
        <ele>123</ele>
        <time>2014-04-16T15:46:54Z</time>
      </trkpt>
      <trkpt lat="47.62367" lon="3.73828">
        <ele>123</ele>
        <time>2014-04-16T15:46:58Z</time>
      </trkpt>
      <trkpt lat="47.62363" lon="3.73832">
        <ele>123</ele>
        <time>2014-04-16T15:47:03Z</time>
      </trkpt>
      <trkpt lat="47.62357" lon="3.73834">
        <ele>120</ele>
        <time>2014-04-16T15:47:07Z</time>
      </trkpt>
      <trkpt lat="47.62353" lon="3.73838">
        <ele>121</ele>
        <time>2014-04-16T15:47:12Z</time>
      </trkpt>
      <trkpt lat="47.62351" lon="3.73845">
        <ele>121</ele>
        <time>2014-04-16T15:47:19Z</time>
      </trkpt>
      <trkpt lat="47.6235" lon="3.73852">
        <ele>120</ele>
        <time>2014-04-16T15:47:24Z</time>
      </trkpt>
      <trkpt lat="47.62349" lon="3.7386">
        <ele>120</ele>
        <time>2014-04-16T15:47:28Z</time>
      </trkpt>
      <trkpt lat="47.62348" lon="3.73867">
        <ele>120</ele>
        <time>2014-04-16T15:47:33Z</time>
      </trkpt>
      <trkpt lat="47.62346" lon="3.73874">
        <ele>120</ele>
        <time>2014-04-16T15:47:39Z</time>
      </trkpt>
      <trkpt lat="47.62342" lon="3.7388">
        <ele>120</ele>
        <time>2014-04-16T15:47:44Z</time>
      </trkpt>
      <trkpt lat="47.62338" lon="3.73885">
        <ele>120</ele>
        <time>2014-04-16T15:47:50Z</time>
      </trkpt>
      <trkpt lat="47.62335" lon="3.73889">
        <ele>120</ele>
        <time>2014-04-16T15:47:54Z</time>
      </trkpt>
      <trkpt lat="47.62331" lon="3.73895">
        <ele>121</ele>
        <time>2014-04-16T15:47:58Z</time>
      </trkpt>
      <trkpt lat="47.62328" lon="3.73899">
        <ele>121</ele>
        <time>2014-04-16T15:48:01Z</time>
      </trkpt>
      <trkpt lat="47.62322" lon="3.73903">
        <ele>121</ele>
        <time>2014-04-16T15:48:04Z</time>
      </trkpt>
      <trkpt lat="47.62318" lon="3.73905">
        <ele>121</ele>
        <time>2014-04-16T15:48:07Z</time>
      </trkpt>
      <trkpt lat="47.62313" lon="3.73909">
        <ele>121</ele>
        <time>2014-04-16T15:48:11Z</time>
      </trkpt>
      <trkpt lat="47.62308" lon="3.73911">
        <ele>121</ele>
        <time>2014-04-16T15:48:16Z</time>
      </trkpt>
      <trkpt lat="47.62303" lon="3.73914">
        <ele>121</ele>
        <time>2014-04-16T15:48:19Z</time>
      </trkpt>
      <trkpt lat="47.62299" lon="3.73918">
        <ele>121</ele>
        <time>2014-04-16T15:48:23Z</time>
      </trkpt>
      <trkpt lat="47.62295" lon="3.73922">
        <ele>121</ele>
        <time>2014-04-16T15:48:30Z</time>
      </trkpt>
      <trkpt lat="47.62291" lon="3.73926">
        <ele>121</ele>
        <time>2014-04-16T15:48:36Z</time>
      </trkpt>
      <trkpt lat="47.62287" lon="3.7393">
        <ele>121</ele>
        <time>2014-04-16T15:48:42Z</time>
      </trkpt>
      <trkpt lat="47.62284" lon="3.73935">
        <ele>121</ele>
        <time>2014-04-16T15:48:46Z</time>
      </trkpt>
      <trkpt lat="47.6228" lon="3.7394">
        <ele>121</ele>
        <time>2014-04-16T15:48:50Z</time>
      </trkpt>
      <trkpt lat="47.62276" lon="3.73945">
        <ele>121</ele>
        <time>2014-04-16T15:48:54Z</time>
      </trkpt>
      <trkpt lat="47.62272" lon="3.73951">
        <ele>121</ele>
        <time>2014-04-16T15:48:58Z</time>
      </trkpt>
      <trkpt lat="47.62268" lon="3.73956">
        <ele>121</ele>
        <time>2014-04-16T15:49:02Z</time>
      </trkpt>
      <trkpt lat="47.62264" lon="3.7396">
        <ele>121</ele>
        <time>2014-04-16T15:49:08Z</time>
      </trkpt>
      <trkpt lat="47.62261" lon="3.73966">
        <ele>121</ele>
        <time>2014-04-16T15:49:13Z</time>
      </trkpt>
      <trkpt lat="47.62259" lon="3.73971">
        <ele>121</ele>
        <time>2014-04-16T15:49:17Z</time>
      </trkpt>
      <trkpt lat="47.62256" lon="3.73976">
        <ele>121</ele>
        <time>2014-04-16T15:49:20Z</time>
      </trkpt>
      <trkpt lat="47.62252" lon="3.73983">
        <ele>121</ele>
        <time>2014-04-16T15:49:24Z</time>
      </trkpt>
      <trkpt lat="47.62247" lon="3.73987">
        <ele>121</ele>
        <time>2014-04-16T15:49:29Z</time>
      </trkpt>
      <trkpt lat="47.62244" lon="3.73994">
        <ele>121</ele>
        <time>2014-04-16T15:49:34Z</time>
      </trkpt>
      <trkpt lat="47.62241" lon="3.73999">
        <ele>121</ele>
        <time>2014-04-16T15:49:38Z</time>
      </trkpt>
      <trkpt lat="47.62236" lon="3.74004">
        <ele>121</ele>
        <time>2014-04-16T15:49:42Z</time>
      </trkpt>
      <trkpt lat="47.62231" lon="3.74007">
        <ele>121</ele>
        <time>2014-04-16T15:49:45Z</time>
      </trkpt>
      <trkpt lat="47.62225" lon="3.74009">
        <ele>121</ele>
        <time>2014-04-16T15:49:48Z</time>
      </trkpt>
      <trkpt lat="47.6222" lon="3.74012">
        <ele>121</ele>
        <time>2014-04-16T15:49:52Z</time>
      </trkpt>
      <trkpt lat="47.62218" lon="3.74018">
        <ele>121</ele>
        <time>2014-04-16T15:49:58Z</time>
      </trkpt>
      <trkpt lat="47.62216" lon="3.74025">
        <ele>121</ele>
        <time>2014-04-16T15:50:04Z</time>
      </trkpt>
      <trkpt lat="47.62211" lon="3.7403">
        <ele>121</ele>
        <time>2014-04-16T15:50:08Z</time>
      </trkpt>
      <trkpt lat="47.62206" lon="3.74033">
        <ele>121</ele>
        <time>2014-04-16T15:50:11Z</time>
      </trkpt>
      <trkpt lat="47.62202" lon="3.74037">
        <ele>121</ele>
        <time>2014-04-16T15:50:14Z</time>
      </trkpt>
      <trkpt lat="47.62197" lon="3.7404">
        <ele>121</ele>
        <time>2014-04-16T15:50:17Z</time>
      </trkpt>
      <trkpt lat="47.62192" lon="3.74042">
        <ele>121</ele>
        <time>2014-04-16T15:50:21Z</time>
      </trkpt>
      <trkpt lat="47.62191" lon="3.74049">
        <ele>121</ele>
        <time>2014-04-16T15:50:25Z</time>
      </trkpt>
      <trkpt lat="47.62188" lon="3.74054">
        <ele>121</ele>
        <time>2014-04-16T15:50:28Z</time>
      </trkpt>
      <trkpt lat="47.62185" lon="3.7406">
        <ele>121</ele>
        <time>2014-04-16T15:50:31Z</time>
      </trkpt>
      <trkpt lat="47.6218" lon="3.74063">
        <ele>120</ele>
        <time>2014-04-16T15:50:35Z</time>
      </trkpt>
      <trkpt lat="47.62175" lon="3.74067">
        <ele>120</ele>
        <time>2014-04-16T15:50:39Z</time>
      </trkpt>
      <trkpt lat="47.6217" lon="3.74067">
        <ele>120</ele>
        <time>2014-04-16T15:50:42Z</time>
      </trkpt>
      <trkpt lat="47.62166" lon="3.74068">
        <ele>120</ele>
        <time>2014-04-16T15:50:46Z</time>
      </trkpt>
      <trkpt lat="47.62162" lon="3.74074">
        <ele>120</ele>
        <time>2014-04-16T15:50:51Z</time>
      </trkpt>
      <trkpt lat="47.62159" lon="3.7408">
        <ele>120</ele>
        <time>2014-04-16T15:50:55Z</time>
      </trkpt>
      <trkpt lat="47.62156" lon="3.74085">
        <ele>120</ele>
        <time>2014-04-16T15:51:02Z</time>
      </trkpt>
      <trkpt lat="47.62151" lon="3.74087">
        <ele>120</ele>
        <time>2014-04-16T15:51:07Z</time>
      </trkpt>
      <trkpt lat="47.62145" lon="3.74088">
        <ele>120</ele>
        <time>2014-04-16T15:51:11Z</time>
      </trkpt>
      <trkpt lat="47.6214" lon="3.74089">
        <ele>120</ele>
        <time>2014-04-16T15:51:15Z</time>
      </trkpt>
      <trkpt lat="47.62135" lon="3.74091">
        <ele>120</ele>
        <time>2014-04-16T15:51:19Z</time>
      </trkpt>
      <trkpt lat="47.6213" lon="3.74093">
        <ele>120</ele>
        <time>2014-04-16T15:51:23Z</time>
      </trkpt>
      <trkpt lat="47.62125" lon="3.74095">
        <ele>120</ele>
        <time>2014-04-16T15:51:27Z</time>
      </trkpt>
      <trkpt lat="47.62124" lon="3.74092">
        <ele>120</ele>
        <time>2014-04-16T15:51:33Z</time>
      </trkpt>
      <trkpt lat="47.6212" lon="3.74091">
        <ele>120</ele>
        <time>2014-04-16T15:51:59Z</time>
      </trkpt>
      <trkpt lat="47.62115" lon="3.74091">
        <ele>120</ele>
        <time>2014-04-16T15:52:05Z</time>
      </trkpt>
      <trkpt lat="47.62109" lon="3.74088">
        <ele>120</ele>
        <time>2014-04-16T15:52:08Z</time>
      </trkpt>
      <trkpt lat="47.62106" lon="3.74094">
        <ele>120</ele>
        <time>2014-04-16T15:52:13Z</time>
      </trkpt>
      <trkpt lat="47.62101" lon="3.74095">
        <ele>120</ele>
        <time>2014-04-16T15:52:19Z</time>
      </trkpt>
      <trkpt lat="47.62095" lon="3.74093">
        <ele>121</ele>
        <time>2014-04-16T15:52:23Z</time>
      </trkpt>
      <trkpt lat="47.62091" lon="3.74092">
        <ele>121</ele>
        <time>2014-04-16T15:52:25Z</time>
      </trkpt>
      <trkpt lat="47.62086" lon="3.74094">
        <ele>121</ele>
        <time>2014-04-16T15:52:28Z</time>
      </trkpt>
      <trkpt lat="47.62083" lon="3.74103">
        <ele>120</ele>
        <time>2014-04-16T15:52:40Z</time>
      </trkpt>
      <trkpt lat="47.62078" lon="3.74105">
        <ele>121</ele>
        <time>2014-04-16T15:52:43Z</time>
      </trkpt>
      <trkpt lat="47.62073" lon="3.74105">
        <ele>121</ele>
        <time>2014-04-16T15:52:47Z</time>
      </trkpt>
      <trkpt lat="47.62068" lon="3.74106">
        <ele>121</ele>
        <time>2014-04-16T15:52:51Z</time>
      </trkpt>
      <trkpt lat="47.62062" lon="3.74109">
        <ele>121</ele>
        <time>2014-04-16T15:52:55Z</time>
      </trkpt>
      <trkpt lat="47.62058" lon="3.74111">
        <ele>121</ele>
        <time>2014-04-16T15:53:00Z</time>
      </trkpt>
      <trkpt lat="47.62053" lon="3.74113">
        <ele>121</ele>
        <time>2014-04-16T15:53:05Z</time>
      </trkpt>
      <trkpt lat="47.62049" lon="3.74117">
        <ele>121</ele>
        <time>2014-04-16T15:53:08Z</time>
      </trkpt>
      <trkpt lat="47.62044" lon="3.74119">
        <ele>121</ele>
        <time>2014-04-16T15:53:12Z</time>
      </trkpt>
      <trkpt lat="47.62038" lon="3.7412">
        <ele>121</ele>
        <time>2014-04-16T15:53:17Z</time>
      </trkpt>
      <trkpt lat="47.62033" lon="3.7412">
        <ele>121</ele>
        <time>2014-04-16T15:53:20Z</time>
      </trkpt>
      <trkpt lat="47.62028" lon="3.7412">
        <ele>121</ele>
        <time>2014-04-16T15:53:23Z</time>
      </trkpt>
      <trkpt lat="47.62023" lon="3.74121">
        <ele>121</ele>
        <time>2014-04-16T15:53:27Z</time>
      </trkpt>
      <trkpt lat="47.62018" lon="3.74123">
        <ele>121</ele>
        <time>2014-04-16T15:53:31Z</time>
      </trkpt>
      <trkpt lat="47.62015" lon="3.74128">
        <ele>121</ele>
        <time>2014-04-16T15:53:35Z</time>
      </trkpt>
      <trkpt lat="47.6201" lon="3.74131">
        <ele>121</ele>
        <time>2014-04-16T15:53:41Z</time>
      </trkpt>
      <trkpt lat="47.62006" lon="3.74135">
        <ele>121</ele>
        <time>2014-04-16T15:53:46Z</time>
      </trkpt>
      <trkpt lat="47.62003" lon="3.74141">
        <ele>121</ele>
        <time>2014-04-16T15:53:53Z</time>
      </trkpt>
      <trkpt lat="47.62003" lon="3.74149">
        <ele>121</ele>
        <time>2014-04-16T15:53:57Z</time>
      </trkpt>
      <trkpt lat="47.62002" lon="3.74155">
        <ele>121</ele>
        <time>2014-04-16T15:54:03Z</time>
      </trkpt>
      <trkpt lat="47.62006" lon="3.74161">
        <ele>121</ele>
        <time>2014-04-16T15:54:08Z</time>
      </trkpt>
      <trkpt lat="47.62008" lon="3.74167">
        <ele>121</ele>
        <time>2014-04-16T15:54:19Z</time>
      </trkpt>
      <trkpt lat="47.6201" lon="3.74153">
        <ele>121</ele>
        <time>2014-04-16T15:54:30Z</time>
      </trkpt>
      <trkpt lat="47.62006" lon="3.7416">
        <ele>121</ele>
        <time>2014-04-16T15:54:54Z</time>
      </trkpt>
      <trkpt lat="47.62004" lon="3.74157">
        <ele>121</ele>
        <time>2014-04-16T15:55:05Z</time>
      </trkpt>
      <trkpt lat="47.62" lon="3.74158">
        <ele>122</ele>
        <time>2014-04-16T15:55:15Z</time>
      </trkpt>
      <trkpt lat="47.61996" lon="3.74158">
        <ele>122</ele>
        <time>2014-04-16T15:55:23Z</time>
      </trkpt>
      <trkpt lat="47.61993" lon="3.74163">
        <ele>121</ele>
        <time>2014-04-16T15:55:52Z</time>
      </trkpt>
      <trkpt lat="47.61992" lon="3.74159">
        <ele>122</ele>
        <time>2014-04-16T15:56:06Z</time>
      </trkpt>
    </trkseg>
  </trk>
</gpx>